<?xml version="1.0" encoding="UTF-8" standalone="no" ?>
<gpx xmlns="http://www.topografix.com/GPX/1/1" xmlns:xsi="http://www.w3.org/2001/XMLSchema-instance" xsi:schemaLocation="http://www.topografix.com/GPX/1/1 http://www.topografix.com/GPX/1/1/gpx.xsd" version="1.1" creator="VisuGPX - https://www.visugpx.com">
  <metadata>
    <name>Raquette neige aux chalets d\'Allant</name>
    <desc><![CDATA[Belle randonnée pourniveau moyen à confirmé  , 700 mètres de D  . Départ de la commune de Jarsy (73630) au hameau du Coudray. La pente est bien prononcé tout le long avec néanmoins quelques passages plats pour récupérer. Le décors est sublime avec la vue sur le Colombier, la vallée d4arclusaz , le Mont de la Coche, l\\\'Encerclement. Possibilité de faire une boucle en redescendant par \\\"le replat\\\"
Radonnée www.outdoor-diots.blogspot.com ]]></desc>
  </metadata>
  <trk>
    <name><![CDATA[Raquette neige aux chalets d\'Allant_1]]></name>
    <trkseg>
      <trkpt lat="45.65129" lon="6.18892">
        <ele>971.06884765625</ele>
        <time>2012-01-21T06:58:10Z</time>
      </trkpt>
      <trkpt lat="45.65128" lon="6.18894">
        <ele>975.39477539062</ele>
        <time>2012-01-21T06:58:11Z</time>
      </trkpt>
      <trkpt lat="45.65128" lon="6.18896">
        <ele>978.75952148438</ele>
        <time>2012-01-21T06:58:12Z</time>
      </trkpt>
      <trkpt lat="45.65126" lon="6.18898">
        <ele>980.68212890625</ele>
        <time>2012-01-21T06:58:17Z</time>
      </trkpt>
      <trkpt lat="45.65126" lon="6.18899">
        <ele>980.68212890625</ele>
        <time>2012-01-21T06:58:20Z</time>
      </trkpt>
      <trkpt lat="45.65123" lon="6.18903">
        <ele>980.68212890625</ele>
        <time>2012-01-21T06:58:25Z</time>
      </trkpt>
      <trkpt lat="45.65121" lon="6.18905">
        <ele>979.23999023438</ele>
        <time>2012-01-21T06:58:29Z</time>
      </trkpt>
      <trkpt lat="45.65119" lon="6.18907">
        <ele>977.79809570312</ele>
        <time>2012-01-21T06:58:33Z</time>
      </trkpt>
      <trkpt lat="45.65118" lon="6.18911">
        <ele>977.79809570312</ele>
        <time>2012-01-21T06:58:39Z</time>
      </trkpt>
      <trkpt lat="45.65116" lon="6.18915">
        <ele>978.27880859375</ele>
        <time>2012-01-21T06:58:44Z</time>
      </trkpt>
      <trkpt lat="45.65115" lon="6.18918">
        <ele>979.23999023438</ele>
        <time>2012-01-21T06:58:49Z</time>
      </trkpt>
      <trkpt lat="45.65114" lon="6.1892">
        <ele>979.23999023438</ele>
        <time>2012-01-21T06:58:54Z</time>
      </trkpt>
      <trkpt lat="45.65114" lon="6.18925">
        <ele>979.720703125</ele>
        <time>2012-01-21T06:59:01Z</time>
      </trkpt>
      <trkpt lat="45.65114" lon="6.18928">
        <ele>982.1240234375</ele>
        <time>2012-01-21T06:59:06Z</time>
      </trkpt>
      <trkpt lat="45.65114" lon="6.18932">
        <ele>984.04663085938</ele>
        <time>2012-01-21T06:59:10Z</time>
      </trkpt>
      <trkpt lat="45.65113" lon="6.18936">
        <ele>985.96923828125</ele>
        <time>2012-01-21T06:59:16Z</time>
      </trkpt>
      <trkpt lat="45.65113" lon="6.18941">
        <ele>986.93041992188</ele>
        <time>2012-01-21T06:59:22Z</time>
      </trkpt>
      <trkpt lat="45.65113" lon="6.18944">
        <ele>987.4111328125</ele>
        <time>2012-01-21T06:59:27Z</time>
      </trkpt>
      <trkpt lat="45.65115" lon="6.18948">
        <ele>988.37280273438</ele>
        <time>2012-01-21T06:59:35Z</time>
      </trkpt>
      <trkpt lat="45.65115" lon="6.18951">
        <ele>988.853515625</ele>
        <time>2012-01-21T06:59:40Z</time>
      </trkpt>
      <trkpt lat="45.65118" lon="6.18955">
        <ele>989.81469726562</ele>
        <time>2012-01-21T06:59:47Z</time>
      </trkpt>
      <trkpt lat="45.65121" lon="6.18958">
        <ele>990.29541015625</ele>
        <time>2012-01-21T06:59:53Z</time>
      </trkpt>
      <trkpt lat="45.65123" lon="6.1896">
        <ele>990.77587890625</ele>
        <time>2012-01-21T06:59:58Z</time>
      </trkpt>
      <trkpt lat="45.65126" lon="6.18961">
        <ele>991.25659179688</ele>
        <time>2012-01-21T07:00:03Z</time>
      </trkpt>
      <trkpt lat="45.65128" lon="6.18963">
        <ele>992.21801757812</ele>
        <time>2012-01-21T07:00:08Z</time>
      </trkpt>
      <trkpt lat="45.65132" lon="6.18964">
        <ele>993.17919921875</ele>
        <time>2012-01-21T07:00:14Z</time>
      </trkpt>
      <trkpt lat="45.65135" lon="6.18966">
        <ele>993.65991210938</ele>
        <time>2012-01-21T07:00:19Z</time>
      </trkpt>
      <trkpt lat="45.65138" lon="6.18967">
        <ele>994.62109375</ele>
        <time>2012-01-21T07:00:24Z</time>
      </trkpt>
      <trkpt lat="45.65141" lon="6.18967">
        <ele>995.10180664062</ele>
        <time>2012-01-21T07:00:29Z</time>
      </trkpt>
      <trkpt lat="45.65144" lon="6.18968">
        <ele>995.58251953125</ele>
        <time>2012-01-21T07:00:34Z</time>
      </trkpt>
      <trkpt lat="45.65146" lon="6.18969">
        <ele>994.62109375</ele>
        <time>2012-01-21T07:00:38Z</time>
      </trkpt>
      <trkpt lat="45.65149" lon="6.1897">
        <ele>994.62109375</ele>
        <time>2012-01-21T07:00:44Z</time>
      </trkpt>
      <trkpt lat="45.65152" lon="6.18972">
        <ele>994.62109375</ele>
        <time>2012-01-21T07:00:50Z</time>
      </trkpt>
      <trkpt lat="45.65154" lon="6.18973">
        <ele>994.62109375</ele>
        <time>2012-01-21T07:00:55Z</time>
      </trkpt>
      <trkpt lat="45.65158" lon="6.18977">
        <ele>998.94702148438</ele>
        <time>2012-01-21T07:01:03Z</time>
      </trkpt>
      <trkpt lat="45.65158" lon="6.18978">
        <ele>1001.8310546875</ele>
        <time>2012-01-21T07:01:10Z</time>
      </trkpt>
      <trkpt lat="45.65157" lon="6.18979">
        <ele>1005.6765136719</ele>
        <time>2012-01-21T07:01:25Z</time>
      </trkpt>
      <trkpt lat="45.65157" lon="6.18981">
        <ele>1005.6765136719</ele>
        <time>2012-01-21T07:01:30Z</time>
      </trkpt>
      <trkpt lat="45.65157" lon="6.18982">
        <ele>1005.1958007812</ele>
        <time>2012-01-21T07:01:34Z</time>
      </trkpt>
      <trkpt lat="45.65157" lon="6.18982">
        <ele>1004.2346191406</ele>
        <time>2012-01-21T07:01:36Z</time>
      </trkpt>
      <trkpt lat="45.65157" lon="6.1898">
        <ele>1003.7536621094</ele>
        <time>2012-01-21T07:01:43Z</time>
      </trkpt>
      <trkpt lat="45.65158" lon="6.18978">
        <ele>1002.7922363281</ele>
        <time>2012-01-21T07:01:53Z</time>
      </trkpt>
      <trkpt lat="45.65159" lon="6.18979">
        <ele>1003.2729492188</ele>
        <time>2012-01-21T07:01:58Z</time>
      </trkpt>
      <trkpt lat="45.6516" lon="6.18977">
        <ele>1000.8696289062</ele>
        <time>2012-01-21T07:02:13Z</time>
      </trkpt>
      <trkpt lat="45.65158" lon="6.18981">
        <ele>1002.3115234375</ele>
        <time>2012-01-21T07:02:31Z</time>
      </trkpt>
      <trkpt lat="45.65158" lon="6.18983">
        <ele>1002.7922363281</ele>
        <time>2012-01-21T07:02:33Z</time>
      </trkpt>
      <trkpt lat="45.65158" lon="6.18987">
        <ele>1001.8310546875</ele>
        <time>2012-01-21T07:02:38Z</time>
      </trkpt>
      <trkpt lat="45.65158" lon="6.18989">
        <ele>1001.8310546875</ele>
        <time>2012-01-21T07:02:45Z</time>
      </trkpt>
      <trkpt lat="45.65159" lon="6.1899">
        <ele>1001.3503417969</ele>
        <time>2012-01-21T07:02:54Z</time>
      </trkpt>
      <trkpt lat="45.65159" lon="6.1899">
        <ele>1001.3503417969</ele>
        <time>2012-01-21T07:03:08Z</time>
      </trkpt>
      <trkpt lat="45.65156" lon="6.18985">
        <ele>999.427734375</ele>
        <time>2012-01-21T07:03:18Z</time>
      </trkpt>
      <trkpt lat="45.65157" lon="6.18988">
        <ele>1000.3891601562</ele>
        <time>2012-01-21T07:03:24Z</time>
      </trkpt>
      <trkpt lat="45.65158" lon="6.18989">
        <ele>1001.8310546875</ele>
        <time>2012-01-21T07:03:29Z</time>
      </trkpt>
      <trkpt lat="45.65157" lon="6.1899">
        <ele>1007.1184082031</ele>
        <time>2012-01-21T07:03:42Z</time>
      </trkpt>
      <trkpt lat="45.65154" lon="6.18994">
        <ele>1006.1569824219</ele>
        <time>2012-01-21T07:03:47Z</time>
      </trkpt>
      <trkpt lat="45.65152" lon="6.18998">
        <ele>1005.6765136719</ele>
        <time>2012-01-21T07:03:52Z</time>
      </trkpt>
      <trkpt lat="45.6515" lon="6.19001">
        <ele>1005.1958007812</ele>
        <time>2012-01-21T07:03:56Z</time>
      </trkpt>
      <trkpt lat="45.65148" lon="6.19005">
        <ele>1002.3115234375</ele>
        <time>2012-01-21T07:04:02Z</time>
      </trkpt>
      <trkpt lat="45.65145" lon="6.19006">
        <ele>999.90844726562</ele>
        <time>2012-01-21T07:04:06Z</time>
      </trkpt>
      <trkpt lat="45.65142" lon="6.19012">
        <ele>1001.3503417969</ele>
        <time>2012-01-21T07:04:14Z</time>
      </trkpt>
      <trkpt lat="45.65139" lon="6.19015">
        <ele>1001.3503417969</ele>
        <time>2012-01-21T07:04:21Z</time>
      </trkpt>
      <trkpt lat="45.65136" lon="6.19017">
        <ele>1001.3503417969</ele>
        <time>2012-01-21T07:04:26Z</time>
      </trkpt>
      <trkpt lat="45.65133" lon="6.19017">
        <ele>1002.7922363281</ele>
        <time>2012-01-21T07:04:32Z</time>
      </trkpt>
      <trkpt lat="45.65131" lon="6.19021">
        <ele>1011.4443359375</ele>
        <time>2012-01-21T07:04:42Z</time>
      </trkpt>
      <trkpt lat="45.65131" lon="6.1902">
        <ele>1010.4829101562</ele>
        <time>2012-01-21T07:04:46Z</time>
      </trkpt>
      <trkpt lat="45.6513" lon="6.19021">
        <ele>1011.4443359375</ele>
        <time>2012-01-21T07:04:54Z</time>
      </trkpt>
      <trkpt lat="45.65128" lon="6.19022">
        <ele>1011.4443359375</ele>
        <time>2012-01-21T07:05:00Z</time>
      </trkpt>
      <trkpt lat="45.65126" lon="6.19027">
        <ele>1010.0021972656</ele>
        <time>2012-01-21T07:05:07Z</time>
      </trkpt>
      <trkpt lat="45.65124" lon="6.19031">
        <ele>1009.041015625</ele>
        <time>2012-01-21T07:05:12Z</time>
      </trkpt>
      <trkpt lat="45.65123" lon="6.19034">
        <ele>1007.1184082031</ele>
        <time>2012-01-21T07:05:17Z</time>
      </trkpt>
      <trkpt lat="45.6512" lon="6.19037">
        <ele>1007.5991210938</ele>
        <time>2012-01-21T07:05:21Z</time>
      </trkpt>
      <trkpt lat="45.65119" lon="6.19039">
        <ele>1007.5991210938</ele>
        <time>2012-01-21T07:05:25Z</time>
      </trkpt>
      <trkpt lat="45.65117" lon="6.19041">
        <ele>1008.5603027344</ele>
        <time>2012-01-21T07:05:30Z</time>
      </trkpt>
      <trkpt lat="45.65114" lon="6.19044">
        <ele>1009.041015625</ele>
        <time>2012-01-21T07:05:37Z</time>
      </trkpt>
      <trkpt lat="45.65112" lon="6.19047">
        <ele>1009.041015625</ele>
        <time>2012-01-21T07:05:44Z</time>
      </trkpt>
      <trkpt lat="45.65109" lon="6.19049">
        <ele>1008.5603027344</ele>
        <time>2012-01-21T07:05:51Z</time>
      </trkpt>
      <trkpt lat="45.65107" lon="6.19051">
        <ele>1007.1184082031</ele>
        <time>2012-01-21T07:05:58Z</time>
      </trkpt>
      <trkpt lat="45.65104" lon="6.19055">
        <ele>1010.0021972656</ele>
        <time>2012-01-21T07:06:05Z</time>
      </trkpt>
      <trkpt lat="45.65102" lon="6.19057">
        <ele>1010.0021972656</ele>
        <time>2012-01-21T07:06:13Z</time>
      </trkpt>
      <trkpt lat="45.65099" lon="6.19062">
        <ele>1014.328125</ele>
        <time>2012-01-21T07:06:21Z</time>
      </trkpt>
      <trkpt lat="45.65096" lon="6.19066">
        <ele>1017.2121582031</ele>
        <time>2012-01-21T07:06:27Z</time>
      </trkpt>
      <trkpt lat="45.65094" lon="6.19068">
        <ele>1017.6926269531</ele>
        <time>2012-01-21T07:06:33Z</time>
      </trkpt>
      <trkpt lat="45.65092" lon="6.19071">
        <ele>1017.6926269531</ele>
        <time>2012-01-21T07:06:37Z</time>
      </trkpt>
      <trkpt lat="45.65091" lon="6.19073">
        <ele>1016.7314453125</ele>
        <time>2012-01-21T07:06:41Z</time>
      </trkpt>
      <trkpt lat="45.6509" lon="6.19077">
        <ele>1018.6540527344</ele>
        <time>2012-01-21T07:06:48Z</time>
      </trkpt>
      <trkpt lat="45.65088" lon="6.19081">
        <ele>1019.134765625</ele>
        <time>2012-01-21T07:06:53Z</time>
      </trkpt>
      <trkpt lat="45.65086" lon="6.19084">
        <ele>1020.5769042969</ele>
        <time>2012-01-21T07:06:58Z</time>
      </trkpt>
      <trkpt lat="45.65085" lon="6.19088">
        <ele>1021.0576171875</ele>
        <time>2012-01-21T07:07:03Z</time>
      </trkpt>
      <trkpt lat="45.65084" lon="6.19091">
        <ele>1021.5380859375</ele>
        <time>2012-01-21T07:07:07Z</time>
      </trkpt>
      <trkpt lat="45.65085" lon="6.19093">
        <ele>1023.4609375</ele>
        <time>2012-01-21T07:07:11Z</time>
      </trkpt>
      <trkpt lat="45.65083" lon="6.19095">
        <ele>1025.3833007812</ele>
        <time>2012-01-21T07:07:15Z</time>
      </trkpt>
      <trkpt lat="45.6508" lon="6.19098">
        <ele>1025.3833007812</ele>
        <time>2012-01-21T07:07:21Z</time>
      </trkpt>
      <trkpt lat="45.65078" lon="6.19103">
        <ele>1025.3833007812</ele>
        <time>2012-01-21T07:07:27Z</time>
      </trkpt>
      <trkpt lat="45.65076" lon="6.19106">
        <ele>1024.9028320312</ele>
        <time>2012-01-21T07:07:31Z</time>
      </trkpt>
      <trkpt lat="45.65073" lon="6.19106">
        <ele>1027.3061523438</ele>
        <time>2012-01-21T07:07:37Z</time>
      </trkpt>
      <trkpt lat="45.65071" lon="6.1911">
        <ele>1028.2673339844</ele>
        <time>2012-01-21T07:07:41Z</time>
      </trkpt>
      <trkpt lat="45.6507" lon="6.1911">
        <ele>1030.1899414062</ele>
        <time>2012-01-21T07:07:45Z</time>
      </trkpt>
      <trkpt lat="45.65068" lon="6.19112">
        <ele>1029.7092285156</ele>
        <time>2012-01-21T07:07:49Z</time>
      </trkpt>
      <trkpt lat="45.65066" lon="6.19115">
        <ele>1027.7866210938</ele>
        <time>2012-01-21T07:07:53Z</time>
      </trkpt>
      <trkpt lat="45.65063" lon="6.19118">
        <ele>1031.1513671875</ele>
        <time>2012-01-21T07:07:57Z</time>
      </trkpt>
      <trkpt lat="45.65061" lon="6.19119">
        <ele>1029.7092285156</ele>
        <time>2012-01-21T07:08:01Z</time>
      </trkpt>
      <trkpt lat="45.6506" lon="6.19122">
        <ele>1031.6318359375</ele>
        <time>2012-01-21T07:08:09Z</time>
      </trkpt>
      <trkpt lat="45.65058" lon="6.19123">
        <ele>1031.1513671875</ele>
        <time>2012-01-21T07:08:13Z</time>
      </trkpt>
      <trkpt lat="45.65054" lon="6.19124">
        <ele>1032.1125488281</ele>
        <time>2012-01-21T07:08:19Z</time>
      </trkpt>
      <trkpt lat="45.65054" lon="6.19123">
        <ele>1031.1513671875</ele>
        <time>2012-01-21T07:08:22Z</time>
      </trkpt>
      <trkpt lat="45.65051" lon="6.19125">
        <ele>1030.6706542969</ele>
        <time>2012-01-21T07:08:28Z</time>
      </trkpt>
      <trkpt lat="45.65049" lon="6.19126">
        <ele>1027.7866210938</ele>
        <time>2012-01-21T07:08:34Z</time>
      </trkpt>
      <trkpt lat="45.65045" lon="6.19129">
        <ele>1027.7866210938</ele>
        <time>2012-01-21T07:08:40Z</time>
      </trkpt>
      <trkpt lat="45.65042" lon="6.19131">
        <ele>1027.7866210938</ele>
        <time>2012-01-21T07:08:46Z</time>
      </trkpt>
      <trkpt lat="45.65041" lon="6.19131">
        <ele>1027.3061523438</ele>
        <time>2012-01-21T07:08:48Z</time>
      </trkpt>
      <trkpt lat="45.65037" lon="6.19136">
        <ele>1035.4770507812</ele>
        <time>2012-01-21T07:08:54Z</time>
      </trkpt>
      <trkpt lat="45.65036" lon="6.19137">
        <ele>1036.4387207031</ele>
        <time>2012-01-21T07:08:59Z</time>
      </trkpt>
      <trkpt lat="45.65033" lon="6.19141">
        <ele>1039.3225097656</ele>
        <time>2012-01-21T07:09:04Z</time>
      </trkpt>
      <trkpt lat="45.6503" lon="6.19143">
        <ele>1041.2451171875</ele>
        <time>2012-01-21T07:09:09Z</time>
      </trkpt>
      <trkpt lat="45.65028" lon="6.19143">
        <ele>1040.2839355469</ele>
        <time>2012-01-21T07:09:13Z</time>
      </trkpt>
      <trkpt lat="45.65026" lon="6.19145">
        <ele>1041.7258300781</ele>
        <time>2012-01-21T07:09:17Z</time>
      </trkpt>
      <trkpt lat="45.65024" lon="6.19147">
        <ele>1042.6872558594</ele>
        <time>2012-01-21T07:09:21Z</time>
      </trkpt>
      <trkpt lat="45.65022" lon="6.1915">
        <ele>1043.1677246094</ele>
        <time>2012-01-21T07:09:26Z</time>
      </trkpt>
      <trkpt lat="45.6502" lon="6.19155">
        <ele>1044.1291503906</ele>
        <time>2012-01-21T07:09:32Z</time>
      </trkpt>
      <trkpt lat="45.65018" lon="6.19158">
        <ele>1042.6872558594</ele>
        <time>2012-01-21T07:09:38Z</time>
      </trkpt>
      <trkpt lat="45.65017" lon="6.19162">
        <ele>1042.6872558594</ele>
        <time>2012-01-21T07:09:43Z</time>
      </trkpt>
      <trkpt lat="45.65017" lon="6.19166">
        <ele>1044.6096191406</ele>
        <time>2012-01-21T07:09:47Z</time>
      </trkpt>
      <trkpt lat="45.65017" lon="6.19169">
        <ele>1046.0517578125</ele>
        <time>2012-01-21T07:09:51Z</time>
      </trkpt>
      <trkpt lat="45.65016" lon="6.19173">
        <ele>1046.5324707031</ele>
        <time>2012-01-21T07:09:55Z</time>
      </trkpt>
      <trkpt lat="45.65015" lon="6.19175">
        <ele>1048.4548339844</ele>
        <time>2012-01-21T07:10:00Z</time>
      </trkpt>
      <trkpt lat="45.65011" lon="6.19172">
        <ele>1058.548828125</ele>
        <time>2012-01-21T07:10:11Z</time>
      </trkpt>
      <trkpt lat="45.65011" lon="6.19173">
        <ele>1060.4714355469</ele>
        <time>2012-01-21T07:10:22Z</time>
      </trkpt>
      <trkpt lat="45.65009" lon="6.19166">
        <ele>1065.7587890625</ele>
        <time>2012-01-21T07:10:29Z</time>
      </trkpt>
      <trkpt lat="45.65008" lon="6.19164">
        <ele>1065.7587890625</ele>
        <time>2012-01-21T07:10:32Z</time>
      </trkpt>
      <trkpt lat="45.65006" lon="6.19163">
        <ele>1067.6811523438</ele>
        <time>2012-01-21T07:10:35Z</time>
      </trkpt>
      <trkpt lat="45.65006" lon="6.19166">
        <ele>1072.96875</ele>
        <time>2012-01-21T07:10:43Z</time>
      </trkpt>
      <trkpt lat="45.65007" lon="6.19168">
        <ele>1076.3332519531</ele>
        <time>2012-01-21T07:10:51Z</time>
      </trkpt>
      <trkpt lat="45.65007" lon="6.19169">
        <ele>1076.3332519531</ele>
        <time>2012-01-21T07:10:52Z</time>
      </trkpt>
      <trkpt lat="45.6501" lon="6.19173">
        <ele>1073.4494628906</ele>
        <time>2012-01-21T07:10:58Z</time>
      </trkpt>
      <trkpt lat="45.65011" lon="6.19175">
        <ele>1071.5266113281</ele>
        <time>2012-01-21T07:11:07Z</time>
      </trkpt>
      <trkpt lat="45.65015" lon="6.19176">
        <ele>1063.35546875</ele>
        <time>2012-01-21T07:11:25Z</time>
      </trkpt>
      <trkpt lat="45.65014" lon="6.19173">
        <ele>1059.0295410156</ele>
        <time>2012-01-21T07:11:38Z</time>
      </trkpt>
      <trkpt lat="45.65012" lon="6.19177">
        <ele>1054.2231445312</ele>
        <time>2012-01-21T07:11:57Z</time>
      </trkpt>
      <trkpt lat="45.65009" lon="6.19178">
        <ele>1054.2231445312</ele>
        <time>2012-01-21T07:12:02Z</time>
      </trkpt>
      <trkpt lat="45.65005" lon="6.19178">
        <ele>1054.2231445312</ele>
        <time>2012-01-21T07:12:07Z</time>
      </trkpt>
      <trkpt lat="45.65003" lon="6.1918">
        <ele>1054.7036132812</ele>
        <time>2012-01-21T07:12:11Z</time>
      </trkpt>
      <trkpt lat="45.65002" lon="6.19181">
        <ele>1054.7036132812</ele>
        <time>2012-01-21T07:12:15Z</time>
      </trkpt>
      <trkpt lat="45.65002" lon="6.19182">
        <ele>1054.7036132812</ele>
        <time>2012-01-21T07:12:16Z</time>
      </trkpt>
      <trkpt lat="45.64999" lon="6.19173">
        <ele>1056.1455078125</ele>
        <time>2012-01-21T07:12:26Z</time>
      </trkpt>
      <trkpt lat="45.64998" lon="6.19178">
        <ele>1055.1843261719</ele>
        <time>2012-01-21T07:12:34Z</time>
      </trkpt>
      <trkpt lat="45.64997" lon="6.1918">
        <ele>1056.1455078125</ele>
        <time>2012-01-21T07:12:38Z</time>
      </trkpt>
      <trkpt lat="45.64993" lon="6.19185">
        <ele>1055.6650390625</ele>
        <time>2012-01-21T07:12:44Z</time>
      </trkpt>
      <trkpt lat="45.64991" lon="6.19186">
        <ele>1056.1455078125</ele>
        <time>2012-01-21T07:12:51Z</time>
      </trkpt>
      <trkpt lat="45.64988" lon="6.19188">
        <ele>1060.4714355469</ele>
        <time>2012-01-21T07:12:57Z</time>
      </trkpt>
      <trkpt lat="45.64986" lon="6.19187">
        <ele>1059.5102539062</ele>
        <time>2012-01-21T07:13:03Z</time>
      </trkpt>
      <trkpt lat="45.64985" lon="6.19193">
        <ele>1059.5102539062</ele>
        <time>2012-01-21T07:13:15Z</time>
      </trkpt>
      <trkpt lat="45.64984" lon="6.19192">
        <ele>1054.2231445312</ele>
        <time>2012-01-21T07:13:23Z</time>
      </trkpt>
      <trkpt lat="45.64984" lon="6.19196">
        <ele>1051.8195800781</ele>
        <time>2012-01-21T07:13:28Z</time>
      </trkpt>
      <trkpt lat="45.64983" lon="6.19201">
        <ele>1051.3388671875</ele>
        <time>2012-01-21T07:13:34Z</time>
      </trkpt>
      <trkpt lat="45.64981" lon="6.19203">
        <ele>1053.26171875</ele>
        <time>2012-01-21T07:13:39Z</time>
      </trkpt>
      <trkpt lat="45.64978" lon="6.19206">
        <ele>1058.548828125</ele>
        <time>2012-01-21T07:13:47Z</time>
      </trkpt>
      <trkpt lat="45.64976" lon="6.19207">
        <ele>1060.9521484375</ele>
        <time>2012-01-21T07:13:53Z</time>
      </trkpt>
      <trkpt lat="45.64974" lon="6.19212">
        <ele>1059.9907226562</ele>
        <time>2012-01-21T07:14:11Z</time>
      </trkpt>
      <trkpt lat="45.64975" lon="6.19212">
        <ele>1057.1069335938</ele>
        <time>2012-01-21T07:14:18Z</time>
      </trkpt>
      <trkpt lat="45.64975" lon="6.19211">
        <ele>1055.6650390625</ele>
        <time>2012-01-21T07:14:24Z</time>
      </trkpt>
      <trkpt lat="45.64975" lon="6.19211">
        <ele>1055.6650390625</ele>
        <time>2012-01-21T07:14:34Z</time>
      </trkpt>
      <trkpt lat="45.64975" lon="6.19212">
        <ele>1056.6262207031</ele>
        <time>2012-01-21T07:14:39Z</time>
      </trkpt>
      <trkpt lat="45.64975" lon="6.19211">
        <ele>1055.6650390625</ele>
        <time>2012-01-21T07:14:46Z</time>
      </trkpt>
      <trkpt lat="45.64975" lon="6.19209">
        <ele>1052.7810058594</ele>
        <time>2012-01-21T07:15:01Z</time>
      </trkpt>
      <trkpt lat="45.64975" lon="6.1921">
        <ele>1052.3002929688</ele>
        <time>2012-01-21T07:15:05Z</time>
      </trkpt>
      <trkpt lat="45.64975" lon="6.19211">
        <ele>1051.8195800781</ele>
        <time>2012-01-21T07:15:09Z</time>
      </trkpt>
      <trkpt lat="45.64975" lon="6.1921">
        <ele>1051.8195800781</ele>
        <time>2012-01-21T07:15:12Z</time>
      </trkpt>
      <trkpt lat="45.64975" lon="6.1921">
        <ele>1051.8195800781</ele>
        <time>2012-01-21T07:15:13Z</time>
      </trkpt>
      <trkpt lat="45.64976" lon="6.19211">
        <ele>1048.935546875</ele>
        <time>2012-01-21T07:15:21Z</time>
      </trkpt>
      <trkpt lat="45.64978" lon="6.19212">
        <ele>1050.8581542969</ele>
        <time>2012-01-21T07:15:30Z</time>
      </trkpt>
      <trkpt lat="45.64978" lon="6.19217">
        <ele>1048.935546875</ele>
        <time>2012-01-21T07:15:43Z</time>
      </trkpt>
      <trkpt lat="45.64977" lon="6.19214">
        <ele>1049.4162597656</ele>
        <time>2012-01-21T07:15:51Z</time>
      </trkpt>
      <trkpt lat="45.64975" lon="6.19213">
        <ele>1050.8581542969</ele>
        <time>2012-01-21T07:15:56Z</time>
      </trkpt>
      <trkpt lat="45.64973" lon="6.19213">
        <ele>1052.7810058594</ele>
        <time>2012-01-21T07:16:09Z</time>
      </trkpt>
      <trkpt lat="45.64973" lon="6.19217">
        <ele>1057.5876464844</ele>
        <time>2012-01-21T07:16:31Z</time>
      </trkpt>
      <trkpt lat="45.64973" lon="6.19217">
        <ele>1055.1843261719</ele>
        <time>2012-01-21T07:16:54Z</time>
      </trkpt>
      <trkpt lat="45.64975" lon="6.19214">
        <ele>1053.7424316406</ele>
        <time>2012-01-21T07:17:03Z</time>
      </trkpt>
      <trkpt lat="45.64975" lon="6.19208">
        <ele>1054.7036132812</ele>
        <time>2012-01-21T07:17:11Z</time>
      </trkpt>
      <trkpt lat="45.64975" lon="6.19209">
        <ele>1054.7036132812</ele>
        <time>2012-01-21T07:17:13Z</time>
      </trkpt>
      <trkpt lat="45.64976" lon="6.19211">
        <ele>1055.1843261719</ele>
        <time>2012-01-21T07:17:15Z</time>
      </trkpt>
      <trkpt lat="45.64976" lon="6.19212">
        <ele>1054.7036132812</ele>
        <time>2012-01-21T07:17:16Z</time>
      </trkpt>
      <trkpt lat="45.64975" lon="6.19215">
        <ele>1055.1843261719</ele>
        <time>2012-01-21T07:17:19Z</time>
      </trkpt>
      <trkpt lat="45.64975" lon="6.19216">
        <ele>1055.1843261719</ele>
        <time>2012-01-21T07:17:20Z</time>
      </trkpt>
      <trkpt lat="45.64974" lon="6.19218">
        <ele>1055.1843261719</ele>
        <time>2012-01-21T07:17:25Z</time>
      </trkpt>
      <trkpt lat="45.64974" lon="6.19219">
        <ele>1056.1455078125</ele>
        <time>2012-01-21T07:17:29Z</time>
      </trkpt>
      <trkpt lat="45.64974" lon="6.1922">
        <ele>1057.5876464844</ele>
        <time>2012-01-21T07:17:33Z</time>
      </trkpt>
      <trkpt lat="45.64973" lon="6.19222">
        <ele>1059.0295410156</ele>
        <time>2012-01-21T07:17:36Z</time>
      </trkpt>
      <trkpt lat="45.64975" lon="6.19225">
        <ele>1058.548828125</ele>
        <time>2012-01-21T07:17:40Z</time>
      </trkpt>
      <trkpt lat="45.64973" lon="6.19226">
        <ele>1055.6650390625</ele>
        <time>2012-01-21T07:17:46Z</time>
      </trkpt>
      <trkpt lat="45.64975" lon="6.19226">
        <ele>1052.3002929688</ele>
        <time>2012-01-21T07:17:54Z</time>
      </trkpt>
      <trkpt lat="45.64975" lon="6.19226">
        <ele>1052.7810058594</ele>
        <time>2012-01-21T07:18:05Z</time>
      </trkpt>
      <trkpt lat="45.64975" lon="6.19226">
        <ele>1051.3388671875</ele>
        <time>2012-01-21T07:18:13Z</time>
      </trkpt>
      <trkpt lat="45.64973" lon="6.1923">
        <ele>1053.7424316406</ele>
        <time>2012-01-21T07:18:18Z</time>
      </trkpt>
      <trkpt lat="45.64972" lon="6.19235">
        <ele>1054.7036132812</ele>
        <time>2012-01-21T07:18:24Z</time>
      </trkpt>
      <trkpt lat="45.64968" lon="6.19237">
        <ele>1058.068359375</ele>
        <time>2012-01-21T07:18:31Z</time>
      </trkpt>
      <trkpt lat="45.64967" lon="6.19237">
        <ele>1060.4714355469</ele>
        <time>2012-01-21T07:18:35Z</time>
      </trkpt>
      <trkpt lat="45.64961" lon="6.19233">
        <ele>1060.9521484375</ele>
        <time>2012-01-21T07:18:44Z</time>
      </trkpt>
      <trkpt lat="45.64962" lon="6.19241">
        <ele>1058.548828125</ele>
        <time>2012-01-21T07:18:49Z</time>
      </trkpt>
      <trkpt lat="45.64962" lon="6.19241">
        <ele>1060.9521484375</ele>
        <time>2012-01-21T07:18:54Z</time>
      </trkpt>
      <trkpt lat="45.64961" lon="6.19243">
        <ele>1062.3940429688</ele>
        <time>2012-01-21T07:18:58Z</time>
      </trkpt>
      <trkpt lat="45.6496" lon="6.19251">
        <ele>1067.6811523438</ele>
        <time>2012-01-21T07:19:09Z</time>
      </trkpt>
      <trkpt lat="45.64961" lon="6.19256">
        <ele>1066.7199707031</ele>
        <time>2012-01-21T07:19:14Z</time>
      </trkpt>
      <trkpt lat="45.6496" lon="6.1926">
        <ele>1064.3166503906</ele>
        <time>2012-01-21T07:19:20Z</time>
      </trkpt>
      <trkpt lat="45.64958" lon="6.19262">
        <ele>1063.8359375</ele>
        <time>2012-01-21T07:19:26Z</time>
      </trkpt>
      <trkpt lat="45.64955" lon="6.19262">
        <ele>1066.2392578125</ele>
        <time>2012-01-21T07:19:30Z</time>
      </trkpt>
      <trkpt lat="45.64953" lon="6.19264">
        <ele>1067.2006835938</ele>
        <time>2012-01-21T07:19:34Z</time>
      </trkpt>
      <trkpt lat="45.64951" lon="6.19267">
        <ele>1065.7587890625</ele>
        <time>2012-01-21T07:19:39Z</time>
      </trkpt>
      <trkpt lat="45.64952" lon="6.1927">
        <ele>1063.35546875</ele>
        <time>2012-01-21T07:19:43Z</time>
      </trkpt>
      <trkpt lat="45.64952" lon="6.1927">
        <ele>1062.8747558594</ele>
        <time>2012-01-21T07:19:45Z</time>
      </trkpt>
      <trkpt lat="45.64954" lon="6.19274">
        <ele>1065.2780761719</ele>
        <time>2012-01-21T07:19:54Z</time>
      </trkpt>
      <trkpt lat="45.64951" lon="6.19275">
        <ele>1072.4880371094</ele>
        <time>2012-01-21T07:20:03Z</time>
      </trkpt>
      <trkpt lat="45.64949" lon="6.19275">
        <ele>1073.9299316406</ele>
        <time>2012-01-21T07:20:08Z</time>
      </trkpt>
      <trkpt lat="45.64947" lon="6.19277">
        <ele>1072.4880371094</ele>
        <time>2012-01-21T07:20:13Z</time>
      </trkpt>
      <trkpt lat="45.64944" lon="6.19278">
        <ele>1072.4880371094</ele>
        <time>2012-01-21T07:20:17Z</time>
      </trkpt>
      <trkpt lat="45.64942" lon="6.1928">
        <ele>1072.0073242188</ele>
        <time>2012-01-21T07:20:22Z</time>
      </trkpt>
      <trkpt lat="45.64939" lon="6.19278">
        <ele>1076.8139648438</ele>
        <time>2012-01-21T07:20:30Z</time>
      </trkpt>
      <trkpt lat="45.64938" lon="6.19277">
        <ele>1075.8525390625</ele>
        <time>2012-01-21T07:20:38Z</time>
      </trkpt>
      <trkpt lat="45.64933" lon="6.19274">
        <ele>1082.5817871094</ele>
        <time>2012-01-21T07:20:57Z</time>
      </trkpt>
      <trkpt lat="45.64934" lon="6.19275">
        <ele>1078.7365722656</ele>
        <time>2012-01-21T07:21:03Z</time>
      </trkpt>
      <trkpt lat="45.64936" lon="6.19276">
        <ele>1074.8913574219</ele>
        <time>2012-01-21T07:21:08Z</time>
      </trkpt>
      <trkpt lat="45.6494" lon="6.19279">
        <ele>1066.2392578125</ele>
        <time>2012-01-21T07:21:20Z</time>
      </trkpt>
      <trkpt lat="45.64941" lon="6.1928">
        <ele>1066.2392578125</ele>
        <time>2012-01-21T07:21:25Z</time>
      </trkpt>
      <trkpt lat="45.64939" lon="6.19281">
        <ele>1072.4880371094</ele>
        <time>2012-01-21T07:21:34Z</time>
      </trkpt>
      <trkpt lat="45.64938" lon="6.19279">
        <ele>1077.2946777344</ele>
        <time>2012-01-21T07:21:59Z</time>
      </trkpt>
      <trkpt lat="45.6494" lon="6.19282">
        <ele>1072.96875</ele>
        <time>2012-01-21T07:22:06Z</time>
      </trkpt>
      <trkpt lat="45.64938" lon="6.19284">
        <ele>1072.4880371094</ele>
        <time>2012-01-21T07:22:10Z</time>
      </trkpt>
      <trkpt lat="45.64936" lon="6.19286">
        <ele>1072.4880371094</ele>
        <time>2012-01-21T07:22:15Z</time>
      </trkpt>
      <trkpt lat="45.64934" lon="6.19285">
        <ele>1073.9299316406</ele>
        <time>2012-01-21T07:22:20Z</time>
      </trkpt>
      <trkpt lat="45.6493" lon="6.19284">
        <ele>1077.7751464844</ele>
        <time>2012-01-21T07:22:37Z</time>
      </trkpt>
      <trkpt lat="45.64931" lon="6.19285">
        <ele>1076.3332519531</ele>
        <time>2012-01-21T07:22:43Z</time>
      </trkpt>
      <trkpt lat="45.64932" lon="6.19287">
        <ele>1074.8913574219</ele>
        <time>2012-01-21T07:22:52Z</time>
      </trkpt>
      <trkpt lat="45.64933" lon="6.19287">
        <ele>1072.96875</ele>
        <time>2012-01-21T07:23:07Z</time>
      </trkpt>
      <trkpt lat="45.64934" lon="6.19288">
        <ele>1071.5266113281</ele>
        <time>2012-01-21T07:23:14Z</time>
      </trkpt>
      <trkpt lat="45.64933" lon="6.19288">
        <ele>1071.5266113281</ele>
        <time>2012-01-21T07:23:18Z</time>
      </trkpt>
      <trkpt lat="45.64931" lon="6.1929">
        <ele>1072.4880371094</ele>
        <time>2012-01-21T07:23:25Z</time>
      </trkpt>
      <trkpt lat="45.64928" lon="6.19291">
        <ele>1074.8913574219</ele>
        <time>2012-01-21T07:23:31Z</time>
      </trkpt>
      <trkpt lat="45.64926" lon="6.19292">
        <ele>1077.7751464844</ele>
        <time>2012-01-21T07:23:36Z</time>
      </trkpt>
      <trkpt lat="45.64924" lon="6.19293">
        <ele>1078.7365722656</ele>
        <time>2012-01-21T07:23:40Z</time>
      </trkpt>
      <trkpt lat="45.64922" lon="6.19295">
        <ele>1078.7365722656</ele>
        <time>2012-01-21T07:23:44Z</time>
      </trkpt>
      <trkpt lat="45.6492" lon="6.19295">
        <ele>1079.2170410156</ele>
        <time>2012-01-21T07:23:48Z</time>
      </trkpt>
      <trkpt lat="45.6492" lon="6.19295">
        <ele>1078.7365722656</ele>
        <time>2012-01-21T07:23:54Z</time>
      </trkpt>
      <trkpt lat="45.64918" lon="6.19297">
        <ele>1077.7751464844</ele>
        <time>2012-01-21T07:24:00Z</time>
      </trkpt>
      <trkpt lat="45.64916" lon="6.19298">
        <ele>1078.255859375</ele>
        <time>2012-01-21T07:24:04Z</time>
      </trkpt>
      <trkpt lat="45.64914" lon="6.19299">
        <ele>1079.2170410156</ele>
        <time>2012-01-21T07:24:09Z</time>
      </trkpt>
      <trkpt lat="45.64914" lon="6.193">
        <ele>1076.3332519531</ele>
        <time>2012-01-21T07:24:18Z</time>
      </trkpt>
      <trkpt lat="45.64912" lon="6.19301">
        <ele>1076.3332519531</ele>
        <time>2012-01-21T07:24:23Z</time>
      </trkpt>
      <trkpt lat="45.64913" lon="6.193">
        <ele>1074.8913574219</ele>
        <time>2012-01-21T07:24:40Z</time>
      </trkpt>
      <trkpt lat="45.64911" lon="6.19301">
        <ele>1074.4106445312</ele>
        <time>2012-01-21T07:24:44Z</time>
      </trkpt>
      <trkpt lat="45.64911" lon="6.19302">
        <ele>1074.4106445312</ele>
        <time>2012-01-21T07:24:51Z</time>
      </trkpt>
      <trkpt lat="45.64907" lon="6.19301">
        <ele>1084.0239257812</ele>
        <time>2012-01-21T07:25:08Z</time>
      </trkpt>
      <trkpt lat="45.64908" lon="6.19301">
        <ele>1080.1784667969</ele>
        <time>2012-01-21T07:25:16Z</time>
      </trkpt>
      <trkpt lat="45.64909" lon="6.19302">
        <ele>1078.7365722656</ele>
        <time>2012-01-21T07:25:23Z</time>
      </trkpt>
      <trkpt lat="45.64909" lon="6.19301">
        <ele>1078.7365722656</ele>
        <time>2012-01-21T07:25:25Z</time>
      </trkpt>
      <trkpt lat="45.64914" lon="6.19305">
        <ele>1078.7365722656</ele>
        <time>2012-01-21T07:25:36Z</time>
      </trkpt>
      <trkpt lat="45.64912" lon="6.19304">
        <ele>1080.6591796875</ele>
        <time>2012-01-21T07:25:52Z</time>
      </trkpt>
      <trkpt lat="45.64911" lon="6.19304">
        <ele>1081.1398925781</ele>
        <time>2012-01-21T07:26:03Z</time>
      </trkpt>
      <trkpt lat="45.6491" lon="6.19304">
        <ele>1083.0622558594</ele>
        <time>2012-01-21T07:26:08Z</time>
      </trkpt>
      <trkpt lat="45.64909" lon="6.19304">
        <ele>1082.1010742188</ele>
        <time>2012-01-21T07:26:13Z</time>
      </trkpt>
      <trkpt lat="45.6491" lon="6.19304">
        <ele>1081.6203613281</ele>
        <time>2012-01-21T07:26:17Z</time>
      </trkpt>
      <trkpt lat="45.64909" lon="6.19303">
        <ele>1082.1010742188</ele>
        <time>2012-01-21T07:26:25Z</time>
      </trkpt>
      <trkpt lat="45.64907" lon="6.193">
        <ele>1084.5046386719</ele>
        <time>2012-01-21T07:26:34Z</time>
      </trkpt>
      <trkpt lat="45.64904" lon="6.193">
        <ele>1089.7917480469</ele>
        <time>2012-01-21T07:26:48Z</time>
      </trkpt>
      <trkpt lat="45.64903" lon="6.19302">
        <ele>1090.2724609375</ele>
        <time>2012-01-21T07:26:52Z</time>
      </trkpt>
      <trkpt lat="45.64902" lon="6.19298">
        <ele>1087.3884277344</ele>
        <time>2012-01-21T07:27:00Z</time>
      </trkpt>
      <trkpt lat="45.64901" lon="6.19302">
        <ele>1087.3884277344</ele>
        <time>2012-01-21T07:27:05Z</time>
      </trkpt>
      <trkpt lat="45.64899" lon="6.19305">
        <ele>1086.9077148438</ele>
        <time>2012-01-21T07:27:12Z</time>
      </trkpt>
      <trkpt lat="45.64898" lon="6.19307">
        <ele>1085.9465332031</ele>
        <time>2012-01-21T07:27:16Z</time>
      </trkpt>
      <trkpt lat="45.64897" lon="6.19308">
        <ele>1086.4272460938</ele>
        <time>2012-01-21T07:27:21Z</time>
      </trkpt>
      <trkpt lat="45.64896" lon="6.19308">
        <ele>1087.3884277344</ele>
        <time>2012-01-21T07:27:26Z</time>
      </trkpt>
      <trkpt lat="45.64894" lon="6.1931">
        <ele>1087.869140625</ele>
        <time>2012-01-21T07:27:30Z</time>
      </trkpt>
      <trkpt lat="45.64892" lon="6.19312">
        <ele>1085.9465332031</ele>
        <time>2012-01-21T07:27:32Z</time>
      </trkpt>
      <trkpt lat="45.64889" lon="6.19314">
        <ele>1084.5046386719</ele>
        <time>2012-01-21T07:27:37Z</time>
      </trkpt>
      <trkpt lat="45.64887" lon="6.19312">
        <ele>1087.3884277344</ele>
        <time>2012-01-21T07:27:41Z</time>
      </trkpt>
      <trkpt lat="45.64884" lon="6.19314">
        <ele>1088.8305664062</ele>
        <time>2012-01-21T07:27:47Z</time>
      </trkpt>
      <trkpt lat="45.64881" lon="6.19311">
        <ele>1090.7529296875</ele>
        <time>2012-01-21T07:27:53Z</time>
      </trkpt>
      <trkpt lat="45.64878" lon="6.19311">
        <ele>1094.1176757812</ele>
        <time>2012-01-21T07:27:59Z</time>
      </trkpt>
      <trkpt lat="45.64874" lon="6.19314">
        <ele>1094.5981445312</ele>
        <time>2012-01-21T07:28:08Z</time>
      </trkpt>
      <trkpt lat="45.64871" lon="6.19316">
        <ele>1095.0788574219</ele>
        <time>2012-01-21T07:28:13Z</time>
      </trkpt>
      <trkpt lat="45.64868" lon="6.19317">
        <ele>1096.5209960938</ele>
        <time>2012-01-21T07:28:18Z</time>
      </trkpt>
      <trkpt lat="45.64866" lon="6.1932">
        <ele>1097.4821777344</ele>
        <time>2012-01-21T07:28:22Z</time>
      </trkpt>
      <trkpt lat="45.64865" lon="6.19323">
        <ele>1099.4047851562</ele>
        <time>2012-01-21T07:28:27Z</time>
      </trkpt>
      <trkpt lat="45.64862" lon="6.19323">
        <ele>1100.8469238281</ele>
        <time>2012-01-21T07:28:32Z</time>
      </trkpt>
      <trkpt lat="45.64863" lon="6.19325">
        <ele>1097.962890625</ele>
        <time>2012-01-21T07:28:39Z</time>
      </trkpt>
      <trkpt lat="45.64858" lon="6.19325">
        <ele>1099.4047851562</ele>
        <time>2012-01-21T07:28:44Z</time>
      </trkpt>
      <trkpt lat="45.64855" lon="6.19324">
        <ele>1102.2888183594</ele>
        <time>2012-01-21T07:28:48Z</time>
      </trkpt>
      <trkpt lat="45.64852" lon="6.19324">
        <ele>1105.1728515625</ele>
        <time>2012-01-21T07:28:53Z</time>
      </trkpt>
      <trkpt lat="45.64849" lon="6.19324">
        <ele>1108.0568847656</ele>
        <time>2012-01-21T07:28:58Z</time>
      </trkpt>
      <trkpt lat="45.64846" lon="6.19324">
        <ele>1110.9406738281</ele>
        <time>2012-01-21T07:29:03Z</time>
      </trkpt>
      <trkpt lat="45.64843" lon="6.19323">
        <ele>1112.3825683594</ele>
        <time>2012-01-21T07:29:10Z</time>
      </trkpt>
      <trkpt lat="45.64841" lon="6.19321">
        <ele>1115.7473144531</ele>
        <time>2012-01-21T07:29:14Z</time>
      </trkpt>
      <trkpt lat="45.64839" lon="6.19318">
        <ele>1116.7087402344</ele>
        <time>2012-01-21T07:29:18Z</time>
      </trkpt>
      <trkpt lat="45.64836" lon="6.19317">
        <ele>1117.189453125</ele>
        <time>2012-01-21T07:29:23Z</time>
      </trkpt>
      <trkpt lat="45.64833" lon="6.19315">
        <ele>1117.669921875</ele>
        <time>2012-01-21T07:29:27Z</time>
      </trkpt>
      <trkpt lat="45.64832" lon="6.19316">
        <ele>1116.7087402344</ele>
        <time>2012-01-21T07:29:31Z</time>
      </trkpt>
      <trkpt lat="45.6483" lon="6.19317">
        <ele>1116.2280273438</ele>
        <time>2012-01-21T07:29:35Z</time>
      </trkpt>
      <trkpt lat="45.64828" lon="6.19315">
        <ele>1114.7858886719</ele>
        <time>2012-01-21T07:29:40Z</time>
      </trkpt>
      <trkpt lat="45.64825" lon="6.19315">
        <ele>1115.7473144531</ele>
        <time>2012-01-21T07:29:46Z</time>
      </trkpt>
      <trkpt lat="45.64823" lon="6.19317">
        <ele>1114.7858886719</ele>
        <time>2012-01-21T07:29:50Z</time>
      </trkpt>
      <trkpt lat="45.64821" lon="6.1932">
        <ele>1113.3439941406</ele>
        <time>2012-01-21T07:29:55Z</time>
      </trkpt>
      <trkpt lat="45.64818" lon="6.1932">
        <ele>1109.4987792969</ele>
        <time>2012-01-21T07:30:00Z</time>
      </trkpt>
      <trkpt lat="45.64816" lon="6.19315">
        <ele>1110.9406738281</ele>
        <time>2012-01-21T07:30:05Z</time>
      </trkpt>
      <trkpt lat="45.64813" lon="6.19315">
        <ele>1113.3439941406</ele>
        <time>2012-01-21T07:30:10Z</time>
      </trkpt>
      <trkpt lat="45.64811" lon="6.19314">
        <ele>1115.7473144531</ele>
        <time>2012-01-21T07:30:14Z</time>
      </trkpt>
      <trkpt lat="45.64808" lon="6.19313">
        <ele>1115.2666015625</ele>
        <time>2012-01-21T07:30:19Z</time>
      </trkpt>
      <trkpt lat="45.64806" lon="6.19311">
        <ele>1117.669921875</ele>
        <time>2012-01-21T07:30:30Z</time>
      </trkpt>
      <trkpt lat="45.64803" lon="6.19309">
        <ele>1117.669921875</ele>
        <time>2012-01-21T07:30:38Z</time>
      </trkpt>
      <trkpt lat="45.64803" lon="6.19311">
        <ele>1117.669921875</ele>
        <time>2012-01-21T07:30:40Z</time>
      </trkpt>
      <trkpt lat="45.64801" lon="6.19307">
        <ele>1121.0346679688</ele>
        <time>2012-01-21T07:30:46Z</time>
      </trkpt>
      <trkpt lat="45.64799" lon="6.19305">
        <ele>1121.0346679688</ele>
        <time>2012-01-21T07:30:52Z</time>
      </trkpt>
      <trkpt lat="45.648" lon="6.19307">
        <ele>1119.1120605469</ele>
        <time>2012-01-21T07:30:58Z</time>
      </trkpt>
      <trkpt lat="45.64798" lon="6.19305">
        <ele>1118.6313476562</ele>
        <time>2012-01-21T07:31:03Z</time>
      </trkpt>
      <trkpt lat="45.64797" lon="6.19305">
        <ele>1118.6313476562</ele>
        <time>2012-01-21T07:31:04Z</time>
      </trkpt>
      <trkpt lat="45.64793" lon="6.19301">
        <ele>1120.0732421875</ele>
        <time>2012-01-21T07:31:10Z</time>
      </trkpt>
      <trkpt lat="45.64791" lon="6.19301">
        <ele>1119.1120605469</ele>
        <time>2012-01-21T07:31:17Z</time>
      </trkpt>
      <trkpt lat="45.64789" lon="6.19299">
        <ele>1119.5927734375</ele>
        <time>2012-01-21T07:31:22Z</time>
      </trkpt>
      <trkpt lat="45.64786" lon="6.19294">
        <ele>1121.5151367188</ele>
        <time>2012-01-21T07:31:30Z</time>
      </trkpt>
      <trkpt lat="45.64786" lon="6.19297">
        <ele>1121.0346679688</ele>
        <time>2012-01-21T07:31:38Z</time>
      </trkpt>
      <trkpt lat="45.64786" lon="6.19297">
        <ele>1121.5151367188</ele>
        <time>2012-01-21T07:31:39Z</time>
      </trkpt>
      <trkpt lat="45.64786" lon="6.19293">
        <ele>1124.8798828125</ele>
        <time>2012-01-21T07:31:48Z</time>
      </trkpt>
      <trkpt lat="45.64786" lon="6.19291">
        <ele>1126.3217773438</ele>
        <time>2012-01-21T07:31:54Z</time>
      </trkpt>
      <trkpt lat="45.64785" lon="6.19288">
        <ele>1130.1669921875</ele>
        <time>2012-01-21T07:32:02Z</time>
      </trkpt>
      <trkpt lat="45.64785" lon="6.19288">
        <ele>1129.6862792969</ele>
        <time>2012-01-21T07:32:05Z</time>
      </trkpt>
      <trkpt lat="45.64785" lon="6.19293">
        <ele>1126.8024902344</ele>
        <time>2012-01-21T07:32:16Z</time>
      </trkpt>
      <trkpt lat="45.64783" lon="6.19295">
        <ele>1125.3603515625</ele>
        <time>2012-01-21T07:32:24Z</time>
      </trkpt>
      <trkpt lat="45.64781" lon="6.19291">
        <ele>1126.3217773438</ele>
        <time>2012-01-21T07:32:30Z</time>
      </trkpt>
      <trkpt lat="45.64779" lon="6.19289">
        <ele>1125.8410644531</ele>
        <time>2012-01-21T07:32:35Z</time>
      </trkpt>
      <trkpt lat="45.64777" lon="6.19287">
        <ele>1125.8410644531</ele>
        <time>2012-01-21T07:32:39Z</time>
      </trkpt>
      <trkpt lat="45.64775" lon="6.19285">
        <ele>1125.3603515625</ele>
        <time>2012-01-21T07:32:45Z</time>
      </trkpt>
      <trkpt lat="45.64771" lon="6.19283">
        <ele>1122.9572753906</ele>
        <time>2012-01-21T07:32:51Z</time>
      </trkpt>
      <trkpt lat="45.64767" lon="6.19283">
        <ele>1120.5539550781</ele>
        <time>2012-01-21T07:32:57Z</time>
      </trkpt>
      <trkpt lat="45.64767" lon="6.19282">
        <ele>1118.6313476562</ele>
        <time>2012-01-21T07:33:04Z</time>
      </trkpt>
      <trkpt lat="45.64769" lon="6.1928">
        <ele>1120.0732421875</ele>
        <time>2012-01-21T07:33:16Z</time>
      </trkpt>
      <trkpt lat="45.64767" lon="6.19279">
        <ele>1120.0732421875</ele>
        <time>2012-01-21T07:33:22Z</time>
      </trkpt>
      <trkpt lat="45.64769" lon="6.1928">
        <ele>1121.0346679688</ele>
        <time>2012-01-21T07:33:29Z</time>
      </trkpt>
      <trkpt lat="45.64768" lon="6.19281">
        <ele>1124.8798828125</ele>
        <time>2012-01-21T07:33:40Z</time>
      </trkpt>
      <trkpt lat="45.64767" lon="6.1928">
        <ele>1124.8798828125</ele>
        <time>2012-01-21T07:33:50Z</time>
      </trkpt>
      <trkpt lat="45.64768" lon="6.19281">
        <ele>1124.3991699219</ele>
        <time>2012-01-21T07:33:54Z</time>
      </trkpt>
      <trkpt lat="45.64768" lon="6.19279">
        <ele>1125.3603515625</ele>
        <time>2012-01-21T07:34:10Z</time>
      </trkpt>
      <trkpt lat="45.64768" lon="6.19281">
        <ele>1122.9572753906</ele>
        <time>2012-01-21T07:34:22Z</time>
      </trkpt>
      <trkpt lat="45.64768" lon="6.19282">
        <ele>1121.9958496094</ele>
        <time>2012-01-21T07:34:27Z</time>
      </trkpt>
      <trkpt lat="45.64766" lon="6.19283">
        <ele>1120.5539550781</ele>
        <time>2012-01-21T07:34:42Z</time>
      </trkpt>
      <trkpt lat="45.64764" lon="6.19282">
        <ele>1120.0732421875</ele>
        <time>2012-01-21T07:34:48Z</time>
      </trkpt>
      <trkpt lat="45.64761" lon="6.1928">
        <ele>1118.6313476562</ele>
        <time>2012-01-21T07:34:53Z</time>
      </trkpt>
      <trkpt lat="45.64758" lon="6.19279">
        <ele>1117.669921875</ele>
        <time>2012-01-21T07:35:00Z</time>
      </trkpt>
      <trkpt lat="45.64756" lon="6.19279">
        <ele>1116.7087402344</ele>
        <time>2012-01-21T07:35:07Z</time>
      </trkpt>
      <trkpt lat="45.64754" lon="6.19278">
        <ele>1117.669921875</ele>
        <time>2012-01-21T07:35:12Z</time>
      </trkpt>
      <trkpt lat="45.64751" lon="6.19279">
        <ele>1118.1506347656</ele>
        <time>2012-01-21T07:35:20Z</time>
      </trkpt>
      <trkpt lat="45.6475" lon="6.19278">
        <ele>1117.669921875</ele>
        <time>2012-01-21T07:35:27Z</time>
      </trkpt>
      <trkpt lat="45.6475" lon="6.19275">
        <ele>1118.1506347656</ele>
        <time>2012-01-21T07:35:37Z</time>
      </trkpt>
      <trkpt lat="45.64747" lon="6.19275">
        <ele>1118.1506347656</ele>
        <time>2012-01-21T07:35:54Z</time>
      </trkpt>
      <trkpt lat="45.64745" lon="6.19275">
        <ele>1119.1120605469</ele>
        <time>2012-01-21T07:35:58Z</time>
      </trkpt>
      <trkpt lat="45.64742" lon="6.19275">
        <ele>1118.6313476562</ele>
        <time>2012-01-21T07:36:03Z</time>
      </trkpt>
      <trkpt lat="45.6474" lon="6.19275">
        <ele>1117.189453125</ele>
        <time>2012-01-21T07:36:08Z</time>
      </trkpt>
      <trkpt lat="45.64737" lon="6.19275">
        <ele>1117.669921875</ele>
        <time>2012-01-21T07:36:13Z</time>
      </trkpt>
      <trkpt lat="45.64734" lon="6.19274">
        <ele>1117.669921875</ele>
        <time>2012-01-21T07:36:18Z</time>
      </trkpt>
      <trkpt lat="45.64732" lon="6.19275">
        <ele>1117.669921875</ele>
        <time>2012-01-21T07:36:23Z</time>
      </trkpt>
      <trkpt lat="45.64729" lon="6.19274">
        <ele>1118.6313476562</ele>
        <time>2012-01-21T07:36:28Z</time>
      </trkpt>
      <trkpt lat="45.64725" lon="6.19275">
        <ele>1119.5927734375</ele>
        <time>2012-01-21T07:36:35Z</time>
      </trkpt>
      <trkpt lat="45.64722" lon="6.19275">
        <ele>1119.1120605469</ele>
        <time>2012-01-21T07:36:41Z</time>
      </trkpt>
      <trkpt lat="45.64717" lon="6.19273">
        <ele>1120.5539550781</ele>
        <time>2012-01-21T07:36:46Z</time>
      </trkpt>
      <trkpt lat="45.64715" lon="6.19273">
        <ele>1121.5151367188</ele>
        <time>2012-01-21T07:36:50Z</time>
      </trkpt>
      <trkpt lat="45.64713" lon="6.19274">
        <ele>1121.0346679688</ele>
        <time>2012-01-21T07:36:55Z</time>
      </trkpt>
      <trkpt lat="45.64711" lon="6.19276">
        <ele>1121.0346679688</ele>
        <time>2012-01-21T07:37:00Z</time>
      </trkpt>
      <trkpt lat="45.64708" lon="6.19277">
        <ele>1121.9958496094</ele>
        <time>2012-01-21T07:37:06Z</time>
      </trkpt>
      <trkpt lat="45.64704" lon="6.19278">
        <ele>1123.4379882812</ele>
        <time>2012-01-21T07:37:12Z</time>
      </trkpt>
      <trkpt lat="45.64701" lon="6.19278">
        <ele>1124.8798828125</ele>
        <time>2012-01-21T07:37:17Z</time>
      </trkpt>
      <trkpt lat="45.647" lon="6.19278">
        <ele>1124.8798828125</ele>
        <time>2012-01-21T07:37:21Z</time>
      </trkpt>
      <trkpt lat="45.64695" lon="6.19279">
        <ele>1125.8410644531</ele>
        <time>2012-01-21T07:37:28Z</time>
      </trkpt>
      <trkpt lat="45.64693" lon="6.1928">
        <ele>1126.3217773438</ele>
        <time>2012-01-21T07:37:33Z</time>
      </trkpt>
      <trkpt lat="45.6469" lon="6.19281">
        <ele>1126.8024902344</ele>
        <time>2012-01-21T07:37:39Z</time>
      </trkpt>
      <trkpt lat="45.64688" lon="6.19282">
        <ele>1127.763671875</ele>
        <time>2012-01-21T07:37:43Z</time>
      </trkpt>
      <trkpt lat="45.64686" lon="6.19281">
        <ele>1130.1669921875</ele>
        <time>2012-01-21T07:37:48Z</time>
      </trkpt>
      <trkpt lat="45.64685" lon="6.19281">
        <ele>1132.08984375</ele>
        <time>2012-01-21T07:37:53Z</time>
      </trkpt>
      <trkpt lat="45.64683" lon="6.19284">
        <ele>1133.0510253906</ele>
        <time>2012-01-21T07:37:58Z</time>
      </trkpt>
      <trkpt lat="45.6468" lon="6.19285">
        <ele>1134.0124511719</ele>
        <time>2012-01-21T07:38:02Z</time>
      </trkpt>
      <trkpt lat="45.64679" lon="6.19287">
        <ele>1135.4543457031</ele>
        <time>2012-01-21T07:38:07Z</time>
      </trkpt>
      <trkpt lat="45.64677" lon="6.19289">
        <ele>1136.8962402344</ele>
        <time>2012-01-21T07:38:11Z</time>
      </trkpt>
      <trkpt lat="45.64674" lon="6.1929">
        <ele>1137.376953125</ele>
        <time>2012-01-21T07:38:16Z</time>
      </trkpt>
      <trkpt lat="45.64673" lon="6.19291">
        <ele>1136.8962402344</ele>
        <time>2012-01-21T07:38:20Z</time>
      </trkpt>
      <trkpt lat="45.64672" lon="6.19291">
        <ele>1137.376953125</ele>
        <time>2012-01-21T07:38:27Z</time>
      </trkpt>
      <trkpt lat="45.64673" lon="6.19293">
        <ele>1136.8962402344</ele>
        <time>2012-01-21T07:38:38Z</time>
      </trkpt>
      <trkpt lat="45.64674" lon="6.19294">
        <ele>1137.376953125</ele>
        <time>2012-01-21T07:38:45Z</time>
      </trkpt>
      <trkpt lat="45.64674" lon="6.19295">
        <ele>1139.2995605469</ele>
        <time>2012-01-21T07:38:54Z</time>
      </trkpt>
      <trkpt lat="45.64674" lon="6.19296">
        <ele>1139.7802734375</ele>
        <time>2012-01-21T07:38:59Z</time>
      </trkpt>
      <trkpt lat="45.64675" lon="6.19296">
        <ele>1140.2609863281</ele>
        <time>2012-01-21T07:39:10Z</time>
      </trkpt>
      <trkpt lat="45.64674" lon="6.19296">
        <ele>1140.2609863281</ele>
        <time>2012-01-21T07:39:15Z</time>
      </trkpt>
      <trkpt lat="45.64673" lon="6.19295">
        <ele>1139.7802734375</ele>
        <time>2012-01-21T07:39:20Z</time>
      </trkpt>
      <trkpt lat="45.64672" lon="6.19295">
        <ele>1139.7802734375</ele>
        <time>2012-01-21T07:39:23Z</time>
      </trkpt>
      <trkpt lat="45.64673" lon="6.19296">
        <ele>1139.2995605469</ele>
        <time>2012-01-21T07:39:28Z</time>
      </trkpt>
      <trkpt lat="45.64672" lon="6.19296">
        <ele>1138.3383789062</ele>
        <time>2012-01-21T07:39:33Z</time>
      </trkpt>
      <trkpt lat="45.64672" lon="6.19295">
        <ele>1138.3383789062</ele>
        <time>2012-01-21T07:39:38Z</time>
      </trkpt>
      <trkpt lat="45.64672" lon="6.19295">
        <ele>1137.8576660156</ele>
        <time>2012-01-21T07:39:42Z</time>
      </trkpt>
      <trkpt lat="45.64673" lon="6.19295">
        <ele>1138.3383789062</ele>
        <time>2012-01-21T07:39:55Z</time>
      </trkpt>
      <trkpt lat="45.64674" lon="6.19295">
        <ele>1137.8576660156</ele>
        <time>2012-01-21T07:40:19Z</time>
      </trkpt>
      <trkpt lat="45.64673" lon="6.19294">
        <ele>1138.8190917969</ele>
        <time>2012-01-21T07:40:25Z</time>
      </trkpt>
      <trkpt lat="45.64673" lon="6.19293">
        <ele>1139.7802734375</ele>
        <time>2012-01-21T07:40:33Z</time>
      </trkpt>
      <trkpt lat="45.64671" lon="6.19293">
        <ele>1137.8576660156</ele>
        <time>2012-01-21T07:40:56Z</time>
      </trkpt>
      <trkpt lat="45.64671" lon="6.19295">
        <ele>1137.376953125</ele>
        <time>2012-01-21T07:41:04Z</time>
      </trkpt>
      <trkpt lat="45.64671" lon="6.19297">
        <ele>1137.376953125</ele>
        <time>2012-01-21T07:41:15Z</time>
      </trkpt>
      <trkpt lat="45.6467" lon="6.19297">
        <ele>1136.4157714844</ele>
        <time>2012-01-21T07:41:32Z</time>
      </trkpt>
      <trkpt lat="45.6467" lon="6.19296">
        <ele>1136.4157714844</ele>
        <time>2012-01-21T07:41:38Z</time>
      </trkpt>
      <trkpt lat="45.6467" lon="6.19295">
        <ele>1136.8962402344</ele>
        <time>2012-01-21T07:41:41Z</time>
      </trkpt>
      <trkpt lat="45.64669" lon="6.19295">
        <ele>1137.376953125</ele>
        <time>2012-01-21T07:41:51Z</time>
      </trkpt>
      <trkpt lat="45.64669" lon="6.19294">
        <ele>1138.3383789062</ele>
        <time>2012-01-21T07:41:56Z</time>
      </trkpt>
      <trkpt lat="45.64669" lon="6.19297">
        <ele>1140.2609863281</ele>
        <time>2012-01-21T07:42:05Z</time>
      </trkpt>
      <trkpt lat="45.64666" lon="6.193">
        <ele>1140.2609863281</ele>
        <time>2012-01-21T07:42:10Z</time>
      </trkpt>
      <trkpt lat="45.64663" lon="6.19303">
        <ele>1139.7802734375</ele>
        <time>2012-01-21T07:42:16Z</time>
      </trkpt>
      <trkpt lat="45.64661" lon="6.19305">
        <ele>1139.7802734375</ele>
        <time>2012-01-21T07:42:21Z</time>
      </trkpt>
      <trkpt lat="45.64658" lon="6.19309">
        <ele>1140.7414550781</ele>
        <time>2012-01-21T07:42:26Z</time>
      </trkpt>
      <trkpt lat="45.64656" lon="6.1931">
        <ele>1141.2221679688</ele>
        <time>2012-01-21T07:42:32Z</time>
      </trkpt>
      <trkpt lat="45.64656" lon="6.1931">
        <ele>1141.2221679688</ele>
        <time>2012-01-21T07:42:38Z</time>
      </trkpt>
      <trkpt lat="45.64656" lon="6.1931">
        <ele>1141.7028808594</ele>
        <time>2012-01-21T07:42:53Z</time>
      </trkpt>
      <trkpt lat="45.64657" lon="6.19311">
        <ele>1140.7414550781</ele>
        <time>2012-01-21T07:43:06Z</time>
      </trkpt>
      <trkpt lat="45.64656" lon="6.19312">
        <ele>1141.7028808594</ele>
        <time>2012-01-21T07:43:18Z</time>
      </trkpt>
      <trkpt lat="45.64654" lon="6.19316">
        <ele>1141.7028808594</ele>
        <time>2012-01-21T07:43:23Z</time>
      </trkpt>
      <trkpt lat="45.64652" lon="6.19319">
        <ele>1142.18359375</ele>
        <time>2012-01-21T07:43:27Z</time>
      </trkpt>
      <trkpt lat="45.6465" lon="6.19325">
        <ele>1141.7028808594</ele>
        <time>2012-01-21T07:43:33Z</time>
      </trkpt>
      <trkpt lat="45.64649" lon="6.1933">
        <ele>1142.6643066406</ele>
        <time>2012-01-21T07:43:39Z</time>
      </trkpt>
      <trkpt lat="45.6465" lon="6.19329">
        <ele>1143.1447753906</ele>
        <time>2012-01-21T07:43:43Z</time>
      </trkpt>
      <trkpt lat="45.6465" lon="6.1933">
        <ele>1143.1447753906</ele>
        <time>2012-01-21T07:43:53Z</time>
      </trkpt>
      <trkpt lat="45.64651" lon="6.19331">
        <ele>1142.6643066406</ele>
        <time>2012-01-21T07:43:59Z</time>
      </trkpt>
      <trkpt lat="45.64651" lon="6.19338">
        <ele>1143.1447753906</ele>
        <time>2012-01-21T07:44:07Z</time>
      </trkpt>
      <trkpt lat="45.64655" lon="6.19346">
        <ele>1145.0673828125</ele>
        <time>2012-01-21T07:44:17Z</time>
      </trkpt>
      <trkpt lat="45.64657" lon="6.19351">
        <ele>1146.0288085938</ele>
        <time>2012-01-21T07:44:26Z</time>
      </trkpt>
      <trkpt lat="45.64659" lon="6.19353">
        <ele>1146.9899902344</ele>
        <time>2012-01-21T07:44:35Z</time>
      </trkpt>
      <trkpt lat="45.64661" lon="6.19357">
        <ele>1147.9514160156</ele>
        <time>2012-01-21T07:44:42Z</time>
      </trkpt>
      <trkpt lat="45.64661" lon="6.19357">
        <ele>1147.9514160156</ele>
        <time>2012-01-21T07:44:47Z</time>
      </trkpt>
      <trkpt lat="45.64661" lon="6.19357">
        <ele>1147.9514160156</ele>
        <time>2012-01-21T07:44:53Z</time>
      </trkpt>
      <trkpt lat="45.64661" lon="6.19357">
        <ele>1148.4321289062</ele>
        <time>2012-01-21T07:45:01Z</time>
      </trkpt>
      <trkpt lat="45.64662" lon="6.19358">
        <ele>1148.9128417969</ele>
        <time>2012-01-21T07:45:06Z</time>
      </trkpt>
      <trkpt lat="45.64663" lon="6.19359">
        <ele>1149.3935546875</ele>
        <time>2012-01-21T07:45:12Z</time>
      </trkpt>
      <trkpt lat="45.64666" lon="6.19363">
        <ele>1149.8742675781</ele>
        <time>2012-01-21T07:45:18Z</time>
      </trkpt>
      <trkpt lat="45.64668" lon="6.19367">
        <ele>1150.3549804688</ele>
        <time>2012-01-21T07:45:24Z</time>
      </trkpt>
      <trkpt lat="45.64669" lon="6.1937">
        <ele>1150.8354492188</ele>
        <time>2012-01-21T07:45:29Z</time>
      </trkpt>
      <trkpt lat="45.64673" lon="6.19373">
        <ele>1150.8354492188</ele>
        <time>2012-01-21T07:45:35Z</time>
      </trkpt>
      <trkpt lat="45.64675" lon="6.19376">
        <ele>1151.3161621094</ele>
        <time>2012-01-21T07:45:40Z</time>
      </trkpt>
      <trkpt lat="45.64677" lon="6.19379">
        <ele>1151.3161621094</ele>
        <time>2012-01-21T07:45:45Z</time>
      </trkpt>
      <trkpt lat="45.64679" lon="6.19384">
        <ele>1152.27734375</ele>
        <time>2012-01-21T07:45:51Z</time>
      </trkpt>
      <trkpt lat="45.64681" lon="6.19388">
        <ele>1153.2387695312</ele>
        <time>2012-01-21T07:45:57Z</time>
      </trkpt>
      <trkpt lat="45.64683" lon="6.19391">
        <ele>1153.7194824219</ele>
        <time>2012-01-21T07:46:03Z</time>
      </trkpt>
      <trkpt lat="45.64684" lon="6.19394">
        <ele>1154.2001953125</ele>
        <time>2012-01-21T07:46:08Z</time>
      </trkpt>
      <trkpt lat="45.64686" lon="6.194">
        <ele>1155.6420898438</ele>
        <time>2012-01-21T07:46:15Z</time>
      </trkpt>
      <trkpt lat="45.64687" lon="6.19404">
        <ele>1156.6032714844</ele>
        <time>2012-01-21T07:46:20Z</time>
      </trkpt>
      <trkpt lat="45.64687" lon="6.19408">
        <ele>1157.5646972656</ele>
        <time>2012-01-21T07:46:26Z</time>
      </trkpt>
      <trkpt lat="45.64688" lon="6.19412">
        <ele>1158.0454101562</ele>
        <time>2012-01-21T07:46:31Z</time>
      </trkpt>
      <trkpt lat="45.64688" lon="6.19416">
        <ele>1158.0454101562</ele>
        <time>2012-01-21T07:46:36Z</time>
      </trkpt>
      <trkpt lat="45.64688" lon="6.1942">
        <ele>1159.4873046875</ele>
        <time>2012-01-21T07:46:43Z</time>
      </trkpt>
      <trkpt lat="45.64689" lon="6.19423">
        <ele>1159.9677734375</ele>
        <time>2012-01-21T07:46:47Z</time>
      </trkpt>
      <trkpt lat="45.6469" lon="6.19426">
        <ele>1160.4484863281</ele>
        <time>2012-01-21T07:46:52Z</time>
      </trkpt>
      <trkpt lat="45.6469" lon="6.19428">
        <ele>1160.9291992188</ele>
        <time>2012-01-21T07:46:56Z</time>
      </trkpt>
      <trkpt lat="45.64691" lon="6.19433">
        <ele>1160.9291992188</ele>
        <time>2012-01-21T07:47:02Z</time>
      </trkpt>
      <trkpt lat="45.64692" lon="6.19435">
        <ele>1161.4099121094</ele>
        <time>2012-01-21T07:47:06Z</time>
      </trkpt>
      <trkpt lat="45.64692" lon="6.19438">
        <ele>1161.890625</ele>
        <time>2012-01-21T07:47:10Z</time>
      </trkpt>
      <trkpt lat="45.64693" lon="6.19441">
        <ele>1162.8518066406</ele>
        <time>2012-01-21T07:47:15Z</time>
      </trkpt>
      <trkpt lat="45.64695" lon="6.19443">
        <ele>1164.2939453125</ele>
        <time>2012-01-21T07:47:22Z</time>
      </trkpt>
      <trkpt lat="45.64693" lon="6.19442">
        <ele>1165.2553710938</ele>
        <time>2012-01-21T07:47:29Z</time>
      </trkpt>
      <trkpt lat="45.64694" lon="6.1944">
        <ele>1165.7360839844</ele>
        <time>2012-01-21T07:47:34Z</time>
      </trkpt>
      <trkpt lat="45.64694" lon="6.19439">
        <ele>1164.7746582031</ele>
        <time>2012-01-21T07:47:43Z</time>
      </trkpt>
      <trkpt lat="45.64694" lon="6.1944">
        <ele>1164.2939453125</ele>
        <time>2012-01-21T07:47:49Z</time>
      </trkpt>
      <trkpt lat="45.64694" lon="6.1944">
        <ele>1163.3325195312</ele>
        <time>2012-01-21T07:47:56Z</time>
      </trkpt>
      <trkpt lat="45.64694" lon="6.1944">
        <ele>1163.3325195312</ele>
        <time>2012-01-21T07:48:08Z</time>
      </trkpt>
      <trkpt lat="45.64694" lon="6.1944">
        <ele>1162.8518066406</ele>
        <time>2012-01-21T07:48:12Z</time>
      </trkpt>
      <trkpt lat="45.64693" lon="6.1944">
        <ele>1162.8518066406</ele>
        <time>2012-01-21T07:48:18Z</time>
      </trkpt>
      <trkpt lat="45.64693" lon="6.19441">
        <ele>1162.37109375</ele>
        <time>2012-01-21T07:48:32Z</time>
      </trkpt>
      <trkpt lat="45.64693" lon="6.19441">
        <ele>1162.8518066406</ele>
        <time>2012-01-21T07:48:40Z</time>
      </trkpt>
      <trkpt lat="45.64693" lon="6.19441">
        <ele>1162.8518066406</ele>
        <time>2012-01-21T07:48:47Z</time>
      </trkpt>
      <trkpt lat="45.64692" lon="6.19441">
        <ele>1163.8129882812</ele>
        <time>2012-01-21T07:48:58Z</time>
      </trkpt>
      <trkpt lat="45.64693" lon="6.1944">
        <ele>1164.7746582031</ele>
        <time>2012-01-21T07:49:03Z</time>
      </trkpt>
      <trkpt lat="45.64693" lon="6.19441">
        <ele>1164.7746582031</ele>
        <time>2012-01-21T07:49:09Z</time>
      </trkpt>
      <trkpt lat="45.64693" lon="6.19441">
        <ele>1164.2939453125</ele>
        <time>2012-01-21T07:49:14Z</time>
      </trkpt>
      <trkpt lat="45.64695" lon="6.19443">
        <ele>1164.2939453125</ele>
        <time>2012-01-21T07:49:18Z</time>
      </trkpt>
      <trkpt lat="45.64697" lon="6.19447">
        <ele>1164.7746582031</ele>
        <time>2012-01-21T07:49:25Z</time>
      </trkpt>
      <trkpt lat="45.64698" lon="6.19449">
        <ele>1165.2553710938</ele>
        <time>2012-01-21T07:49:30Z</time>
      </trkpt>
      <trkpt lat="45.64699" lon="6.19451">
        <ele>1166.2165527344</ele>
        <time>2012-01-21T07:49:34Z</time>
      </trkpt>
      <trkpt lat="45.64699" lon="6.19451">
        <ele>1165.7360839844</ele>
        <time>2012-01-21T07:49:39Z</time>
      </trkpt>
      <trkpt lat="45.647" lon="6.19451">
        <ele>1167.1779785156</ele>
        <time>2012-01-21T07:49:55Z</time>
      </trkpt>
      <trkpt lat="45.647" lon="6.19451">
        <ele>1167.6584472656</ele>
        <time>2012-01-21T07:50:07Z</time>
      </trkpt>
      <trkpt lat="45.64701" lon="6.19451">
        <ele>1168.6198730469</ele>
        <time>2012-01-21T07:50:16Z</time>
      </trkpt>
      <trkpt lat="45.64701" lon="6.19451">
        <ele>1168.6198730469</ele>
        <time>2012-01-21T07:50:19Z</time>
      </trkpt>
      <trkpt lat="45.647" lon="6.19451">
        <ele>1168.1391601562</ele>
        <time>2012-01-21T07:50:25Z</time>
      </trkpt>
      <trkpt lat="45.647" lon="6.19451">
        <ele>1167.6584472656</ele>
        <time>2012-01-21T07:50:30Z</time>
      </trkpt>
      <trkpt lat="45.647" lon="6.1945">
        <ele>1168.1391601562</ele>
        <time>2012-01-21T07:50:44Z</time>
      </trkpt>
      <trkpt lat="45.64701" lon="6.19451">
        <ele>1168.1391601562</ele>
        <time>2012-01-21T07:50:55Z</time>
      </trkpt>
      <trkpt lat="45.64702" lon="6.19452">
        <ele>1168.1391601562</ele>
        <time>2012-01-21T07:51:00Z</time>
      </trkpt>
      <trkpt lat="45.64705" lon="6.19456">
        <ele>1168.1391601562</ele>
        <time>2012-01-21T07:51:05Z</time>
      </trkpt>
      <trkpt lat="45.64708" lon="6.19459">
        <ele>1169.5812988281</ele>
        <time>2012-01-21T07:51:11Z</time>
      </trkpt>
      <trkpt lat="45.64711" lon="6.19462">
        <ele>1170.5424804688</ele>
        <time>2012-01-21T07:51:16Z</time>
      </trkpt>
      <trkpt lat="45.64713" lon="6.19465">
        <ele>1171.984375</ele>
        <time>2012-01-21T07:51:21Z</time>
      </trkpt>
      <trkpt lat="45.64714" lon="6.19467">
        <ele>1171.984375</ele>
        <time>2012-01-21T07:51:25Z</time>
      </trkpt>
      <trkpt lat="45.64716" lon="6.19471">
        <ele>1172.9458007812</ele>
        <time>2012-01-21T07:51:31Z</time>
      </trkpt>
      <trkpt lat="45.64719" lon="6.19475">
        <ele>1172.9458007812</ele>
        <time>2012-01-21T07:51:36Z</time>
      </trkpt>
      <trkpt lat="45.64721" lon="6.19479">
        <ele>1172.9458007812</ele>
        <time>2012-01-21T07:51:41Z</time>
      </trkpt>
      <trkpt lat="45.64723" lon="6.19483">
        <ele>1172.9458007812</ele>
        <time>2012-01-21T07:51:46Z</time>
      </trkpt>
      <trkpt lat="45.64725" lon="6.19485">
        <ele>1173.4265136719</ele>
        <time>2012-01-21T07:51:49Z</time>
      </trkpt>
      <trkpt lat="45.64725" lon="6.19485">
        <ele>1173.4265136719</ele>
        <time>2012-01-21T07:51:55Z</time>
      </trkpt>
      <trkpt lat="45.64725" lon="6.19485">
        <ele>1173.9069824219</ele>
        <time>2012-01-21T07:52:07Z</time>
      </trkpt>
      <trkpt lat="45.64725" lon="6.19485">
        <ele>1175.3488769531</ele>
        <time>2012-01-21T07:52:19Z</time>
      </trkpt>
      <trkpt lat="45.64725" lon="6.19485">
        <ele>1175.3488769531</ele>
        <time>2012-01-21T07:52:29Z</time>
      </trkpt>
      <trkpt lat="45.64725" lon="6.19484">
        <ele>1175.3488769531</ele>
        <time>2012-01-21T07:52:34Z</time>
      </trkpt>
      <trkpt lat="45.64725" lon="6.19483">
        <ele>1173.9069824219</ele>
        <time>2012-01-21T07:52:38Z</time>
      </trkpt>
      <trkpt lat="45.64724" lon="6.19484">
        <ele>1173.4265136719</ele>
        <time>2012-01-21T07:52:46Z</time>
      </trkpt>
      <trkpt lat="45.64723" lon="6.19484">
        <ele>1172.9458007812</ele>
        <time>2012-01-21T07:52:50Z</time>
      </trkpt>
      <trkpt lat="45.64723" lon="6.19483">
        <ele>1172.4650878906</ele>
        <time>2012-01-21T07:52:58Z</time>
      </trkpt>
      <trkpt lat="45.64723" lon="6.19483">
        <ele>1171.984375</ele>
        <time>2012-01-21T07:53:01Z</time>
      </trkpt>
      <trkpt lat="45.64725" lon="6.19486">
        <ele>1172.4650878906</ele>
        <time>2012-01-21T07:53:07Z</time>
      </trkpt>
      <trkpt lat="45.64726" lon="6.19491">
        <ele>1172.4650878906</ele>
        <time>2012-01-21T07:53:12Z</time>
      </trkpt>
      <trkpt lat="45.64728" lon="6.19495">
        <ele>1173.9069824219</ele>
        <time>2012-01-21T07:53:17Z</time>
      </trkpt>
      <trkpt lat="45.64728" lon="6.19497">
        <ele>1172.9458007812</ele>
        <time>2012-01-21T07:53:23Z</time>
      </trkpt>
      <trkpt lat="45.64727" lon="6.19496">
        <ele>1172.4650878906</ele>
        <time>2012-01-21T07:53:29Z</time>
      </trkpt>
      <trkpt lat="45.64727" lon="6.19495">
        <ele>1171.984375</ele>
        <time>2012-01-21T07:53:39Z</time>
      </trkpt>
      <trkpt lat="45.64727" lon="6.19496">
        <ele>1173.4265136719</ele>
        <time>2012-01-21T07:53:54Z</time>
      </trkpt>
      <trkpt lat="45.64726" lon="6.19497">
        <ele>1172.9458007812</ele>
        <time>2012-01-21T07:54:01Z</time>
      </trkpt>
      <trkpt lat="45.64726" lon="6.19497">
        <ele>1172.9458007812</ele>
        <time>2012-01-21T07:54:04Z</time>
      </trkpt>
      <trkpt lat="45.64727" lon="6.19497">
        <ele>1172.4650878906</ele>
        <time>2012-01-21T07:54:06Z</time>
      </trkpt>
      <trkpt lat="45.64727" lon="6.19497">
        <ele>1172.4650878906</ele>
        <time>2012-01-21T07:54:07Z</time>
      </trkpt>
      <trkpt lat="45.64728" lon="6.195">
        <ele>1172.9458007812</ele>
        <time>2012-01-21T07:54:17Z</time>
      </trkpt>
      <trkpt lat="45.64727" lon="6.19501">
        <ele>1172.9458007812</ele>
        <time>2012-01-21T07:54:21Z</time>
      </trkpt>
      <trkpt lat="45.64727" lon="6.19501">
        <ele>1173.9069824219</ele>
        <time>2012-01-21T07:54:25Z</time>
      </trkpt>
      <trkpt lat="45.64728" lon="6.19505">
        <ele>1174.3876953125</ele>
        <time>2012-01-21T07:54:42Z</time>
      </trkpt>
      <trkpt lat="45.64729" lon="6.19509">
        <ele>1174.8684082031</ele>
        <time>2012-01-21T07:54:47Z</time>
      </trkpt>
      <trkpt lat="45.64729" lon="6.19512">
        <ele>1174.8684082031</ele>
        <time>2012-01-21T07:54:52Z</time>
      </trkpt>
      <trkpt lat="45.64728" lon="6.19509">
        <ele>1176.3103027344</ele>
        <time>2012-01-21T07:55:01Z</time>
      </trkpt>
      <trkpt lat="45.64728" lon="6.19506">
        <ele>1175.8295898438</ele>
        <time>2012-01-21T07:55:06Z</time>
      </trkpt>
      <trkpt lat="45.64728" lon="6.19506">
        <ele>1176.3103027344</ele>
        <time>2012-01-21T07:55:10Z</time>
      </trkpt>
      <trkpt lat="45.64728" lon="6.19506">
        <ele>1176.3103027344</ele>
        <time>2012-01-21T07:55:12Z</time>
      </trkpt>
      <trkpt lat="45.64728" lon="6.19506">
        <ele>1176.3103027344</ele>
        <time>2012-01-21T07:55:13Z</time>
      </trkpt>
      <trkpt lat="45.64728" lon="6.19506">
        <ele>1176.3103027344</ele>
        <time>2012-01-21T07:55:14Z</time>
      </trkpt>
      <trkpt lat="45.64728" lon="6.19507">
        <ele>1176.791015625</ele>
        <time>2012-01-21T07:55:19Z</time>
      </trkpt>
      <trkpt lat="45.64729" lon="6.19508">
        <ele>1176.791015625</ele>
        <time>2012-01-21T07:55:22Z</time>
      </trkpt>
      <trkpt lat="45.6473" lon="6.19508">
        <ele>1177.2717285156</ele>
        <time>2012-01-21T07:55:23Z</time>
      </trkpt>
      <trkpt lat="45.6473" lon="6.19508">
        <ele>1177.7521972656</ele>
        <time>2012-01-21T07:55:24Z</time>
      </trkpt>
      <trkpt lat="45.6473" lon="6.19509">
        <ele>1178.2329101562</ele>
        <time>2012-01-21T07:55:30Z</time>
      </trkpt>
      <trkpt lat="45.64733" lon="6.19514">
        <ele>1179.1940917969</ele>
        <time>2012-01-21T07:55:36Z</time>
      </trkpt>
      <trkpt lat="45.64734" lon="6.19518">
        <ele>1179.6748046875</ele>
        <time>2012-01-21T07:55:41Z</time>
      </trkpt>
      <trkpt lat="45.64736" lon="6.19522">
        <ele>1180.6364746094</ele>
        <time>2012-01-21T07:55:47Z</time>
      </trkpt>
      <trkpt lat="45.64737" lon="6.19525">
        <ele>1180.6364746094</ele>
        <time>2012-01-21T07:55:51Z</time>
      </trkpt>
      <trkpt lat="45.64737" lon="6.19527">
        <ele>1180.6364746094</ele>
        <time>2012-01-21T07:55:54Z</time>
      </trkpt>
      <trkpt lat="45.64738" lon="6.19528">
        <ele>1179.6748046875</ele>
        <time>2012-01-21T07:56:03Z</time>
      </trkpt>
      <trkpt lat="45.6474" lon="6.19533">
        <ele>1180.1557617188</ele>
        <time>2012-01-21T07:56:08Z</time>
      </trkpt>
      <trkpt lat="45.6474" lon="6.19537">
        <ele>1181.1171875</ele>
        <time>2012-01-21T07:56:12Z</time>
      </trkpt>
      <trkpt lat="45.6474" lon="6.1954">
        <ele>1181.59765625</ele>
        <time>2012-01-21T07:56:18Z</time>
      </trkpt>
      <trkpt lat="45.64741" lon="6.19544">
        <ele>1182.0783691406</ele>
        <time>2012-01-21T07:56:25Z</time>
      </trkpt>
      <trkpt lat="45.64742" lon="6.19548">
        <ele>1183.0395507812</ele>
        <time>2012-01-21T07:56:31Z</time>
      </trkpt>
      <trkpt lat="45.64743" lon="6.19553">
        <ele>1183.5202636719</ele>
        <time>2012-01-21T07:56:37Z</time>
      </trkpt>
      <trkpt lat="45.64744" lon="6.19557">
        <ele>1184.9624023438</ele>
        <time>2012-01-21T07:56:42Z</time>
      </trkpt>
      <trkpt lat="45.64745" lon="6.19561">
        <ele>1184.9624023438</ele>
        <time>2012-01-21T07:56:47Z</time>
      </trkpt>
      <trkpt lat="45.64745" lon="6.19566">
        <ele>1185.4428710938</ele>
        <time>2012-01-21T07:56:53Z</time>
      </trkpt>
      <trkpt lat="45.64745" lon="6.19569">
        <ele>1185.9235839844</ele>
        <time>2012-01-21T07:56:57Z</time>
      </trkpt>
      <trkpt lat="45.64746" lon="6.19572">
        <ele>1186.404296875</ele>
        <time>2012-01-21T07:57:01Z</time>
      </trkpt>
      <trkpt lat="45.64747" lon="6.19575">
        <ele>1186.404296875</ele>
        <time>2012-01-21T07:57:06Z</time>
      </trkpt>
      <trkpt lat="45.64747" lon="6.19578">
        <ele>1187.3654785156</ele>
        <time>2012-01-21T07:57:11Z</time>
      </trkpt>
      <trkpt lat="45.64747" lon="6.1958">
        <ele>1189.2880859375</ele>
        <time>2012-01-21T07:57:16Z</time>
      </trkpt>
      <trkpt lat="45.64748" lon="6.19583">
        <ele>1189.2880859375</ele>
        <time>2012-01-21T07:57:21Z</time>
      </trkpt>
      <trkpt lat="45.64748" lon="6.19587">
        <ele>1189.2880859375</ele>
        <time>2012-01-21T07:57:27Z</time>
      </trkpt>
      <trkpt lat="45.64749" lon="6.19589">
        <ele>1190.2495117188</ele>
        <time>2012-01-21T07:57:31Z</time>
      </trkpt>
      <trkpt lat="45.6475" lon="6.19591">
        <ele>1190.2495117188</ele>
        <time>2012-01-21T07:57:35Z</time>
      </trkpt>
      <trkpt lat="45.6475" lon="6.19591">
        <ele>1189.2880859375</ele>
        <time>2012-01-21T07:57:48Z</time>
      </trkpt>
      <trkpt lat="45.6475" lon="6.19592">
        <ele>1188.8076171875</ele>
        <time>2012-01-21T07:57:57Z</time>
      </trkpt>
      <trkpt lat="45.6475" lon="6.19595">
        <ele>1189.2880859375</ele>
        <time>2012-01-21T07:58:01Z</time>
      </trkpt>
      <trkpt lat="45.64751" lon="6.19596">
        <ele>1189.7687988281</ele>
        <time>2012-01-21T07:58:03Z</time>
      </trkpt>
      <trkpt lat="45.64751" lon="6.19597">
        <ele>1190.2495117188</ele>
        <time>2012-01-21T07:58:04Z</time>
      </trkpt>
      <trkpt lat="45.64751" lon="6.19599">
        <ele>1190.7299804688</ele>
        <time>2012-01-21T07:58:09Z</time>
      </trkpt>
      <trkpt lat="45.64752" lon="6.19604">
        <ele>1191.2106933594</ele>
        <time>2012-01-21T07:58:14Z</time>
      </trkpt>
      <trkpt lat="45.64753" lon="6.19606">
        <ele>1191.69140625</ele>
        <time>2012-01-21T07:58:18Z</time>
      </trkpt>
      <trkpt lat="45.64753" lon="6.19608">
        <ele>1193.1333007812</ele>
        <time>2012-01-21T07:58:23Z</time>
      </trkpt>
      <trkpt lat="45.64754" lon="6.19612">
        <ele>1193.6140136719</ele>
        <time>2012-01-21T07:58:28Z</time>
      </trkpt>
      <trkpt lat="45.64754" lon="6.19616">
        <ele>1194.0947265625</ele>
        <time>2012-01-21T07:58:33Z</time>
      </trkpt>
      <trkpt lat="45.64754" lon="6.1962">
        <ele>1195.5366210938</ele>
        <time>2012-01-21T07:58:38Z</time>
      </trkpt>
      <trkpt lat="45.64754" lon="6.19622">
        <ele>1196.017578125</ele>
        <time>2012-01-21T07:58:44Z</time>
      </trkpt>
      <trkpt lat="45.64754" lon="6.19626">
        <ele>1196.017578125</ele>
        <time>2012-01-21T07:58:53Z</time>
      </trkpt>
      <trkpt lat="45.64755" lon="6.19629">
        <ele>1196.4982910156</ele>
        <time>2012-01-21T07:58:57Z</time>
      </trkpt>
      <trkpt lat="45.64755" lon="6.19633">
        <ele>1197.4594726562</ele>
        <time>2012-01-21T07:59:02Z</time>
      </trkpt>
      <trkpt lat="45.64755" lon="6.19637">
        <ele>1197.9401855469</ele>
        <time>2012-01-21T07:59:08Z</time>
      </trkpt>
      <trkpt lat="45.64756" lon="6.1964">
        <ele>1198.9013671875</ele>
        <time>2012-01-21T07:59:12Z</time>
      </trkpt>
      <trkpt lat="45.64757" lon="6.19646">
        <ele>1198.9013671875</ele>
        <time>2012-01-21T07:59:19Z</time>
      </trkpt>
      <trkpt lat="45.64757" lon="6.19648">
        <ele>1199.3820800781</ele>
        <time>2012-01-21T07:59:23Z</time>
      </trkpt>
      <trkpt lat="45.64758" lon="6.19652">
        <ele>1199.8627929688</ele>
        <time>2012-01-21T07:59:28Z</time>
      </trkpt>
      <trkpt lat="45.64758" lon="6.19656">
        <ele>1200.3435058594</ele>
        <time>2012-01-21T07:59:33Z</time>
      </trkpt>
      <trkpt lat="45.64759" lon="6.19659">
        <ele>1201.3046875</ele>
        <time>2012-01-21T07:59:38Z</time>
      </trkpt>
      <trkpt lat="45.6476" lon="6.19663">
        <ele>1201.7854003906</ele>
        <time>2012-01-21T07:59:43Z</time>
      </trkpt>
      <trkpt lat="45.64761" lon="6.19665">
        <ele>1201.7854003906</ele>
        <time>2012-01-21T07:59:47Z</time>
      </trkpt>
      <trkpt lat="45.64761" lon="6.19668">
        <ele>1202.7465820312</ele>
        <time>2012-01-21T07:59:52Z</time>
      </trkpt>
      <trkpt lat="45.64762" lon="6.1967">
        <ele>1204.1887207031</ele>
        <time>2012-01-21T07:59:56Z</time>
      </trkpt>
      <trkpt lat="45.64764" lon="6.19673">
        <ele>1204.6691894531</ele>
        <time>2012-01-21T08:00:00Z</time>
      </trkpt>
      <trkpt lat="45.64765" lon="6.19675">
        <ele>1205.6306152344</ele>
        <time>2012-01-21T08:00:05Z</time>
      </trkpt>
      <trkpt lat="45.64766" lon="6.19678">
        <ele>1206.591796875</ele>
        <time>2012-01-21T08:00:10Z</time>
      </trkpt>
      <trkpt lat="45.64767" lon="6.19681">
        <ele>1206.591796875</ele>
        <time>2012-01-21T08:00:15Z</time>
      </trkpt>
      <trkpt lat="45.64768" lon="6.19683">
        <ele>1207.5532226562</ele>
        <time>2012-01-21T08:00:19Z</time>
      </trkpt>
      <trkpt lat="45.64769" lon="6.19684">
        <ele>1208.0339355469</ele>
        <time>2012-01-21T08:00:26Z</time>
      </trkpt>
      <trkpt lat="45.6477" lon="6.19687">
        <ele>1208.5144042969</ele>
        <time>2012-01-21T08:00:32Z</time>
      </trkpt>
      <trkpt lat="45.6477" lon="6.19688">
        <ele>1208.0339355469</ele>
        <time>2012-01-21T08:00:38Z</time>
      </trkpt>
      <trkpt lat="45.64772" lon="6.19691">
        <ele>1207.5532226562</ele>
        <time>2012-01-21T08:00:43Z</time>
      </trkpt>
      <trkpt lat="45.64772" lon="6.19691">
        <ele>1208.0339355469</ele>
        <time>2012-01-21T08:00:50Z</time>
      </trkpt>
      <trkpt lat="45.64775" lon="6.19695">
        <ele>1208.5144042969</ele>
        <time>2012-01-21T08:00:56Z</time>
      </trkpt>
      <trkpt lat="45.64776" lon="6.19698">
        <ele>1208.9951171875</ele>
        <time>2012-01-21T08:01:01Z</time>
      </trkpt>
      <trkpt lat="45.64778" lon="6.19701">
        <ele>1209.9562988281</ele>
        <time>2012-01-21T08:01:06Z</time>
      </trkpt>
      <trkpt lat="45.64779" lon="6.19703">
        <ele>1209.9562988281</ele>
        <time>2012-01-21T08:01:10Z</time>
      </trkpt>
      <trkpt lat="45.6478" lon="6.19705">
        <ele>1209.9562988281</ele>
        <time>2012-01-21T08:01:14Z</time>
      </trkpt>
      <trkpt lat="45.64783" lon="6.19707">
        <ele>1209.4758300781</ele>
        <time>2012-01-21T08:01:19Z</time>
      </trkpt>
      <trkpt lat="45.64785" lon="6.1971">
        <ele>1209.9562988281</ele>
        <time>2012-01-21T08:01:24Z</time>
      </trkpt>
      <trkpt lat="45.64787" lon="6.19711">
        <ele>1210.4370117188</ele>
        <time>2012-01-21T08:01:28Z</time>
      </trkpt>
      <trkpt lat="45.64788" lon="6.19713">
        <ele>1210.4370117188</ele>
        <time>2012-01-21T08:01:43Z</time>
      </trkpt>
      <trkpt lat="45.6479" lon="6.19715">
        <ele>1210.4370117188</ele>
        <time>2012-01-21T08:01:47Z</time>
      </trkpt>
      <trkpt lat="45.64791" lon="6.19718">
        <ele>1212.3598632812</ele>
        <time>2012-01-21T08:01:52Z</time>
      </trkpt>
      <trkpt lat="45.64793" lon="6.19722">
        <ele>1213.8017578125</ele>
        <time>2012-01-21T08:01:57Z</time>
      </trkpt>
      <trkpt lat="45.64796" lon="6.19725">
        <ele>1216.205078125</ele>
        <time>2012-01-21T08:02:02Z</time>
      </trkpt>
      <trkpt lat="45.648" lon="6.19728">
        <ele>1215.724609375</ele>
        <time>2012-01-21T08:02:09Z</time>
      </trkpt>
      <trkpt lat="45.64803" lon="6.19731">
        <ele>1214.2824707031</ele>
        <time>2012-01-21T08:02:15Z</time>
      </trkpt>
      <trkpt lat="45.64804" lon="6.1973">
        <ele>1213.8017578125</ele>
        <time>2012-01-21T08:02:23Z</time>
      </trkpt>
      <trkpt lat="45.64805" lon="6.19735">
        <ele>1212.8405761719</ele>
        <time>2012-01-21T08:02:29Z</time>
      </trkpt>
      <trkpt lat="45.64808" lon="6.19739">
        <ele>1213.8017578125</ele>
        <time>2012-01-21T08:02:34Z</time>
      </trkpt>
      <trkpt lat="45.64811" lon="6.19743">
        <ele>1213.3212890625</ele>
        <time>2012-01-21T08:02:40Z</time>
      </trkpt>
      <trkpt lat="45.64813" lon="6.19747">
        <ele>1214.2824707031</ele>
        <time>2012-01-21T08:02:46Z</time>
      </trkpt>
      <trkpt lat="45.64815" lon="6.19753">
        <ele>1211.3984375</ele>
        <time>2012-01-21T08:02:54Z</time>
      </trkpt>
      <trkpt lat="45.6482" lon="6.19759">
        <ele>1213.8017578125</ele>
        <time>2012-01-21T08:03:01Z</time>
      </trkpt>
      <trkpt lat="45.64824" lon="6.19765">
        <ele>1215.724609375</ele>
        <time>2012-01-21T08:03:08Z</time>
      </trkpt>
      <trkpt lat="45.64827" lon="6.1977">
        <ele>1215.724609375</ele>
        <time>2012-01-21T08:03:15Z</time>
      </trkpt>
      <trkpt lat="45.6483" lon="6.19775">
        <ele>1216.205078125</ele>
        <time>2012-01-21T08:03:23Z</time>
      </trkpt>
      <trkpt lat="45.64831" lon="6.19779">
        <ele>1216.6857910156</ele>
        <time>2012-01-21T08:03:27Z</time>
      </trkpt>
      <trkpt lat="45.64833" lon="6.19783">
        <ele>1216.6857910156</ele>
        <time>2012-01-21T08:03:32Z</time>
      </trkpt>
      <trkpt lat="45.64835" lon="6.19788">
        <ele>1215.724609375</ele>
        <time>2012-01-21T08:03:39Z</time>
      </trkpt>
      <trkpt lat="45.64838" lon="6.19794">
        <ele>1218.6083984375</ele>
        <time>2012-01-21T08:03:47Z</time>
      </trkpt>
      <trkpt lat="45.6484" lon="6.19797">
        <ele>1218.1276855469</ele>
        <time>2012-01-21T08:03:53Z</time>
      </trkpt>
      <trkpt lat="45.64842" lon="6.19802">
        <ele>1219.0891113281</ele>
        <time>2012-01-21T08:04:02Z</time>
      </trkpt>
      <trkpt lat="45.64843" lon="6.19806">
        <ele>1219.0891113281</ele>
        <time>2012-01-21T08:04:07Z</time>
      </trkpt>
      <trkpt lat="45.64844" lon="6.1981">
        <ele>1219.0891113281</ele>
        <time>2012-01-21T08:04:12Z</time>
      </trkpt>
      <trkpt lat="45.64846" lon="6.19814">
        <ele>1220.5310058594</ele>
        <time>2012-01-21T08:04:18Z</time>
      </trkpt>
      <trkpt lat="45.64849" lon="6.1982">
        <ele>1222.4536132812</ele>
        <time>2012-01-21T08:04:26Z</time>
      </trkpt>
      <trkpt lat="45.64851" lon="6.19823">
        <ele>1221.9729003906</ele>
        <time>2012-01-21T08:04:31Z</time>
      </trkpt>
      <trkpt lat="45.64852" lon="6.19825">
        <ele>1221.4921875</ele>
        <time>2012-01-21T08:04:35Z</time>
      </trkpt>
      <trkpt lat="45.64854" lon="6.19829">
        <ele>1222.4536132812</ele>
        <time>2012-01-21T08:04:42Z</time>
      </trkpt>
      <trkpt lat="45.64856" lon="6.19835">
        <ele>1224.3762207031</ele>
        <time>2012-01-21T08:04:48Z</time>
      </trkpt>
      <trkpt lat="45.64856" lon="6.19839">
        <ele>1224.8569335938</ele>
        <time>2012-01-21T08:04:51Z</time>
      </trkpt>
      <trkpt lat="45.64858" lon="6.19842">
        <ele>1224.8569335938</ele>
        <time>2012-01-21T08:04:56Z</time>
      </trkpt>
      <trkpt lat="45.64861" lon="6.19844">
        <ele>1223.4150390625</ele>
        <time>2012-01-21T08:05:05Z</time>
      </trkpt>
      <trkpt lat="45.64863" lon="6.1985">
        <ele>1224.8569335938</ele>
        <time>2012-01-21T08:05:14Z</time>
      </trkpt>
      <trkpt lat="45.64864" lon="6.19853">
        <ele>1225.3374023438</ele>
        <time>2012-01-21T08:05:19Z</time>
      </trkpt>
      <trkpt lat="45.64867" lon="6.19857">
        <ele>1226.298828125</ele>
        <time>2012-01-21T08:05:24Z</time>
      </trkpt>
      <trkpt lat="45.64868" lon="6.1986">
        <ele>1226.298828125</ele>
        <time>2012-01-21T08:05:30Z</time>
      </trkpt>
      <trkpt lat="45.6487" lon="6.19863">
        <ele>1225.3374023438</ele>
        <time>2012-01-21T08:05:35Z</time>
      </trkpt>
      <trkpt lat="45.64873" lon="6.19867">
        <ele>1225.8181152344</ele>
        <time>2012-01-21T08:05:42Z</time>
      </trkpt>
      <trkpt lat="45.64875" lon="6.19868">
        <ele>1225.3374023438</ele>
        <time>2012-01-21T08:05:47Z</time>
      </trkpt>
      <trkpt lat="45.64876" lon="6.19873">
        <ele>1226.298828125</ele>
        <time>2012-01-21T08:05:53Z</time>
      </trkpt>
      <trkpt lat="45.64877" lon="6.19874">
        <ele>1225.3374023438</ele>
        <time>2012-01-21T08:05:58Z</time>
      </trkpt>
      <trkpt lat="45.64878" lon="6.19876">
        <ele>1225.8181152344</ele>
        <time>2012-01-21T08:06:06Z</time>
      </trkpt>
      <trkpt lat="45.6488" lon="6.1988">
        <ele>1226.7795410156</ele>
        <time>2012-01-21T08:06:10Z</time>
      </trkpt>
      <trkpt lat="45.6488" lon="6.19885">
        <ele>1227.7407226562</ele>
        <time>2012-01-21T08:06:13Z</time>
      </trkpt>
      <trkpt lat="45.64883" lon="6.19888">
        <ele>1228.7023925781</ele>
        <time>2012-01-21T08:06:19Z</time>
      </trkpt>
      <trkpt lat="45.64886" lon="6.19891">
        <ele>1229.6635742188</ele>
        <time>2012-01-21T08:06:24Z</time>
      </trkpt>
      <trkpt lat="45.64886" lon="6.19896">
        <ele>1230.625</ele>
        <time>2012-01-21T08:06:29Z</time>
      </trkpt>
      <trkpt lat="45.6489" lon="6.199">
        <ele>1230.625</ele>
        <time>2012-01-21T08:06:35Z</time>
      </trkpt>
      <trkpt lat="45.64892" lon="6.19902">
        <ele>1229.6635742188</ele>
        <time>2012-01-21T08:06:40Z</time>
      </trkpt>
      <trkpt lat="45.64893" lon="6.19905">
        <ele>1229.6635742188</ele>
        <time>2012-01-21T08:06:46Z</time>
      </trkpt>
      <trkpt lat="45.64894" lon="6.19906">
        <ele>1233.0280761719</ele>
        <time>2012-01-21T08:06:52Z</time>
      </trkpt>
      <trkpt lat="45.64898" lon="6.19908">
        <ele>1236.8732910156</ele>
        <time>2012-01-21T08:07:07Z</time>
      </trkpt>
      <trkpt lat="45.64899" lon="6.19911">
        <ele>1234.4702148438</ele>
        <time>2012-01-21T08:07:13Z</time>
      </trkpt>
      <trkpt lat="45.649" lon="6.19916">
        <ele>1233.5087890625</ele>
        <time>2012-01-21T08:07:19Z</time>
      </trkpt>
      <trkpt lat="45.64901" lon="6.19918">
        <ele>1234.4702148438</ele>
        <time>2012-01-21T08:07:24Z</time>
      </trkpt>
      <trkpt lat="45.64903" lon="6.19923">
        <ele>1234.9509277344</ele>
        <time>2012-01-21T08:07:30Z</time>
      </trkpt>
      <trkpt lat="45.64906" lon="6.19927">
        <ele>1233.5087890625</ele>
        <time>2012-01-21T08:07:38Z</time>
      </trkpt>
      <trkpt lat="45.64907" lon="6.1993">
        <ele>1233.5087890625</ele>
        <time>2012-01-21T08:07:42Z</time>
      </trkpt>
      <trkpt lat="45.64908" lon="6.19933">
        <ele>1232.5476074219</ele>
        <time>2012-01-21T08:07:46Z</time>
      </trkpt>
      <trkpt lat="45.6491" lon="6.19936">
        <ele>1230.625</ele>
        <time>2012-01-21T08:07:51Z</time>
      </trkpt>
      <trkpt lat="45.64914" lon="6.19939">
        <ele>1230.625</ele>
        <time>2012-01-21T08:07:57Z</time>
      </trkpt>
      <trkpt lat="45.64915" lon="6.19941">
        <ele>1232.5476074219</ele>
        <time>2012-01-21T08:08:04Z</time>
      </trkpt>
      <trkpt lat="45.64916" lon="6.19943">
        <ele>1236.8732910156</ele>
        <time>2012-01-21T08:08:12Z</time>
      </trkpt>
      <trkpt lat="45.64915" lon="6.19944">
        <ele>1238.3154296875</ele>
        <time>2012-01-21T08:08:20Z</time>
      </trkpt>
      <trkpt lat="45.64917" lon="6.19947">
        <ele>1238.7961425781</ele>
        <time>2012-01-21T08:08:27Z</time>
      </trkpt>
      <trkpt lat="45.64919" lon="6.1995">
        <ele>1238.7961425781</ele>
        <time>2012-01-21T08:08:32Z</time>
      </trkpt>
      <trkpt lat="45.64922" lon="6.19952">
        <ele>1236.3928222656</ele>
        <time>2012-01-21T08:08:46Z</time>
      </trkpt>
      <trkpt lat="45.64924" lon="6.19944">
        <ele>1233.9895019531</ele>
        <time>2012-01-21T08:08:53Z</time>
      </trkpt>
      <trkpt lat="45.64923" lon="6.19945">
        <ele>1236.8732910156</ele>
        <time>2012-01-21T08:09:01Z</time>
      </trkpt>
      <trkpt lat="45.64923" lon="6.19948">
        <ele>1235.4313964844</ele>
        <time>2012-01-21T08:09:05Z</time>
      </trkpt>
      <trkpt lat="45.6492" lon="6.19951">
        <ele>1237.3540039062</ele>
        <time>2012-01-21T08:09:09Z</time>
      </trkpt>
      <trkpt lat="45.64922" lon="6.19954">
        <ele>1238.3154296875</ele>
        <time>2012-01-21T08:09:21Z</time>
      </trkpt>
      <trkpt lat="45.64925" lon="6.19958">
        <ele>1239.7573242188</ele>
        <time>2012-01-21T08:09:28Z</time>
      </trkpt>
      <trkpt lat="45.64924" lon="6.19957">
        <ele>1244.0834960938</ele>
        <time>2012-01-21T08:09:40Z</time>
      </trkpt>
      <trkpt lat="45.64926" lon="6.19955">
        <ele>1245.525390625</ele>
        <time>2012-01-21T08:09:51Z</time>
      </trkpt>
      <trkpt lat="45.64927" lon="6.1996">
        <ele>1244.5639648438</ele>
        <time>2012-01-21T08:09:59Z</time>
      </trkpt>
      <trkpt lat="45.64928" lon="6.19964">
        <ele>1244.5639648438</ele>
        <time>2012-01-21T08:10:05Z</time>
      </trkpt>
      <trkpt lat="45.64929" lon="6.19968">
        <ele>1246.4868164062</ele>
        <time>2012-01-21T08:10:11Z</time>
      </trkpt>
      <trkpt lat="45.64931" lon="6.19975">
        <ele>1248.4091796875</ele>
        <time>2012-01-21T08:10:18Z</time>
      </trkpt>
      <trkpt lat="45.64931" lon="6.19975">
        <ele>1247.9287109375</ele>
        <time>2012-01-21T08:10:20Z</time>
      </trkpt>
      <trkpt lat="45.64935" lon="6.19983">
        <ele>1248.4091796875</ele>
        <time>2012-01-21T08:10:25Z</time>
      </trkpt>
      <trkpt lat="45.64939" lon="6.1999">
        <ele>1248.4091796875</ele>
        <time>2012-01-21T08:10:35Z</time>
      </trkpt>
      <trkpt lat="45.6494" lon="6.19997">
        <ele>1247.9287109375</ele>
        <time>2012-01-21T08:10:40Z</time>
      </trkpt>
      <trkpt lat="45.64941" lon="6.20002">
        <ele>1247.4479980469</ele>
        <time>2012-01-21T08:10:45Z</time>
      </trkpt>
      <trkpt lat="45.64944" lon="6.20007">
        <ele>1246.0061035156</ele>
        <time>2012-01-21T08:10:49Z</time>
      </trkpt>
      <trkpt lat="45.64948" lon="6.20011">
        <ele>1243.6025390625</ele>
        <time>2012-01-21T08:10:56Z</time>
      </trkpt>
      <trkpt lat="45.64949" lon="6.20017">
        <ele>1248.4091796875</ele>
        <time>2012-01-21T08:11:04Z</time>
      </trkpt>
      <trkpt lat="45.64951" lon="6.20022">
        <ele>1251.7739257812</ele>
        <time>2012-01-21T08:11:11Z</time>
      </trkpt>
      <trkpt lat="45.64958" lon="6.20029">
        <ele>1248.8898925781</ele>
        <time>2012-01-21T08:11:31Z</time>
      </trkpt>
      <trkpt lat="45.64957" lon="6.20034">
        <ele>1246.9672851562</ele>
        <time>2012-01-21T08:11:35Z</time>
      </trkpt>
      <trkpt lat="45.6496" lon="6.20037">
        <ele>1246.9672851562</ele>
        <time>2012-01-21T08:11:40Z</time>
      </trkpt>
      <trkpt lat="45.6496" lon="6.20041">
        <ele>1247.4479980469</ele>
        <time>2012-01-21T08:11:45Z</time>
      </trkpt>
      <trkpt lat="45.64962" lon="6.20046">
        <ele>1246.4868164062</ele>
        <time>2012-01-21T08:11:49Z</time>
      </trkpt>
      <trkpt lat="45.64963" lon="6.2005">
        <ele>1246.0061035156</ele>
        <time>2012-01-21T08:11:53Z</time>
      </trkpt>
      <trkpt lat="45.64964" lon="6.20053">
        <ele>1244.5639648438</ele>
        <time>2012-01-21T08:11:56Z</time>
      </trkpt>
      <trkpt lat="45.64967" lon="6.20059">
        <ele>1246.4868164062</ele>
        <time>2012-01-21T08:12:02Z</time>
      </trkpt>
      <trkpt lat="45.64968" lon="6.20062">
        <ele>1247.9287109375</ele>
        <time>2012-01-21T08:12:07Z</time>
      </trkpt>
      <trkpt lat="45.64968" lon="6.20063">
        <ele>1246.4868164062</ele>
        <time>2012-01-21T08:12:15Z</time>
      </trkpt>
      <trkpt lat="45.64971" lon="6.20066">
        <ele>1247.4479980469</ele>
        <time>2012-01-21T08:12:19Z</time>
      </trkpt>
      <trkpt lat="45.64972" lon="6.20067">
        <ele>1248.4091796875</ele>
        <time>2012-01-21T08:12:25Z</time>
      </trkpt>
      <trkpt lat="45.64973" lon="6.20066">
        <ele>1247.9287109375</ele>
        <time>2012-01-21T08:12:38Z</time>
      </trkpt>
      <trkpt lat="45.64973" lon="6.20067">
        <ele>1247.4479980469</ele>
        <time>2012-01-21T08:12:49Z</time>
      </trkpt>
      <trkpt lat="45.64973" lon="6.20067">
        <ele>1247.9287109375</ele>
        <time>2012-01-21T08:12:54Z</time>
      </trkpt>
      <trkpt lat="45.64973" lon="6.20066">
        <ele>1252.2543945312</ele>
        <time>2012-01-21T08:13:01Z</time>
      </trkpt>
      <trkpt lat="45.64974" lon="6.20067">
        <ele>1255.619140625</ele>
        <time>2012-01-21T08:13:04Z</time>
      </trkpt>
      <trkpt lat="45.64972" lon="6.20066">
        <ele>1256.5803222656</ele>
        <time>2012-01-21T08:13:13Z</time>
      </trkpt>
      <trkpt lat="45.6497" lon="6.20066">
        <ele>1251.7739257812</ele>
        <time>2012-01-21T08:13:23Z</time>
      </trkpt>
      <trkpt lat="45.64967" lon="6.20065">
        <ele>1257.0610351562</ele>
        <time>2012-01-21T08:13:28Z</time>
      </trkpt>
      <trkpt lat="45.64969" lon="6.20062">
        <ele>1254.1772460938</ele>
        <time>2012-01-21T08:13:41Z</time>
      </trkpt>
      <trkpt lat="45.64968" lon="6.20063">
        <ele>1257.5417480469</ele>
        <time>2012-01-21T08:14:14Z</time>
      </trkpt>
      <trkpt lat="45.64965" lon="6.20061">
        <ele>1264.7517089844</ele>
        <time>2012-01-21T08:14:19Z</time>
      </trkpt>
      <trkpt lat="45.64964" lon="6.20061">
        <ele>1266.6743164062</ele>
        <time>2012-01-21T08:14:22Z</time>
      </trkpt>
      <trkpt lat="45.64964" lon="6.20061">
        <ele>1267.1550292969</ele>
        <time>2012-01-21T08:14:25Z</time>
      </trkpt>
      <trkpt lat="45.64967" lon="6.20063">
        <ele>1258.5029296875</ele>
        <time>2012-01-21T08:14:35Z</time>
      </trkpt>
      <trkpt lat="45.64968" lon="6.20063">
        <ele>1258.5029296875</ele>
        <time>2012-01-21T08:14:36Z</time>
      </trkpt>
      <trkpt lat="45.64969" lon="6.20065">
        <ele>1254.6577148438</ele>
        <time>2012-01-21T08:15:01Z</time>
      </trkpt>
      <trkpt lat="45.64968" lon="6.20067">
        <ele>1254.6577148438</ele>
        <time>2012-01-21T08:15:09Z</time>
      </trkpt>
      <trkpt lat="45.64967" lon="6.20064">
        <ele>1259.9448242188</ele>
        <time>2012-01-21T08:15:16Z</time>
      </trkpt>
      <trkpt lat="45.64966" lon="6.20065">
        <ele>1260.42578125</ele>
        <time>2012-01-21T08:15:17Z</time>
      </trkpt>
      <trkpt lat="45.64965" lon="6.20064">
        <ele>1262.3483886719</ele>
        <time>2012-01-21T08:15:23Z</time>
      </trkpt>
      <trkpt lat="45.64967" lon="6.20065">
        <ele>1258.9836425781</ele>
        <time>2012-01-21T08:15:32Z</time>
      </trkpt>
      <trkpt lat="45.64969" lon="6.20065">
        <ele>1252.7351074219</ele>
        <time>2012-01-21T08:15:43Z</time>
      </trkpt>
      <trkpt lat="45.64971" lon="6.20067">
        <ele>1251.7739257812</ele>
        <time>2012-01-21T08:15:57Z</time>
      </trkpt>
      <trkpt lat="45.64973" lon="6.20072">
        <ele>1250.8125</ele>
        <time>2012-01-21T08:16:04Z</time>
      </trkpt>
      <trkpt lat="45.64972" lon="6.20069">
        <ele>1247.9287109375</ele>
        <time>2012-01-21T08:16:20Z</time>
      </trkpt>
      <trkpt lat="45.64969" lon="6.20074">
        <ele>1258.5029296875</ele>
        <time>2012-01-21T08:16:29Z</time>
      </trkpt>
      <trkpt lat="45.6497" lon="6.20076">
        <ele>1261.3872070312</ele>
        <time>2012-01-21T08:16:38Z</time>
      </trkpt>
      <trkpt lat="45.64971" lon="6.20078">
        <ele>1260.42578125</ele>
        <time>2012-01-21T08:16:39Z</time>
      </trkpt>
      <trkpt lat="45.64973" lon="6.20082">
        <ele>1257.0610351562</ele>
        <time>2012-01-21T08:16:45Z</time>
      </trkpt>
      <trkpt lat="45.64975" lon="6.20085">
        <ele>1254.1772460938</ele>
        <time>2012-01-21T08:16:53Z</time>
      </trkpt>
      <trkpt lat="45.64977" lon="6.20085">
        <ele>1249.8513183594</ele>
        <time>2012-01-21T08:16:59Z</time>
      </trkpt>
      <trkpt lat="45.6498" lon="6.20087">
        <ele>1245.525390625</ele>
        <time>2012-01-21T08:17:08Z</time>
      </trkpt>
      <trkpt lat="45.64982" lon="6.2009">
        <ele>1246.4868164062</ele>
        <time>2012-01-21T08:17:13Z</time>
      </trkpt>
      <trkpt lat="45.64982" lon="6.20097">
        <ele>1249.8513183594</ele>
        <time>2012-01-21T08:17:22Z</time>
      </trkpt>
      <trkpt lat="45.64985" lon="6.20101">
        <ele>1249.3706054688</ele>
        <time>2012-01-21T08:17:27Z</time>
      </trkpt>
      <trkpt lat="45.64986" lon="6.20103">
        <ele>1250.33203125</ele>
        <time>2012-01-21T08:17:36Z</time>
      </trkpt>
      <trkpt lat="45.64987" lon="6.20106">
        <ele>1249.8513183594</ele>
        <time>2012-01-21T08:17:43Z</time>
      </trkpt>
      <trkpt lat="45.64988" lon="6.20109">
        <ele>1249.3706054688</ele>
        <time>2012-01-21T08:17:47Z</time>
      </trkpt>
      <trkpt lat="45.64988" lon="6.2011">
        <ele>1251.2932128906</ele>
        <time>2012-01-21T08:17:51Z</time>
      </trkpt>
      <trkpt lat="45.64988" lon="6.20109">
        <ele>1253.2158203125</ele>
        <time>2012-01-21T08:17:55Z</time>
      </trkpt>
      <trkpt lat="45.64988" lon="6.20109">
        <ele>1256.099609375</ele>
        <time>2012-01-21T08:18:00Z</time>
      </trkpt>
      <trkpt lat="45.64988" lon="6.20107">
        <ele>1253.6965332031</ele>
        <time>2012-01-21T08:18:13Z</time>
      </trkpt>
      <trkpt lat="45.64987" lon="6.20107">
        <ele>1252.7351074219</ele>
        <time>2012-01-21T08:18:22Z</time>
      </trkpt>
      <trkpt lat="45.64989" lon="6.20109">
        <ele>1252.7351074219</ele>
        <time>2012-01-21T08:18:27Z</time>
      </trkpt>
      <trkpt lat="45.64988" lon="6.20107">
        <ele>1254.6577148438</ele>
        <time>2012-01-21T08:18:34Z</time>
      </trkpt>
      <trkpt lat="45.64991" lon="6.20109">
        <ele>1254.1772460938</ele>
        <time>2012-01-21T08:18:44Z</time>
      </trkpt>
      <trkpt lat="45.64993" lon="6.20112">
        <ele>1254.1772460938</ele>
        <time>2012-01-21T08:18:49Z</time>
      </trkpt>
      <trkpt lat="45.64993" lon="6.20113">
        <ele>1254.6577148438</ele>
        <time>2012-01-21T08:18:51Z</time>
      </trkpt>
      <trkpt lat="45.64996" lon="6.20117">
        <ele>1255.1384277344</ele>
        <time>2012-01-21T08:18:59Z</time>
      </trkpt>
      <trkpt lat="45.64999" lon="6.2012">
        <ele>1255.1384277344</ele>
        <time>2012-01-21T08:19:06Z</time>
      </trkpt>
      <trkpt lat="45.65001" lon="6.20123">
        <ele>1255.1384277344</ele>
        <time>2012-01-21T08:19:13Z</time>
      </trkpt>
      <trkpt lat="45.65002" lon="6.20126">
        <ele>1255.1384277344</ele>
        <time>2012-01-21T08:19:19Z</time>
      </trkpt>
      <trkpt lat="45.65002" lon="6.20129">
        <ele>1253.6965332031</ele>
        <time>2012-01-21T08:19:26Z</time>
      </trkpt>
      <trkpt lat="45.65001" lon="6.2013">
        <ele>1255.619140625</ele>
        <time>2012-01-21T08:19:31Z</time>
      </trkpt>
      <trkpt lat="45.65001" lon="6.20128">
        <ele>1258.0224609375</ele>
        <time>2012-01-21T08:19:37Z</time>
      </trkpt>
      <trkpt lat="45.65003" lon="6.20132">
        <ele>1259.4643554688</ele>
        <time>2012-01-21T08:19:44Z</time>
      </trkpt>
      <trkpt lat="45.65004" lon="6.20134">
        <ele>1259.4643554688</ele>
        <time>2012-01-21T08:19:49Z</time>
      </trkpt>
      <trkpt lat="45.65005" lon="6.20136">
        <ele>1259.4643554688</ele>
        <time>2012-01-21T08:19:53Z</time>
      </trkpt>
      <trkpt lat="45.65005" lon="6.20139">
        <ele>1259.9448242188</ele>
        <time>2012-01-21T08:19:57Z</time>
      </trkpt>
      <trkpt lat="45.65007" lon="6.20141">
        <ele>1259.9448242188</ele>
        <time>2012-01-21T08:20:03Z</time>
      </trkpt>
      <trkpt lat="45.65007" lon="6.20145">
        <ele>1260.42578125</ele>
        <time>2012-01-21T08:20:09Z</time>
      </trkpt>
      <trkpt lat="45.65006" lon="6.20149">
        <ele>1261.8679199219</ele>
        <time>2012-01-21T08:20:15Z</time>
      </trkpt>
      <trkpt lat="45.65006" lon="6.2015">
        <ele>1266.6743164062</ele>
        <time>2012-01-21T08:20:20Z</time>
      </trkpt>
      <trkpt lat="45.65007" lon="6.20152">
        <ele>1265.232421875</ele>
        <time>2012-01-21T08:20:31Z</time>
      </trkpt>
      <trkpt lat="45.65008" lon="6.20157">
        <ele>1266.1936035156</ele>
        <time>2012-01-21T08:20:38Z</time>
      </trkpt>
      <trkpt lat="45.65007" lon="6.2016">
        <ele>1266.6743164062</ele>
        <time>2012-01-21T08:20:44Z</time>
      </trkpt>
      <trkpt lat="45.65006" lon="6.20161">
        <ele>1268.5969238281</ele>
        <time>2012-01-21T08:20:50Z</time>
      </trkpt>
      <trkpt lat="45.65007" lon="6.20164">
        <ele>1268.5969238281</ele>
        <time>2012-01-21T08:20:54Z</time>
      </trkpt>
      <trkpt lat="45.65008" lon="6.20168">
        <ele>1268.1162109375</ele>
        <time>2012-01-21T08:21:01Z</time>
      </trkpt>
      <trkpt lat="45.65009" lon="6.20172">
        <ele>1268.5969238281</ele>
        <time>2012-01-21T08:21:07Z</time>
      </trkpt>
      <trkpt lat="45.65009" lon="6.20171">
        <ele>1269.0776367188</ele>
        <time>2012-01-21T08:21:14Z</time>
      </trkpt>
      <trkpt lat="45.65008" lon="6.2017">
        <ele>1267.6354980469</ele>
        <time>2012-01-21T08:21:21Z</time>
      </trkpt>
      <trkpt lat="45.65008" lon="6.2017">
        <ele>1267.1550292969</ele>
        <time>2012-01-21T08:21:28Z</time>
      </trkpt>
      <trkpt lat="45.65008" lon="6.20172">
        <ele>1266.1936035156</ele>
        <time>2012-01-21T08:21:34Z</time>
      </trkpt>
      <trkpt lat="45.65004" lon="6.2018">
        <ele>1265.7131347656</ele>
        <time>2012-01-21T08:21:42Z</time>
      </trkpt>
      <trkpt lat="45.65004" lon="6.20181">
        <ele>1266.6743164062</ele>
        <time>2012-01-21T08:21:51Z</time>
      </trkpt>
      <trkpt lat="45.65003" lon="6.20182">
        <ele>1266.1936035156</ele>
        <time>2012-01-21T08:21:57Z</time>
      </trkpt>
      <trkpt lat="45.65004" lon="6.20179">
        <ele>1270.0388183594</ele>
        <time>2012-01-21T08:22:06Z</time>
      </trkpt>
      <trkpt lat="45.65004" lon="6.20179">
        <ele>1271.4807128906</ele>
        <time>2012-01-21T08:22:09Z</time>
      </trkpt>
      <trkpt lat="45.65005" lon="6.20179">
        <ele>1271.9614257812</ele>
        <time>2012-01-21T08:22:10Z</time>
      </trkpt>
      <trkpt lat="45.65009" lon="6.20181">
        <ele>1270.0388183594</ele>
        <time>2012-01-21T08:22:22Z</time>
      </trkpt>
      <trkpt lat="45.6501" lon="6.20185">
        <ele>1269.0776367188</ele>
        <time>2012-01-21T08:22:27Z</time>
      </trkpt>
      <trkpt lat="45.65009" lon="6.20193">
        <ele>1266.1936035156</ele>
        <time>2012-01-21T08:22:33Z</time>
      </trkpt>
      <trkpt lat="45.65012" lon="6.20192">
        <ele>1268.5969238281</ele>
        <time>2012-01-21T08:22:38Z</time>
      </trkpt>
      <trkpt lat="45.65012" lon="6.20191">
        <ele>1269.5583496094</ele>
        <time>2012-01-21T08:22:44Z</time>
      </trkpt>
      <trkpt lat="45.65012" lon="6.20192">
        <ele>1269.0776367188</ele>
        <time>2012-01-21T08:22:53Z</time>
      </trkpt>
      <trkpt lat="45.65012" lon="6.20191">
        <ele>1269.5583496094</ele>
        <time>2012-01-21T08:23:03Z</time>
      </trkpt>
      <trkpt lat="45.65013" lon="6.20191">
        <ele>1271.0002441406</ele>
        <time>2012-01-21T08:23:08Z</time>
      </trkpt>
      <trkpt lat="45.65013" lon="6.2019">
        <ele>1271.0002441406</ele>
        <time>2012-01-21T08:23:10Z</time>
      </trkpt>
      <trkpt lat="45.65013" lon="6.20189">
        <ele>1271.0002441406</ele>
        <time>2012-01-21T08:23:11Z</time>
      </trkpt>
      <trkpt lat="45.65014" lon="6.20188">
        <ele>1270.51953125</ele>
        <time>2012-01-21T08:23:19Z</time>
      </trkpt>
      <trkpt lat="45.65013" lon="6.20188">
        <ele>1275.3259277344</ele>
        <time>2012-01-21T08:23:26Z</time>
      </trkpt>
      <trkpt lat="45.65014" lon="6.20187">
        <ele>1271.0002441406</ele>
        <time>2012-01-21T08:23:49Z</time>
      </trkpt>
      <trkpt lat="45.65014" lon="6.20187">
        <ele>1270.51953125</ele>
        <time>2012-01-21T08:23:51Z</time>
      </trkpt>
      <trkpt lat="45.65014" lon="6.20187">
        <ele>1270.51953125</ele>
        <time>2012-01-21T08:23:52Z</time>
      </trkpt>
      <trkpt lat="45.65014" lon="6.20187">
        <ele>1270.0388183594</ele>
        <time>2012-01-21T08:23:55Z</time>
      </trkpt>
      <trkpt lat="45.65014" lon="6.20188">
        <ele>1269.5583496094</ele>
        <time>2012-01-21T08:24:03Z</time>
      </trkpt>
      <trkpt lat="45.65014" lon="6.20188">
        <ele>1270.51953125</ele>
        <time>2012-01-21T08:24:04Z</time>
      </trkpt>
      <trkpt lat="45.65014" lon="6.20188">
        <ele>1271.0002441406</ele>
        <time>2012-01-21T08:24:08Z</time>
      </trkpt>
      <trkpt lat="45.65014" lon="6.20188">
        <ele>1271.4807128906</ele>
        <time>2012-01-21T08:24:11Z</time>
      </trkpt>
      <trkpt lat="45.65014" lon="6.20189">
        <ele>1273.4035644531</ele>
        <time>2012-01-21T08:24:19Z</time>
      </trkpt>
      <trkpt lat="45.65013" lon="6.20191">
        <ele>1274.8454589844</ele>
        <time>2012-01-21T08:24:30Z</time>
      </trkpt>
      <trkpt lat="45.65012" lon="6.20191">
        <ele>1276.2875976562</ele>
        <time>2012-01-21T08:24:44Z</time>
      </trkpt>
      <trkpt lat="45.65012" lon="6.2019">
        <ele>1276.7683105469</ele>
        <time>2012-01-21T08:24:53Z</time>
      </trkpt>
      <trkpt lat="45.65012" lon="6.2019">
        <ele>1275.806640625</ele>
        <time>2012-01-21T08:25:02Z</time>
      </trkpt>
      <trkpt lat="45.65014" lon="6.20188">
        <ele>1271.0002441406</ele>
        <time>2012-01-21T08:25:21Z</time>
      </trkpt>
      <trkpt lat="45.65014" lon="6.20188">
        <ele>1270.0388183594</ele>
        <time>2012-01-21T08:25:28Z</time>
      </trkpt>
      <trkpt lat="45.65014" lon="6.20187">
        <ele>1269.0776367188</ele>
        <time>2012-01-21T08:25:49Z</time>
      </trkpt>
      <trkpt lat="45.65014" lon="6.20187">
        <ele>1269.0776367188</ele>
        <time>2012-01-21T08:25:51Z</time>
      </trkpt>
      <trkpt lat="45.65014" lon="6.20187">
        <ele>1269.0776367188</ele>
        <time>2012-01-21T08:25:52Z</time>
      </trkpt>
      <trkpt lat="45.65014" lon="6.20187">
        <ele>1270.51953125</ele>
        <time>2012-01-21T08:26:07Z</time>
      </trkpt>
      <trkpt lat="45.65014" lon="6.20187">
        <ele>1270.0388183594</ele>
        <time>2012-01-21T08:26:15Z</time>
      </trkpt>
      <trkpt lat="45.65014" lon="6.20187">
        <ele>1270.51953125</ele>
        <time>2012-01-21T08:26:18Z</time>
      </trkpt>
      <trkpt lat="45.65014" lon="6.20187">
        <ele>1270.51953125</ele>
        <time>2012-01-21T08:26:20Z</time>
      </trkpt>
      <trkpt lat="45.65015" lon="6.20186">
        <ele>1271.0002441406</ele>
        <time>2012-01-21T08:26:23Z</time>
      </trkpt>
      <trkpt lat="45.65017" lon="6.20185">
        <ele>1269.5583496094</ele>
        <time>2012-01-21T08:26:45Z</time>
      </trkpt>
      <trkpt lat="45.65017" lon="6.20185">
        <ele>1269.5583496094</ele>
        <time>2012-01-21T08:26:47Z</time>
      </trkpt>
      <trkpt lat="45.65017" lon="6.20184">
        <ele>1269.5583496094</ele>
        <time>2012-01-21T08:26:52Z</time>
      </trkpt>
      <trkpt lat="45.65016" lon="6.20184">
        <ele>1270.51953125</ele>
        <time>2012-01-21T08:27:00Z</time>
      </trkpt>
      <trkpt lat="45.65016" lon="6.20183">
        <ele>1270.0388183594</ele>
        <time>2012-01-21T08:27:16Z</time>
      </trkpt>
      <trkpt lat="45.65017" lon="6.20184">
        <ele>1272.9228515625</ele>
        <time>2012-01-21T08:27:24Z</time>
      </trkpt>
      <trkpt lat="45.65016" lon="6.20185">
        <ele>1272.4421386719</ele>
        <time>2012-01-21T08:27:31Z</time>
      </trkpt>
      <trkpt lat="45.65016" lon="6.20185">
        <ele>1271.9614257812</ele>
        <time>2012-01-21T08:27:42Z</time>
      </trkpt>
      <trkpt lat="45.65015" lon="6.20185">
        <ele>1272.9228515625</ele>
        <time>2012-01-21T08:27:59Z</time>
      </trkpt>
      <trkpt lat="45.65015" lon="6.20186">
        <ele>1272.9228515625</ele>
        <time>2012-01-21T08:28:11Z</time>
      </trkpt>
      <trkpt lat="45.65013" lon="6.20185">
        <ele>1271.0002441406</ele>
        <time>2012-01-21T08:28:24Z</time>
      </trkpt>
      <trkpt lat="45.65013" lon="6.20185">
        <ele>1270.0388183594</ele>
        <time>2012-01-21T08:28:29Z</time>
      </trkpt>
      <trkpt lat="45.65014" lon="6.20184">
        <ele>1268.1162109375</ele>
        <time>2012-01-21T08:28:41Z</time>
      </trkpt>
      <trkpt lat="45.65013" lon="6.20187">
        <ele>1268.5969238281</ele>
        <time>2012-01-21T08:28:50Z</time>
      </trkpt>
      <trkpt lat="45.65012" lon="6.2019">
        <ele>1270.51953125</ele>
        <time>2012-01-21T08:28:57Z</time>
      </trkpt>
      <trkpt lat="45.65013" lon="6.20193">
        <ele>1268.1162109375</ele>
        <time>2012-01-21T08:29:06Z</time>
      </trkpt>
      <trkpt lat="45.65014" lon="6.20192">
        <ele>1268.1162109375</ele>
        <time>2012-01-21T08:29:17Z</time>
      </trkpt>
      <trkpt lat="45.65014" lon="6.20194">
        <ele>1268.5969238281</ele>
        <time>2012-01-21T08:29:22Z</time>
      </trkpt>
      <trkpt lat="45.65014" lon="6.20192">
        <ele>1271.0002441406</ele>
        <time>2012-01-21T08:29:30Z</time>
      </trkpt>
      <trkpt lat="45.65015" lon="6.20191">
        <ele>1270.0388183594</ele>
        <time>2012-01-21T08:29:40Z</time>
      </trkpt>
      <trkpt lat="45.65014" lon="6.2019">
        <ele>1269.0776367188</ele>
        <time>2012-01-21T08:29:50Z</time>
      </trkpt>
      <trkpt lat="45.65014" lon="6.20192">
        <ele>1267.1550292969</ele>
        <time>2012-01-21T08:30:00Z</time>
      </trkpt>
      <trkpt lat="45.65013" lon="6.20192">
        <ele>1268.5969238281</ele>
        <time>2012-01-21T08:30:13Z</time>
      </trkpt>
      <trkpt lat="45.65013" lon="6.20191">
        <ele>1268.1162109375</ele>
        <time>2012-01-21T08:30:21Z</time>
      </trkpt>
      <trkpt lat="45.65014" lon="6.2019">
        <ele>1269.0776367188</ele>
        <time>2012-01-21T08:30:40Z</time>
      </trkpt>
      <trkpt lat="45.65017" lon="6.20187">
        <ele>1269.0776367188</ele>
        <time>2012-01-21T08:30:55Z</time>
      </trkpt>
      <trkpt lat="45.65017" lon="6.20188">
        <ele>1272.9228515625</ele>
        <time>2012-01-21T08:31:18Z</time>
      </trkpt>
      <trkpt lat="45.65017" lon="6.20189">
        <ele>1271.9614257812</ele>
        <time>2012-01-21T08:31:34Z</time>
      </trkpt>
      <trkpt lat="45.65015" lon="6.20188">
        <ele>1272.9228515625</ele>
        <time>2012-01-21T08:31:47Z</time>
      </trkpt>
      <trkpt lat="45.65014" lon="6.20195">
        <ele>1270.0388183594</ele>
        <time>2012-01-21T08:32:02Z</time>
      </trkpt>
      <trkpt lat="45.65014" lon="6.20194">
        <ele>1271.9614257812</ele>
        <time>2012-01-21T08:32:08Z</time>
      </trkpt>
      <trkpt lat="45.65012" lon="6.20193">
        <ele>1274.3647460938</ele>
        <time>2012-01-21T08:32:18Z</time>
      </trkpt>
      <trkpt lat="45.65012" lon="6.20192">
        <ele>1275.806640625</ele>
        <time>2012-01-21T08:32:28Z</time>
      </trkpt>
      <trkpt lat="45.65012" lon="6.20192">
        <ele>1275.806640625</ele>
        <time>2012-01-21T08:32:40Z</time>
      </trkpt>
      <trkpt lat="45.65012" lon="6.2019">
        <ele>1276.7683105469</ele>
        <time>2012-01-21T08:32:59Z</time>
      </trkpt>
      <trkpt lat="45.65012" lon="6.2019">
        <ele>1276.2875976562</ele>
        <time>2012-01-21T08:33:06Z</time>
      </trkpt>
      <trkpt lat="45.65012" lon="6.20189">
        <ele>1277.7294921875</ele>
        <time>2012-01-21T08:33:20Z</time>
      </trkpt>
      <trkpt lat="45.65012" lon="6.20188">
        <ele>1277.7294921875</ele>
        <time>2012-01-21T08:33:30Z</time>
      </trkpt>
      <trkpt lat="45.65012" lon="6.20188">
        <ele>1277.7294921875</ele>
        <time>2012-01-21T08:33:32Z</time>
      </trkpt>
      <trkpt lat="45.65013" lon="6.20187">
        <ele>1275.806640625</ele>
        <time>2012-01-21T08:33:48Z</time>
      </trkpt>
      <trkpt lat="45.65014" lon="6.20187">
        <ele>1273.8840332031</ele>
        <time>2012-01-21T08:33:52Z</time>
      </trkpt>
      <trkpt lat="45.65014" lon="6.20187">
        <ele>1271.9614257812</ele>
        <time>2012-01-21T08:34:03Z</time>
      </trkpt>
      <trkpt lat="45.65014" lon="6.20187">
        <ele>1272.9228515625</ele>
        <time>2012-01-21T08:34:13Z</time>
      </trkpt>
      <trkpt lat="45.65014" lon="6.20186">
        <ele>1272.4421386719</ele>
        <time>2012-01-21T08:34:23Z</time>
      </trkpt>
      <trkpt lat="45.65014" lon="6.20187">
        <ele>1271.4807128906</ele>
        <time>2012-01-21T08:34:33Z</time>
      </trkpt>
      <trkpt lat="45.65016" lon="6.20187">
        <ele>1271.0002441406</ele>
        <time>2012-01-21T08:34:47Z</time>
      </trkpt>
      <trkpt lat="45.65015" lon="6.20186">
        <ele>1271.0002441406</ele>
        <time>2012-01-21T08:34:57Z</time>
      </trkpt>
      <trkpt lat="45.65016" lon="6.20186">
        <ele>1270.51953125</ele>
        <time>2012-01-21T08:35:03Z</time>
      </trkpt>
      <trkpt lat="45.65017" lon="6.20189">
        <ele>1265.232421875</ele>
        <time>2012-01-21T08:35:12Z</time>
      </trkpt>
      <trkpt lat="45.65016" lon="6.20188">
        <ele>1263.7902832031</ele>
        <time>2012-01-21T08:35:21Z</time>
      </trkpt>
      <trkpt lat="45.65016" lon="6.20187">
        <ele>1263.3098144531</ele>
        <time>2012-01-21T08:35:46Z</time>
      </trkpt>
      <trkpt lat="45.65016" lon="6.20187">
        <ele>1265.232421875</ele>
        <time>2012-01-21T08:36:08Z</time>
      </trkpt>
      <trkpt lat="45.65017" lon="6.20189">
        <ele>1271.4807128906</ele>
        <time>2012-01-21T08:36:23Z</time>
      </trkpt>
      <trkpt lat="45.65015" lon="6.2019">
        <ele>1276.2875976562</ele>
        <time>2012-01-21T08:36:33Z</time>
      </trkpt>
      <trkpt lat="45.65014" lon="6.2019">
        <ele>1277.2490234375</ele>
        <time>2012-01-21T08:36:41Z</time>
      </trkpt>
      <trkpt lat="45.65015" lon="6.2019">
        <ele>1272.4421386719</ele>
        <time>2012-01-21T08:36:58Z</time>
      </trkpt>
      <trkpt lat="45.65014" lon="6.20189">
        <ele>1271.9614257812</ele>
        <time>2012-01-21T08:37:20Z</time>
      </trkpt>
      <trkpt lat="45.65015" lon="6.20189">
        <ele>1271.9614257812</ele>
        <time>2012-01-21T08:37:40Z</time>
      </trkpt>
      <trkpt lat="45.65015" lon="6.20188">
        <ele>1266.1936035156</ele>
        <time>2012-01-21T08:38:02Z</time>
      </trkpt>
      <trkpt lat="45.65012" lon="6.20187">
        <ele>1274.8454589844</ele>
        <time>2012-01-21T08:38:27Z</time>
      </trkpt>
      <trkpt lat="45.65012" lon="6.20188">
        <ele>1276.7683105469</ele>
        <time>2012-01-21T08:39:05Z</time>
      </trkpt>
      <trkpt lat="45.65012" lon="6.20188">
        <ele>1276.7683105469</ele>
        <time>2012-01-21T08:39:20Z</time>
      </trkpt>
      <trkpt lat="45.65012" lon="6.20189">
        <ele>1278.2102050781</ele>
        <time>2012-01-21T08:39:31Z</time>
      </trkpt>
      <trkpt lat="45.65013" lon="6.20189">
        <ele>1277.7294921875</ele>
        <time>2012-01-21T08:39:41Z</time>
      </trkpt>
      <trkpt lat="45.65014" lon="6.20189">
        <ele>1276.7683105469</ele>
        <time>2012-01-21T08:39:51Z</time>
      </trkpt>
      <trkpt lat="45.65015" lon="6.2019">
        <ele>1280.1328125</ele>
        <time>2012-01-21T08:40:24Z</time>
      </trkpt>
      <trkpt lat="45.65016" lon="6.2019">
        <ele>1271.4807128906</ele>
        <time>2012-01-21T08:40:40Z</time>
      </trkpt>
      <trkpt lat="45.65016" lon="6.2019">
        <ele>1268.1162109375</ele>
        <time>2012-01-21T08:40:55Z</time>
      </trkpt>
      <trkpt lat="45.65015" lon="6.2019">
        <ele>1269.0776367188</ele>
        <time>2012-01-21T08:41:01Z</time>
      </trkpt>
      <trkpt lat="45.65015" lon="6.2019">
        <ele>1267.6354980469</ele>
        <time>2012-01-21T08:41:09Z</time>
      </trkpt>
      <trkpt lat="45.65016" lon="6.20189">
        <ele>1269.5583496094</ele>
        <time>2012-01-21T08:41:20Z</time>
      </trkpt>
      <trkpt lat="45.65016" lon="6.20189">
        <ele>1269.5583496094</ele>
        <time>2012-01-21T08:41:29Z</time>
      </trkpt>
      <trkpt lat="45.65015" lon="6.20189">
        <ele>1273.4035644531</ele>
        <time>2012-01-21T08:41:39Z</time>
      </trkpt>
      <trkpt lat="45.65014" lon="6.20189">
        <ele>1275.806640625</ele>
        <time>2012-01-21T08:41:50Z</time>
      </trkpt>
      <trkpt lat="45.65015" lon="6.20189">
        <ele>1277.2490234375</ele>
        <time>2012-01-21T08:42:07Z</time>
      </trkpt>
      <trkpt lat="45.65015" lon="6.20189">
        <ele>1274.3647460938</ele>
        <time>2012-01-21T08:42:20Z</time>
      </trkpt>
      <trkpt lat="45.65015" lon="6.20189">
        <ele>1274.8454589844</ele>
        <time>2012-01-21T08:42:22Z</time>
      </trkpt>
      <trkpt lat="45.65015" lon="6.20189">
        <ele>1276.2875976562</ele>
        <time>2012-01-21T08:42:30Z</time>
      </trkpt>
      <trkpt lat="45.65015" lon="6.20188">
        <ele>1275.3259277344</ele>
        <time>2012-01-21T08:42:45Z</time>
      </trkpt>
      <trkpt lat="45.65015" lon="6.20189">
        <ele>1274.8454589844</ele>
        <time>2012-01-21T08:43:00Z</time>
      </trkpt>
      <trkpt lat="45.65016" lon="6.20191">
        <ele>1275.3259277344</ele>
        <time>2012-01-21T08:43:11Z</time>
      </trkpt>
      <trkpt lat="45.65017" lon="6.20193">
        <ele>1273.8840332031</ele>
        <time>2012-01-21T08:43:15Z</time>
      </trkpt>
      <trkpt lat="45.65015" lon="6.20194">
        <ele>1273.8840332031</ele>
        <time>2012-01-21T08:43:21Z</time>
      </trkpt>
      <trkpt lat="45.65015" lon="6.20194">
        <ele>1273.8840332031</ele>
        <time>2012-01-21T08:43:23Z</time>
      </trkpt>
      <trkpt lat="45.65015" lon="6.20194">
        <ele>1273.8840332031</ele>
        <time>2012-01-21T08:43:24Z</time>
      </trkpt>
      <trkpt lat="45.65015" lon="6.20195">
        <ele>1272.9228515625</ele>
        <time>2012-01-21T08:43:42Z</time>
      </trkpt>
      <trkpt lat="45.65016" lon="6.20197">
        <ele>1273.8840332031</ele>
        <time>2012-01-21T08:44:10Z</time>
      </trkpt>
      <trkpt lat="45.65016" lon="6.20197">
        <ele>1273.8840332031</ele>
        <time>2012-01-21T08:44:14Z</time>
      </trkpt>
      <trkpt lat="45.65016" lon="6.20196">
        <ele>1276.7683105469</ele>
        <time>2012-01-21T08:44:27Z</time>
      </trkpt>
      <trkpt lat="45.65015" lon="6.20193">
        <ele>1278.2102050781</ele>
        <time>2012-01-21T08:44:34Z</time>
      </trkpt>
      <trkpt lat="45.65016" lon="6.20189">
        <ele>1277.7294921875</ele>
        <time>2012-01-21T08:44:38Z</time>
      </trkpt>
      <trkpt lat="45.65017" lon="6.20187">
        <ele>1277.2490234375</ele>
        <time>2012-01-21T08:44:40Z</time>
      </trkpt>
      <trkpt lat="45.65017" lon="6.20187">
        <ele>1277.7294921875</ele>
        <time>2012-01-21T08:44:42Z</time>
      </trkpt>
      <trkpt lat="45.65017" lon="6.20187">
        <ele>1276.7683105469</ele>
        <time>2012-01-21T08:44:45Z</time>
      </trkpt>
      <trkpt lat="45.65017" lon="6.20186">
        <ele>1275.3259277344</ele>
        <time>2012-01-21T08:44:49Z</time>
      </trkpt>
      <trkpt lat="45.65018" lon="6.20187">
        <ele>1274.8454589844</ele>
        <time>2012-01-21T08:45:01Z</time>
      </trkpt>
      <trkpt lat="45.65018" lon="6.20186">
        <ele>1273.8840332031</ele>
        <time>2012-01-21T08:45:05Z</time>
      </trkpt>
      <trkpt lat="45.65018" lon="6.20186">
        <ele>1273.8840332031</ele>
        <time>2012-01-21T08:45:07Z</time>
      </trkpt>
      <trkpt lat="45.65018" lon="6.20187">
        <ele>1273.4035644531</ele>
        <time>2012-01-21T08:45:09Z</time>
      </trkpt>
      <trkpt lat="45.65018" lon="6.20189">
        <ele>1273.4035644531</ele>
        <time>2012-01-21T08:45:13Z</time>
      </trkpt>
      <trkpt lat="45.65018" lon="6.20189">
        <ele>1273.4035644531</ele>
        <time>2012-01-21T08:45:18Z</time>
      </trkpt>
      <trkpt lat="45.65018" lon="6.2019">
        <ele>1272.4421386719</ele>
        <time>2012-01-21T08:45:25Z</time>
      </trkpt>
      <trkpt lat="45.65018" lon="6.20194">
        <ele>1271.9614257812</ele>
        <time>2012-01-21T08:45:32Z</time>
      </trkpt>
      <trkpt lat="45.65019" lon="6.20199">
        <ele>1270.51953125</ele>
        <time>2012-01-21T08:45:38Z</time>
      </trkpt>
      <trkpt lat="45.65018" lon="6.20204">
        <ele>1270.51953125</ele>
        <time>2012-01-21T08:45:43Z</time>
      </trkpt>
      <trkpt lat="45.65018" lon="6.20208">
        <ele>1271.0002441406</ele>
        <time>2012-01-21T08:45:48Z</time>
      </trkpt>
      <trkpt lat="45.65017" lon="6.20212">
        <ele>1272.9228515625</ele>
        <time>2012-01-21T08:45:56Z</time>
      </trkpt>
      <trkpt lat="45.65017" lon="6.20216">
        <ele>1272.9228515625</ele>
        <time>2012-01-21T08:46:02Z</time>
      </trkpt>
      <trkpt lat="45.65017" lon="6.20219">
        <ele>1272.9228515625</ele>
        <time>2012-01-21T08:46:07Z</time>
      </trkpt>
      <trkpt lat="45.65018" lon="6.20219">
        <ele>1273.4035644531</ele>
        <time>2012-01-21T08:46:12Z</time>
      </trkpt>
      <trkpt lat="45.65017" lon="6.2022">
        <ele>1275.3259277344</ele>
        <time>2012-01-21T08:46:20Z</time>
      </trkpt>
      <trkpt lat="45.65017" lon="6.20224">
        <ele>1275.3259277344</ele>
        <time>2012-01-21T08:46:24Z</time>
      </trkpt>
      <trkpt lat="45.65018" lon="6.20228">
        <ele>1274.8454589844</ele>
        <time>2012-01-21T08:46:29Z</time>
      </trkpt>
      <trkpt lat="45.65018" lon="6.20234">
        <ele>1274.3647460938</ele>
        <time>2012-01-21T08:46:35Z</time>
      </trkpt>
      <trkpt lat="45.65018" lon="6.20238">
        <ele>1273.4035644531</ele>
        <time>2012-01-21T08:46:40Z</time>
      </trkpt>
      <trkpt lat="45.65018" lon="6.20242">
        <ele>1273.4035644531</ele>
        <time>2012-01-21T08:46:48Z</time>
      </trkpt>
      <trkpt lat="45.65018" lon="6.20246">
        <ele>1272.9228515625</ele>
        <time>2012-01-21T08:46:53Z</time>
      </trkpt>
      <trkpt lat="45.65018" lon="6.2025">
        <ele>1273.8840332031</ele>
        <time>2012-01-21T08:47:03Z</time>
      </trkpt>
      <trkpt lat="45.65018" lon="6.20251">
        <ele>1272.9228515625</ele>
        <time>2012-01-21T08:47:13Z</time>
      </trkpt>
      <trkpt lat="45.65018" lon="6.20253">
        <ele>1273.4035644531</ele>
        <time>2012-01-21T08:47:20Z</time>
      </trkpt>
      <trkpt lat="45.65018" lon="6.20255">
        <ele>1273.8840332031</ele>
        <time>2012-01-21T08:47:26Z</time>
      </trkpt>
      <trkpt lat="45.65017" lon="6.20258">
        <ele>1274.3647460938</ele>
        <time>2012-01-21T08:47:32Z</time>
      </trkpt>
      <trkpt lat="45.65017" lon="6.20265">
        <ele>1273.8840332031</ele>
        <time>2012-01-21T08:47:39Z</time>
      </trkpt>
      <trkpt lat="45.65016" lon="6.2027">
        <ele>1274.3647460938</ele>
        <time>2012-01-21T08:47:46Z</time>
      </trkpt>
      <trkpt lat="45.65016" lon="6.20272">
        <ele>1274.8454589844</ele>
        <time>2012-01-21T08:47:52Z</time>
      </trkpt>
      <trkpt lat="45.65016" lon="6.20273">
        <ele>1274.3647460938</ele>
        <time>2012-01-21T08:48:01Z</time>
      </trkpt>
      <trkpt lat="45.65015" lon="6.20274">
        <ele>1273.8840332031</ele>
        <time>2012-01-21T08:48:09Z</time>
      </trkpt>
      <trkpt lat="45.65015" lon="6.20274">
        <ele>1274.8454589844</ele>
        <time>2012-01-21T08:48:16Z</time>
      </trkpt>
      <trkpt lat="45.65016" lon="6.20274">
        <ele>1275.806640625</ele>
        <time>2012-01-21T08:48:22Z</time>
      </trkpt>
      <trkpt lat="45.65015" lon="6.20276">
        <ele>1275.806640625</ele>
        <time>2012-01-21T08:48:29Z</time>
      </trkpt>
      <trkpt lat="45.65015" lon="6.20276">
        <ele>1276.2875976562</ele>
        <time>2012-01-21T08:48:39Z</time>
      </trkpt>
      <trkpt lat="45.65014" lon="6.20278">
        <ele>1276.7683105469</ele>
        <time>2012-01-21T08:48:45Z</time>
      </trkpt>
      <trkpt lat="45.65014" lon="6.20278">
        <ele>1276.7683105469</ele>
        <time>2012-01-21T08:48:53Z</time>
      </trkpt>
      <trkpt lat="45.65015" lon="6.20279">
        <ele>1275.3259277344</ele>
        <time>2012-01-21T08:49:03Z</time>
      </trkpt>
      <trkpt lat="45.65014" lon="6.2028">
        <ele>1275.3259277344</ele>
        <time>2012-01-21T08:49:08Z</time>
      </trkpt>
      <trkpt lat="45.65013" lon="6.20283">
        <ele>1276.7683105469</ele>
        <time>2012-01-21T08:49:14Z</time>
      </trkpt>
      <trkpt lat="45.65011" lon="6.20289">
        <ele>1278.2102050781</ele>
        <time>2012-01-21T08:49:21Z</time>
      </trkpt>
      <trkpt lat="45.6501" lon="6.20295">
        <ele>1277.7294921875</ele>
        <time>2012-01-21T08:49:28Z</time>
      </trkpt>
      <trkpt lat="45.65009" lon="6.20299">
        <ele>1277.7294921875</ele>
        <time>2012-01-21T08:49:34Z</time>
      </trkpt>
      <trkpt lat="45.65008" lon="6.20303">
        <ele>1277.7294921875</ele>
        <time>2012-01-21T08:49:42Z</time>
      </trkpt>
      <trkpt lat="45.65008" lon="6.20306">
        <ele>1278.2102050781</ele>
        <time>2012-01-21T08:49:47Z</time>
      </trkpt>
      <trkpt lat="45.65007" lon="6.2031">
        <ele>1278.6909179688</ele>
        <time>2012-01-21T08:49:53Z</time>
      </trkpt>
      <trkpt lat="45.65007" lon="6.20313">
        <ele>1280.1328125</ele>
        <time>2012-01-21T08:49:58Z</time>
      </trkpt>
      <trkpt lat="45.65007" lon="6.20316">
        <ele>1281.0942382812</ele>
        <time>2012-01-21T08:50:02Z</time>
      </trkpt>
      <trkpt lat="45.65006" lon="6.20319">
        <ele>1281.5747070312</ele>
        <time>2012-01-21T08:50:08Z</time>
      </trkpt>
      <trkpt lat="45.65005" lon="6.20322">
        <ele>1283.0166015625</ele>
        <time>2012-01-21T08:50:16Z</time>
      </trkpt>
      <trkpt lat="45.65004" lon="6.20325">
        <ele>1283.4973144531</ele>
        <time>2012-01-21T08:50:23Z</time>
      </trkpt>
      <trkpt lat="45.65002" lon="6.20331">
        <ele>1284.939453125</ele>
        <time>2012-01-21T08:50:35Z</time>
      </trkpt>
      <trkpt lat="45.65002" lon="6.20334">
        <ele>1285.419921875</ele>
        <time>2012-01-21T08:50:41Z</time>
      </trkpt>
      <trkpt lat="45.65001" lon="6.20337">
        <ele>1284.939453125</ele>
        <time>2012-01-21T08:50:46Z</time>
      </trkpt>
      <trkpt lat="45.65" lon="6.20339">
        <ele>1284.4587402344</ele>
        <time>2012-01-21T08:50:51Z</time>
      </trkpt>
      <trkpt lat="45.65" lon="6.20343">
        <ele>1283.0166015625</ele>
        <time>2012-01-21T08:50:58Z</time>
      </trkpt>
      <trkpt lat="45.64999" lon="6.20347">
        <ele>1283.9780273438</ele>
        <time>2012-01-21T08:51:05Z</time>
      </trkpt>
      <trkpt lat="45.64998" lon="6.20349">
        <ele>1284.939453125</ele>
        <time>2012-01-21T08:51:12Z</time>
      </trkpt>
      <trkpt lat="45.64996" lon="6.20353">
        <ele>1286.8618164062</ele>
        <time>2012-01-21T08:51:18Z</time>
      </trkpt>
      <trkpt lat="45.64994" lon="6.20356">
        <ele>1287.3425292969</ele>
        <time>2012-01-21T08:51:23Z</time>
      </trkpt>
      <trkpt lat="45.64993" lon="6.20358">
        <ele>1288.7846679688</ele>
        <time>2012-01-21T08:51:30Z</time>
      </trkpt>
      <trkpt lat="45.64993" lon="6.20361">
        <ele>1287.3425292969</ele>
        <time>2012-01-21T08:51:38Z</time>
      </trkpt>
      <trkpt lat="45.64994" lon="6.20363">
        <ele>1286.3813476562</ele>
        <time>2012-01-21T08:51:45Z</time>
      </trkpt>
      <trkpt lat="45.64994" lon="6.20364">
        <ele>1286.8618164062</ele>
        <time>2012-01-21T08:51:51Z</time>
      </trkpt>
      <trkpt lat="45.64996" lon="6.20366">
        <ele>1287.3425292969</ele>
        <time>2012-01-21T08:52:03Z</time>
      </trkpt>
      <trkpt lat="45.64996" lon="6.20368">
        <ele>1289.2651367188</ele>
        <time>2012-01-21T08:52:08Z</time>
      </trkpt>
      <trkpt lat="45.64998" lon="6.2037">
        <ele>1290.70703125</ele>
        <time>2012-01-21T08:52:13Z</time>
      </trkpt>
      <trkpt lat="45.65" lon="6.20373">
        <ele>1293.1105957031</ele>
        <time>2012-01-21T08:52:19Z</time>
      </trkpt>
      <trkpt lat="45.65001" lon="6.20375">
        <ele>1294.5524902344</ele>
        <time>2012-01-21T08:52:24Z</time>
      </trkpt>
      <trkpt lat="45.65005" lon="6.20379">
        <ele>1295.9946289062</ele>
        <time>2012-01-21T08:52:30Z</time>
      </trkpt>
      <trkpt lat="45.65007" lon="6.20381">
        <ele>1296.4753417969</ele>
        <time>2012-01-21T08:52:35Z</time>
      </trkpt>
      <trkpt lat="45.65012" lon="6.20383">
        <ele>1296.4753417969</ele>
        <time>2012-01-21T08:52:48Z</time>
      </trkpt>
      <trkpt lat="45.65013" lon="6.20388">
        <ele>1295.033203125</ele>
        <time>2012-01-21T08:52:53Z</time>
      </trkpt>
      <trkpt lat="45.65012" lon="6.20391">
        <ele>1294.0720214844</ele>
        <time>2012-01-21T08:52:59Z</time>
      </trkpt>
      <trkpt lat="45.6501" lon="6.20393">
        <ele>1297.9172363281</ele>
        <time>2012-01-21T08:53:14Z</time>
      </trkpt>
      <trkpt lat="45.65009" lon="6.20396">
        <ele>1298.8784179688</ele>
        <time>2012-01-21T08:53:20Z</time>
      </trkpt>
      <trkpt lat="45.65009" lon="6.20399">
        <ele>1298.8784179688</ele>
        <time>2012-01-21T08:53:29Z</time>
      </trkpt>
      <trkpt lat="45.65005" lon="6.20402">
        <ele>1300.8010253906</ele>
        <time>2012-01-21T08:53:37Z</time>
      </trkpt>
      <trkpt lat="45.65004" lon="6.20404">
        <ele>1301.2817382812</ele>
        <time>2012-01-21T08:53:46Z</time>
      </trkpt>
      <trkpt lat="45.65001" lon="6.20405">
        <ele>1302.7236328125</ele>
        <time>2012-01-21T08:53:52Z</time>
      </trkpt>
      <trkpt lat="45.64999" lon="6.20406">
        <ele>1302.7236328125</ele>
        <time>2012-01-21T08:53:56Z</time>
      </trkpt>
      <trkpt lat="45.64996" lon="6.20407">
        <ele>1305.6076660156</ele>
        <time>2012-01-21T08:54:05Z</time>
      </trkpt>
      <trkpt lat="45.64993" lon="6.2041">
        <ele>1304.6462402344</ele>
        <time>2012-01-21T08:54:14Z</time>
      </trkpt>
      <trkpt lat="45.64996" lon="6.20418">
        <ele>1306.0881347656</ele>
        <time>2012-01-21T08:54:34Z</time>
      </trkpt>
      <trkpt lat="45.64996" lon="6.20419">
        <ele>1308.4916992188</ele>
        <time>2012-01-21T08:54:39Z</time>
      </trkpt>
      <trkpt lat="45.64997" lon="6.20422">
        <ele>1308.0112304688</ele>
        <time>2012-01-21T08:54:46Z</time>
      </trkpt>
      <trkpt lat="45.64997" lon="6.20426">
        <ele>1307.5302734375</ele>
        <time>2012-01-21T08:54:52Z</time>
      </trkpt>
      <trkpt lat="45.64997" lon="6.20429">
        <ele>1307.5302734375</ele>
        <time>2012-01-21T08:54:59Z</time>
      </trkpt>
      <trkpt lat="45.64997" lon="6.20432">
        <ele>1307.0495605469</ele>
        <time>2012-01-21T08:55:03Z</time>
      </trkpt>
      <trkpt lat="45.64998" lon="6.20434">
        <ele>1307.0495605469</ele>
        <time>2012-01-21T08:55:08Z</time>
      </trkpt>
      <trkpt lat="45.64999" lon="6.20433">
        <ele>1304.1657714844</ele>
        <time>2012-01-21T08:55:33Z</time>
      </trkpt>
      <trkpt lat="45.65002" lon="6.20435">
        <ele>1303.6850585938</ele>
        <time>2012-01-21T08:55:40Z</time>
      </trkpt>
      <trkpt lat="45.65002" lon="6.20438">
        <ele>1306.0881347656</ele>
        <time>2012-01-21T08:55:47Z</time>
      </trkpt>
      <trkpt lat="45.65004" lon="6.20442">
        <ele>1306.5688476562</ele>
        <time>2012-01-21T08:55:52Z</time>
      </trkpt>
      <trkpt lat="45.65004" lon="6.20446">
        <ele>1304.6462402344</ele>
        <time>2012-01-21T08:56:01Z</time>
      </trkpt>
      <trkpt lat="45.65005" lon="6.20451">
        <ele>1304.1657714844</ele>
        <time>2012-01-21T08:56:11Z</time>
      </trkpt>
      <trkpt lat="45.65008" lon="6.20457">
        <ele>1303.6850585938</ele>
        <time>2012-01-21T08:56:16Z</time>
      </trkpt>
      <trkpt lat="45.65009" lon="6.20461">
        <ele>1308.0112304688</ele>
        <time>2012-01-21T08:56:21Z</time>
      </trkpt>
      <trkpt lat="45.6501" lon="6.20465">
        <ele>1309.453125</ele>
        <time>2012-01-21T08:56:26Z</time>
      </trkpt>
      <trkpt lat="45.65009" lon="6.20469">
        <ele>1314.740234375</ele>
        <time>2012-01-21T08:56:39Z</time>
      </trkpt>
      <trkpt lat="45.65012" lon="6.20476">
        <ele>1316.1821289062</ele>
        <time>2012-01-21T08:56:50Z</time>
      </trkpt>
      <trkpt lat="45.65014" lon="6.20479">
        <ele>1315.7016601562</ele>
        <time>2012-01-21T08:56:54Z</time>
      </trkpt>
      <trkpt lat="45.65017" lon="6.20479">
        <ele>1317.6240234375</ele>
        <time>2012-01-21T08:57:07Z</time>
      </trkpt>
      <trkpt lat="45.65019" lon="6.20479">
        <ele>1318.5854492188</ele>
        <time>2012-01-21T08:57:17Z</time>
      </trkpt>
      <trkpt lat="45.65019" lon="6.20476">
        <ele>1314.740234375</ele>
        <time>2012-01-21T08:57:30Z</time>
      </trkpt>
      <trkpt lat="45.65019" lon="6.2048">
        <ele>1314.2595214844</ele>
        <time>2012-01-21T08:57:35Z</time>
      </trkpt>
      <trkpt lat="45.65017" lon="6.20485">
        <ele>1314.740234375</ele>
        <time>2012-01-21T08:57:39Z</time>
      </trkpt>
      <trkpt lat="45.65016" lon="6.20488">
        <ele>1318.1047363281</ele>
        <time>2012-01-21T08:57:44Z</time>
      </trkpt>
      <trkpt lat="45.65018" lon="6.20492">
        <ele>1318.5854492188</ele>
        <time>2012-01-21T08:57:48Z</time>
      </trkpt>
      <trkpt lat="45.65018" lon="6.20494">
        <ele>1319.546875</ele>
        <time>2012-01-21T08:57:52Z</time>
      </trkpt>
      <trkpt lat="45.65019" lon="6.20497">
        <ele>1320.5080566406</ele>
        <time>2012-01-21T08:57:56Z</time>
      </trkpt>
      <trkpt lat="45.65018" lon="6.20499">
        <ele>1320.5080566406</ele>
        <time>2012-01-21T08:57:59Z</time>
      </trkpt>
      <trkpt lat="45.65019" lon="6.20504">
        <ele>1320.9887695312</ele>
        <time>2012-01-21T08:58:03Z</time>
      </trkpt>
      <trkpt lat="45.65021" lon="6.20506">
        <ele>1321.4692382812</ele>
        <time>2012-01-21T08:58:07Z</time>
      </trkpt>
      <trkpt lat="45.6502" lon="6.20507">
        <ele>1323.8725585938</ele>
        <time>2012-01-21T08:58:11Z</time>
      </trkpt>
      <trkpt lat="45.65025" lon="6.20512">
        <ele>1323.3920898438</ele>
        <time>2012-01-21T08:58:16Z</time>
      </trkpt>
      <trkpt lat="45.65027" lon="6.20518">
        <ele>1323.3920898438</ele>
        <time>2012-01-21T08:58:27Z</time>
      </trkpt>
      <trkpt lat="45.65028" lon="6.20522">
        <ele>1324.353515625</ele>
        <time>2012-01-21T08:58:34Z</time>
      </trkpt>
      <trkpt lat="45.6503" lon="6.20526">
        <ele>1324.8342285156</ele>
        <time>2012-01-21T08:58:39Z</time>
      </trkpt>
      <trkpt lat="45.65031" lon="6.2053">
        <ele>1324.353515625</ele>
        <time>2012-01-21T08:58:45Z</time>
      </trkpt>
      <trkpt lat="45.65029" lon="6.20533">
        <ele>1333.0051269531</ele>
        <time>2012-01-21T08:58:52Z</time>
      </trkpt>
      <trkpt lat="45.65033" lon="6.20535">
        <ele>1332.5246582031</ele>
        <time>2012-01-21T08:58:59Z</time>
      </trkpt>
      <trkpt lat="45.65035" lon="6.20539">
        <ele>1331.5632324219</ele>
        <time>2012-01-21T08:59:07Z</time>
      </trkpt>
      <trkpt lat="45.65035" lon="6.20543">
        <ele>1330.1213378906</ele>
        <time>2012-01-21T08:59:13Z</time>
      </trkpt>
      <trkpt lat="45.65036" lon="6.20546">
        <ele>1331.5632324219</ele>
        <time>2012-01-21T08:59:19Z</time>
      </trkpt>
      <trkpt lat="45.65037" lon="6.20549">
        <ele>1333.0051269531</ele>
        <time>2012-01-21T08:59:25Z</time>
      </trkpt>
      <trkpt lat="45.65036" lon="6.20549">
        <ele>1333.4858398438</ele>
        <time>2012-01-21T08:59:46Z</time>
      </trkpt>
      <trkpt lat="45.65038" lon="6.20546">
        <ele>1331.0827636719</ele>
        <time>2012-01-21T08:59:58Z</time>
      </trkpt>
      <trkpt lat="45.65038" lon="6.20546">
        <ele>1330.1213378906</ele>
        <time>2012-01-21T09:00:00Z</time>
      </trkpt>
      <trkpt lat="45.65038" lon="6.20547">
        <ele>1327.7180175781</ele>
        <time>2012-01-21T09:00:07Z</time>
      </trkpt>
      <trkpt lat="45.65039" lon="6.20551">
        <ele>1327.2375488281</ele>
        <time>2012-01-21T09:00:11Z</time>
      </trkpt>
      <trkpt lat="45.65039" lon="6.20553">
        <ele>1328.1987304688</ele>
        <time>2012-01-21T09:00:12Z</time>
      </trkpt>
      <trkpt lat="45.65042" lon="6.20558">
        <ele>1328.6794433594</ele>
        <time>2012-01-21T09:00:18Z</time>
      </trkpt>
      <trkpt lat="45.65044" lon="6.20559">
        <ele>1330.1213378906</ele>
        <time>2012-01-21T09:00:25Z</time>
      </trkpt>
      <trkpt lat="45.65046" lon="6.20559">
        <ele>1331.0827636719</ele>
        <time>2012-01-21T09:00:35Z</time>
      </trkpt>
      <trkpt lat="45.65048" lon="6.20554">
        <ele>1330.1213378906</ele>
        <time>2012-01-21T09:00:43Z</time>
      </trkpt>
      <trkpt lat="45.65048" lon="6.20549">
        <ele>1330.6020507812</ele>
        <time>2012-01-21T09:00:48Z</time>
      </trkpt>
      <trkpt lat="45.65048" lon="6.20546">
        <ele>1330.6020507812</ele>
        <time>2012-01-21T09:00:52Z</time>
      </trkpt>
      <trkpt lat="45.65047" lon="6.20545">
        <ele>1331.0827636719</ele>
        <time>2012-01-21T09:00:57Z</time>
      </trkpt>
      <trkpt lat="45.65048" lon="6.20546">
        <ele>1328.6794433594</ele>
        <time>2012-01-21T09:01:03Z</time>
      </trkpt>
      <trkpt lat="45.6505" lon="6.20549">
        <ele>1326.7568359375</ele>
        <time>2012-01-21T09:01:15Z</time>
      </trkpt>
      <trkpt lat="45.65049" lon="6.20548">
        <ele>1326.7568359375</ele>
        <time>2012-01-21T09:01:26Z</time>
      </trkpt>
      <trkpt lat="45.65049" lon="6.20549">
        <ele>1327.2375488281</ele>
        <time>2012-01-21T09:01:32Z</time>
      </trkpt>
      <trkpt lat="45.65049" lon="6.20548">
        <ele>1327.7180175781</ele>
        <time>2012-01-21T09:01:40Z</time>
      </trkpt>
      <trkpt lat="45.65049" lon="6.20548">
        <ele>1328.1987304688</ele>
        <time>2012-01-21T09:01:48Z</time>
      </trkpt>
      <trkpt lat="45.65049" lon="6.20548">
        <ele>1328.6794433594</ele>
        <time>2012-01-21T09:01:52Z</time>
      </trkpt>
      <trkpt lat="45.65051" lon="6.20544">
        <ele>1330.1213378906</ele>
        <time>2012-01-21T09:02:06Z</time>
      </trkpt>
      <trkpt lat="45.65053" lon="6.20543">
        <ele>1329.1599121094</ele>
        <time>2012-01-21T09:02:10Z</time>
      </trkpt>
      <trkpt lat="45.65054" lon="6.20542">
        <ele>1329.1599121094</ele>
        <time>2012-01-21T09:02:16Z</time>
      </trkpt>
      <trkpt lat="45.65054" lon="6.2054">
        <ele>1330.6020507812</ele>
        <time>2012-01-21T09:02:26Z</time>
      </trkpt>
      <trkpt lat="45.65056" lon="6.2054">
        <ele>1329.640625</ele>
        <time>2012-01-21T09:02:30Z</time>
      </trkpt>
      <trkpt lat="45.65058" lon="6.20539">
        <ele>1330.1213378906</ele>
        <time>2012-01-21T09:02:33Z</time>
      </trkpt>
      <trkpt lat="45.65059" lon="6.20538">
        <ele>1330.6020507812</ele>
        <time>2012-01-21T09:02:36Z</time>
      </trkpt>
      <trkpt lat="45.65061" lon="6.20538">
        <ele>1332.5246582031</ele>
        <time>2012-01-21T09:02:40Z</time>
      </trkpt>
      <trkpt lat="45.65061" lon="6.20537">
        <ele>1335.4084472656</ele>
        <time>2012-01-21T09:02:45Z</time>
      </trkpt>
      <trkpt lat="45.65063" lon="6.20538">
        <ele>1337.3310546875</ele>
        <time>2012-01-21T09:02:49Z</time>
      </trkpt>
      <trkpt lat="45.65066" lon="6.20537">
        <ele>1339.2536621094</ele>
        <time>2012-01-21T09:02:54Z</time>
      </trkpt>
      <trkpt lat="45.65067" lon="6.20536">
        <ele>1340.2153320312</ele>
        <time>2012-01-21T09:03:02Z</time>
      </trkpt>
      <trkpt lat="45.65071" lon="6.20536">
        <ele>1341.6572265625</ele>
        <time>2012-01-21T09:03:12Z</time>
      </trkpt>
      <trkpt lat="45.65073" lon="6.20536">
        <ele>1342.6186523438</ele>
        <time>2012-01-21T09:03:17Z</time>
      </trkpt>
      <trkpt lat="45.65073" lon="6.20537">
        <ele>1339.2536621094</ele>
        <time>2012-01-21T09:03:36Z</time>
      </trkpt>
      <trkpt lat="45.65073" lon="6.20538">
        <ele>1339.734375</ele>
        <time>2012-01-21T09:03:50Z</time>
      </trkpt>
      <trkpt lat="45.65073" lon="6.20538">
        <ele>1339.734375</ele>
        <time>2012-01-21T09:04:00Z</time>
      </trkpt>
      <trkpt lat="45.65076" lon="6.20539">
        <ele>1339.734375</ele>
        <time>2012-01-21T09:04:10Z</time>
      </trkpt>
      <trkpt lat="45.65078" lon="6.20539">
        <ele>1338.7731933594</ele>
        <time>2012-01-21T09:04:18Z</time>
      </trkpt>
      <trkpt lat="45.65081" lon="6.20541">
        <ele>1337.8117675781</ele>
        <time>2012-01-21T09:04:22Z</time>
      </trkpt>
      <trkpt lat="45.65083" lon="6.20543">
        <ele>1337.3310546875</ele>
        <time>2012-01-21T09:04:27Z</time>
      </trkpt>
      <trkpt lat="45.65085" lon="6.20544">
        <ele>1338.2924804688</ele>
        <time>2012-01-21T09:04:31Z</time>
      </trkpt>
      <trkpt lat="45.65086" lon="6.20543">
        <ele>1339.734375</ele>
        <time>2012-01-21T09:04:37Z</time>
      </trkpt>
      <trkpt lat="45.65088" lon="6.20543">
        <ele>1338.7731933594</ele>
        <time>2012-01-21T09:04:51Z</time>
      </trkpt>
      <trkpt lat="45.6509" lon="6.20544">
        <ele>1339.2536621094</ele>
        <time>2012-01-21T09:04:58Z</time>
      </trkpt>
      <trkpt lat="45.65092" lon="6.20544">
        <ele>1340.2153320312</ele>
        <time>2012-01-21T09:05:02Z</time>
      </trkpt>
      <trkpt lat="45.65095" lon="6.20545">
        <ele>1340.6958007812</ele>
        <time>2012-01-21T09:05:06Z</time>
      </trkpt>
      <trkpt lat="45.65097" lon="6.20547">
        <ele>1341.6572265625</ele>
        <time>2012-01-21T09:05:11Z</time>
      </trkpt>
      <trkpt lat="45.65099" lon="6.20548">
        <ele>1343.0991210938</ele>
        <time>2012-01-21T09:05:17Z</time>
      </trkpt>
      <trkpt lat="45.65101" lon="6.20549">
        <ele>1345.0217285156</ele>
        <time>2012-01-21T09:05:21Z</time>
      </trkpt>
      <trkpt lat="45.65104" lon="6.20548">
        <ele>1346.9443359375</ele>
        <time>2012-01-21T09:05:25Z</time>
      </trkpt>
      <trkpt lat="45.65107" lon="6.20549">
        <ele>1348.3862304688</ele>
        <time>2012-01-21T09:05:30Z</time>
      </trkpt>
      <trkpt lat="45.65107" lon="6.20549">
        <ele>1348.3862304688</ele>
        <time>2012-01-21T09:05:37Z</time>
      </trkpt>
      <trkpt lat="45.65108" lon="6.20549">
        <ele>1347.9057617188</ele>
        <time>2012-01-21T09:05:44Z</time>
      </trkpt>
      <trkpt lat="45.65111" lon="6.20548">
        <ele>1347.9057617188</ele>
        <time>2012-01-21T09:05:54Z</time>
      </trkpt>
      <trkpt lat="45.6511" lon="6.20548">
        <ele>1345.0217285156</ele>
        <time>2012-01-21T09:06:07Z</time>
      </trkpt>
      <trkpt lat="45.65109" lon="6.20548">
        <ele>1344.060546875</ele>
        <time>2012-01-21T09:06:16Z</time>
      </trkpt>
      <trkpt lat="45.65109" lon="6.20549">
        <ele>1343.5798339844</ele>
        <time>2012-01-21T09:06:21Z</time>
      </trkpt>
      <trkpt lat="45.65109" lon="6.20549">
        <ele>1343.0991210938</ele>
        <time>2012-01-21T09:06:24Z</time>
      </trkpt>
      <trkpt lat="45.65112" lon="6.2055">
        <ele>1343.5798339844</ele>
        <time>2012-01-21T09:06:29Z</time>
      </trkpt>
      <trkpt lat="45.65115" lon="6.20551">
        <ele>1344.541015625</ele>
        <time>2012-01-21T09:06:35Z</time>
      </trkpt>
      <trkpt lat="45.65118" lon="6.20552">
        <ele>1345.0217285156</ele>
        <time>2012-01-21T09:06:41Z</time>
      </trkpt>
      <trkpt lat="45.65118" lon="6.20552">
        <ele>1345.5024414062</ele>
        <time>2012-01-21T09:06:42Z</time>
      </trkpt>
      <trkpt lat="45.65121" lon="6.20552">
        <ele>1345.0217285156</ele>
        <time>2012-01-21T09:06:45Z</time>
      </trkpt>
      <trkpt lat="45.65121" lon="6.20552">
        <ele>1345.9831542969</ele>
        <time>2012-01-21T09:06:52Z</time>
      </trkpt>
      <trkpt lat="45.65121" lon="6.2055">
        <ele>1345.0217285156</ele>
        <time>2012-01-21T09:07:01Z</time>
      </trkpt>
      <trkpt lat="45.65124" lon="6.20552">
        <ele>1344.541015625</ele>
        <time>2012-01-21T09:07:07Z</time>
      </trkpt>
      <trkpt lat="45.65126" lon="6.20554">
        <ele>1345.5024414062</ele>
        <time>2012-01-21T09:07:11Z</time>
      </trkpt>
      <trkpt lat="45.65127" lon="6.20555">
        <ele>1346.4638671875</ele>
        <time>2012-01-21T09:07:19Z</time>
      </trkpt>
      <trkpt lat="45.65129" lon="6.20557">
        <ele>1345.5024414062</ele>
        <time>2012-01-21T09:07:32Z</time>
      </trkpt>
      <trkpt lat="45.65133" lon="6.20558">
        <ele>1344.541015625</ele>
        <time>2012-01-21T09:07:38Z</time>
      </trkpt>
      <trkpt lat="45.65136" lon="6.20558">
        <ele>1345.5024414062</ele>
        <time>2012-01-21T09:07:43Z</time>
      </trkpt>
      <trkpt lat="45.65139" lon="6.20558">
        <ele>1346.9443359375</ele>
        <time>2012-01-21T09:07:49Z</time>
      </trkpt>
      <trkpt lat="45.65141" lon="6.20558">
        <ele>1347.9057617188</ele>
        <time>2012-01-21T09:08:03Z</time>
      </trkpt>
      <trkpt lat="45.65143" lon="6.20558">
        <ele>1348.8669433594</ele>
        <time>2012-01-21T09:08:09Z</time>
      </trkpt>
      <trkpt lat="45.65142" lon="6.20558">
        <ele>1349.34765625</ele>
        <time>2012-01-21T09:08:21Z</time>
      </trkpt>
      <trkpt lat="45.65143" lon="6.20557">
        <ele>1349.8283691406</ele>
        <time>2012-01-21T09:08:25Z</time>
      </trkpt>
      <trkpt lat="45.65143" lon="6.20557">
        <ele>1349.34765625</ele>
        <time>2012-01-21T09:08:33Z</time>
      </trkpt>
      <trkpt lat="45.65142" lon="6.20556">
        <ele>1349.34765625</ele>
        <time>2012-01-21T09:08:37Z</time>
      </trkpt>
      <trkpt lat="45.65141" lon="6.20555">
        <ele>1350.7895507812</ele>
        <time>2012-01-21T09:08:46Z</time>
      </trkpt>
      <trkpt lat="45.65142" lon="6.20556">
        <ele>1350.7895507812</ele>
        <time>2012-01-21T09:09:00Z</time>
      </trkpt>
      <trkpt lat="45.65144" lon="6.20558">
        <ele>1348.3862304688</ele>
        <time>2012-01-21T09:09:06Z</time>
      </trkpt>
      <trkpt lat="45.65142" lon="6.20556">
        <ele>1349.8283691406</ele>
        <time>2012-01-21T09:09:20Z</time>
      </trkpt>
      <trkpt lat="45.65142" lon="6.20555">
        <ele>1351.2702636719</ele>
        <time>2012-01-21T09:09:35Z</time>
      </trkpt>
      <trkpt lat="45.65142" lon="6.20555">
        <ele>1351.7509765625</ele>
        <time>2012-01-21T09:09:40Z</time>
      </trkpt>
      <trkpt lat="45.65142" lon="6.20554">
        <ele>1352.7121582031</ele>
        <time>2012-01-21T09:10:10Z</time>
      </trkpt>
      <trkpt lat="45.65142" lon="6.20555">
        <ele>1352.2314453125</ele>
        <time>2012-01-21T09:10:18Z</time>
      </trkpt>
      <trkpt lat="45.65143" lon="6.20556">
        <ele>1351.2702636719</ele>
        <time>2012-01-21T09:10:28Z</time>
      </trkpt>
      <trkpt lat="45.65143" lon="6.20556">
        <ele>1350.7895507812</ele>
        <time>2012-01-21T09:10:32Z</time>
      </trkpt>
      <trkpt lat="45.65143" lon="6.20557">
        <ele>1349.8283691406</ele>
        <time>2012-01-21T09:10:40Z</time>
      </trkpt>
      <trkpt lat="45.65144" lon="6.20557">
        <ele>1349.8283691406</ele>
        <time>2012-01-21T09:10:42Z</time>
      </trkpt>
      <trkpt lat="45.65144" lon="6.20557">
        <ele>1349.8283691406</ele>
        <time>2012-01-21T09:10:43Z</time>
      </trkpt>
      <trkpt lat="45.65141" lon="6.20557">
        <ele>1349.8283691406</ele>
        <time>2012-01-21T09:10:59Z</time>
      </trkpt>
      <trkpt lat="45.65141" lon="6.20557">
        <ele>1349.34765625</ele>
        <time>2012-01-21T09:11:09Z</time>
      </trkpt>
      <trkpt lat="45.65142" lon="6.20557">
        <ele>1348.3862304688</ele>
        <time>2012-01-21T09:11:21Z</time>
      </trkpt>
      <trkpt lat="45.65143" lon="6.20557">
        <ele>1348.8669433594</ele>
        <time>2012-01-21T09:11:50Z</time>
      </trkpt>
      <trkpt lat="45.65143" lon="6.20557">
        <ele>1348.8669433594</ele>
        <time>2012-01-21T09:11:58Z</time>
      </trkpt>
      <trkpt lat="45.65144" lon="6.20556">
        <ele>1349.34765625</ele>
        <time>2012-01-21T09:12:08Z</time>
      </trkpt>
      <trkpt lat="45.65147" lon="6.20556">
        <ele>1349.8283691406</ele>
        <time>2012-01-21T09:12:13Z</time>
      </trkpt>
      <trkpt lat="45.65148" lon="6.20556">
        <ele>1350.3090820312</ele>
        <time>2012-01-21T09:12:15Z</time>
      </trkpt>
      <trkpt lat="45.65151" lon="6.20556">
        <ele>1350.7895507812</ele>
        <time>2012-01-21T09:12:21Z</time>
      </trkpt>
      <trkpt lat="45.65153" lon="6.20556">
        <ele>1351.2702636719</ele>
        <time>2012-01-21T09:12:28Z</time>
      </trkpt>
      <trkpt lat="45.65153" lon="6.20556">
        <ele>1351.2702636719</ele>
        <time>2012-01-21T09:12:34Z</time>
      </trkpt>
      <trkpt lat="45.65154" lon="6.20557">
        <ele>1351.7509765625</ele>
        <time>2012-01-21T09:12:42Z</time>
      </trkpt>
      <trkpt lat="45.65157" lon="6.20557">
        <ele>1352.2314453125</ele>
        <time>2012-01-21T09:12:48Z</time>
      </trkpt>
      <trkpt lat="45.65158" lon="6.20558">
        <ele>1352.2314453125</ele>
        <time>2012-01-21T09:12:53Z</time>
      </trkpt>
      <trkpt lat="45.6516" lon="6.20558">
        <ele>1353.6735839844</ele>
        <time>2012-01-21T09:12:57Z</time>
      </trkpt>
      <trkpt lat="45.65162" lon="6.20558">
        <ele>1354.154296875</ele>
        <time>2012-01-21T09:13:03Z</time>
      </trkpt>
      <trkpt lat="45.65165" lon="6.20559">
        <ele>1352.7121582031</ele>
        <time>2012-01-21T09:13:08Z</time>
      </trkpt>
      <trkpt lat="45.65168" lon="6.20559">
        <ele>1352.7121582031</ele>
        <time>2012-01-21T09:13:14Z</time>
      </trkpt>
      <trkpt lat="45.6517" lon="6.20559">
        <ele>1352.7121582031</ele>
        <time>2012-01-21T09:13:19Z</time>
      </trkpt>
      <trkpt lat="45.65171" lon="6.20559">
        <ele>1353.6735839844</ele>
        <time>2012-01-21T09:13:23Z</time>
      </trkpt>
      <trkpt lat="45.65173" lon="6.2056">
        <ele>1355.1154785156</ele>
        <time>2012-01-21T09:13:27Z</time>
      </trkpt>
      <trkpt lat="45.65174" lon="6.2056">
        <ele>1356.5576171875</ele>
        <time>2012-01-21T09:13:31Z</time>
      </trkpt>
      <trkpt lat="45.65177" lon="6.20561">
        <ele>1357.9997558594</ele>
        <time>2012-01-21T09:13:36Z</time>
      </trkpt>
      <trkpt lat="45.65179" lon="6.20561">
        <ele>1358.9609375</ele>
        <time>2012-01-21T09:13:41Z</time>
      </trkpt>
      <trkpt lat="45.65182" lon="6.20562">
        <ele>1358.9609375</ele>
        <time>2012-01-21T09:13:45Z</time>
      </trkpt>
      <trkpt lat="45.65185" lon="6.20563">
        <ele>1360.4028320312</ele>
        <time>2012-01-21T09:13:51Z</time>
      </trkpt>
      <trkpt lat="45.65187" lon="6.20565">
        <ele>1360.4028320312</ele>
        <time>2012-01-21T09:13:55Z</time>
      </trkpt>
      <trkpt lat="45.65187" lon="6.20565">
        <ele>1360.4028320312</ele>
        <time>2012-01-21T09:13:59Z</time>
      </trkpt>
      <trkpt lat="45.65188" lon="6.20567">
        <ele>1359.4416503906</ele>
        <time>2012-01-21T09:14:06Z</time>
      </trkpt>
      <trkpt lat="45.65187" lon="6.20567">
        <ele>1359.9221191406</ele>
        <time>2012-01-21T09:14:17Z</time>
      </trkpt>
      <trkpt lat="45.65187" lon="6.20568">
        <ele>1361.3642578125</ele>
        <time>2012-01-21T09:14:26Z</time>
      </trkpt>
      <trkpt lat="45.65187" lon="6.20568">
        <ele>1361.8449707031</ele>
        <time>2012-01-21T09:14:32Z</time>
      </trkpt>
      <trkpt lat="45.65187" lon="6.20568">
        <ele>1361.8449707031</ele>
        <time>2012-01-21T09:14:38Z</time>
      </trkpt>
      <trkpt lat="45.65187" lon="6.20568">
        <ele>1361.8449707031</ele>
        <time>2012-01-21T09:14:43Z</time>
      </trkpt>
      <trkpt lat="45.65186" lon="6.20567">
        <ele>1362.3254394531</ele>
        <time>2012-01-21T09:14:48Z</time>
      </trkpt>
      <trkpt lat="45.65187" lon="6.2057">
        <ele>1362.3254394531</ele>
        <time>2012-01-21T09:14:55Z</time>
      </trkpt>
      <trkpt lat="45.65187" lon="6.2057">
        <ele>1362.8061523438</ele>
        <time>2012-01-21T09:14:58Z</time>
      </trkpt>
      <trkpt lat="45.65188" lon="6.20569">
        <ele>1362.3254394531</ele>
        <time>2012-01-21T09:15:09Z</time>
      </trkpt>
      <trkpt lat="45.65187" lon="6.20569">
        <ele>1362.8061523438</ele>
        <time>2012-01-21T09:15:19Z</time>
      </trkpt>
      <trkpt lat="45.65189" lon="6.20568">
        <ele>1361.3642578125</ele>
        <time>2012-01-21T09:15:33Z</time>
      </trkpt>
      <trkpt lat="45.65189" lon="6.20567">
        <ele>1361.8449707031</ele>
        <time>2012-01-21T09:15:40Z</time>
      </trkpt>
      <trkpt lat="45.65189" lon="6.20567">
        <ele>1361.3642578125</ele>
        <time>2012-01-21T09:15:48Z</time>
      </trkpt>
      <trkpt lat="45.65189" lon="6.20567">
        <ele>1360.8835449219</ele>
        <time>2012-01-21T09:15:54Z</time>
      </trkpt>
      <trkpt lat="45.65189" lon="6.20567">
        <ele>1360.8835449219</ele>
        <time>2012-01-21T09:16:17Z</time>
      </trkpt>
      <trkpt lat="45.65189" lon="6.20567">
        <ele>1361.3642578125</ele>
        <time>2012-01-21T09:16:31Z</time>
      </trkpt>
      <trkpt lat="45.65189" lon="6.20567">
        <ele>1360.8835449219</ele>
        <time>2012-01-21T09:16:46Z</time>
      </trkpt>
      <trkpt lat="45.65189" lon="6.20567">
        <ele>1360.4028320312</ele>
        <time>2012-01-21T09:16:50Z</time>
      </trkpt>
      <trkpt lat="45.65188" lon="6.20567">
        <ele>1361.3642578125</ele>
        <time>2012-01-21T09:17:00Z</time>
      </trkpt>
      <trkpt lat="45.65189" lon="6.20568">
        <ele>1362.3254394531</ele>
        <time>2012-01-21T09:17:15Z</time>
      </trkpt>
      <trkpt lat="45.65188" lon="6.20568">
        <ele>1361.8449707031</ele>
        <time>2012-01-21T09:17:21Z</time>
      </trkpt>
      <trkpt lat="45.65188" lon="6.20566">
        <ele>1359.9221191406</ele>
        <time>2012-01-21T09:17:38Z</time>
      </trkpt>
      <trkpt lat="45.65188" lon="6.20566">
        <ele>1359.9221191406</ele>
        <time>2012-01-21T09:17:51Z</time>
      </trkpt>
      <trkpt lat="45.65187" lon="6.20567">
        <ele>1360.4028320312</ele>
        <time>2012-01-21T09:17:56Z</time>
      </trkpt>
      <trkpt lat="45.65187" lon="6.20567">
        <ele>1359.9221191406</ele>
        <time>2012-01-21T09:18:05Z</time>
      </trkpt>
      <trkpt lat="45.65187" lon="6.20567">
        <ele>1360.4028320312</ele>
        <time>2012-01-21T09:18:06Z</time>
      </trkpt>
      <trkpt lat="45.65189" lon="6.20566">
        <ele>1359.4416503906</ele>
        <time>2012-01-21T09:18:22Z</time>
      </trkpt>
      <trkpt lat="45.65189" lon="6.20566">
        <ele>1358.9609375</ele>
        <time>2012-01-21T09:18:33Z</time>
      </trkpt>
      <trkpt lat="45.65187" lon="6.20568">
        <ele>1361.3642578125</ele>
        <time>2012-01-21T09:18:51Z</time>
      </trkpt>
      <trkpt lat="45.65189" lon="6.20569">
        <ele>1362.3254394531</ele>
        <time>2012-01-21T09:19:25Z</time>
      </trkpt>
      <trkpt lat="45.65189" lon="6.20567">
        <ele>1362.3254394531</ele>
        <time>2012-01-21T09:19:40Z</time>
      </trkpt>
      <trkpt lat="45.6519" lon="6.20567">
        <ele>1360.8835449219</ele>
        <time>2012-01-21T09:19:58Z</time>
      </trkpt>
      <trkpt lat="45.6519" lon="6.20567">
        <ele>1360.4028320312</ele>
        <time>2012-01-21T09:20:09Z</time>
      </trkpt>
      <trkpt lat="45.65189" lon="6.20567">
        <ele>1358.9609375</ele>
        <time>2012-01-21T09:20:16Z</time>
      </trkpt>
      <trkpt lat="45.6519" lon="6.20565">
        <ele>1357.9997558594</ele>
        <time>2012-01-21T09:20:21Z</time>
      </trkpt>
      <trkpt lat="45.65189" lon="6.20563">
        <ele>1358.9609375</ele>
        <time>2012-01-21T09:20:30Z</time>
      </trkpt>
      <trkpt lat="45.65189" lon="6.20564">
        <ele>1357.9997558594</ele>
        <time>2012-01-21T09:20:37Z</time>
      </trkpt>
      <trkpt lat="45.65189" lon="6.20564">
        <ele>1358.4802246094</ele>
        <time>2012-01-21T09:20:47Z</time>
      </trkpt>
      <trkpt lat="45.65189" lon="6.20564">
        <ele>1358.9609375</ele>
        <time>2012-01-21T09:21:04Z</time>
      </trkpt>
      <trkpt lat="45.65189" lon="6.20564">
        <ele>1359.4416503906</ele>
        <time>2012-01-21T09:21:13Z</time>
      </trkpt>
      <trkpt lat="45.65189" lon="6.20564">
        <ele>1359.9221191406</ele>
        <time>2012-01-21T09:21:17Z</time>
      </trkpt>
      <trkpt lat="45.65188" lon="6.20565">
        <ele>1359.9221191406</ele>
        <time>2012-01-21T09:21:25Z</time>
      </trkpt>
      <trkpt lat="45.65189" lon="6.20565">
        <ele>1360.8835449219</ele>
        <time>2012-01-21T09:21:30Z</time>
      </trkpt>
      <trkpt lat="45.6519" lon="6.20567">
        <ele>1361.3642578125</ele>
        <time>2012-01-21T09:21:35Z</time>
      </trkpt>
      <trkpt lat="45.65191" lon="6.20568">
        <ele>1361.3642578125</ele>
        <time>2012-01-21T09:21:39Z</time>
      </trkpt>
      <trkpt lat="45.65192" lon="6.2057">
        <ele>1361.8449707031</ele>
        <time>2012-01-21T09:21:44Z</time>
      </trkpt>
      <trkpt lat="45.65195" lon="6.20573">
        <ele>1362.8061523438</ele>
        <time>2012-01-21T09:21:49Z</time>
      </trkpt>
      <trkpt lat="45.65197" lon="6.20575">
        <ele>1362.3254394531</ele>
        <time>2012-01-21T09:21:53Z</time>
      </trkpt>
      <trkpt lat="45.652" lon="6.20577">
        <ele>1362.8061523438</ele>
        <time>2012-01-21T09:21:57Z</time>
      </trkpt>
      <trkpt lat="45.65203" lon="6.2058">
        <ele>1363.7673339844</ele>
        <time>2012-01-21T09:22:03Z</time>
      </trkpt>
      <trkpt lat="45.65205" lon="6.20582">
        <ele>1364.248046875</ele>
        <time>2012-01-21T09:22:07Z</time>
      </trkpt>
      <trkpt lat="45.65206" lon="6.20583">
        <ele>1364.7287597656</ele>
        <time>2012-01-21T09:22:11Z</time>
      </trkpt>
      <trkpt lat="45.65207" lon="6.20585">
        <ele>1365.2094726562</ele>
        <time>2012-01-21T09:22:19Z</time>
      </trkpt>
      <trkpt lat="45.65209" lon="6.20587">
        <ele>1365.2094726562</ele>
        <time>2012-01-21T09:22:25Z</time>
      </trkpt>
      <trkpt lat="45.6521" lon="6.20589">
        <ele>1364.7287597656</ele>
        <time>2012-01-21T09:22:30Z</time>
      </trkpt>
      <trkpt lat="45.65213" lon="6.20591">
        <ele>1365.2094726562</ele>
        <time>2012-01-21T09:22:35Z</time>
      </trkpt>
      <trkpt lat="45.65215" lon="6.20594">
        <ele>1365.6901855469</ele>
        <time>2012-01-21T09:22:40Z</time>
      </trkpt>
      <trkpt lat="45.65217" lon="6.20596">
        <ele>1366.1706542969</ele>
        <time>2012-01-21T09:22:44Z</time>
      </trkpt>
      <trkpt lat="45.65218" lon="6.20597">
        <ele>1367.1320800781</ele>
        <time>2012-01-21T09:22:48Z</time>
      </trkpt>
      <trkpt lat="45.65219" lon="6.206">
        <ele>1367.6125488281</ele>
        <time>2012-01-21T09:22:52Z</time>
      </trkpt>
      <trkpt lat="45.65221" lon="6.20601">
        <ele>1368.0932617188</ele>
        <time>2012-01-21T09:22:56Z</time>
      </trkpt>
      <trkpt lat="45.65223" lon="6.20604">
        <ele>1369.5354003906</ele>
        <time>2012-01-21T09:23:03Z</time>
      </trkpt>
      <trkpt lat="45.65225" lon="6.20606">
        <ele>1369.5354003906</ele>
        <time>2012-01-21T09:23:08Z</time>
      </trkpt>
      <trkpt lat="45.65227" lon="6.20607">
        <ele>1370.0158691406</ele>
        <time>2012-01-21T09:23:12Z</time>
      </trkpt>
      <trkpt lat="45.65229" lon="6.20609">
        <ele>1369.5354003906</ele>
        <time>2012-01-21T09:23:16Z</time>
      </trkpt>
      <trkpt lat="45.65231" lon="6.20611">
        <ele>1370.9772949219</ele>
        <time>2012-01-21T09:23:21Z</time>
      </trkpt>
      <trkpt lat="45.65233" lon="6.20612">
        <ele>1370.4965820312</ele>
        <time>2012-01-21T09:23:25Z</time>
      </trkpt>
      <trkpt lat="45.65236" lon="6.20613">
        <ele>1370.9772949219</ele>
        <time>2012-01-21T09:23:30Z</time>
      </trkpt>
      <trkpt lat="45.65237" lon="6.20615">
        <ele>1371.9384765625</ele>
        <time>2012-01-21T09:23:35Z</time>
      </trkpt>
      <trkpt lat="45.65239" lon="6.20616">
        <ele>1372.9001464844</ele>
        <time>2012-01-21T09:23:39Z</time>
      </trkpt>
      <trkpt lat="45.6524" lon="6.20617">
        <ele>1373.861328125</ele>
        <time>2012-01-21T09:23:43Z</time>
      </trkpt>
      <trkpt lat="45.6524" lon="6.20617">
        <ele>1374.8227539062</ele>
        <time>2012-01-21T09:23:52Z</time>
      </trkpt>
      <trkpt lat="45.65239" lon="6.20617">
        <ele>1375.3032226562</ele>
        <time>2012-01-21T09:23:59Z</time>
      </trkpt>
      <trkpt lat="45.65239" lon="6.20618">
        <ele>1375.7839355469</ele>
        <time>2012-01-21T09:24:08Z</time>
      </trkpt>
      <trkpt lat="45.65239" lon="6.20618">
        <ele>1375.7839355469</ele>
        <time>2012-01-21T09:24:11Z</time>
      </trkpt>
      <trkpt lat="45.65239" lon="6.20618">
        <ele>1375.7839355469</ele>
        <time>2012-01-21T09:24:12Z</time>
      </trkpt>
      <trkpt lat="45.65239" lon="6.20618">
        <ele>1375.7839355469</ele>
        <time>2012-01-21T09:24:14Z</time>
      </trkpt>
      <trkpt lat="45.6524" lon="6.20618">
        <ele>1376.7453613281</ele>
        <time>2012-01-21T09:24:21Z</time>
      </trkpt>
      <trkpt lat="45.65241" lon="6.20618">
        <ele>1377.2260742188</ele>
        <time>2012-01-21T09:24:24Z</time>
      </trkpt>
      <trkpt lat="45.65244" lon="6.20618">
        <ele>1378.1872558594</ele>
        <time>2012-01-21T09:24:29Z</time>
      </trkpt>
      <trkpt lat="45.65245" lon="6.20618">
        <ele>1379.1484375</ele>
        <time>2012-01-21T09:24:33Z</time>
      </trkpt>
      <trkpt lat="45.65247" lon="6.20618">
        <ele>1380.5905761719</ele>
        <time>2012-01-21T09:24:37Z</time>
      </trkpt>
      <trkpt lat="45.65249" lon="6.20619">
        <ele>1379.6291503906</ele>
        <time>2012-01-21T09:24:41Z</time>
      </trkpt>
      <trkpt lat="45.65252" lon="6.20619">
        <ele>1380.1098632812</ele>
        <time>2012-01-21T09:24:46Z</time>
      </trkpt>
      <trkpt lat="45.65253" lon="6.20619">
        <ele>1380.5905761719</ele>
        <time>2012-01-21T09:24:51Z</time>
      </trkpt>
      <trkpt lat="45.65255" lon="6.20618">
        <ele>1381.0712890625</ele>
        <time>2012-01-21T09:24:57Z</time>
      </trkpt>
      <trkpt lat="45.65257" lon="6.20619">
        <ele>1381.5517578125</ele>
        <time>2012-01-21T09:25:02Z</time>
      </trkpt>
      <trkpt lat="45.65258" lon="6.20621">
        <ele>1380.5905761719</ele>
        <time>2012-01-21T09:25:07Z</time>
      </trkpt>
      <trkpt lat="45.65261" lon="6.20623">
        <ele>1380.1098632812</ele>
        <time>2012-01-21T09:25:13Z</time>
      </trkpt>
      <trkpt lat="45.65263" lon="6.20625">
        <ele>1380.1098632812</ele>
        <time>2012-01-21T09:25:20Z</time>
      </trkpt>
      <trkpt lat="45.65265" lon="6.20627">
        <ele>1379.1484375</ele>
        <time>2012-01-21T09:25:26Z</time>
      </trkpt>
      <trkpt lat="45.65266" lon="6.20626">
        <ele>1378.66796875</ele>
        <time>2012-01-21T09:25:32Z</time>
      </trkpt>
      <trkpt lat="45.65265" lon="6.20624">
        <ele>1379.1484375</ele>
        <time>2012-01-21T09:25:41Z</time>
      </trkpt>
      <trkpt lat="45.65265" lon="6.20621">
        <ele>1379.6291503906</ele>
        <time>2012-01-21T09:25:45Z</time>
      </trkpt>
      <trkpt lat="45.65265" lon="6.2062">
        <ele>1380.1098632812</ele>
        <time>2012-01-21T09:25:53Z</time>
      </trkpt>
      <trkpt lat="45.65265" lon="6.2062">
        <ele>1379.6291503906</ele>
        <time>2012-01-21T09:26:02Z</time>
      </trkpt>
      <trkpt lat="45.65263" lon="6.2062">
        <ele>1380.5905761719</ele>
        <time>2012-01-21T09:26:09Z</time>
      </trkpt>
      <trkpt lat="45.65263" lon="6.20619">
        <ele>1379.6291503906</ele>
        <time>2012-01-21T09:26:19Z</time>
      </trkpt>
      <trkpt lat="45.65262" lon="6.20619">
        <ele>1379.6291503906</ele>
        <time>2012-01-21T09:26:25Z</time>
      </trkpt>
      <trkpt lat="45.65262" lon="6.20619">
        <ele>1379.6291503906</ele>
        <time>2012-01-21T09:26:28Z</time>
      </trkpt>
      <trkpt lat="45.65262" lon="6.20619">
        <ele>1380.1098632812</ele>
        <time>2012-01-21T09:26:35Z</time>
      </trkpt>
      <trkpt lat="45.65262" lon="6.20619">
        <ele>1380.1098632812</ele>
        <time>2012-01-21T09:26:45Z</time>
      </trkpt>
      <trkpt lat="45.65262" lon="6.20621">
        <ele>1381.5517578125</ele>
        <time>2012-01-21T09:26:50Z</time>
      </trkpt>
      <trkpt lat="45.65263" lon="6.20621">
        <ele>1381.0712890625</ele>
        <time>2012-01-21T09:26:59Z</time>
      </trkpt>
      <trkpt lat="45.65263" lon="6.20621">
        <ele>1381.5517578125</ele>
        <time>2012-01-21T09:27:10Z</time>
      </trkpt>
      <trkpt lat="45.65263" lon="6.2062">
        <ele>1382.5131835938</ele>
        <time>2012-01-21T09:27:28Z</time>
      </trkpt>
      <trkpt lat="45.65263" lon="6.20618">
        <ele>1381.5517578125</ele>
        <time>2012-01-21T09:27:37Z</time>
      </trkpt>
      <trkpt lat="45.65262" lon="6.20612">
        <ele>1381.5517578125</ele>
        <time>2012-01-21T09:27:44Z</time>
      </trkpt>
      <trkpt lat="45.6526" lon="6.20605">
        <ele>1382.5131835938</ele>
        <time>2012-01-21T09:27:51Z</time>
      </trkpt>
      <trkpt lat="45.65258" lon="6.20601">
        <ele>1382.9936523438</ele>
        <time>2012-01-21T09:27:55Z</time>
      </trkpt>
      <trkpt lat="45.65257" lon="6.20598">
        <ele>1383.4743652344</ele>
        <time>2012-01-21T09:27:59Z</time>
      </trkpt>
      <trkpt lat="45.65254" lon="6.20592">
        <ele>1384.4357910156</ele>
        <time>2012-01-21T09:28:06Z</time>
      </trkpt>
      <trkpt lat="45.65254" lon="6.20592">
        <ele>1384.9165039062</ele>
        <time>2012-01-21T09:28:12Z</time>
      </trkpt>
      <trkpt lat="45.65255" lon="6.20593">
        <ele>1384.4357910156</ele>
        <time>2012-01-21T09:28:18Z</time>
      </trkpt>
      <trkpt lat="45.65255" lon="6.20593">
        <ele>1383.955078125</ele>
        <time>2012-01-21T09:28:21Z</time>
      </trkpt>
      <trkpt lat="45.65255" lon="6.20594">
        <ele>1383.955078125</ele>
        <time>2012-01-21T09:28:30Z</time>
      </trkpt>
      <trkpt lat="45.65255" lon="6.20595">
        <ele>1383.955078125</ele>
        <time>2012-01-21T09:28:35Z</time>
      </trkpt>
      <trkpt lat="45.65255" lon="6.20595">
        <ele>1383.4743652344</ele>
        <time>2012-01-21T09:28:43Z</time>
      </trkpt>
      <trkpt lat="45.65255" lon="6.20596">
        <ele>1383.955078125</ele>
        <time>2012-01-21T09:28:47Z</time>
      </trkpt>
      <trkpt lat="45.65254" lon="6.20596">
        <ele>1383.955078125</ele>
        <time>2012-01-21T09:28:52Z</time>
      </trkpt>
      <trkpt lat="45.65254" lon="6.20596">
        <ele>1383.955078125</ele>
        <time>2012-01-21T09:29:01Z</time>
      </trkpt>
      <trkpt lat="45.65251" lon="6.20592">
        <ele>1385.8776855469</ele>
        <time>2012-01-21T09:29:06Z</time>
      </trkpt>
      <trkpt lat="45.65248" lon="6.20587">
        <ele>1387.3195800781</ele>
        <time>2012-01-21T09:29:12Z</time>
      </trkpt>
      <trkpt lat="45.65245" lon="6.20582">
        <ele>1388.7619628906</ele>
        <time>2012-01-21T09:29:18Z</time>
      </trkpt>
      <trkpt lat="45.65244" lon="6.20577">
        <ele>1390.2038574219</ele>
        <time>2012-01-21T09:29:23Z</time>
      </trkpt>
      <trkpt lat="45.65245" lon="6.20573">
        <ele>1390.2038574219</ele>
        <time>2012-01-21T09:29:27Z</time>
      </trkpt>
      <trkpt lat="45.65249" lon="6.2057">
        <ele>1390.2038574219</ele>
        <time>2012-01-21T09:29:32Z</time>
      </trkpt>
      <trkpt lat="45.65253" lon="6.20572">
        <ele>1389.2424316406</ele>
        <time>2012-01-21T09:29:37Z</time>
      </trkpt>
      <trkpt lat="45.65255" lon="6.20574">
        <ele>1389.2424316406</ele>
        <time>2012-01-21T09:29:43Z</time>
      </trkpt>
      <trkpt lat="45.6526" lon="6.20576">
        <ele>1388.7619628906</ele>
        <time>2012-01-21T09:29:49Z</time>
      </trkpt>
      <trkpt lat="45.65264" lon="6.20579">
        <ele>1389.2424316406</ele>
        <time>2012-01-21T09:29:55Z</time>
      </trkpt>
      <trkpt lat="45.65266" lon="6.20581">
        <ele>1389.2424316406</ele>
        <time>2012-01-21T09:30:00Z</time>
      </trkpt>
      <trkpt lat="45.65268" lon="6.20583">
        <ele>1389.7231445312</ele>
        <time>2012-01-21T09:30:04Z</time>
      </trkpt>
      <trkpt lat="45.65271" lon="6.20585">
        <ele>1390.2038574219</ele>
        <time>2012-01-21T09:30:09Z</time>
      </trkpt>
      <trkpt lat="45.65274" lon="6.20588">
        <ele>1390.6843261719</ele>
        <time>2012-01-21T09:30:15Z</time>
      </trkpt>
      <trkpt lat="45.65277" lon="6.2059">
        <ele>1391.1650390625</ele>
        <time>2012-01-21T09:30:20Z</time>
      </trkpt>
      <trkpt lat="45.65279" lon="6.20592">
        <ele>1391.1650390625</ele>
        <time>2012-01-21T09:30:25Z</time>
      </trkpt>
      <trkpt lat="45.65281" lon="6.20593">
        <ele>1391.1650390625</ele>
        <time>2012-01-21T09:30:30Z</time>
      </trkpt>
      <trkpt lat="45.6528" lon="6.20593">
        <ele>1390.6843261719</ele>
        <time>2012-01-21T09:30:39Z</time>
      </trkpt>
      <trkpt lat="45.65284" lon="6.20594">
        <ele>1391.6457519531</ele>
        <time>2012-01-21T09:30:47Z</time>
      </trkpt>
      <trkpt lat="45.65287" lon="6.20595">
        <ele>1391.1650390625</ele>
        <time>2012-01-21T09:30:51Z</time>
      </trkpt>
      <trkpt lat="45.65289" lon="6.20597">
        <ele>1391.1650390625</ele>
        <time>2012-01-21T09:30:56Z</time>
      </trkpt>
      <trkpt lat="45.65294" lon="6.20599">
        <ele>1392.6071777344</ele>
        <time>2012-01-21T09:31:03Z</time>
      </trkpt>
      <trkpt lat="45.65297" lon="6.206">
        <ele>1392.6071777344</ele>
        <time>2012-01-21T09:31:08Z</time>
      </trkpt>
      <trkpt lat="45.65302" lon="6.20603">
        <ele>1393.0876464844</ele>
        <time>2012-01-21T09:31:16Z</time>
      </trkpt>
      <trkpt lat="45.65303" lon="6.20604">
        <ele>1393.568359375</ele>
        <time>2012-01-21T09:31:21Z</time>
      </trkpt>
      <trkpt lat="45.65306" lon="6.20606">
        <ele>1394.0490722656</ele>
        <time>2012-01-21T09:31:26Z</time>
      </trkpt>
      <trkpt lat="45.6531" lon="6.20608">
        <ele>1394.5295410156</ele>
        <time>2012-01-21T09:31:32Z</time>
      </trkpt>
      <trkpt lat="45.65311" lon="6.20608">
        <ele>1394.5295410156</ele>
        <time>2012-01-21T09:31:41Z</time>
      </trkpt>
      <trkpt lat="45.65312" lon="6.2061">
        <ele>1395.0102539062</ele>
        <time>2012-01-21T09:31:48Z</time>
      </trkpt>
      <trkpt lat="45.65315" lon="6.20613">
        <ele>1395.0102539062</ele>
        <time>2012-01-21T09:31:54Z</time>
      </trkpt>
      <trkpt lat="45.65319" lon="6.20615">
        <ele>1394.5295410156</ele>
        <time>2012-01-21T09:31:59Z</time>
      </trkpt>
      <trkpt lat="45.65321" lon="6.20616">
        <ele>1394.5295410156</ele>
        <time>2012-01-21T09:32:03Z</time>
      </trkpt>
      <trkpt lat="45.65325" lon="6.20618">
        <ele>1394.5295410156</ele>
        <time>2012-01-21T09:32:08Z</time>
      </trkpt>
      <trkpt lat="45.65327" lon="6.20619">
        <ele>1395.0102539062</ele>
        <time>2012-01-21T09:32:12Z</time>
      </trkpt>
      <trkpt lat="45.65329" lon="6.20621">
        <ele>1395.4909667969</ele>
        <time>2012-01-21T09:32:17Z</time>
      </trkpt>
      <trkpt lat="45.65329" lon="6.20622">
        <ele>1396.4523925781</ele>
        <time>2012-01-21T09:32:23Z</time>
      </trkpt>
      <trkpt lat="45.65329" lon="6.20621">
        <ele>1400.2976074219</ele>
        <time>2012-01-21T09:32:35Z</time>
      </trkpt>
      <trkpt lat="45.65332" lon="6.20622">
        <ele>1400.7780761719</ele>
        <time>2012-01-21T09:32:40Z</time>
      </trkpt>
      <trkpt lat="45.65335" lon="6.20624">
        <ele>1399.3361816406</ele>
        <time>2012-01-21T09:32:46Z</time>
      </trkpt>
      <trkpt lat="45.65337" lon="6.20625">
        <ele>1398.85546875</ele>
        <time>2012-01-21T09:32:52Z</time>
      </trkpt>
      <trkpt lat="45.6534" lon="6.20626">
        <ele>1399.3361816406</ele>
        <time>2012-01-21T09:32:58Z</time>
      </trkpt>
      <trkpt lat="45.65343" lon="6.20627">
        <ele>1399.8168945312</ele>
        <time>2012-01-21T09:33:04Z</time>
      </trkpt>
      <trkpt lat="45.65346" lon="6.20628">
        <ele>1401.2587890625</ele>
        <time>2012-01-21T09:33:11Z</time>
      </trkpt>
      <trkpt lat="45.65348" lon="6.20628">
        <ele>1402.2199707031</ele>
        <time>2012-01-21T09:33:16Z</time>
      </trkpt>
      <trkpt lat="45.65351" lon="6.20628">
        <ele>1404.1430664062</ele>
        <time>2012-01-21T09:33:22Z</time>
      </trkpt>
      <trkpt lat="45.65353" lon="6.20628">
        <ele>1406.0654296875</ele>
        <time>2012-01-21T09:33:27Z</time>
      </trkpt>
      <trkpt lat="45.65357" lon="6.2063">
        <ele>1406.0654296875</ele>
        <time>2012-01-21T09:33:31Z</time>
      </trkpt>
      <trkpt lat="45.65359" lon="6.20631">
        <ele>1407.0268554688</ele>
        <time>2012-01-21T09:33:35Z</time>
      </trkpt>
      <trkpt lat="45.65362" lon="6.20632">
        <ele>1407.5075683594</ele>
        <time>2012-01-21T09:33:40Z</time>
      </trkpt>
      <trkpt lat="45.65365" lon="6.20633">
        <ele>1408.46875</ele>
        <time>2012-01-21T09:33:44Z</time>
      </trkpt>
      <trkpt lat="45.65367" lon="6.20634">
        <ele>1408.46875</ele>
        <time>2012-01-21T09:33:49Z</time>
      </trkpt>
      <trkpt lat="45.65367" lon="6.20634">
        <ele>1407.5075683594</ele>
        <time>2012-01-21T09:33:59Z</time>
      </trkpt>
      <trkpt lat="45.65368" lon="6.20633">
        <ele>1407.0268554688</ele>
        <time>2012-01-21T09:34:04Z</time>
      </trkpt>
      <trkpt lat="45.65368" lon="6.20633">
        <ele>1404.6235351562</ele>
        <time>2012-01-21T09:34:15Z</time>
      </trkpt>
      <trkpt lat="45.6537" lon="6.20631">
        <ele>1403.1813964844</ele>
        <time>2012-01-21T09:34:24Z</time>
      </trkpt>
      <trkpt lat="45.6537" lon="6.20631">
        <ele>1403.1813964844</ele>
        <time>2012-01-21T09:34:29Z</time>
      </trkpt>
      <trkpt lat="45.65371" lon="6.20633">
        <ele>1404.1430664062</ele>
        <time>2012-01-21T09:34:34Z</time>
      </trkpt>
      <trkpt lat="45.6537" lon="6.20633">
        <ele>1403.1813964844</ele>
        <time>2012-01-21T09:34:46Z</time>
      </trkpt>
      <trkpt lat="45.65369" lon="6.20631">
        <ele>1403.662109375</ele>
        <time>2012-01-21T09:34:58Z</time>
      </trkpt>
      <trkpt lat="45.65369" lon="6.20632">
        <ele>1405.1042480469</ele>
        <time>2012-01-21T09:35:12Z</time>
      </trkpt>
      <trkpt lat="45.65372" lon="6.20631">
        <ele>1404.6235351562</ele>
        <time>2012-01-21T09:35:19Z</time>
      </trkpt>
      <trkpt lat="45.65376" lon="6.20633">
        <ele>1405.5849609375</ele>
        <time>2012-01-21T09:35:26Z</time>
      </trkpt>
      <trkpt lat="45.65376" lon="6.20633">
        <ele>1407.0268554688</ele>
        <time>2012-01-21T09:35:38Z</time>
      </trkpt>
      <trkpt lat="45.65379" lon="6.20634">
        <ele>1407.98828125</ele>
        <time>2012-01-21T09:35:44Z</time>
      </trkpt>
      <trkpt lat="45.65383" lon="6.20634">
        <ele>1407.98828125</ele>
        <time>2012-01-21T09:35:49Z</time>
      </trkpt>
      <trkpt lat="45.65387" lon="6.20635">
        <ele>1407.98828125</ele>
        <time>2012-01-21T09:35:57Z</time>
      </trkpt>
      <trkpt lat="45.6539" lon="6.20634">
        <ele>1408.46875</ele>
        <time>2012-01-21T09:36:03Z</time>
      </trkpt>
      <trkpt lat="45.65391" lon="6.20632">
        <ele>1408.9494628906</ele>
        <time>2012-01-21T09:36:11Z</time>
      </trkpt>
      <trkpt lat="45.65395" lon="6.20631">
        <ele>1407.0268554688</ele>
        <time>2012-01-21T09:36:16Z</time>
      </trkpt>
      <trkpt lat="45.65396" lon="6.20629">
        <ele>1407.5075683594</ele>
        <time>2012-01-21T09:36:20Z</time>
      </trkpt>
      <trkpt lat="45.65398" lon="6.20629">
        <ele>1407.98828125</ele>
        <time>2012-01-21T09:36:29Z</time>
      </trkpt>
      <trkpt lat="45.65399" lon="6.20628">
        <ele>1407.0268554688</ele>
        <time>2012-01-21T09:36:34Z</time>
      </trkpt>
      <trkpt lat="45.65401" lon="6.20628">
        <ele>1407.0268554688</ele>
        <time>2012-01-21T09:36:42Z</time>
      </trkpt>
      <trkpt lat="45.65402" lon="6.20628">
        <ele>1407.5075683594</ele>
        <time>2012-01-21T09:36:51Z</time>
      </trkpt>
      <trkpt lat="45.65403" lon="6.20628">
        <ele>1407.5075683594</ele>
        <time>2012-01-21T09:36:56Z</time>
      </trkpt>
      <trkpt lat="45.65407" lon="6.20629">
        <ele>1407.98828125</ele>
        <time>2012-01-21T09:37:02Z</time>
      </trkpt>
      <trkpt lat="45.65411" lon="6.20632">
        <ele>1408.9494628906</ele>
        <time>2012-01-21T09:37:08Z</time>
      </trkpt>
      <trkpt lat="45.65413" lon="6.20634">
        <ele>1410.3913574219</ele>
        <time>2012-01-21T09:37:12Z</time>
      </trkpt>
      <trkpt lat="45.65415" lon="6.20636">
        <ele>1410.3913574219</ele>
        <time>2012-01-21T09:37:16Z</time>
      </trkpt>
      <trkpt lat="45.65418" lon="6.20638">
        <ele>1410.3913574219</ele>
        <time>2012-01-21T09:37:21Z</time>
      </trkpt>
      <trkpt lat="45.65422" lon="6.20638">
        <ele>1411.3527832031</ele>
        <time>2012-01-21T09:37:26Z</time>
      </trkpt>
      <trkpt lat="45.65424" lon="6.20637">
        <ele>1412.7946777344</ele>
        <time>2012-01-21T09:37:30Z</time>
      </trkpt>
      <trkpt lat="45.65424" lon="6.20636">
        <ele>1412.7946777344</ele>
        <time>2012-01-21T09:37:36Z</time>
      </trkpt>
      <trkpt lat="45.65424" lon="6.20631">
        <ele>1411.8334960938</ele>
        <time>2012-01-21T09:37:42Z</time>
      </trkpt>
      <trkpt lat="45.65421" lon="6.20627">
        <ele>1412.7946777344</ele>
        <time>2012-01-21T09:37:49Z</time>
      </trkpt>
      <trkpt lat="45.65419" lon="6.20624">
        <ele>1414.2365722656</ele>
        <time>2012-01-21T09:37:55Z</time>
      </trkpt>
      <trkpt lat="45.65419" lon="6.20624">
        <ele>1414.7172851562</ele>
        <time>2012-01-21T09:38:02Z</time>
      </trkpt>
      <trkpt lat="45.65419" lon="6.20624">
        <ele>1414.7172851562</ele>
        <time>2012-01-21T09:38:07Z</time>
      </trkpt>
      <trkpt lat="45.65419" lon="6.20624">
        <ele>1414.7172851562</ele>
        <time>2012-01-21T09:38:13Z</time>
      </trkpt>
      <trkpt lat="45.65418" lon="6.20624">
        <ele>1415.6787109375</ele>
        <time>2012-01-21T09:38:18Z</time>
      </trkpt>
      <trkpt lat="45.65418" lon="6.20624">
        <ele>1415.1979980469</ele>
        <time>2012-01-21T09:38:29Z</time>
      </trkpt>
      <trkpt lat="45.65417" lon="6.20624">
        <ele>1414.7172851562</ele>
        <time>2012-01-21T09:38:37Z</time>
      </trkpt>
      <trkpt lat="45.65417" lon="6.20624">
        <ele>1414.2365722656</ele>
        <time>2012-01-21T09:38:42Z</time>
      </trkpt>
      <trkpt lat="45.65417" lon="6.20624">
        <ele>1414.7172851562</ele>
        <time>2012-01-21T09:38:56Z</time>
      </trkpt>
      <trkpt lat="45.65418" lon="6.20624">
        <ele>1414.2365722656</ele>
        <time>2012-01-21T09:39:09Z</time>
      </trkpt>
      <trkpt lat="45.65418" lon="6.20625">
        <ele>1415.1979980469</ele>
        <time>2012-01-21T09:39:20Z</time>
      </trkpt>
      <trkpt lat="45.65419" lon="6.20622">
        <ele>1414.2365722656</ele>
        <time>2012-01-21T09:39:25Z</time>
      </trkpt>
      <trkpt lat="45.65418" lon="6.20622">
        <ele>1413.275390625</ele>
        <time>2012-01-21T09:39:33Z</time>
      </trkpt>
      <trkpt lat="45.65418" lon="6.20623">
        <ele>1413.275390625</ele>
        <time>2012-01-21T09:39:38Z</time>
      </trkpt>
      <trkpt lat="45.65418" lon="6.20624">
        <ele>1414.2365722656</ele>
        <time>2012-01-21T09:39:57Z</time>
      </trkpt>
      <trkpt lat="45.65418" lon="6.20624">
        <ele>1414.7172851562</ele>
        <time>2012-01-21T09:40:07Z</time>
      </trkpt>
      <trkpt lat="45.65419" lon="6.20625">
        <ele>1414.2365722656</ele>
        <time>2012-01-21T09:40:21Z</time>
      </trkpt>
      <trkpt lat="45.6542" lon="6.20626">
        <ele>1413.275390625</ele>
        <time>2012-01-21T09:40:25Z</time>
      </trkpt>
      <trkpt lat="45.6542" lon="6.20624">
        <ele>1413.275390625</ele>
        <time>2012-01-21T09:40:28Z</time>
      </trkpt>
      <trkpt lat="45.65421" lon="6.20624">
        <ele>1413.275390625</ele>
        <time>2012-01-21T09:40:35Z</time>
      </trkpt>
      <trkpt lat="45.65421" lon="6.20624">
        <ele>1412.7946777344</ele>
        <time>2012-01-21T09:40:40Z</time>
      </trkpt>
      <trkpt lat="45.65421" lon="6.20623">
        <ele>1411.8334960938</ele>
        <time>2012-01-21T09:40:51Z</time>
      </trkpt>
      <trkpt lat="45.65419" lon="6.20624">
        <ele>1412.3139648438</ele>
        <time>2012-01-21T09:40:57Z</time>
      </trkpt>
      <trkpt lat="45.6542" lon="6.20625">
        <ele>1412.3139648438</ele>
        <time>2012-01-21T09:41:03Z</time>
      </trkpt>
      <trkpt lat="45.65419" lon="6.20625">
        <ele>1411.3527832031</ele>
        <time>2012-01-21T09:41:17Z</time>
      </trkpt>
      <trkpt lat="45.65419" lon="6.20625">
        <ele>1412.3139648438</ele>
        <time>2012-01-21T09:41:25Z</time>
      </trkpt>
      <trkpt lat="45.65419" lon="6.20625">
        <ele>1412.3139648438</ele>
        <time>2012-01-21T09:41:32Z</time>
      </trkpt>
      <trkpt lat="45.65419" lon="6.20624">
        <ele>1412.7946777344</ele>
        <time>2012-01-21T09:41:35Z</time>
      </trkpt>
      <trkpt lat="45.65417" lon="6.20621">
        <ele>1413.275390625</ele>
        <time>2012-01-21T09:41:41Z</time>
      </trkpt>
      <trkpt lat="45.65414" lon="6.20617">
        <ele>1413.755859375</ele>
        <time>2012-01-21T09:41:48Z</time>
      </trkpt>
      <trkpt lat="45.65411" lon="6.20613">
        <ele>1414.2365722656</ele>
        <time>2012-01-21T09:41:55Z</time>
      </trkpt>
      <trkpt lat="45.65408" lon="6.2061">
        <ele>1415.1979980469</ele>
        <time>2012-01-21T09:42:01Z</time>
      </trkpt>
      <trkpt lat="45.65406" lon="6.20607">
        <ele>1415.6787109375</ele>
        <time>2012-01-21T09:42:06Z</time>
      </trkpt>
      <trkpt lat="45.65404" lon="6.20604">
        <ele>1416.1591796875</ele>
        <time>2012-01-21T09:42:12Z</time>
      </trkpt>
      <trkpt lat="45.65401" lon="6.20601">
        <ele>1416.6398925781</ele>
        <time>2012-01-21T09:42:19Z</time>
      </trkpt>
      <trkpt lat="45.65399" lon="6.20599">
        <ele>1417.1206054688</ele>
        <time>2012-01-21T09:42:25Z</time>
      </trkpt>
      <trkpt lat="45.65399" lon="6.20599">
        <ele>1416.1591796875</ele>
        <time>2012-01-21T09:42:33Z</time>
      </trkpt>
      <trkpt lat="45.65398" lon="6.20597">
        <ele>1417.1206054688</ele>
        <time>2012-01-21T09:42:42Z</time>
      </trkpt>
      <trkpt lat="45.65395" lon="6.20594">
        <ele>1417.1206054688</ele>
        <time>2012-01-21T09:42:49Z</time>
      </trkpt>
      <trkpt lat="45.65393" lon="6.2059">
        <ele>1417.6010742188</ele>
        <time>2012-01-21T09:42:55Z</time>
      </trkpt>
      <trkpt lat="45.65392" lon="6.20587">
        <ele>1418.0817871094</ele>
        <time>2012-01-21T09:42:59Z</time>
      </trkpt>
      <trkpt lat="45.6539" lon="6.20584">
        <ele>1418.0817871094</ele>
        <time>2012-01-21T09:43:02Z</time>
      </trkpt>
      <trkpt lat="45.65388" lon="6.20581">
        <ele>1418.0817871094</ele>
        <time>2012-01-21T09:43:07Z</time>
      </trkpt>
      <trkpt lat="45.65387" lon="6.20578">
        <ele>1418.0817871094</ele>
        <time>2012-01-21T09:43:12Z</time>
      </trkpt>
      <trkpt lat="45.65384" lon="6.20573">
        <ele>1419.5239257812</ele>
        <time>2012-01-21T09:43:19Z</time>
      </trkpt>
      <trkpt lat="45.65381" lon="6.2057">
        <ele>1420.4853515625</ele>
        <time>2012-01-21T09:43:26Z</time>
      </trkpt>
      <trkpt lat="45.65378" lon="6.20567">
        <ele>1421.4465332031</ele>
        <time>2012-01-21T09:43:32Z</time>
      </trkpt>
      <trkpt lat="45.65376" lon="6.20564">
        <ele>1422.888671875</ele>
        <time>2012-01-21T09:43:38Z</time>
      </trkpt>
      <trkpt lat="45.65372" lon="6.20562">
        <ele>1423.3693847656</ele>
        <time>2012-01-21T09:43:45Z</time>
      </trkpt>
      <trkpt lat="45.65367" lon="6.20557">
        <ele>1423.3693847656</ele>
        <time>2012-01-21T09:43:52Z</time>
      </trkpt>
      <trkpt lat="45.65365" lon="6.20556">
        <ele>1424.8112792969</ele>
        <time>2012-01-21T09:43:58Z</time>
      </trkpt>
      <trkpt lat="45.65364" lon="6.20554">
        <ele>1424.8112792969</ele>
        <time>2012-01-21T09:44:07Z</time>
      </trkpt>
      <trkpt lat="45.65364" lon="6.20554">
        <ele>1424.8112792969</ele>
        <time>2012-01-21T09:44:15Z</time>
      </trkpt>
      <trkpt lat="45.65364" lon="6.20554">
        <ele>1424.8112792969</ele>
        <time>2012-01-21T09:44:22Z</time>
      </trkpt>
      <trkpt lat="45.65365" lon="6.20554">
        <ele>1423.8498535156</ele>
        <time>2012-01-21T09:44:32Z</time>
      </trkpt>
      <trkpt lat="45.65366" lon="6.20555">
        <ele>1422.888671875</ele>
        <time>2012-01-21T09:44:40Z</time>
      </trkpt>
      <trkpt lat="45.65364" lon="6.20553">
        <ele>1425.2917480469</ele>
        <time>2012-01-21T09:44:44Z</time>
      </trkpt>
      <trkpt lat="45.65361" lon="6.20549">
        <ele>1427.6950683594</ele>
        <time>2012-01-21T09:44:48Z</time>
      </trkpt>
      <trkpt lat="45.65358" lon="6.20544">
        <ele>1428.6564941406</ele>
        <time>2012-01-21T09:44:54Z</time>
      </trkpt>
      <trkpt lat="45.65356" lon="6.2054">
        <ele>1429.6176757812</ele>
        <time>2012-01-21T09:44:59Z</time>
      </trkpt>
      <trkpt lat="45.65355" lon="6.20538">
        <ele>1429.6176757812</ele>
        <time>2012-01-21T09:45:04Z</time>
      </trkpt>
      <trkpt lat="45.65353" lon="6.20536">
        <ele>1430.0983886719</ele>
        <time>2012-01-21T09:45:09Z</time>
      </trkpt>
      <trkpt lat="45.65351" lon="6.20532">
        <ele>1429.1369628906</ele>
        <time>2012-01-21T09:45:15Z</time>
      </trkpt>
      <trkpt lat="45.6535" lon="6.20527">
        <ele>1428.6564941406</ele>
        <time>2012-01-21T09:45:22Z</time>
      </trkpt>
      <trkpt lat="45.65348" lon="6.20524">
        <ele>1428.6564941406</ele>
        <time>2012-01-21T09:45:27Z</time>
      </trkpt>
      <trkpt lat="45.65348" lon="6.20522">
        <ele>1429.6176757812</ele>
        <time>2012-01-21T09:45:32Z</time>
      </trkpt>
      <trkpt lat="45.65347" lon="6.20519">
        <ele>1429.6176757812</ele>
        <time>2012-01-21T09:45:37Z</time>
      </trkpt>
      <trkpt lat="45.65346" lon="6.20514">
        <ele>1429.6176757812</ele>
        <time>2012-01-21T09:45:44Z</time>
      </trkpt>
      <trkpt lat="45.65347" lon="6.20511">
        <ele>1429.1369628906</ele>
        <time>2012-01-21T09:45:49Z</time>
      </trkpt>
      <trkpt lat="45.65347" lon="6.20506">
        <ele>1429.1369628906</ele>
        <time>2012-01-21T09:45:54Z</time>
      </trkpt>
      <trkpt lat="45.65348" lon="6.20502">
        <ele>1430.0983886719</ele>
        <time>2012-01-21T09:45:59Z</time>
      </trkpt>
      <trkpt lat="45.65351" lon="6.20499">
        <ele>1430.5791015625</ele>
        <time>2012-01-21T09:46:04Z</time>
      </trkpt>
      <trkpt lat="45.65353" lon="6.20498">
        <ele>1430.5791015625</ele>
        <time>2012-01-21T09:46:12Z</time>
      </trkpt>
      <trkpt lat="45.65353" lon="6.20499">
        <ele>1430.0983886719</ele>
        <time>2012-01-21T09:46:22Z</time>
      </trkpt>
      <trkpt lat="45.65352" lon="6.20499">
        <ele>1429.6176757812</ele>
        <time>2012-01-21T09:46:29Z</time>
      </trkpt>
      <trkpt lat="45.65352" lon="6.20498">
        <ele>1429.6176757812</ele>
        <time>2012-01-21T09:46:38Z</time>
      </trkpt>
      <trkpt lat="45.65353" lon="6.20498">
        <ele>1428.6564941406</ele>
        <time>2012-01-21T09:46:44Z</time>
      </trkpt>
      <trkpt lat="45.65353" lon="6.20498">
        <ele>1427.6950683594</ele>
        <time>2012-01-21T09:46:51Z</time>
      </trkpt>
      <trkpt lat="45.65353" lon="6.20499">
        <ele>1427.2145996094</ele>
        <time>2012-01-21T09:46:58Z</time>
      </trkpt>
      <trkpt lat="45.65354" lon="6.20499">
        <ele>1427.2145996094</ele>
        <time>2012-01-21T09:47:01Z</time>
      </trkpt>
      <trkpt lat="45.65354" lon="6.20499">
        <ele>1428.6564941406</ele>
        <time>2012-01-21T09:47:11Z</time>
      </trkpt>
      <trkpt lat="45.65355" lon="6.20499">
        <ele>1429.1369628906</ele>
        <time>2012-01-21T09:47:16Z</time>
      </trkpt>
      <trkpt lat="45.65353" lon="6.205">
        <ele>1428.17578125</ele>
        <time>2012-01-21T09:47:21Z</time>
      </trkpt>
      <trkpt lat="45.65353" lon="6.205">
        <ele>1427.6950683594</ele>
        <time>2012-01-21T09:47:24Z</time>
      </trkpt>
      <trkpt lat="45.65352" lon="6.20501">
        <ele>1426.7338867188</ele>
        <time>2012-01-21T09:47:29Z</time>
      </trkpt>
      <trkpt lat="45.65353" lon="6.20501">
        <ele>1426.2531738281</ele>
        <time>2012-01-21T09:47:38Z</time>
      </trkpt>
      <trkpt lat="45.65353" lon="6.20501">
        <ele>1426.2531738281</ele>
        <time>2012-01-21T09:47:41Z</time>
      </trkpt>
      <trkpt lat="45.65353" lon="6.20501">
        <ele>1426.7338867188</ele>
        <time>2012-01-21T09:47:42Z</time>
      </trkpt>
      <trkpt lat="45.65353" lon="6.20501">
        <ele>1428.17578125</ele>
        <time>2012-01-21T09:47:47Z</time>
      </trkpt>
      <trkpt lat="45.65353" lon="6.20501">
        <ele>1427.2145996094</ele>
        <time>2012-01-21T09:47:55Z</time>
      </trkpt>
      <trkpt lat="45.65353" lon="6.20501">
        <ele>1427.6950683594</ele>
        <time>2012-01-21T09:48:00Z</time>
      </trkpt>
      <trkpt lat="45.65353" lon="6.20501">
        <ele>1427.6950683594</ele>
        <time>2012-01-21T09:48:06Z</time>
      </trkpt>
      <trkpt lat="45.65353" lon="6.205">
        <ele>1427.2145996094</ele>
        <time>2012-01-21T09:48:11Z</time>
      </trkpt>
      <trkpt lat="45.65353" lon="6.20501">
        <ele>1428.17578125</ele>
        <time>2012-01-21T09:48:15Z</time>
      </trkpt>
      <trkpt lat="45.65353" lon="6.20501">
        <ele>1428.17578125</ele>
        <time>2012-01-21T09:48:24Z</time>
      </trkpt>
      <trkpt lat="45.65351" lon="6.20502">
        <ele>1427.2145996094</ele>
        <time>2012-01-21T09:48:36Z</time>
      </trkpt>
      <trkpt lat="45.65352" lon="6.20501">
        <ele>1427.6950683594</ele>
        <time>2012-01-21T09:48:43Z</time>
      </trkpt>
      <trkpt lat="45.65353" lon="6.20502">
        <ele>1428.17578125</ele>
        <time>2012-01-21T09:48:50Z</time>
      </trkpt>
      <trkpt lat="45.65352" lon="6.20503">
        <ele>1428.6564941406</ele>
        <time>2012-01-21T09:49:14Z</time>
      </trkpt>
      <trkpt lat="45.65352" lon="6.20503">
        <ele>1427.6950683594</ele>
        <time>2012-01-21T09:49:28Z</time>
      </trkpt>
      <trkpt lat="45.65352" lon="6.20503">
        <ele>1427.6950683594</ele>
        <time>2012-01-21T09:49:32Z</time>
      </trkpt>
      <trkpt lat="45.65351" lon="6.20503">
        <ele>1427.2145996094</ele>
        <time>2012-01-21T09:49:42Z</time>
      </trkpt>
      <trkpt lat="45.65353" lon="6.20502">
        <ele>1427.2145996094</ele>
        <time>2012-01-21T09:49:47Z</time>
      </trkpt>
      <trkpt lat="45.65353" lon="6.205">
        <ele>1427.6950683594</ele>
        <time>2012-01-21T09:50:03Z</time>
      </trkpt>
      <trkpt lat="45.65354" lon="6.20499">
        <ele>1428.6564941406</ele>
        <time>2012-01-21T09:50:09Z</time>
      </trkpt>
      <trkpt lat="45.65354" lon="6.20498">
        <ele>1428.6564941406</ele>
        <time>2012-01-21T09:50:16Z</time>
      </trkpt>
      <trkpt lat="45.65356" lon="6.20497">
        <ele>1429.1369628906</ele>
        <time>2012-01-21T09:50:23Z</time>
      </trkpt>
      <trkpt lat="45.65359" lon="6.20493">
        <ele>1429.6176757812</ele>
        <time>2012-01-21T09:50:29Z</time>
      </trkpt>
      <trkpt lat="45.6536" lon="6.20492">
        <ele>1429.6176757812</ele>
        <time>2012-01-21T09:50:34Z</time>
      </trkpt>
      <trkpt lat="45.65363" lon="6.20491">
        <ele>1429.6176757812</ele>
        <time>2012-01-21T09:50:39Z</time>
      </trkpt>
      <trkpt lat="45.65366" lon="6.20489">
        <ele>1430.0983886719</ele>
        <time>2012-01-21T09:50:44Z</time>
      </trkpt>
      <trkpt lat="45.6537" lon="6.20488">
        <ele>1431.0598144531</ele>
        <time>2012-01-21T09:50:49Z</time>
      </trkpt>
      <trkpt lat="45.65373" lon="6.20487">
        <ele>1432.5017089844</ele>
        <time>2012-01-21T09:50:54Z</time>
      </trkpt>
      <trkpt lat="45.65377" lon="6.20486">
        <ele>1432.5017089844</ele>
        <time>2012-01-21T09:51:00Z</time>
      </trkpt>
      <trkpt lat="45.65379" lon="6.20486">
        <ele>1433.462890625</ele>
        <time>2012-01-21T09:51:05Z</time>
      </trkpt>
      <trkpt lat="45.65382" lon="6.20487">
        <ele>1433.9436035156</ele>
        <time>2012-01-21T09:51:11Z</time>
      </trkpt>
      <trkpt lat="45.65385" lon="6.20488">
        <ele>1434.4243164062</ele>
        <time>2012-01-21T09:51:17Z</time>
      </trkpt>
      <trkpt lat="45.65387" lon="6.20489">
        <ele>1434.4243164062</ele>
        <time>2012-01-21T09:51:21Z</time>
      </trkpt>
      <trkpt lat="45.6539" lon="6.20489">
        <ele>1434.9050292969</ele>
        <time>2012-01-21T09:51:26Z</time>
      </trkpt>
      <trkpt lat="45.65392" lon="6.2049">
        <ele>1435.8662109375</ele>
        <time>2012-01-21T09:51:30Z</time>
      </trkpt>
      <trkpt lat="45.65395" lon="6.20489">
        <ele>1436.8276367188</ele>
        <time>2012-01-21T09:51:35Z</time>
      </trkpt>
      <trkpt lat="45.65397" lon="6.20491">
        <ele>1437.3083496094</ele>
        <time>2012-01-21T09:51:39Z</time>
      </trkpt>
      <trkpt lat="45.65399" lon="6.20491">
        <ele>1436.8276367188</ele>
        <time>2012-01-21T09:51:44Z</time>
      </trkpt>
      <trkpt lat="45.65401" lon="6.20491">
        <ele>1437.7890625</ele>
        <time>2012-01-21T09:51:48Z</time>
      </trkpt>
      <trkpt lat="45.65404" lon="6.20491">
        <ele>1438.2697753906</ele>
        <time>2012-01-21T09:51:53Z</time>
      </trkpt>
      <trkpt lat="45.65406" lon="6.20491">
        <ele>1439.2309570312</ele>
        <time>2012-01-21T09:51:58Z</time>
      </trkpt>
      <trkpt lat="45.65408" lon="6.20491">
        <ele>1438.2697753906</ele>
        <time>2012-01-21T09:52:03Z</time>
      </trkpt>
      <trkpt lat="45.65408" lon="6.20491">
        <ele>1439.2309570312</ele>
        <time>2012-01-21T09:52:11Z</time>
      </trkpt>
      <trkpt lat="45.65409" lon="6.20492">
        <ele>1439.2309570312</ele>
        <time>2012-01-21T09:52:16Z</time>
      </trkpt>
      <trkpt lat="45.65411" lon="6.20493">
        <ele>1439.7116699219</ele>
        <time>2012-01-21T09:52:22Z</time>
      </trkpt>
      <trkpt lat="45.65413" lon="6.20493">
        <ele>1440.6728515625</ele>
        <time>2012-01-21T09:52:28Z</time>
      </trkpt>
      <trkpt lat="45.65417" lon="6.20493">
        <ele>1441.1535644531</ele>
        <time>2012-01-21T09:52:34Z</time>
      </trkpt>
      <trkpt lat="45.6542" lon="6.20493">
        <ele>1442.1149902344</ele>
        <time>2012-01-21T09:52:38Z</time>
      </trkpt>
      <trkpt lat="45.65422" lon="6.20494">
        <ele>1442.1149902344</ele>
        <time>2012-01-21T09:52:42Z</time>
      </trkpt>
      <trkpt lat="45.65424" lon="6.20494">
        <ele>1443.5568847656</ele>
        <time>2012-01-21T09:52:46Z</time>
      </trkpt>
      <trkpt lat="45.65426" lon="6.20495">
        <ele>1443.076171875</ele>
        <time>2012-01-21T09:52:50Z</time>
      </trkpt>
      <trkpt lat="45.65426" lon="6.20495">
        <ele>1441.6342773438</ele>
        <time>2012-01-21T09:52:57Z</time>
      </trkpt>
      <trkpt lat="45.65426" lon="6.20496">
        <ele>1441.6342773438</ele>
        <time>2012-01-21T09:53:03Z</time>
      </trkpt>
      <trkpt lat="45.65427" lon="6.20497">
        <ele>1441.1535644531</ele>
        <time>2012-01-21T09:53:13Z</time>
      </trkpt>
      <trkpt lat="45.6543" lon="6.20496">
        <ele>1441.1535644531</ele>
        <time>2012-01-21T09:53:18Z</time>
      </trkpt>
      <trkpt lat="45.65434" lon="6.20497">
        <ele>1442.595703125</ele>
        <time>2012-01-21T09:53:24Z</time>
      </trkpt>
      <trkpt lat="45.65438" lon="6.20499">
        <ele>1444.9987792969</ele>
        <time>2012-01-21T09:53:29Z</time>
      </trkpt>
      <trkpt lat="45.65439" lon="6.205">
        <ele>1447.4020996094</ele>
        <time>2012-01-21T09:53:32Z</time>
      </trkpt>
      <trkpt lat="45.65443" lon="6.205">
        <ele>1447.4020996094</ele>
        <time>2012-01-21T09:53:38Z</time>
      </trkpt>
      <trkpt lat="45.65443" lon="6.20501">
        <ele>1447.4020996094</ele>
        <time>2012-01-21T09:53:43Z</time>
      </trkpt>
      <trkpt lat="45.65442" lon="6.20501">
        <ele>1445.9602050781</ele>
        <time>2012-01-21T09:53:52Z</time>
      </trkpt>
      <trkpt lat="45.65441" lon="6.20501">
        <ele>1446.4409179688</ele>
        <time>2012-01-21T09:54:04Z</time>
      </trkpt>
      <trkpt lat="45.65443" lon="6.20498">
        <ele>1441.1535644531</ele>
        <time>2012-01-21T09:54:09Z</time>
      </trkpt>
      <trkpt lat="45.65444" lon="6.20498">
        <ele>1440.1923828125</ele>
        <time>2012-01-21T09:54:17Z</time>
      </trkpt>
      <trkpt lat="45.65446" lon="6.205">
        <ele>1441.1535644531</ele>
        <time>2012-01-21T09:54:22Z</time>
      </trkpt>
      <trkpt lat="45.65449" lon="6.20502">
        <ele>1441.6342773438</ele>
        <time>2012-01-21T09:54:27Z</time>
      </trkpt>
      <trkpt lat="45.65453" lon="6.20504">
        <ele>1443.076171875</ele>
        <time>2012-01-21T09:54:32Z</time>
      </trkpt>
      <trkpt lat="45.65456" lon="6.20505">
        <ele>1443.076171875</ele>
        <time>2012-01-21T09:54:36Z</time>
      </trkpt>
      <trkpt lat="45.65458" lon="6.20507">
        <ele>1443.076171875</ele>
        <time>2012-01-21T09:54:40Z</time>
      </trkpt>
      <trkpt lat="45.6546" lon="6.2051">
        <ele>1444.0375976562</ele>
        <time>2012-01-21T09:54:45Z</time>
      </trkpt>
      <trkpt lat="45.65463" lon="6.20514">
        <ele>1444.5180664062</ele>
        <time>2012-01-21T09:54:51Z</time>
      </trkpt>
      <trkpt lat="45.65465" lon="6.20517">
        <ele>1444.9987792969</ele>
        <time>2012-01-21T09:54:56Z</time>
      </trkpt>
      <trkpt lat="45.65467" lon="6.20518">
        <ele>1445.9602050781</ele>
        <time>2012-01-21T09:55:01Z</time>
      </trkpt>
      <trkpt lat="45.6547" lon="6.20522">
        <ele>1446.4409179688</ele>
        <time>2012-01-21T09:55:07Z</time>
      </trkpt>
      <trkpt lat="45.65471" lon="6.20524">
        <ele>1447.8828125</ele>
        <time>2012-01-21T09:55:12Z</time>
      </trkpt>
      <trkpt lat="45.65474" lon="6.20527">
        <ele>1448.36328125</ele>
        <time>2012-01-21T09:55:18Z</time>
      </trkpt>
      <trkpt lat="45.65473" lon="6.20527">
        <ele>1448.8439941406</ele>
        <time>2012-01-21T09:55:24Z</time>
      </trkpt>
      <trkpt lat="45.65472" lon="6.20527">
        <ele>1448.36328125</ele>
        <time>2012-01-21T09:55:39Z</time>
      </trkpt>
      <trkpt lat="45.65472" lon="6.20528">
        <ele>1448.36328125</ele>
        <time>2012-01-21T09:55:44Z</time>
      </trkpt>
      <trkpt lat="45.65472" lon="6.20528">
        <ele>1448.36328125</ele>
        <time>2012-01-21T09:55:50Z</time>
      </trkpt>
      <trkpt lat="45.65472" lon="6.20528">
        <ele>1448.36328125</ele>
        <time>2012-01-21T09:55:54Z</time>
      </trkpt>
      <trkpt lat="45.65471" lon="6.20529">
        <ele>1448.36328125</ele>
        <time>2012-01-21T09:56:01Z</time>
      </trkpt>
      <trkpt lat="45.65471" lon="6.20529">
        <ele>1448.36328125</ele>
        <time>2012-01-21T09:56:08Z</time>
      </trkpt>
      <trkpt lat="45.65471" lon="6.20529">
        <ele>1448.8439941406</ele>
        <time>2012-01-21T09:56:18Z</time>
      </trkpt>
      <trkpt lat="45.65472" lon="6.2053">
        <ele>1449.3247070312</ele>
        <time>2012-01-21T09:56:26Z</time>
      </trkpt>
      <trkpt lat="45.65476" lon="6.20534">
        <ele>1449.3247070312</ele>
        <time>2012-01-21T09:56:34Z</time>
      </trkpt>
      <trkpt lat="45.65479" lon="6.20537">
        <ele>1448.8439941406</ele>
        <time>2012-01-21T09:56:39Z</time>
      </trkpt>
      <trkpt lat="45.65482" lon="6.20541">
        <ele>1449.8054199219</ele>
        <time>2012-01-21T09:56:45Z</time>
      </trkpt>
      <trkpt lat="45.65484" lon="6.20544">
        <ele>1451.2473144531</ele>
        <time>2012-01-21T09:56:51Z</time>
      </trkpt>
      <trkpt lat="45.65487" lon="6.20548">
        <ele>1452.2087402344</ele>
        <time>2012-01-21T09:56:58Z</time>
      </trkpt>
      <trkpt lat="45.65489" lon="6.20552">
        <ele>1452.689453125</ele>
        <time>2012-01-21T09:57:03Z</time>
      </trkpt>
      <trkpt lat="45.65491" lon="6.20555">
        <ele>1452.689453125</ele>
        <time>2012-01-21T09:57:07Z</time>
      </trkpt>
      <trkpt lat="45.65494" lon="6.2056">
        <ele>1454.1315917969</ele>
        <time>2012-01-21T09:57:12Z</time>
      </trkpt>
      <trkpt lat="45.65499" lon="6.20565">
        <ele>1454.6120605469</ele>
        <time>2012-01-21T09:57:19Z</time>
      </trkpt>
      <trkpt lat="45.65501" lon="6.20566">
        <ele>1454.6120605469</ele>
        <time>2012-01-21T09:57:25Z</time>
      </trkpt>
      <trkpt lat="45.65502" lon="6.20562">
        <ele>1455.0927734375</ele>
        <time>2012-01-21T09:57:30Z</time>
      </trkpt>
      <trkpt lat="45.65502" lon="6.20562">
        <ele>1455.0927734375</ele>
        <time>2012-01-21T09:57:37Z</time>
      </trkpt>
      <trkpt lat="45.65501" lon="6.20561">
        <ele>1456.0539550781</ele>
        <time>2012-01-21T09:57:46Z</time>
      </trkpt>
      <trkpt lat="45.65501" lon="6.20562">
        <ele>1456.0539550781</ele>
        <time>2012-01-21T09:57:51Z</time>
      </trkpt>
      <trkpt lat="45.65501" lon="6.20561">
        <ele>1457.0153808594</ele>
        <time>2012-01-21T09:58:03Z</time>
      </trkpt>
      <trkpt lat="45.655" lon="6.20561">
        <ele>1457.49609375</ele>
        <time>2012-01-21T09:58:10Z</time>
      </trkpt>
      <trkpt lat="45.65501" lon="6.20557">
        <ele>1457.9768066406</ele>
        <time>2012-01-21T09:58:16Z</time>
      </trkpt>
      <trkpt lat="45.65502" lon="6.20553">
        <ele>1457.9768066406</ele>
        <time>2012-01-21T09:58:23Z</time>
      </trkpt>
      <trkpt lat="45.65502" lon="6.20547">
        <ele>1457.9768066406</ele>
        <time>2012-01-21T09:58:29Z</time>
      </trkpt>
      <trkpt lat="45.65501" lon="6.20544">
        <ele>1458.4572753906</ele>
        <time>2012-01-21T09:58:34Z</time>
      </trkpt>
      <trkpt lat="45.65501" lon="6.2054">
        <ele>1459.4187011719</ele>
        <time>2012-01-21T09:58:40Z</time>
      </trkpt>
      <trkpt lat="45.65502" lon="6.20534">
        <ele>1460.3798828125</ele>
        <time>2012-01-21T09:58:48Z</time>
      </trkpt>
      <trkpt lat="45.65502" lon="6.20531">
        <ele>1460.8605957031</ele>
        <time>2012-01-21T09:58:52Z</time>
      </trkpt>
      <trkpt lat="45.65502" lon="6.20527">
        <ele>1461.8220214844</ele>
        <time>2012-01-21T09:58:56Z</time>
      </trkpt>
      <trkpt lat="45.65502" lon="6.20527">
        <ele>1462.3024902344</ele>
        <time>2012-01-21T09:59:00Z</time>
      </trkpt>
      <trkpt lat="45.65501" lon="6.20527">
        <ele>1462.3024902344</ele>
        <time>2012-01-21T09:59:12Z</time>
      </trkpt>
      <trkpt lat="45.65501" lon="6.20527">
        <ele>1462.3024902344</ele>
        <time>2012-01-21T09:59:23Z</time>
      </trkpt>
      <trkpt lat="45.655" lon="6.20527">
        <ele>1462.783203125</ele>
        <time>2012-01-21T09:59:30Z</time>
      </trkpt>
      <trkpt lat="45.655" lon="6.20528">
        <ele>1462.783203125</ele>
        <time>2012-01-21T09:59:36Z</time>
      </trkpt>
      <trkpt lat="45.65499" lon="6.20524">
        <ele>1463.2639160156</ele>
        <time>2012-01-21T09:59:41Z</time>
      </trkpt>
      <trkpt lat="45.65498" lon="6.20517">
        <ele>1464.2250976562</ele>
        <time>2012-01-21T09:59:48Z</time>
      </trkpt>
      <trkpt lat="45.65496" lon="6.20511">
        <ele>1464.2250976562</ele>
        <time>2012-01-21T09:59:55Z</time>
      </trkpt>
      <trkpt lat="45.65495" lon="6.20506">
        <ele>1464.2250976562</ele>
        <time>2012-01-21T10:00:01Z</time>
      </trkpt>
      <trkpt lat="45.65493" lon="6.20502">
        <ele>1464.2250976562</ele>
        <time>2012-01-21T10:00:06Z</time>
      </trkpt>
      <trkpt lat="45.65492" lon="6.20497">
        <ele>1465.1865234375</ele>
        <time>2012-01-21T10:00:12Z</time>
      </trkpt>
      <trkpt lat="45.65491" lon="6.20491">
        <ele>1466.1477050781</ele>
        <time>2012-01-21T10:00:19Z</time>
      </trkpt>
      <trkpt lat="45.6549" lon="6.20486">
        <ele>1466.6284179688</ele>
        <time>2012-01-21T10:00:25Z</time>
      </trkpt>
      <trkpt lat="45.6549" lon="6.20483">
        <ele>1467.1091308594</ele>
        <time>2012-01-21T10:00:29Z</time>
      </trkpt>
      <trkpt lat="45.6549" lon="6.20478">
        <ele>1467.5895996094</ele>
        <time>2012-01-21T10:00:35Z</time>
      </trkpt>
      <trkpt lat="45.65489" lon="6.20474">
        <ele>1468.0705566406</ele>
        <time>2012-01-21T10:00:40Z</time>
      </trkpt>
      <trkpt lat="45.65489" lon="6.20471">
        <ele>1468.5512695312</ele>
        <time>2012-01-21T10:00:46Z</time>
      </trkpt>
      <trkpt lat="45.6549" lon="6.20472">
        <ele>1468.0705566406</ele>
        <time>2012-01-21T10:00:54Z</time>
      </trkpt>
      <trkpt lat="45.65489" lon="6.20473">
        <ele>1466.1477050781</ele>
        <time>2012-01-21T10:01:06Z</time>
      </trkpt>
      <trkpt lat="45.65488" lon="6.20468">
        <ele>1466.1477050781</ele>
        <time>2012-01-21T10:01:14Z</time>
      </trkpt>
      <trkpt lat="45.6549" lon="6.20463">
        <ele>1467.1091308594</ele>
        <time>2012-01-21T10:01:19Z</time>
      </trkpt>
      <trkpt lat="45.65488" lon="6.20459">
        <ele>1468.0705566406</ele>
        <time>2012-01-21T10:01:24Z</time>
      </trkpt>
      <trkpt lat="45.65487" lon="6.20459">
        <ele>1468.5512695312</ele>
        <time>2012-01-21T10:01:41Z</time>
      </trkpt>
      <trkpt lat="45.65487" lon="6.20459">
        <ele>1468.5512695312</ele>
        <time>2012-01-21T10:01:51Z</time>
      </trkpt>
      <trkpt lat="45.65487" lon="6.20459">
        <ele>1468.5512695312</ele>
        <time>2012-01-21T10:01:55Z</time>
      </trkpt>
      <trkpt lat="45.65487" lon="6.20459">
        <ele>1469.0319824219</ele>
        <time>2012-01-21T10:02:02Z</time>
      </trkpt>
      <trkpt lat="45.65486" lon="6.20458">
        <ele>1469.0319824219</ele>
        <time>2012-01-21T10:02:09Z</time>
      </trkpt>
      <trkpt lat="45.65483" lon="6.20452">
        <ele>1469.5126953125</ele>
        <time>2012-01-21T10:02:16Z</time>
      </trkpt>
      <trkpt lat="45.6548" lon="6.20449">
        <ele>1469.5126953125</ele>
        <time>2012-01-21T10:02:21Z</time>
      </trkpt>
      <trkpt lat="45.65479" lon="6.20445">
        <ele>1470.4738769531</ele>
        <time>2012-01-21T10:02:26Z</time>
      </trkpt>
      <trkpt lat="45.65477" lon="6.20442">
        <ele>1471.4350585938</ele>
        <time>2012-01-21T10:02:30Z</time>
      </trkpt>
      <trkpt lat="45.65477" lon="6.20442">
        <ele>1471.9157714844</ele>
        <time>2012-01-21T10:02:34Z</time>
      </trkpt>
      <trkpt lat="45.65476" lon="6.20438">
        <ele>1472.396484375</ele>
        <time>2012-01-21T10:02:42Z</time>
      </trkpt>
      <trkpt lat="45.65474" lon="6.20434">
        <ele>1472.8771972656</ele>
        <time>2012-01-21T10:02:48Z</time>
      </trkpt>
      <trkpt lat="45.65472" lon="6.20432">
        <ele>1473.3579101562</ele>
        <time>2012-01-21T10:02:52Z</time>
      </trkpt>
      <trkpt lat="45.65471" lon="6.20429">
        <ele>1473.8383789062</ele>
        <time>2012-01-21T10:02:56Z</time>
      </trkpt>
      <trkpt lat="45.6547" lon="6.20427">
        <ele>1474.7998046875</ele>
        <time>2012-01-21T10:03:01Z</time>
      </trkpt>
      <trkpt lat="45.65469" lon="6.20422">
        <ele>1476.2416992188</ele>
        <time>2012-01-21T10:03:15Z</time>
      </trkpt>
      <trkpt lat="45.65469" lon="6.20418">
        <ele>1476.7224121094</ele>
        <time>2012-01-21T10:03:19Z</time>
      </trkpt>
      <trkpt lat="45.6547" lon="6.20416">
        <ele>1475.2802734375</ele>
        <time>2012-01-21T10:03:39Z</time>
      </trkpt>
      <trkpt lat="45.65471" lon="6.20414">
        <ele>1474.7998046875</ele>
        <time>2012-01-21T10:03:50Z</time>
      </trkpt>
      <trkpt lat="45.65475" lon="6.20413">
        <ele>1475.7609863281</ele>
        <time>2012-01-21T10:03:56Z</time>
      </trkpt>
      <trkpt lat="45.65479" lon="6.20413">
        <ele>1476.2416992188</ele>
        <time>2012-01-21T10:04:01Z</time>
      </trkpt>
      <trkpt lat="45.65483" lon="6.20413">
        <ele>1477.203125</ele>
        <time>2012-01-21T10:04:07Z</time>
      </trkpt>
      <trkpt lat="45.65487" lon="6.20414">
        <ele>1477.68359375</ele>
        <time>2012-01-21T10:04:12Z</time>
      </trkpt>
      <trkpt lat="45.6549" lon="6.20415">
        <ele>1477.203125</ele>
        <time>2012-01-21T10:04:18Z</time>
      </trkpt>
      <trkpt lat="45.65493" lon="6.20417">
        <ele>1477.203125</ele>
        <time>2012-01-21T10:04:22Z</time>
      </trkpt>
      <trkpt lat="45.65496" lon="6.2042">
        <ele>1477.203125</ele>
        <time>2012-01-21T10:04:27Z</time>
      </trkpt>
      <trkpt lat="45.655" lon="6.20421">
        <ele>1477.203125</ele>
        <time>2012-01-21T10:04:31Z</time>
      </trkpt>
      <trkpt lat="45.65502" lon="6.20421">
        <ele>1479.1254882812</ele>
        <time>2012-01-21T10:04:35Z</time>
      </trkpt>
      <trkpt lat="45.65502" lon="6.20421">
        <ele>1479.6062011719</ele>
        <time>2012-01-21T10:04:40Z</time>
      </trkpt>
      <trkpt lat="45.65504" lon="6.2042">
        <ele>1479.1254882812</ele>
        <time>2012-01-21T10:04:56Z</time>
      </trkpt>
      <trkpt lat="45.65509" lon="6.20423">
        <ele>1479.6062011719</ele>
        <time>2012-01-21T10:05:02Z</time>
      </trkpt>
      <trkpt lat="45.65512" lon="6.20425">
        <ele>1480.5676269531</ele>
        <time>2012-01-21T10:05:07Z</time>
      </trkpt>
      <trkpt lat="45.65516" lon="6.20428">
        <ele>1479.6062011719</ele>
        <time>2012-01-21T10:05:12Z</time>
      </trkpt>
      <trkpt lat="45.6552" lon="6.20431">
        <ele>1478.6450195312</ele>
        <time>2012-01-21T10:05:18Z</time>
      </trkpt>
      <trkpt lat="45.65523" lon="6.20434">
        <ele>1477.68359375</ele>
        <time>2012-01-21T10:05:24Z</time>
      </trkpt>
      <trkpt lat="45.65525" lon="6.20437">
        <ele>1476.7224121094</ele>
        <time>2012-01-21T10:05:29Z</time>
      </trkpt>
      <trkpt lat="45.6553" lon="6.2044">
        <ele>1475.7609863281</ele>
        <time>2012-01-21T10:05:35Z</time>
      </trkpt>
      <trkpt lat="45.65533" lon="6.20442">
        <ele>1477.203125</ele>
        <time>2012-01-21T10:05:41Z</time>
      </trkpt>
      <trkpt lat="45.65531" lon="6.20443">
        <ele>1479.6062011719</ele>
        <time>2012-01-21T10:05:49Z</time>
      </trkpt>
      <trkpt lat="45.6553" lon="6.20443">
        <ele>1480.0869140625</ele>
        <time>2012-01-21T10:05:54Z</time>
      </trkpt>
      <trkpt lat="45.6553" lon="6.20443">
        <ele>1480.0869140625</ele>
        <time>2012-01-21T10:06:00Z</time>
      </trkpt>
      <trkpt lat="45.65529" lon="6.20443">
        <ele>1482.0095214844</ele>
        <time>2012-01-21T10:06:12Z</time>
      </trkpt>
      <trkpt lat="45.65528" lon="6.20441">
        <ele>1483.9321289062</ele>
        <time>2012-01-21T10:06:21Z</time>
      </trkpt>
      <trkpt lat="45.65527" lon="6.20442">
        <ele>1484.4130859375</ele>
        <time>2012-01-21T10:06:24Z</time>
      </trkpt>
      <trkpt lat="45.65528" lon="6.20443">
        <ele>1484.4130859375</ele>
        <time>2012-01-21T10:06:30Z</time>
      </trkpt>
      <trkpt lat="45.65528" lon="6.20444">
        <ele>1483.4514160156</ele>
        <time>2012-01-21T10:06:38Z</time>
      </trkpt>
      <trkpt lat="45.65528" lon="6.20444">
        <ele>1482.970703125</ele>
        <time>2012-01-21T10:06:45Z</time>
      </trkpt>
      <trkpt lat="45.65528" lon="6.20444">
        <ele>1482.970703125</ele>
        <time>2012-01-21T10:06:48Z</time>
      </trkpt>
      <trkpt lat="45.65529" lon="6.20444">
        <ele>1482.970703125</ele>
        <time>2012-01-21T10:06:54Z</time>
      </trkpt>
      <trkpt lat="45.6553" lon="6.20444">
        <ele>1482.0095214844</ele>
        <time>2012-01-21T10:06:58Z</time>
      </trkpt>
      <trkpt lat="45.65532" lon="6.20445">
        <ele>1482.0095214844</ele>
        <time>2012-01-21T10:07:02Z</time>
      </trkpt>
      <trkpt lat="45.65536" lon="6.20448">
        <ele>1482.0095214844</ele>
        <time>2012-01-21T10:07:08Z</time>
      </trkpt>
      <trkpt lat="45.65538" lon="6.20449">
        <ele>1482.0095214844</ele>
        <time>2012-01-21T10:07:13Z</time>
      </trkpt>
      <trkpt lat="45.65541" lon="6.20451">
        <ele>1482.0095214844</ele>
        <time>2012-01-21T10:07:19Z</time>
      </trkpt>
      <trkpt lat="45.65543" lon="6.20452">
        <ele>1483.4514160156</ele>
        <time>2012-01-21T10:07:25Z</time>
      </trkpt>
      <trkpt lat="45.65545" lon="6.20453">
        <ele>1483.9321289062</ele>
        <time>2012-01-21T10:07:31Z</time>
      </trkpt>
      <trkpt lat="45.65546" lon="6.20455">
        <ele>1484.8937988281</ele>
        <time>2012-01-21T10:07:37Z</time>
      </trkpt>
      <trkpt lat="45.65548" lon="6.20456">
        <ele>1484.8937988281</ele>
        <time>2012-01-21T10:07:41Z</time>
      </trkpt>
      <trkpt lat="45.65549" lon="6.20458">
        <ele>1485.3742675781</ele>
        <time>2012-01-21T10:07:46Z</time>
      </trkpt>
      <trkpt lat="45.65549" lon="6.20457">
        <ele>1486.8161621094</ele>
        <time>2012-01-21T10:07:53Z</time>
      </trkpt>
      <trkpt lat="45.65549" lon="6.20458">
        <ele>1488.2583007812</ele>
        <time>2012-01-21T10:08:05Z</time>
      </trkpt>
      <trkpt lat="45.6555" lon="6.20458">
        <ele>1487.7775878906</ele>
        <time>2012-01-21T10:08:12Z</time>
      </trkpt>
      <trkpt lat="45.65552" lon="6.2046">
        <ele>1488.7390136719</ele>
        <time>2012-01-21T10:08:19Z</time>
      </trkpt>
      <trkpt lat="45.65556" lon="6.20462">
        <ele>1489.2194824219</ele>
        <time>2012-01-21T10:08:25Z</time>
      </trkpt>
      <trkpt lat="45.65558" lon="6.20462">
        <ele>1490.6613769531</ele>
        <time>2012-01-21T10:08:31Z</time>
      </trkpt>
      <trkpt lat="45.65559" lon="6.20463">
        <ele>1491.1420898438</ele>
        <time>2012-01-21T10:08:35Z</time>
      </trkpt>
      <trkpt lat="45.65563" lon="6.20463">
        <ele>1492.103515625</ele>
        <time>2012-01-21T10:08:41Z</time>
      </trkpt>
      <trkpt lat="45.65565" lon="6.20464">
        <ele>1492.103515625</ele>
        <time>2012-01-21T10:08:46Z</time>
      </trkpt>
      <trkpt lat="45.65565" lon="6.20464">
        <ele>1493.0646972656</ele>
        <time>2012-01-21T10:08:54Z</time>
      </trkpt>
      <trkpt lat="45.65565" lon="6.20463">
        <ele>1492.5842285156</ele>
        <time>2012-01-21T10:09:04Z</time>
      </trkpt>
      <trkpt lat="45.65566" lon="6.20463">
        <ele>1492.103515625</ele>
        <time>2012-01-21T10:09:11Z</time>
      </trkpt>
      <trkpt lat="45.6557" lon="6.20464">
        <ele>1492.5842285156</ele>
        <time>2012-01-21T10:09:17Z</time>
      </trkpt>
      <trkpt lat="45.65572" lon="6.20466">
        <ele>1492.5842285156</ele>
        <time>2012-01-21T10:09:23Z</time>
      </trkpt>
      <trkpt lat="45.65574" lon="6.20466">
        <ele>1492.5842285156</ele>
        <time>2012-01-21T10:09:28Z</time>
      </trkpt>
      <trkpt lat="45.65577" lon="6.20466">
        <ele>1493.5454101562</ele>
        <time>2012-01-21T10:09:36Z</time>
      </trkpt>
      <trkpt lat="45.65577" lon="6.20466">
        <ele>1492.5842285156</ele>
        <time>2012-01-21T10:09:48Z</time>
      </trkpt>
      <trkpt lat="45.65578" lon="6.20465">
        <ele>1493.0646972656</ele>
        <time>2012-01-21T10:09:56Z</time>
      </trkpt>
      <trkpt lat="45.65579" lon="6.20463">
        <ele>1493.5454101562</ele>
        <time>2012-01-21T10:10:01Z</time>
      </trkpt>
      <trkpt lat="45.65579" lon="6.20463">
        <ele>1494.0261230469</ele>
        <time>2012-01-21T10:10:07Z</time>
      </trkpt>
      <trkpt lat="45.65582" lon="6.20461">
        <ele>1494.9873046875</ele>
        <time>2012-01-21T10:10:17Z</time>
      </trkpt>
      <trkpt lat="45.65584" lon="6.20458">
        <ele>1493.0646972656</ele>
        <time>2012-01-21T10:10:22Z</time>
      </trkpt>
      <trkpt lat="45.65586" lon="6.20455">
        <ele>1493.0646972656</ele>
        <time>2012-01-21T10:10:26Z</time>
      </trkpt>
      <trkpt lat="45.65588" lon="6.20451">
        <ele>1494.5065917969</ele>
        <time>2012-01-21T10:10:31Z</time>
      </trkpt>
      <trkpt lat="45.6559" lon="6.20447">
        <ele>1495.9487304688</ele>
        <time>2012-01-21T10:10:36Z</time>
      </trkpt>
      <trkpt lat="45.65592" lon="6.20444">
        <ele>1496.9099121094</ele>
        <time>2012-01-21T10:10:41Z</time>
      </trkpt>
      <trkpt lat="45.65592" lon="6.20445">
        <ele>1497.390625</ele>
        <time>2012-01-21T10:10:48Z</time>
      </trkpt>
      <trkpt lat="45.65592" lon="6.20445">
        <ele>1497.8713378906</ele>
        <time>2012-01-21T10:10:53Z</time>
      </trkpt>
      <trkpt lat="45.65594" lon="6.20447">
        <ele>1499.7939453125</ele>
        <time>2012-01-21T10:10:59Z</time>
      </trkpt>
      <trkpt lat="45.65594" lon="6.20448">
        <ele>1498.8325195312</ele>
        <time>2012-01-21T10:11:05Z</time>
      </trkpt>
      <trkpt lat="45.65596" lon="6.2045">
        <ele>1499.3132324219</ele>
        <time>2012-01-21T10:11:10Z</time>
      </trkpt>
      <trkpt lat="45.65598" lon="6.20451">
        <ele>1498.8325195312</ele>
        <time>2012-01-21T10:11:17Z</time>
      </trkpt>
      <trkpt lat="45.65598" lon="6.20451">
        <ele>1498.8325195312</ele>
        <time>2012-01-21T10:11:25Z</time>
      </trkpt>
      <trkpt lat="45.65599" lon="6.20452">
        <ele>1498.8325195312</ele>
        <time>2012-01-21T10:11:30Z</time>
      </trkpt>
      <trkpt lat="45.65599" lon="6.20453">
        <ele>1499.3132324219</ele>
        <time>2012-01-21T10:11:35Z</time>
      </trkpt>
      <trkpt lat="45.656" lon="6.20454">
        <ele>1500.2749023438</ele>
        <time>2012-01-21T10:11:44Z</time>
      </trkpt>
      <trkpt lat="45.65602" lon="6.20457">
        <ele>1500.7553710938</ele>
        <time>2012-01-21T10:11:51Z</time>
      </trkpt>
      <trkpt lat="45.65605" lon="6.20459">
        <ele>1501.716796875</ele>
        <time>2012-01-21T10:11:58Z</time>
      </trkpt>
      <trkpt lat="45.65607" lon="6.20461">
        <ele>1503.1586914062</ele>
        <time>2012-01-21T10:12:04Z</time>
      </trkpt>
      <trkpt lat="45.6561" lon="6.20463">
        <ele>1503.6394042969</ele>
        <time>2012-01-21T10:12:09Z</time>
      </trkpt>
      <trkpt lat="45.6561" lon="6.20463">
        <ele>1504.1201171875</ele>
        <time>2012-01-21T10:12:14Z</time>
      </trkpt>
      <trkpt lat="45.65612" lon="6.20464">
        <ele>1504.1201171875</ele>
        <time>2012-01-21T10:12:26Z</time>
      </trkpt>
      <trkpt lat="45.65615" lon="6.20467">
        <ele>1505.0812988281</ele>
        <time>2012-01-21T10:12:31Z</time>
      </trkpt>
      <trkpt lat="45.65619" lon="6.20468">
        <ele>1505.5620117188</ele>
        <time>2012-01-21T10:12:36Z</time>
      </trkpt>
      <trkpt lat="45.65622" lon="6.2047">
        <ele>1506.0424804688</ele>
        <time>2012-01-21T10:12:41Z</time>
      </trkpt>
      <trkpt lat="45.65625" lon="6.20474">
        <ele>1506.0424804688</ele>
        <time>2012-01-21T10:12:48Z</time>
      </trkpt>
      <trkpt lat="45.65626" lon="6.20477">
        <ele>1505.5620117188</ele>
        <time>2012-01-21T10:12:54Z</time>
      </trkpt>
      <trkpt lat="45.65626" lon="6.20477">
        <ele>1506.0424804688</ele>
        <time>2012-01-21T10:13:07Z</time>
      </trkpt>
      <trkpt lat="45.65626" lon="6.20477">
        <ele>1506.0424804688</ele>
        <time>2012-01-21T10:13:14Z</time>
      </trkpt>
      <trkpt lat="45.65626" lon="6.20477">
        <ele>1506.0424804688</ele>
        <time>2012-01-21T10:13:21Z</time>
      </trkpt>
      <trkpt lat="45.65627" lon="6.2048">
        <ele>1506.5231933594</ele>
        <time>2012-01-21T10:13:27Z</time>
      </trkpt>
      <trkpt lat="45.65629" lon="6.20484">
        <ele>1507.00390625</ele>
        <time>2012-01-21T10:13:32Z</time>
      </trkpt>
      <trkpt lat="45.6563" lon="6.20487">
        <ele>1508.4458007812</ele>
        <time>2012-01-21T10:13:37Z</time>
      </trkpt>
      <trkpt lat="45.65633" lon="6.20493">
        <ele>1508.9265136719</ele>
        <time>2012-01-21T10:13:44Z</time>
      </trkpt>
      <trkpt lat="45.65635" lon="6.20496">
        <ele>1509.8876953125</ele>
        <time>2012-01-21T10:13:49Z</time>
      </trkpt>
      <trkpt lat="45.65637" lon="6.20499">
        <ele>1510.3684082031</ele>
        <time>2012-01-21T10:13:56Z</time>
      </trkpt>
      <trkpt lat="45.65637" lon="6.20499">
        <ele>1510.8491210938</ele>
        <time>2012-01-21T10:14:09Z</time>
      </trkpt>
      <trkpt lat="45.65636" lon="6.20497">
        <ele>1508.9265136719</ele>
        <time>2012-01-21T10:14:19Z</time>
      </trkpt>
      <trkpt lat="45.65636" lon="6.20496">
        <ele>1508.4458007812</ele>
        <time>2012-01-21T10:14:25Z</time>
      </trkpt>
      <trkpt lat="45.65636" lon="6.20496">
        <ele>1507.9653320312</ele>
        <time>2012-01-21T10:14:33Z</time>
      </trkpt>
      <trkpt lat="45.65636" lon="6.20496">
        <ele>1508.4458007812</ele>
        <time>2012-01-21T10:14:41Z</time>
      </trkpt>
      <trkpt lat="45.65636" lon="6.20497">
        <ele>1509.4072265625</ele>
        <time>2012-01-21T10:14:50Z</time>
      </trkpt>
      <trkpt lat="45.65635" lon="6.20497">
        <ele>1509.8876953125</ele>
        <time>2012-01-21T10:14:59Z</time>
      </trkpt>
      <trkpt lat="45.65634" lon="6.20496">
        <ele>1509.8876953125</ele>
        <time>2012-01-21T10:15:03Z</time>
      </trkpt>
      <trkpt lat="45.65635" lon="6.20496">
        <ele>1510.8491210938</ele>
        <time>2012-01-21T10:15:07Z</time>
      </trkpt>
      <trkpt lat="45.65634" lon="6.20497">
        <ele>1511.3298339844</ele>
        <time>2012-01-21T10:15:11Z</time>
      </trkpt>
      <trkpt lat="45.65634" lon="6.20498">
        <ele>1513.2524414062</ele>
        <time>2012-01-21T10:15:18Z</time>
      </trkpt>
      <trkpt lat="45.65634" lon="6.20499">
        <ele>1514.2136230469</ele>
        <time>2012-01-21T10:15:32Z</time>
      </trkpt>
      <trkpt lat="45.65634" lon="6.20499">
        <ele>1514.6943359375</ele>
        <time>2012-01-21T10:15:37Z</time>
      </trkpt>
      <trkpt lat="45.65637" lon="6.20493">
        <ele>1515.6557617188</ele>
        <time>2012-01-21T10:15:44Z</time>
      </trkpt>
      <trkpt lat="45.65639" lon="6.20488">
        <ele>1516.1364746094</ele>
        <time>2012-01-21T10:15:50Z</time>
      </trkpt>
      <trkpt lat="45.6564" lon="6.20482">
        <ele>1516.6171875</ele>
        <time>2012-01-21T10:15:56Z</time>
      </trkpt>
      <trkpt lat="45.65641" lon="6.20478">
        <ele>1516.6171875</ele>
        <time>2012-01-21T10:16:01Z</time>
      </trkpt>
      <trkpt lat="45.65641" lon="6.20473">
        <ele>1517.0979003906</ele>
        <time>2012-01-21T10:16:07Z</time>
      </trkpt>
      <trkpt lat="45.6564" lon="6.20468">
        <ele>1517.5783691406</ele>
        <time>2012-01-21T10:16:13Z</time>
      </trkpt>
      <trkpt lat="45.6564" lon="6.20463">
        <ele>1518.0590820312</ele>
        <time>2012-01-21T10:16:20Z</time>
      </trkpt>
      <trkpt lat="45.6564" lon="6.20462">
        <ele>1518.0590820312</ele>
        <time>2012-01-21T10:16:26Z</time>
      </trkpt>
      <trkpt lat="45.65639" lon="6.20461">
        <ele>1518.5397949219</ele>
        <time>2012-01-21T10:16:38Z</time>
      </trkpt>
      <trkpt lat="45.65639" lon="6.2046">
        <ele>1518.0590820312</ele>
        <time>2012-01-21T10:16:46Z</time>
      </trkpt>
      <trkpt lat="45.6564" lon="6.20461">
        <ele>1518.0590820312</ele>
        <time>2012-01-21T10:16:54Z</time>
      </trkpt>
      <trkpt lat="45.65639" lon="6.20459">
        <ele>1518.0590820312</ele>
        <time>2012-01-21T10:17:00Z</time>
      </trkpt>
      <trkpt lat="45.65639" lon="6.20454">
        <ele>1518.0590820312</ele>
        <time>2012-01-21T10:17:06Z</time>
      </trkpt>
      <trkpt lat="45.65638" lon="6.20449">
        <ele>1518.5397949219</ele>
        <time>2012-01-21T10:17:13Z</time>
      </trkpt>
      <trkpt lat="45.65638" lon="6.20445">
        <ele>1518.5397949219</ele>
        <time>2012-01-21T10:17:20Z</time>
      </trkpt>
      <trkpt lat="45.65637" lon="6.20442">
        <ele>1519.0205078125</ele>
        <time>2012-01-21T10:17:25Z</time>
      </trkpt>
      <trkpt lat="45.65636" lon="6.2044">
        <ele>1519.0205078125</ele>
        <time>2012-01-21T10:17:31Z</time>
      </trkpt>
      <trkpt lat="45.65636" lon="6.20438">
        <ele>1519.0205078125</ele>
        <time>2012-01-21T10:17:38Z</time>
      </trkpt>
      <trkpt lat="45.65635" lon="6.20434">
        <ele>1519.9816894531</ele>
        <time>2012-01-21T10:17:44Z</time>
      </trkpt>
      <trkpt lat="45.65633" lon="6.2043">
        <ele>1520.4624023438</ele>
        <time>2012-01-21T10:17:50Z</time>
      </trkpt>
      <trkpt lat="45.65633" lon="6.20425">
        <ele>1520.9431152344</ele>
        <time>2012-01-21T10:17:57Z</time>
      </trkpt>
      <trkpt lat="45.65632" lon="6.20425">
        <ele>1521.4235839844</ele>
        <time>2012-01-21T10:18:02Z</time>
      </trkpt>
      <trkpt lat="45.65632" lon="6.20424">
        <ele>1521.904296875</ele>
        <time>2012-01-21T10:18:18Z</time>
      </trkpt>
      <trkpt lat="45.65632" lon="6.20424">
        <ele>1521.4235839844</ele>
        <time>2012-01-21T10:18:24Z</time>
      </trkpt>
      <trkpt lat="45.65632" lon="6.20424">
        <ele>1521.904296875</ele>
        <time>2012-01-21T10:18:31Z</time>
      </trkpt>
      <trkpt lat="45.65632" lon="6.20424">
        <ele>1521.904296875</ele>
        <time>2012-01-21T10:18:35Z</time>
      </trkpt>
      <trkpt lat="45.65632" lon="6.20424">
        <ele>1521.904296875</ele>
        <time>2012-01-21T10:18:42Z</time>
      </trkpt>
      <trkpt lat="45.65632" lon="6.20423">
        <ele>1521.904296875</ele>
        <time>2012-01-21T10:18:46Z</time>
      </trkpt>
      <trkpt lat="45.65631" lon="6.20419">
        <ele>1521.4235839844</ele>
        <time>2012-01-21T10:18:53Z</time>
      </trkpt>
      <trkpt lat="45.65631" lon="6.20416">
        <ele>1521.4235839844</ele>
        <time>2012-01-21T10:18:59Z</time>
      </trkpt>
      <trkpt lat="45.6563" lon="6.20415">
        <ele>1520.9431152344</ele>
        <time>2012-01-21T10:19:05Z</time>
      </trkpt>
      <trkpt lat="45.6563" lon="6.20414">
        <ele>1520.9431152344</ele>
        <time>2012-01-21T10:19:06Z</time>
      </trkpt>
      <trkpt lat="45.65631" lon="6.20415">
        <ele>1521.4235839844</ele>
        <time>2012-01-21T10:19:14Z</time>
      </trkpt>
      <trkpt lat="45.65631" lon="6.20414">
        <ele>1521.904296875</ele>
        <time>2012-01-21T10:19:18Z</time>
      </trkpt>
      <trkpt lat="45.6563" lon="6.2041">
        <ele>1522.8657226562</ele>
        <time>2012-01-21T10:19:26Z</time>
      </trkpt>
      <trkpt lat="45.65629" lon="6.20407">
        <ele>1523.3464355469</ele>
        <time>2012-01-21T10:19:33Z</time>
      </trkpt>
      <trkpt lat="45.65628" lon="6.20403">
        <ele>1523.8269042969</ele>
        <time>2012-01-21T10:19:40Z</time>
      </trkpt>
      <trkpt lat="45.65628" lon="6.20399">
        <ele>1523.8269042969</ele>
        <time>2012-01-21T10:19:47Z</time>
      </trkpt>
      <trkpt lat="45.65627" lon="6.20396">
        <ele>1524.3076171875</ele>
        <time>2012-01-21T10:19:52Z</time>
      </trkpt>
      <trkpt lat="45.65626" lon="6.20392">
        <ele>1525.2687988281</ele>
        <time>2012-01-21T10:19:57Z</time>
      </trkpt>
      <trkpt lat="45.65625" lon="6.20387">
        <ele>1525.7495117188</ele>
        <time>2012-01-21T10:20:04Z</time>
      </trkpt>
      <trkpt lat="45.65623" lon="6.20381">
        <ele>1526.7109375</ele>
        <time>2012-01-21T10:20:10Z</time>
      </trkpt>
      <trkpt lat="45.65623" lon="6.20379">
        <ele>1527.1916503906</ele>
        <time>2012-01-21T10:20:15Z</time>
      </trkpt>
      <trkpt lat="45.65623" lon="6.20379">
        <ele>1526.7109375</ele>
        <time>2012-01-21T10:20:23Z</time>
      </trkpt>
      <trkpt lat="45.65623" lon="6.20379">
        <ele>1525.7495117188</ele>
        <time>2012-01-21T10:20:31Z</time>
      </trkpt>
      <trkpt lat="45.65623" lon="6.20379">
        <ele>1525.7495117188</ele>
        <time>2012-01-21T10:20:36Z</time>
      </trkpt>
      <trkpt lat="45.65623" lon="6.20379">
        <ele>1525.2687988281</ele>
        <time>2012-01-21T10:20:45Z</time>
      </trkpt>
      <trkpt lat="45.65623" lon="6.20378">
        <ele>1525.2687988281</ele>
        <time>2012-01-21T10:20:50Z</time>
      </trkpt>
      <trkpt lat="45.65622" lon="6.20372">
        <ele>1526.2302246094</ele>
        <time>2012-01-21T10:20:59Z</time>
      </trkpt>
      <trkpt lat="45.65621" lon="6.20369">
        <ele>1526.7109375</ele>
        <time>2012-01-21T10:21:06Z</time>
      </trkpt>
      <trkpt lat="45.65621" lon="6.20366">
        <ele>1526.7109375</ele>
        <time>2012-01-21T10:21:12Z</time>
      </trkpt>
      <trkpt lat="45.65619" lon="6.2036">
        <ele>1528.1528320312</ele>
        <time>2012-01-21T10:21:20Z</time>
      </trkpt>
      <trkpt lat="45.65616" lon="6.20356">
        <ele>1528.6335449219</ele>
        <time>2012-01-21T10:21:27Z</time>
      </trkpt>
      <trkpt lat="45.65615" lon="6.20352">
        <ele>1529.1140136719</ele>
        <time>2012-01-21T10:21:32Z</time>
      </trkpt>
      <trkpt lat="45.65613" lon="6.20349">
        <ele>1529.5947265625</ele>
        <time>2012-01-21T10:21:39Z</time>
      </trkpt>
      <trkpt lat="45.65611" lon="6.20344">
        <ele>1530.0754394531</ele>
        <time>2012-01-21T10:21:46Z</time>
      </trkpt>
      <trkpt lat="45.6561" lon="6.20344">
        <ele>1530.5561523438</ele>
        <time>2012-01-21T10:21:52Z</time>
      </trkpt>
      <trkpt lat="45.65609" lon="6.20342">
        <ele>1531.0368652344</ele>
        <time>2012-01-21T10:22:01Z</time>
      </trkpt>
      <trkpt lat="45.65606" lon="6.20338">
        <ele>1531.5173339844</ele>
        <time>2012-01-21T10:22:08Z</time>
      </trkpt>
      <trkpt lat="45.65604" lon="6.20335">
        <ele>1532.4790039062</ele>
        <time>2012-01-21T10:22:14Z</time>
      </trkpt>
      <trkpt lat="45.65602" lon="6.20332">
        <ele>1532.9594726562</ele>
        <time>2012-01-21T10:22:20Z</time>
      </trkpt>
      <trkpt lat="45.65601" lon="6.20331">
        <ele>1533.4401855469</ele>
        <time>2012-01-21T10:22:28Z</time>
      </trkpt>
      <trkpt lat="45.65602" lon="6.20331">
        <ele>1533.4401855469</ele>
        <time>2012-01-21T10:22:38Z</time>
      </trkpt>
      <trkpt lat="45.65602" lon="6.20331">
        <ele>1533.4401855469</ele>
        <time>2012-01-21T10:22:41Z</time>
      </trkpt>
      <trkpt lat="45.65602" lon="6.20331">
        <ele>1532.9594726562</ele>
        <time>2012-01-21T10:22:47Z</time>
      </trkpt>
      <trkpt lat="45.65603" lon="6.20333">
        <ele>1531.998046875</ele>
        <time>2012-01-21T10:23:00Z</time>
      </trkpt>
      <trkpt lat="45.65604" lon="6.20333">
        <ele>1532.4790039062</ele>
        <time>2012-01-21T10:23:05Z</time>
      </trkpt>
      <trkpt lat="45.65601" lon="6.2033">
        <ele>1532.4790039062</ele>
        <time>2012-01-21T10:23:09Z</time>
      </trkpt>
      <trkpt lat="45.65599" lon="6.20325">
        <ele>1533.4401855469</ele>
        <time>2012-01-21T10:23:15Z</time>
      </trkpt>
      <trkpt lat="45.65596" lon="6.2032">
        <ele>1533.4401855469</ele>
        <time>2012-01-21T10:23:23Z</time>
      </trkpt>
      <trkpt lat="45.65594" lon="6.20317">
        <ele>1533.9208984375</ele>
        <time>2012-01-21T10:23:28Z</time>
      </trkpt>
      <trkpt lat="45.65592" lon="6.20314">
        <ele>1534.8823242188</ele>
        <time>2012-01-21T10:23:33Z</time>
      </trkpt>
      <trkpt lat="45.6559" lon="6.20311">
        <ele>1535.3627929688</ele>
        <time>2012-01-21T10:23:37Z</time>
      </trkpt>
      <trkpt lat="45.65588" lon="6.20308">
        <ele>1535.8435058594</ele>
        <time>2012-01-21T10:23:42Z</time>
      </trkpt>
      <trkpt lat="45.65586" lon="6.20306">
        <ele>1535.8435058594</ele>
        <time>2012-01-21T10:23:47Z</time>
      </trkpt>
      <trkpt lat="45.65586" lon="6.20305">
        <ele>1535.8435058594</ele>
        <time>2012-01-21T10:23:56Z</time>
      </trkpt>
      <trkpt lat="45.65586" lon="6.20304">
        <ele>1535.8435058594</ele>
        <time>2012-01-21T10:24:04Z</time>
      </trkpt>
      <trkpt lat="45.65583" lon="6.20299">
        <ele>1535.8435058594</ele>
        <time>2012-01-21T10:24:10Z</time>
      </trkpt>
      <trkpt lat="45.65581" lon="6.20294">
        <ele>1535.8435058594</ele>
        <time>2012-01-21T10:24:17Z</time>
      </trkpt>
      <trkpt lat="45.65578" lon="6.20289">
        <ele>1536.32421875</ele>
        <time>2012-01-21T10:24:24Z</time>
      </trkpt>
      <trkpt lat="45.65576" lon="6.20284">
        <ele>1536.32421875</ele>
        <time>2012-01-21T10:24:30Z</time>
      </trkpt>
      <trkpt lat="45.65574" lon="6.20279">
        <ele>1536.8046875</ele>
        <time>2012-01-21T10:24:36Z</time>
      </trkpt>
      <trkpt lat="45.65572" lon="6.20274">
        <ele>1537.7661132812</ele>
        <time>2012-01-21T10:24:42Z</time>
      </trkpt>
      <trkpt lat="45.65569" lon="6.20269">
        <ele>1538.2468261719</ele>
        <time>2012-01-21T10:24:48Z</time>
      </trkpt>
      <trkpt lat="45.65568" lon="6.20267">
        <ele>1538.2468261719</ele>
        <time>2012-01-21T10:24:54Z</time>
      </trkpt>
      <trkpt lat="45.65567" lon="6.20265">
        <ele>1538.7275390625</ele>
        <time>2012-01-21T10:25:01Z</time>
      </trkpt>
      <trkpt lat="45.65564" lon="6.20259">
        <ele>1539.2080078125</ele>
        <time>2012-01-21T10:25:08Z</time>
      </trkpt>
      <trkpt lat="45.65561" lon="6.20254">
        <ele>1540.1694335938</ele>
        <time>2012-01-21T10:25:15Z</time>
      </trkpt>
      <trkpt lat="45.6556" lon="6.20251">
        <ele>1539.6887207031</ele>
        <time>2012-01-21T10:25:21Z</time>
      </trkpt>
      <trkpt lat="45.65559" lon="6.20247">
        <ele>1539.6887207031</ele>
        <time>2012-01-21T10:25:28Z</time>
      </trkpt>
      <trkpt lat="45.65558" lon="6.20243">
        <ele>1540.1694335938</ele>
        <time>2012-01-21T10:25:34Z</time>
      </trkpt>
      <trkpt lat="45.65557" lon="6.20239">
        <ele>1540.6499023438</ele>
        <time>2012-01-21T10:25:40Z</time>
      </trkpt>
      <trkpt lat="45.65558" lon="6.20235">
        <ele>1541.1306152344</ele>
        <time>2012-01-21T10:25:45Z</time>
      </trkpt>
      <trkpt lat="45.65558" lon="6.20234">
        <ele>1541.1306152344</ele>
        <time>2012-01-21T10:25:55Z</time>
      </trkpt>
      <trkpt lat="45.65558" lon="6.20234">
        <ele>1540.1694335938</ele>
        <time>2012-01-21T10:26:04Z</time>
      </trkpt>
      <trkpt lat="45.65558" lon="6.20234">
        <ele>1540.1694335938</ele>
        <time>2012-01-21T10:26:09Z</time>
      </trkpt>
      <trkpt lat="45.65558" lon="6.20234">
        <ele>1540.1694335938</ele>
        <time>2012-01-21T10:26:16Z</time>
      </trkpt>
      <trkpt lat="45.65558" lon="6.20233">
        <ele>1540.1694335938</ele>
        <time>2012-01-21T10:26:24Z</time>
      </trkpt>
      <trkpt lat="45.65561" lon="6.20228">
        <ele>1540.1694335938</ele>
        <time>2012-01-21T10:26:30Z</time>
      </trkpt>
      <trkpt lat="45.65564" lon="6.20227">
        <ele>1541.1306152344</ele>
        <time>2012-01-21T10:26:35Z</time>
      </trkpt>
      <trkpt lat="45.65567" lon="6.20226">
        <ele>1541.611328125</ele>
        <time>2012-01-21T10:26:41Z</time>
      </trkpt>
      <trkpt lat="45.6557" lon="6.20227">
        <ele>1542.0920410156</ele>
        <time>2012-01-21T10:26:47Z</time>
      </trkpt>
      <trkpt lat="45.65575" lon="6.20227">
        <ele>1542.0920410156</ele>
        <time>2012-01-21T10:26:56Z</time>
      </trkpt>
      <trkpt lat="45.65579" lon="6.20228">
        <ele>1542.0920410156</ele>
        <time>2012-01-21T10:27:03Z</time>
      </trkpt>
      <trkpt lat="45.65582" lon="6.20228">
        <ele>1542.5727539062</ele>
        <time>2012-01-21T10:27:10Z</time>
      </trkpt>
      <trkpt lat="45.65582" lon="6.20228">
        <ele>1543.0532226562</ele>
        <time>2012-01-21T10:27:19Z</time>
      </trkpt>
      <trkpt lat="45.65585" lon="6.20228">
        <ele>1543.5339355469</ele>
        <time>2012-01-21T10:27:25Z</time>
      </trkpt>
      <trkpt lat="45.65588" lon="6.20229">
        <ele>1544.4951171875</ele>
        <time>2012-01-21T10:27:31Z</time>
      </trkpt>
      <trkpt lat="45.6559" lon="6.2023">
        <ele>1544.4951171875</ele>
        <time>2012-01-21T10:27:37Z</time>
      </trkpt>
      <trkpt lat="45.65594" lon="6.20233">
        <ele>1544.4951171875</ele>
        <time>2012-01-21T10:27:44Z</time>
      </trkpt>
      <trkpt lat="45.65596" lon="6.20237">
        <ele>1544.4951171875</ele>
        <time>2012-01-21T10:27:50Z</time>
      </trkpt>
      <trkpt lat="45.65598" lon="6.20245">
        <ele>1544.9758300781</ele>
        <time>2012-01-21T10:27:58Z</time>
      </trkpt>
      <trkpt lat="45.65599" lon="6.20252">
        <ele>1544.9758300781</ele>
        <time>2012-01-21T10:28:05Z</time>
      </trkpt>
      <trkpt lat="45.656" lon="6.20257">
        <ele>1545.4565429688</ele>
        <time>2012-01-21T10:28:13Z</time>
      </trkpt>
      <trkpt lat="45.65601" lon="6.20259">
        <ele>1545.4565429688</ele>
        <time>2012-01-21T10:28:19Z</time>
      </trkpt>
      <trkpt lat="45.65602" lon="6.20267">
        <ele>1545.9372558594</ele>
        <time>2012-01-21T10:28:27Z</time>
      </trkpt>
      <trkpt lat="45.65603" lon="6.20274">
        <ele>1545.4565429688</ele>
        <time>2012-01-21T10:28:34Z</time>
      </trkpt>
      <trkpt lat="45.65604" lon="6.20279">
        <ele>1545.4565429688</ele>
        <time>2012-01-21T10:28:40Z</time>
      </trkpt>
      <trkpt lat="45.65604" lon="6.20281">
        <ele>1545.9372558594</ele>
        <time>2012-01-21T10:28:46Z</time>
      </trkpt>
      <trkpt lat="45.65606" lon="6.20284">
        <ele>1545.9372558594</ele>
        <time>2012-01-21T10:28:53Z</time>
      </trkpt>
      <trkpt lat="45.65609" lon="6.20289">
        <ele>1546.8984375</ele>
        <time>2012-01-21T10:29:00Z</time>
      </trkpt>
      <trkpt lat="45.65612" lon="6.20291">
        <ele>1546.8984375</ele>
        <time>2012-01-21T10:29:06Z</time>
      </trkpt>
      <trkpt lat="45.65616" lon="6.20293">
        <ele>1547.3791503906</ele>
        <time>2012-01-21T10:29:13Z</time>
      </trkpt>
      <trkpt lat="45.65621" lon="6.20295">
        <ele>1547.3791503906</ele>
        <time>2012-01-21T10:29:21Z</time>
      </trkpt>
      <trkpt lat="45.65624" lon="6.20297">
        <ele>1547.8598632812</ele>
        <time>2012-01-21T10:29:27Z</time>
      </trkpt>
      <trkpt lat="45.65627" lon="6.20298">
        <ele>1547.8598632812</ele>
        <time>2012-01-21T10:29:32Z</time>
      </trkpt>
      <trkpt lat="45.65631" lon="6.20299">
        <ele>1548.3405761719</ele>
        <time>2012-01-21T10:29:39Z</time>
      </trkpt>
      <trkpt lat="45.65634" lon="6.203">
        <ele>1548.8212890625</ele>
        <time>2012-01-21T10:29:45Z</time>
      </trkpt>
      <trkpt lat="45.65638" lon="6.20301">
        <ele>1548.8212890625</ele>
        <time>2012-01-21T10:29:52Z</time>
      </trkpt>
      <trkpt lat="45.65637" lon="6.20301">
        <ele>1549.3020019531</ele>
        <time>2012-01-21T10:29:57Z</time>
      </trkpt>
      <trkpt lat="45.65636" lon="6.20301">
        <ele>1549.3020019531</ele>
        <time>2012-01-21T10:30:02Z</time>
      </trkpt>
      <trkpt lat="45.65635" lon="6.20301">
        <ele>1549.7827148438</ele>
        <time>2012-01-21T10:30:07Z</time>
      </trkpt>
      <trkpt lat="45.65634" lon="6.20301">
        <ele>1549.3020019531</ele>
        <time>2012-01-21T10:30:16Z</time>
      </trkpt>
      <trkpt lat="45.65634" lon="6.20301">
        <ele>1549.7827148438</ele>
        <time>2012-01-21T10:30:22Z</time>
      </trkpt>
      <trkpt lat="45.65634" lon="6.20301">
        <ele>1550.2634277344</ele>
        <time>2012-01-21T10:30:30Z</time>
      </trkpt>
      <trkpt lat="45.65635" lon="6.203">
        <ele>1549.7827148438</ele>
        <time>2012-01-21T10:30:37Z</time>
      </trkpt>
      <trkpt lat="45.65636" lon="6.203">
        <ele>1548.8212890625</ele>
        <time>2012-01-21T10:30:47Z</time>
      </trkpt>
      <trkpt lat="45.65636" lon="6.20301">
        <ele>1549.3020019531</ele>
        <time>2012-01-21T10:30:52Z</time>
      </trkpt>
      <trkpt lat="45.65636" lon="6.20301">
        <ele>1549.7827148438</ele>
        <time>2012-01-21T10:31:00Z</time>
      </trkpt>
      <trkpt lat="45.65636" lon="6.20301">
        <ele>1549.7827148438</ele>
        <time>2012-01-21T10:31:07Z</time>
      </trkpt>
      <trkpt lat="45.65636" lon="6.203">
        <ele>1550.2634277344</ele>
        <time>2012-01-21T10:31:12Z</time>
      </trkpt>
      <trkpt lat="45.65639" lon="6.20301">
        <ele>1550.7438964844</ele>
        <time>2012-01-21T10:31:18Z</time>
      </trkpt>
      <trkpt lat="45.65639" lon="6.20302">
        <ele>1550.2634277344</ele>
        <time>2012-01-21T10:31:25Z</time>
      </trkpt>
      <trkpt lat="45.65641" lon="6.20302">
        <ele>1550.2634277344</ele>
        <time>2012-01-21T10:31:33Z</time>
      </trkpt>
      <trkpt lat="45.65647" lon="6.20305">
        <ele>1550.2634277344</ele>
        <time>2012-01-21T10:31:40Z</time>
      </trkpt>
      <trkpt lat="45.65653" lon="6.20308">
        <ele>1550.2634277344</ele>
        <time>2012-01-21T10:31:49Z</time>
      </trkpt>
      <trkpt lat="45.65656" lon="6.20311">
        <ele>1550.7438964844</ele>
        <time>2012-01-21T10:31:55Z</time>
      </trkpt>
      <trkpt lat="45.65656" lon="6.20311">
        <ele>1550.7438964844</ele>
        <time>2012-01-21T10:32:00Z</time>
      </trkpt>
      <trkpt lat="45.65656" lon="6.2031">
        <ele>1550.7438964844</ele>
        <time>2012-01-21T10:32:09Z</time>
      </trkpt>
      <trkpt lat="45.65656" lon="6.2031">
        <ele>1551.7053222656</ele>
        <time>2012-01-21T10:32:24Z</time>
      </trkpt>
      <trkpt lat="45.65656" lon="6.20311">
        <ele>1552.6665039062</ele>
        <time>2012-01-21T10:32:30Z</time>
      </trkpt>
      <trkpt lat="45.65655" lon="6.2031">
        <ele>1553.1472167969</ele>
        <time>2012-01-21T10:32:40Z</time>
      </trkpt>
      <trkpt lat="45.65656" lon="6.2031">
        <ele>1553.6279296875</ele>
        <time>2012-01-21T10:32:50Z</time>
      </trkpt>
      <trkpt lat="45.65658" lon="6.20313">
        <ele>1552.6665039062</ele>
        <time>2012-01-21T10:33:00Z</time>
      </trkpt>
      <trkpt lat="45.65661" lon="6.20316">
        <ele>1553.1472167969</ele>
        <time>2012-01-21T10:33:06Z</time>
      </trkpt>
      <trkpt lat="45.65663" lon="6.2032">
        <ele>1553.6279296875</ele>
        <time>2012-01-21T10:33:12Z</time>
      </trkpt>
      <trkpt lat="45.65664" lon="6.20324">
        <ele>1553.6279296875</ele>
        <time>2012-01-21T10:33:17Z</time>
      </trkpt>
      <trkpt lat="45.65665" lon="6.20328">
        <ele>1554.1086425781</ele>
        <time>2012-01-21T10:33:22Z</time>
      </trkpt>
      <trkpt lat="45.65666" lon="6.20333">
        <ele>1554.5891113281</ele>
        <time>2012-01-21T10:33:28Z</time>
      </trkpt>
      <trkpt lat="45.65667" lon="6.20341">
        <ele>1555.0698242188</ele>
        <time>2012-01-21T10:33:37Z</time>
      </trkpt>
      <trkpt lat="45.65668" lon="6.20346">
        <ele>1556.0310058594</ele>
        <time>2012-01-21T10:33:43Z</time>
      </trkpt>
      <trkpt lat="45.6567" lon="6.20352">
        <ele>1556.0310058594</ele>
        <time>2012-01-21T10:33:50Z</time>
      </trkpt>
      <trkpt lat="45.65673" lon="6.20356">
        <ele>1556.51171875</ele>
        <time>2012-01-21T10:33:56Z</time>
      </trkpt>
      <trkpt lat="45.65675" lon="6.20357">
        <ele>1556.9924316406</ele>
        <time>2012-01-21T10:34:02Z</time>
      </trkpt>
      <trkpt lat="45.65677" lon="6.20359">
        <ele>1557.4731445312</ele>
        <time>2012-01-21T10:34:14Z</time>
      </trkpt>
      <trkpt lat="45.6568" lon="6.20362">
        <ele>1557.4731445312</ele>
        <time>2012-01-21T10:34:20Z</time>
      </trkpt>
      <trkpt lat="45.65681" lon="6.20362">
        <ele>1556.9924316406</ele>
        <time>2012-01-21T10:34:28Z</time>
      </trkpt>
      <trkpt lat="45.65683" lon="6.20363">
        <ele>1556.9924316406</ele>
        <time>2012-01-21T10:34:34Z</time>
      </trkpt>
      <trkpt lat="45.65686" lon="6.20366">
        <ele>1558.4343261719</ele>
        <time>2012-01-21T10:34:41Z</time>
      </trkpt>
      <trkpt lat="45.6569" lon="6.20368">
        <ele>1558.4343261719</ele>
        <time>2012-01-21T10:34:47Z</time>
      </trkpt>
      <trkpt lat="45.65694" lon="6.20371">
        <ele>1558.9150390625</ele>
        <time>2012-01-21T10:34:53Z</time>
      </trkpt>
      <trkpt lat="45.65697" lon="6.20374">
        <ele>1558.9150390625</ele>
        <time>2012-01-21T10:35:00Z</time>
      </trkpt>
      <trkpt lat="45.65698" lon="6.20375">
        <ele>1559.8762207031</ele>
        <time>2012-01-21T10:35:07Z</time>
      </trkpt>
      <trkpt lat="45.65697" lon="6.20375">
        <ele>1559.8762207031</ele>
        <time>2012-01-21T10:35:17Z</time>
      </trkpt>
      <trkpt lat="45.65697" lon="6.20375">
        <ele>1559.3957519531</ele>
        <time>2012-01-21T10:35:24Z</time>
      </trkpt>
      <trkpt lat="45.65697" lon="6.20375">
        <ele>1559.3957519531</ele>
        <time>2012-01-21T10:35:30Z</time>
      </trkpt>
      <trkpt lat="45.65697" lon="6.20374">
        <ele>1558.9150390625</ele>
        <time>2012-01-21T10:35:36Z</time>
      </trkpt>
      <trkpt lat="45.65696" lon="6.20374">
        <ele>1557.9538574219</ele>
        <time>2012-01-21T10:35:45Z</time>
      </trkpt>
      <trkpt lat="45.65696" lon="6.20374">
        <ele>1558.4343261719</ele>
        <time>2012-01-21T10:35:50Z</time>
      </trkpt>
      <trkpt lat="45.65696" lon="6.20374">
        <ele>1558.9150390625</ele>
        <time>2012-01-21T10:35:54Z</time>
      </trkpt>
      <trkpt lat="45.65697" lon="6.20375">
        <ele>1559.8762207031</ele>
        <time>2012-01-21T10:36:00Z</time>
      </trkpt>
      <trkpt lat="45.65698" lon="6.20376">
        <ele>1560.3569335938</ele>
        <time>2012-01-21T10:36:06Z</time>
      </trkpt>
      <trkpt lat="45.65698" lon="6.20377">
        <ele>1560.3569335938</ele>
        <time>2012-01-21T10:36:17Z</time>
      </trkpt>
      <trkpt lat="45.65699" lon="6.20378">
        <ele>1560.3569335938</ele>
        <time>2012-01-21T10:36:26Z</time>
      </trkpt>
      <trkpt lat="45.65702" lon="6.20381">
        <ele>1559.8762207031</ele>
        <time>2012-01-21T10:36:32Z</time>
      </trkpt>
      <trkpt lat="45.65704" lon="6.20382">
        <ele>1559.8762207031</ele>
        <time>2012-01-21T10:36:39Z</time>
      </trkpt>
      <trkpt lat="45.65706" lon="6.20384">
        <ele>1559.8762207031</ele>
        <time>2012-01-21T10:36:55Z</time>
      </trkpt>
      <trkpt lat="45.65708" lon="6.20388">
        <ele>1559.3957519531</ele>
        <time>2012-01-21T10:37:00Z</time>
      </trkpt>
      <trkpt lat="45.65711" lon="6.2039">
        <ele>1559.8762207031</ele>
        <time>2012-01-21T10:37:07Z</time>
      </trkpt>
      <trkpt lat="45.65714" lon="6.20395">
        <ele>1559.3957519531</ele>
        <time>2012-01-21T10:37:15Z</time>
      </trkpt>
      <trkpt lat="45.65716" lon="6.20399">
        <ele>1559.3957519531</ele>
        <time>2012-01-21T10:37:22Z</time>
      </trkpt>
      <trkpt lat="45.65718" lon="6.20404">
        <ele>1559.3957519531</ele>
        <time>2012-01-21T10:37:30Z</time>
      </trkpt>
      <trkpt lat="45.65719" lon="6.20406">
        <ele>1559.3957519531</ele>
        <time>2012-01-21T10:37:35Z</time>
      </trkpt>
      <trkpt lat="45.65721" lon="6.2041">
        <ele>1559.3957519531</ele>
        <time>2012-01-21T10:37:41Z</time>
      </trkpt>
      <trkpt lat="45.65723" lon="6.20414">
        <ele>1559.3957519531</ele>
        <time>2012-01-21T10:37:49Z</time>
      </trkpt>
      <trkpt lat="45.65722" lon="6.20414">
        <ele>1559.8762207031</ele>
        <time>2012-01-21T10:37:54Z</time>
      </trkpt>
      <trkpt lat="45.65723" lon="6.20415">
        <ele>1560.3569335938</ele>
        <time>2012-01-21T10:38:06Z</time>
      </trkpt>
      <trkpt lat="45.65723" lon="6.20416">
        <ele>1560.8376464844</ele>
        <time>2012-01-21T10:38:14Z</time>
      </trkpt>
      <trkpt lat="45.65725" lon="6.2042">
        <ele>1560.8376464844</ele>
        <time>2012-01-21T10:38:22Z</time>
      </trkpt>
      <trkpt lat="45.65726" lon="6.20423">
        <ele>1561.318359375</ele>
        <time>2012-01-21T10:38:30Z</time>
      </trkpt>
      <trkpt lat="45.65729" lon="6.20427">
        <ele>1561.7990722656</ele>
        <time>2012-01-21T10:38:39Z</time>
      </trkpt>
      <trkpt lat="45.65731" lon="6.20428">
        <ele>1562.2795410156</ele>
        <time>2012-01-21T10:38:46Z</time>
      </trkpt>
      <trkpt lat="45.65733" lon="6.20431">
        <ele>1562.2795410156</ele>
        <time>2012-01-21T10:38:53Z</time>
      </trkpt>
      <trkpt lat="45.65735" lon="6.20433">
        <ele>1563.2409667969</ele>
        <time>2012-01-21T10:39:01Z</time>
      </trkpt>
      <trkpt lat="45.65734" lon="6.20434">
        <ele>1564.2023925781</ele>
        <time>2012-01-21T10:39:15Z</time>
      </trkpt>
      <trkpt lat="45.65734" lon="6.20434">
        <ele>1564.6831054688</ele>
        <time>2012-01-21T10:39:22Z</time>
      </trkpt>
      <trkpt lat="45.65734" lon="6.20434">
        <ele>1565.64453125</ele>
        <time>2012-01-21T10:39:30Z</time>
      </trkpt>
      <trkpt lat="45.65735" lon="6.20433">
        <ele>1565.64453125</ele>
        <time>2012-01-21T10:39:35Z</time>
      </trkpt>
      <trkpt lat="45.65735" lon="6.20433">
        <ele>1565.64453125</ele>
        <time>2012-01-21T10:39:38Z</time>
      </trkpt>
      <trkpt lat="45.65734" lon="6.20433">
        <ele>1565.64453125</ele>
        <time>2012-01-21T10:39:41Z</time>
      </trkpt>
      <trkpt lat="45.65734" lon="6.20434">
        <ele>1565.64453125</ele>
        <time>2012-01-21T10:39:54Z</time>
      </trkpt>
      <trkpt lat="45.65734" lon="6.20435">
        <ele>1566.125</ele>
        <time>2012-01-21T10:40:09Z</time>
      </trkpt>
      <trkpt lat="45.65733" lon="6.20435">
        <ele>1566.125</ele>
        <time>2012-01-21T10:40:17Z</time>
      </trkpt>
      <trkpt lat="45.65735" lon="6.20436">
        <ele>1566.6057128906</ele>
        <time>2012-01-21T10:40:24Z</time>
      </trkpt>
      <trkpt lat="45.65736" lon="6.20438">
        <ele>1567.0864257812</ele>
        <time>2012-01-21T10:40:29Z</time>
      </trkpt>
      <trkpt lat="45.65738" lon="6.2044">
        <ele>1567.0864257812</ele>
        <time>2012-01-21T10:40:34Z</time>
      </trkpt>
      <trkpt lat="45.65738" lon="6.20441">
        <ele>1567.0864257812</ele>
        <time>2012-01-21T10:40:38Z</time>
      </trkpt>
      <trkpt lat="45.65738" lon="6.20442">
        <ele>1568.0476074219</ele>
        <time>2012-01-21T10:40:54Z</time>
      </trkpt>
      <trkpt lat="45.65738" lon="6.20442">
        <ele>1568.5283203125</ele>
        <time>2012-01-21T10:40:56Z</time>
      </trkpt>
      <trkpt lat="45.65738" lon="6.20448">
        <ele>1576.21875</ele>
        <time>2012-01-21T10:41:05Z</time>
      </trkpt>
      <trkpt lat="45.65738" lon="6.20448">
        <ele>1576.6994628906</ele>
        <time>2012-01-21T10:41:14Z</time>
      </trkpt>
      <trkpt lat="45.65737" lon="6.20447">
        <ele>1575.2573242188</ele>
        <time>2012-01-21T10:41:37Z</time>
      </trkpt>
      <trkpt lat="45.65738" lon="6.20448">
        <ele>1574.7768554688</ele>
        <time>2012-01-21T10:41:42Z</time>
      </trkpt>
      <trkpt lat="45.65741" lon="6.2045">
        <ele>1574.7768554688</ele>
        <time>2012-01-21T10:41:48Z</time>
      </trkpt>
      <trkpt lat="45.65741" lon="6.20451">
        <ele>1574.7768554688</ele>
        <time>2012-01-21T10:41:51Z</time>
      </trkpt>
      <trkpt lat="45.65741" lon="6.2045">
        <ele>1573.8154296875</ele>
        <time>2012-01-21T10:41:59Z</time>
      </trkpt>
      <trkpt lat="45.65742" lon="6.20448">
        <ele>1571.412109375</ele>
        <time>2012-01-21T10:42:09Z</time>
      </trkpt>
      <trkpt lat="45.65744" lon="6.20449">
        <ele>1569.4897460938</ele>
        <time>2012-01-21T10:42:18Z</time>
      </trkpt>
      <trkpt lat="45.65746" lon="6.20451">
        <ele>1569.4897460938</ele>
        <time>2012-01-21T10:42:23Z</time>
      </trkpt>
      <trkpt lat="45.65749" lon="6.20457">
        <ele>1569.9702148438</ele>
        <time>2012-01-21T10:42:32Z</time>
      </trkpt>
      <trkpt lat="45.65751" lon="6.2046">
        <ele>1569.9702148438</ele>
        <time>2012-01-21T10:42:37Z</time>
      </trkpt>
      <trkpt lat="45.65753" lon="6.20463">
        <ele>1569.9702148438</ele>
        <time>2012-01-21T10:42:43Z</time>
      </trkpt>
      <trkpt lat="45.65754" lon="6.20464">
        <ele>1570.4509277344</ele>
        <time>2012-01-21T10:42:50Z</time>
      </trkpt>
      <trkpt lat="45.65754" lon="6.20464">
        <ele>1570.4509277344</ele>
        <time>2012-01-21T10:42:58Z</time>
      </trkpt>
      <trkpt lat="45.65756" lon="6.20465">
        <ele>1572.3735351562</ele>
        <time>2012-01-21T10:43:10Z</time>
      </trkpt>
      <trkpt lat="45.65757" lon="6.20467">
        <ele>1573.3349609375</ele>
        <time>2012-01-21T10:43:13Z</time>
      </trkpt>
      <trkpt lat="45.65759" lon="6.2047">
        <ele>1573.3349609375</ele>
        <time>2012-01-21T10:43:19Z</time>
      </trkpt>
      <trkpt lat="45.65761" lon="6.20474">
        <ele>1573.3349609375</ele>
        <time>2012-01-21T10:43:25Z</time>
      </trkpt>
      <trkpt lat="45.65763" lon="6.20477">
        <ele>1573.3349609375</ele>
        <time>2012-01-21T10:43:31Z</time>
      </trkpt>
      <trkpt lat="45.65765" lon="6.20481">
        <ele>1572.8542480469</ele>
        <time>2012-01-21T10:43:37Z</time>
      </trkpt>
      <trkpt lat="45.65766" lon="6.20485">
        <ele>1572.3735351562</ele>
        <time>2012-01-21T10:43:43Z</time>
      </trkpt>
      <trkpt lat="45.65768" lon="6.20489">
        <ele>1571.8928222656</ele>
        <time>2012-01-21T10:43:49Z</time>
      </trkpt>
      <trkpt lat="45.65769" lon="6.20492">
        <ele>1571.412109375</ele>
        <time>2012-01-21T10:43:54Z</time>
      </trkpt>
      <trkpt lat="45.6577" lon="6.20495">
        <ele>1570.931640625</ele>
        <time>2012-01-21T10:43:59Z</time>
      </trkpt>
      <trkpt lat="45.65771" lon="6.20498">
        <ele>1570.931640625</ele>
        <time>2012-01-21T10:44:03Z</time>
      </trkpt>
      <trkpt lat="45.65771" lon="6.20498">
        <ele>1570.4509277344</ele>
        <time>2012-01-21T10:44:12Z</time>
      </trkpt>
      <trkpt lat="45.65771" lon="6.205">
        <ele>1569.9702148438</ele>
        <time>2012-01-21T10:44:20Z</time>
      </trkpt>
      <trkpt lat="45.65773" lon="6.20505">
        <ele>1569.9702148438</ele>
        <time>2012-01-21T10:44:26Z</time>
      </trkpt>
      <trkpt lat="45.65775" lon="6.20507">
        <ele>1569.9702148438</ele>
        <time>2012-01-21T10:44:30Z</time>
      </trkpt>
      <trkpt lat="45.65775" lon="6.20507">
        <ele>1569.0090332031</ele>
        <time>2012-01-21T10:44:34Z</time>
      </trkpt>
      <trkpt lat="45.65775" lon="6.20512">
        <ele>1568.5283203125</ele>
        <time>2012-01-21T10:44:38Z</time>
      </trkpt>
      <trkpt lat="45.65777" lon="6.20514">
        <ele>1568.0476074219</ele>
        <time>2012-01-21T10:44:42Z</time>
      </trkpt>
      <trkpt lat="45.65778" lon="6.20519">
        <ele>1567.0864257812</ele>
        <time>2012-01-21T10:44:47Z</time>
      </trkpt>
      <trkpt lat="45.65778" lon="6.20522">
        <ele>1568.0476074219</ele>
        <time>2012-01-21T10:44:52Z</time>
      </trkpt>
      <trkpt lat="45.65778" lon="6.20523">
        <ele>1569.0090332031</ele>
        <time>2012-01-21T10:45:03Z</time>
      </trkpt>
      <trkpt lat="45.65778" lon="6.20524">
        <ele>1569.0090332031</ele>
        <time>2012-01-21T10:45:10Z</time>
      </trkpt>
      <trkpt lat="45.65778" lon="6.20524">
        <ele>1569.4897460938</ele>
        <time>2012-01-21T10:45:15Z</time>
      </trkpt>
      <trkpt lat="45.65778" lon="6.20524">
        <ele>1569.9702148438</ele>
        <time>2012-01-21T10:45:23Z</time>
      </trkpt>
      <trkpt lat="45.65778" lon="6.20523">
        <ele>1569.4897460938</ele>
        <time>2012-01-21T10:45:34Z</time>
      </trkpt>
      <trkpt lat="45.65779" lon="6.20525">
        <ele>1569.4897460938</ele>
        <time>2012-01-21T10:45:40Z</time>
      </trkpt>
      <trkpt lat="45.65783" lon="6.20527">
        <ele>1569.9702148438</ele>
        <time>2012-01-21T10:45:44Z</time>
      </trkpt>
      <trkpt lat="45.65786" lon="6.20528">
        <ele>1569.9702148438</ele>
        <time>2012-01-21T10:45:46Z</time>
      </trkpt>
      <trkpt lat="45.65789" lon="6.20528">
        <ele>1570.931640625</ele>
        <time>2012-01-21T10:45:50Z</time>
      </trkpt>
      <trkpt lat="45.65792" lon="6.20533">
        <ele>1571.8928222656</ele>
        <time>2012-01-21T10:45:56Z</time>
      </trkpt>
      <trkpt lat="45.65791" lon="6.20537">
        <ele>1572.3735351562</ele>
        <time>2012-01-21T10:46:00Z</time>
      </trkpt>
      <trkpt lat="45.65791" lon="6.20542">
        <ele>1572.8542480469</ele>
        <time>2012-01-21T10:46:05Z</time>
      </trkpt>
      <trkpt lat="45.65794" lon="6.20546">
        <ele>1573.3349609375</ele>
        <time>2012-01-21T10:46:10Z</time>
      </trkpt>
      <trkpt lat="45.65797" lon="6.20551">
        <ele>1573.8154296875</ele>
        <time>2012-01-21T10:46:17Z</time>
      </trkpt>
      <trkpt lat="45.65799" lon="6.20554">
        <ele>1573.8154296875</ele>
        <time>2012-01-21T10:46:23Z</time>
      </trkpt>
      <trkpt lat="45.65801" lon="6.20557">
        <ele>1573.8154296875</ele>
        <time>2012-01-21T10:46:27Z</time>
      </trkpt>
      <trkpt lat="45.65801" lon="6.20557">
        <ele>1573.8154296875</ele>
        <time>2012-01-21T10:46:34Z</time>
      </trkpt>
      <trkpt lat="45.65802" lon="6.2056">
        <ele>1573.8154296875</ele>
        <time>2012-01-21T10:46:42Z</time>
      </trkpt>
      <trkpt lat="45.65804" lon="6.20566">
        <ele>1573.3349609375</ele>
        <time>2012-01-21T10:46:49Z</time>
      </trkpt>
      <trkpt lat="45.65805" lon="6.20573">
        <ele>1572.8542480469</ele>
        <time>2012-01-21T10:46:56Z</time>
      </trkpt>
      <trkpt lat="45.65807" lon="6.20578">
        <ele>1572.8542480469</ele>
        <time>2012-01-21T10:47:02Z</time>
      </trkpt>
      <trkpt lat="45.65809" lon="6.20582">
        <ele>1572.8542480469</ele>
        <time>2012-01-21T10:47:08Z</time>
      </trkpt>
      <trkpt lat="45.65811" lon="6.20589">
        <ele>1572.8542480469</ele>
        <time>2012-01-21T10:47:16Z</time>
      </trkpt>
      <trkpt lat="45.65811" lon="6.2059">
        <ele>1573.3349609375</ele>
        <time>2012-01-21T10:47:21Z</time>
      </trkpt>
      <trkpt lat="45.65811" lon="6.2059">
        <ele>1572.8542480469</ele>
        <time>2012-01-21T10:47:33Z</time>
      </trkpt>
      <trkpt lat="45.65811" lon="6.2059">
        <ele>1572.8542480469</ele>
        <time>2012-01-21T10:47:37Z</time>
      </trkpt>
      <trkpt lat="45.65812" lon="6.2059">
        <ele>1573.3349609375</ele>
        <time>2012-01-21T10:47:43Z</time>
      </trkpt>
      <trkpt lat="45.65812" lon="6.2059">
        <ele>1572.8542480469</ele>
        <time>2012-01-21T10:47:47Z</time>
      </trkpt>
      <trkpt lat="45.65812" lon="6.2059">
        <ele>1573.3349609375</ele>
        <time>2012-01-21T10:47:52Z</time>
      </trkpt>
      <trkpt lat="45.65814" lon="6.20593">
        <ele>1572.8542480469</ele>
        <time>2012-01-21T10:47:57Z</time>
      </trkpt>
      <trkpt lat="45.65815" lon="6.20597">
        <ele>1572.3735351562</ele>
        <time>2012-01-21T10:48:01Z</time>
      </trkpt>
      <trkpt lat="45.65818" lon="6.20603">
        <ele>1572.3735351562</ele>
        <time>2012-01-21T10:48:10Z</time>
      </trkpt>
      <trkpt lat="45.65818" lon="6.20604">
        <ele>1571.412109375</ele>
        <time>2012-01-21T10:48:16Z</time>
      </trkpt>
      <trkpt lat="45.65818" lon="6.20607">
        <ele>1570.4509277344</ele>
        <time>2012-01-21T10:48:31Z</time>
      </trkpt>
      <trkpt lat="45.6582" lon="6.20612">
        <ele>1570.931640625</ele>
        <time>2012-01-21T10:48:38Z</time>
      </trkpt>
      <trkpt lat="45.65822" lon="6.20617">
        <ele>1571.412109375</ele>
        <time>2012-01-21T10:48:45Z</time>
      </trkpt>
      <trkpt lat="45.65824" lon="6.20621">
        <ele>1571.8928222656</ele>
        <time>2012-01-21T10:48:51Z</time>
      </trkpt>
      <trkpt lat="45.65826" lon="6.20624">
        <ele>1571.8928222656</ele>
        <time>2012-01-21T10:49:00Z</time>
      </trkpt>
      <trkpt lat="45.65825" lon="6.20623">
        <ele>1571.8928222656</ele>
        <time>2012-01-21T10:49:14Z</time>
      </trkpt>
      <trkpt lat="45.65826" lon="6.20624">
        <ele>1572.8542480469</ele>
        <time>2012-01-21T10:49:24Z</time>
      </trkpt>
      <trkpt lat="45.65828" lon="6.20627">
        <ele>1573.3349609375</ele>
        <time>2012-01-21T10:49:29Z</time>
      </trkpt>
      <trkpt lat="45.65831" lon="6.20633">
        <ele>1573.8154296875</ele>
        <time>2012-01-21T10:49:35Z</time>
      </trkpt>
      <trkpt lat="45.65833" lon="6.20637">
        <ele>1575.2573242188</ele>
        <time>2012-01-21T10:49:39Z</time>
      </trkpt>
      <trkpt lat="45.65834" lon="6.20643">
        <ele>1576.6994628906</ele>
        <time>2012-01-21T10:49:44Z</time>
      </trkpt>
      <trkpt lat="45.65837" lon="6.20647">
        <ele>1577.1801757812</ele>
        <time>2012-01-21T10:49:49Z</time>
      </trkpt>
      <trkpt lat="45.65839" lon="6.2065">
        <ele>1576.6994628906</ele>
        <time>2012-01-21T10:49:55Z</time>
      </trkpt>
      <trkpt lat="45.65841" lon="6.20652">
        <ele>1576.6994628906</ele>
        <time>2012-01-21T10:49:59Z</time>
      </trkpt>
      <trkpt lat="45.65842" lon="6.20653">
        <ele>1576.21875</ele>
        <time>2012-01-21T10:50:03Z</time>
      </trkpt>
      <trkpt lat="45.65845" lon="6.20656">
        <ele>1576.21875</ele>
        <time>2012-01-21T10:50:08Z</time>
      </trkpt>
      <trkpt lat="45.65847" lon="6.20658">
        <ele>1575.7380371094</ele>
        <time>2012-01-21T10:50:12Z</time>
      </trkpt>
      <trkpt lat="45.65847" lon="6.20659">
        <ele>1575.7380371094</ele>
        <time>2012-01-21T10:50:23Z</time>
      </trkpt>
      <trkpt lat="45.65847" lon="6.2066">
        <ele>1575.7380371094</ele>
        <time>2012-01-21T10:50:36Z</time>
      </trkpt>
      <trkpt lat="45.65847" lon="6.2066">
        <ele>1575.7380371094</ele>
        <time>2012-01-21T10:50:43Z</time>
      </trkpt>
      <trkpt lat="45.65847" lon="6.2066">
        <ele>1575.7380371094</ele>
        <time>2012-01-21T10:50:50Z</time>
      </trkpt>
      <trkpt lat="45.65847" lon="6.2066">
        <ele>1575.7380371094</ele>
        <time>2012-01-21T10:50:54Z</time>
      </trkpt>
      <trkpt lat="45.65847" lon="6.2066">
        <ele>1575.7380371094</ele>
        <time>2012-01-21T10:51:01Z</time>
      </trkpt>
      <trkpt lat="45.65847" lon="6.2066">
        <ele>1575.2573242188</ele>
        <time>2012-01-21T10:51:14Z</time>
      </trkpt>
      <trkpt lat="45.65847" lon="6.20661">
        <ele>1575.2573242188</ele>
        <time>2012-01-21T10:51:23Z</time>
      </trkpt>
      <trkpt lat="45.65846" lon="6.20656">
        <ele>1578.1413574219</ele>
        <time>2012-01-21T10:51:37Z</time>
      </trkpt>
      <trkpt lat="45.65845" lon="6.20655">
        <ele>1579.5832519531</ele>
        <time>2012-01-21T10:51:45Z</time>
      </trkpt>
      <trkpt lat="45.65849" lon="6.20657">
        <ele>1579.1025390625</ele>
        <time>2012-01-21T10:51:50Z</time>
      </trkpt>
      <trkpt lat="45.65852" lon="6.20663">
        <ele>1579.1025390625</ele>
        <time>2012-01-21T10:51:55Z</time>
      </trkpt>
      <trkpt lat="45.65856" lon="6.2067">
        <ele>1578.1413574219</ele>
        <time>2012-01-21T10:52:02Z</time>
      </trkpt>
      <trkpt lat="45.65858" lon="6.20674">
        <ele>1577.6606445312</ele>
        <time>2012-01-21T10:52:06Z</time>
      </trkpt>
      <trkpt lat="45.6586" lon="6.20679">
        <ele>1577.1801757812</ele>
        <time>2012-01-21T10:52:11Z</time>
      </trkpt>
      <trkpt lat="45.65862" lon="6.20684">
        <ele>1576.6994628906</ele>
        <time>2012-01-21T10:52:15Z</time>
      </trkpt>
      <trkpt lat="45.65864" lon="6.20692">
        <ele>1574.7768554688</ele>
        <time>2012-01-21T10:52:22Z</time>
      </trkpt>
      <trkpt lat="45.65865" lon="6.20698">
        <ele>1573.8154296875</ele>
        <time>2012-01-21T10:52:27Z</time>
      </trkpt>
      <trkpt lat="45.65867" lon="6.20705">
        <ele>1572.8542480469</ele>
        <time>2012-01-21T10:52:33Z</time>
      </trkpt>
      <trkpt lat="45.65868" lon="6.2071">
        <ele>1572.8542480469</ele>
        <time>2012-01-21T10:52:37Z</time>
      </trkpt>
      <trkpt lat="45.6587" lon="6.20716">
        <ele>1572.3735351562</ele>
        <time>2012-01-21T10:52:42Z</time>
      </trkpt>
      <trkpt lat="45.6587" lon="6.20724">
        <ele>1571.8928222656</ele>
        <time>2012-01-21T10:52:49Z</time>
      </trkpt>
      <trkpt lat="45.65871" lon="6.2073">
        <ele>1572.3735351562</ele>
        <time>2012-01-21T10:52:54Z</time>
      </trkpt>
      <trkpt lat="45.6587" lon="6.20735">
        <ele>1572.8542480469</ele>
        <time>2012-01-21T10:52:58Z</time>
      </trkpt>
      <trkpt lat="45.6587" lon="6.20742">
        <ele>1573.3349609375</ele>
        <time>2012-01-21T10:53:05Z</time>
      </trkpt>
      <trkpt lat="45.65871" lon="6.20747">
        <ele>1574.7768554688</ele>
        <time>2012-01-21T10:53:10Z</time>
      </trkpt>
      <trkpt lat="45.65871" lon="6.2075">
        <ele>1574.7768554688</ele>
        <time>2012-01-21T10:53:14Z</time>
      </trkpt>
      <trkpt lat="45.6587" lon="6.20755">
        <ele>1575.7380371094</ele>
        <time>2012-01-21T10:53:19Z</time>
      </trkpt>
      <trkpt lat="45.6587" lon="6.20755">
        <ele>1576.21875</ele>
        <time>2012-01-21T10:53:25Z</time>
      </trkpt>
      <trkpt lat="45.6587" lon="6.20755">
        <ele>1575.7380371094</ele>
        <time>2012-01-21T10:53:37Z</time>
      </trkpt>
      <trkpt lat="45.6587" lon="6.20755">
        <ele>1575.2573242188</ele>
        <time>2012-01-21T10:53:47Z</time>
      </trkpt>
      <trkpt lat="45.65869" lon="6.20755">
        <ele>1574.2961425781</ele>
        <time>2012-01-21T10:53:52Z</time>
      </trkpt>
      <trkpt lat="45.65869" lon="6.20754">
        <ele>1573.8154296875</ele>
        <time>2012-01-21T10:53:55Z</time>
      </trkpt>
      <trkpt lat="45.65869" lon="6.20754">
        <ele>1572.3735351562</ele>
        <time>2012-01-21T10:54:02Z</time>
      </trkpt>
      <trkpt lat="45.65871" lon="6.20758">
        <ele>1572.3735351562</ele>
        <time>2012-01-21T10:54:11Z</time>
      </trkpt>
      <trkpt lat="45.65872" lon="6.20758">
        <ele>1574.2961425781</ele>
        <time>2012-01-21T10:54:15Z</time>
      </trkpt>
      <trkpt lat="45.65873" lon="6.20759">
        <ele>1574.7768554688</ele>
        <time>2012-01-21T10:54:20Z</time>
      </trkpt>
      <trkpt lat="45.65873" lon="6.20758">
        <ele>1576.21875</ele>
        <time>2012-01-21T10:54:25Z</time>
      </trkpt>
      <trkpt lat="45.65873" lon="6.20757">
        <ele>1577.6606445312</ele>
        <time>2012-01-21T10:54:31Z</time>
      </trkpt>
      <trkpt lat="45.65873" lon="6.20757">
        <ele>1578.1413574219</ele>
        <time>2012-01-21T10:54:37Z</time>
      </trkpt>
      <trkpt lat="45.65873" lon="6.20757">
        <ele>1577.6606445312</ele>
        <time>2012-01-21T10:54:45Z</time>
      </trkpt>
      <trkpt lat="45.65873" lon="6.2076">
        <ele>1578.1413574219</ele>
        <time>2012-01-21T10:54:50Z</time>
      </trkpt>
      <trkpt lat="45.65871" lon="6.2076">
        <ele>1577.1801757812</ele>
        <time>2012-01-21T10:54:58Z</time>
      </trkpt>
      <trkpt lat="45.65873" lon="6.20758">
        <ele>1569.0090332031</ele>
        <time>2012-01-21T10:55:16Z</time>
      </trkpt>
      <trkpt lat="45.65873" lon="6.20753">
        <ele>1569.4897460938</ele>
        <time>2012-01-21T10:55:22Z</time>
      </trkpt>
      <trkpt lat="45.65874" lon="6.20753">
        <ele>1570.4509277344</ele>
        <time>2012-01-21T10:55:31Z</time>
      </trkpt>
      <trkpt lat="45.65874" lon="6.20755">
        <ele>1576.6994628906</ele>
        <time>2012-01-21T10:55:37Z</time>
      </trkpt>
      <trkpt lat="45.65872" lon="6.20756">
        <ele>1570.4509277344</ele>
        <time>2012-01-21T10:55:42Z</time>
      </trkpt>
      <trkpt lat="45.65871" lon="6.20756">
        <ele>1570.931640625</ele>
        <time>2012-01-21T10:55:47Z</time>
      </trkpt>
      <trkpt lat="45.65871" lon="6.20754">
        <ele>1575.2573242188</ele>
        <time>2012-01-21T10:55:51Z</time>
      </trkpt>
      <trkpt lat="45.65868" lon="6.20758">
        <ele>1584.8708496094</ele>
        <time>2012-01-21T10:56:05Z</time>
      </trkpt>
      <trkpt lat="45.6587" lon="6.20761">
        <ele>1568.5283203125</ele>
        <time>2012-01-21T10:56:28Z</time>
      </trkpt>
      <trkpt lat="45.65872" lon="6.2076">
        <ele>1572.3735351562</ele>
        <time>2012-01-21T10:56:48Z</time>
      </trkpt>
      <trkpt lat="45.65874" lon="6.20757">
        <ele>1570.4509277344</ele>
        <time>2012-01-21T10:56:54Z</time>
      </trkpt>
      <trkpt lat="45.65872" lon="6.20754">
        <ele>1573.8154296875</ele>
        <time>2012-01-21T10:56:58Z</time>
      </trkpt>
      <trkpt lat="45.65871" lon="6.20756">
        <ele>1579.5832519531</ele>
        <time>2012-01-21T10:57:08Z</time>
      </trkpt>
      <trkpt lat="45.65872" lon="6.20751">
        <ele>1573.3349609375</ele>
        <time>2012-01-21T10:57:34Z</time>
      </trkpt>
      <trkpt lat="45.65871" lon="6.20751">
        <ele>1574.2961425781</ele>
        <time>2012-01-21T10:57:41Z</time>
      </trkpt>
      <trkpt lat="45.65873" lon="6.20754">
        <ele>1573.3349609375</ele>
        <time>2012-01-21T10:57:49Z</time>
      </trkpt>
      <trkpt lat="45.65872" lon="6.20762">
        <ele>1579.5832519531</ele>
        <time>2012-01-21T10:57:55Z</time>
      </trkpt>
      <trkpt lat="45.65872" lon="6.20763">
        <ele>1580.0642089844</ele>
        <time>2012-01-21T10:58:05Z</time>
      </trkpt>
      <trkpt lat="45.65872" lon="6.20766">
        <ele>1581.9868164062</ele>
        <time>2012-01-21T10:58:14Z</time>
      </trkpt>
      <trkpt lat="45.65872" lon="6.2076">
        <ele>1575.7380371094</ele>
        <time>2012-01-21T10:58:35Z</time>
      </trkpt>
      <trkpt lat="45.65872" lon="6.20758">
        <ele>1574.7768554688</ele>
        <time>2012-01-21T10:58:41Z</time>
      </trkpt>
      <trkpt lat="45.65872" lon="6.20757">
        <ele>1573.3349609375</ele>
        <time>2012-01-21T10:58:43Z</time>
      </trkpt>
      <trkpt lat="45.65871" lon="6.20757">
        <ele>1573.3349609375</ele>
        <time>2012-01-21T10:58:54Z</time>
      </trkpt>
      <trkpt lat="45.65871" lon="6.20752">
        <ele>1572.8542480469</ele>
        <time>2012-01-21T10:59:00Z</time>
      </trkpt>
      <trkpt lat="45.65871" lon="6.20752">
        <ele>1571.412109375</ele>
        <time>2012-01-21T10:59:09Z</time>
      </trkpt>
      <trkpt lat="45.65871" lon="6.20749">
        <ele>1572.3735351562</ele>
        <time>2012-01-21T10:59:25Z</time>
      </trkpt>
      <trkpt lat="45.65872" lon="6.20751">
        <ele>1574.7768554688</ele>
        <time>2012-01-21T10:59:30Z</time>
      </trkpt>
      <trkpt lat="45.65873" lon="6.20754">
        <ele>1572.3735351562</ele>
        <time>2012-01-21T10:59:34Z</time>
      </trkpt>
      <trkpt lat="45.65873" lon="6.20757">
        <ele>1571.8928222656</ele>
        <time>2012-01-21T10:59:39Z</time>
      </trkpt>
      <trkpt lat="45.65873" lon="6.20758">
        <ele>1569.9702148438</ele>
        <time>2012-01-21T10:59:44Z</time>
      </trkpt>
      <trkpt lat="45.65873" lon="6.20759">
        <ele>1566.6057128906</ele>
        <time>2012-01-21T10:59:55Z</time>
      </trkpt>
      <trkpt lat="45.65872" lon="6.20761">
        <ele>1569.9702148438</ele>
        <time>2012-01-21T11:00:01Z</time>
      </trkpt>
      <trkpt lat="45.6587" lon="6.20759">
        <ele>1574.2961425781</ele>
        <time>2012-01-21T11:00:13Z</time>
      </trkpt>
      <trkpt lat="45.65871" lon="6.20761">
        <ele>1577.1801757812</ele>
        <time>2012-01-21T11:00:18Z</time>
      </trkpt>
      <trkpt lat="45.65872" lon="6.20759">
        <ele>1571.8928222656</ele>
        <time>2012-01-21T11:00:30Z</time>
      </trkpt>
      <trkpt lat="45.65873" lon="6.20761">
        <ele>1572.3735351562</ele>
        <time>2012-01-21T11:00:34Z</time>
      </trkpt>
      <trkpt lat="45.65872" lon="6.2076">
        <ele>1573.8154296875</ele>
        <time>2012-01-21T11:00:42Z</time>
      </trkpt>
      <trkpt lat="45.65871" lon="6.20757">
        <ele>1572.8542480469</ele>
        <time>2012-01-21T11:00:47Z</time>
      </trkpt>
      <trkpt lat="45.6587" lon="6.20754">
        <ele>1574.2961425781</ele>
        <time>2012-01-21T11:00:52Z</time>
      </trkpt>
      <trkpt lat="45.6587" lon="6.20752">
        <ele>1574.7768554688</ele>
        <time>2012-01-21T11:00:56Z</time>
      </trkpt>
      <trkpt lat="45.65869" lon="6.20751">
        <ele>1574.7768554688</ele>
        <time>2012-01-21T11:01:01Z</time>
      </trkpt>
      <trkpt lat="45.65871" lon="6.20752">
        <ele>1574.2961425781</ele>
        <time>2012-01-21T11:01:07Z</time>
      </trkpt>
      <trkpt lat="45.65871" lon="6.20755">
        <ele>1574.7768554688</ele>
        <time>2012-01-21T11:01:17Z</time>
      </trkpt>
      <trkpt lat="45.6587" lon="6.20754">
        <ele>1575.2573242188</ele>
        <time>2012-01-21T11:01:32Z</time>
      </trkpt>
      <trkpt lat="45.6587" lon="6.20757">
        <ele>1576.21875</ele>
        <time>2012-01-21T11:01:42Z</time>
      </trkpt>
      <trkpt lat="45.6587" lon="6.20755">
        <ele>1575.2573242188</ele>
        <time>2012-01-21T11:01:47Z</time>
      </trkpt>
      <trkpt lat="45.6587" lon="6.20754">
        <ele>1573.3349609375</ele>
        <time>2012-01-21T11:01:53Z</time>
      </trkpt>
      <trkpt lat="45.6587" lon="6.20755">
        <ele>1571.8928222656</ele>
        <time>2012-01-21T11:02:00Z</time>
      </trkpt>
      <trkpt lat="45.65872" lon="6.20754">
        <ele>1572.8542480469</ele>
        <time>2012-01-21T11:02:07Z</time>
      </trkpt>
      <trkpt lat="45.65872" lon="6.20758">
        <ele>1570.4509277344</ele>
        <time>2012-01-21T11:02:18Z</time>
      </trkpt>
      <trkpt lat="45.65871" lon="6.2076">
        <ele>1573.8154296875</ele>
        <time>2012-01-21T11:02:27Z</time>
      </trkpt>
      <trkpt lat="45.65871" lon="6.20761">
        <ele>1576.6994628906</ele>
        <time>2012-01-21T11:02:32Z</time>
      </trkpt>
      <trkpt lat="45.65871" lon="6.20757">
        <ele>1579.1025390625</ele>
        <time>2012-01-21T11:02:43Z</time>
      </trkpt>
      <trkpt lat="45.65871" lon="6.20756">
        <ele>1576.6994628906</ele>
        <time>2012-01-21T11:02:56Z</time>
      </trkpt>
      <trkpt lat="45.65872" lon="6.20757">
        <ele>1576.21875</ele>
        <time>2012-01-21T11:03:00Z</time>
      </trkpt>
      <trkpt lat="45.65874" lon="6.20758">
        <ele>1579.5832519531</ele>
        <time>2012-01-21T11:03:06Z</time>
      </trkpt>
      <trkpt lat="45.65873" lon="6.20759">
        <ele>1576.6994628906</ele>
        <time>2012-01-21T11:03:10Z</time>
      </trkpt>
      <trkpt lat="45.65871" lon="6.20759">
        <ele>1576.21875</ele>
        <time>2012-01-21T11:03:15Z</time>
      </trkpt>
      <trkpt lat="45.65872" lon="6.20758">
        <ele>1578.1413574219</ele>
        <time>2012-01-21T11:03:24Z</time>
      </trkpt>
      <trkpt lat="45.65871" lon="6.20762">
        <ele>1578.6220703125</ele>
        <time>2012-01-21T11:03:28Z</time>
      </trkpt>
      <trkpt lat="45.65869" lon="6.20769">
        <ele>1583.4287109375</ele>
        <time>2012-01-21T11:03:43Z</time>
      </trkpt>
      <trkpt lat="45.65869" lon="6.20771">
        <ele>1583.4287109375</ele>
        <time>2012-01-21T11:03:49Z</time>
      </trkpt>
      <trkpt lat="45.65868" lon="6.20769">
        <ele>1583.4287109375</ele>
        <time>2012-01-21T11:03:56Z</time>
      </trkpt>
      <trkpt lat="45.6587" lon="6.20764">
        <ele>1580.544921875</ele>
        <time>2012-01-21T11:04:19Z</time>
      </trkpt>
      <trkpt lat="45.6587" lon="6.20763">
        <ele>1580.0642089844</ele>
        <time>2012-01-21T11:04:21Z</time>
      </trkpt>
      <trkpt lat="45.6587" lon="6.20763">
        <ele>1580.0642089844</ele>
        <time>2012-01-21T11:04:22Z</time>
      </trkpt>
      <trkpt lat="45.65871" lon="6.20764">
        <ele>1579.1025390625</ele>
        <time>2012-01-21T11:04:36Z</time>
      </trkpt>
      <trkpt lat="45.65871" lon="6.20763">
        <ele>1579.5832519531</ele>
        <time>2012-01-21T11:04:39Z</time>
      </trkpt>
      <trkpt lat="45.65871" lon="6.20763">
        <ele>1579.5832519531</ele>
        <time>2012-01-21T11:04:40Z</time>
      </trkpt>
      <trkpt lat="45.65872" lon="6.20762">
        <ele>1577.1801757812</ele>
        <time>2012-01-21T11:04:45Z</time>
      </trkpt>
      <trkpt lat="45.65871" lon="6.2076">
        <ele>1575.7380371094</ele>
        <time>2012-01-21T11:04:55Z</time>
      </trkpt>
      <trkpt lat="45.65871" lon="6.20758">
        <ele>1571.8928222656</ele>
        <time>2012-01-21T11:05:00Z</time>
      </trkpt>
      <trkpt lat="45.65871" lon="6.20755">
        <ele>1574.7768554688</ele>
        <time>2012-01-21T11:05:12Z</time>
      </trkpt>
      <trkpt lat="45.6587" lon="6.20756">
        <ele>1576.21875</ele>
        <time>2012-01-21T11:05:19Z</time>
      </trkpt>
      <trkpt lat="45.6587" lon="6.20757">
        <ele>1572.8542480469</ele>
        <time>2012-01-21T11:05:23Z</time>
      </trkpt>
      <trkpt lat="45.65868" lon="6.20755">
        <ele>1569.9702148438</ele>
        <time>2012-01-21T11:05:31Z</time>
      </trkpt>
      <trkpt lat="45.65868" lon="6.20755">
        <ele>1569.9702148438</ele>
        <time>2012-01-21T11:05:37Z</time>
      </trkpt>
      <trkpt lat="45.65869" lon="6.20756">
        <ele>1570.4509277344</ele>
        <time>2012-01-21T11:05:40Z</time>
      </trkpt>
      <trkpt lat="45.65873" lon="6.20759">
        <ele>1577.1801757812</ele>
        <time>2012-01-21T11:06:02Z</time>
      </trkpt>
      <trkpt lat="45.65872" lon="6.20758">
        <ele>1579.1025390625</ele>
        <time>2012-01-21T11:06:05Z</time>
      </trkpt>
      <trkpt lat="45.65873" lon="6.20758">
        <ele>1579.1025390625</ele>
        <time>2012-01-21T11:06:06Z</time>
      </trkpt>
      <trkpt lat="45.65873" lon="6.20758">
        <ele>1579.5832519531</ele>
        <time>2012-01-21T11:06:07Z</time>
      </trkpt>
      <trkpt lat="45.65873" lon="6.20758">
        <ele>1581.0256347656</ele>
        <time>2012-01-21T11:06:16Z</time>
      </trkpt>
      <trkpt lat="45.65873" lon="6.20758">
        <ele>1581.0256347656</ele>
        <time>2012-01-21T11:06:18Z</time>
      </trkpt>
      <trkpt lat="45.65871" lon="6.20761">
        <ele>1580.544921875</ele>
        <time>2012-01-21T11:06:27Z</time>
      </trkpt>
      <trkpt lat="45.65871" lon="6.20762">
        <ele>1579.5832519531</ele>
        <time>2012-01-21T11:06:31Z</time>
      </trkpt>
      <trkpt lat="45.65871" lon="6.20762">
        <ele>1577.6606445312</ele>
        <time>2012-01-21T11:06:33Z</time>
      </trkpt>
      <trkpt lat="45.65871" lon="6.20761">
        <ele>1578.1413574219</ele>
        <time>2012-01-21T11:06:34Z</time>
      </trkpt>
      <trkpt lat="45.6587" lon="6.20761">
        <ele>1579.1025390625</ele>
        <time>2012-01-21T11:06:38Z</time>
      </trkpt>
      <trkpt lat="45.65871" lon="6.20762">
        <ele>1578.6220703125</ele>
        <time>2012-01-21T11:06:49Z</time>
      </trkpt>
      <trkpt lat="45.65871" lon="6.20764">
        <ele>1579.1025390625</ele>
        <time>2012-01-21T11:06:54Z</time>
      </trkpt>
      <trkpt lat="45.65871" lon="6.20764">
        <ele>1580.0642089844</ele>
        <time>2012-01-21T11:06:57Z</time>
      </trkpt>
      <trkpt lat="45.65871" lon="6.20758">
        <ele>1578.6220703125</ele>
        <time>2012-01-21T11:07:03Z</time>
      </trkpt>
      <trkpt lat="45.6587" lon="6.20759">
        <ele>1579.5832519531</ele>
        <time>2012-01-21T11:07:15Z</time>
      </trkpt>
      <trkpt lat="45.6587" lon="6.2076">
        <ele>1580.544921875</ele>
        <time>2012-01-21T11:07:32Z</time>
      </trkpt>
      <trkpt lat="45.65871" lon="6.20762">
        <ele>1583.4287109375</ele>
        <time>2012-01-21T11:07:48Z</time>
      </trkpt>
      <trkpt lat="45.65871" lon="6.20761">
        <ele>1581.9868164062</ele>
        <time>2012-01-21T11:07:57Z</time>
      </trkpt>
      <trkpt lat="45.65871" lon="6.20764">
        <ele>1577.1801757812</ele>
        <time>2012-01-21T11:08:38Z</time>
      </trkpt>
      <trkpt lat="45.65873" lon="6.20759">
        <ele>1573.3349609375</ele>
        <time>2012-01-21T11:09:01Z</time>
      </trkpt>
      <trkpt lat="45.65873" lon="6.20761">
        <ele>1575.2573242188</ele>
        <time>2012-01-21T11:09:06Z</time>
      </trkpt>
      <trkpt lat="45.65872" lon="6.20762">
        <ele>1575.2573242188</ele>
        <time>2012-01-21T11:09:08Z</time>
      </trkpt>
      <trkpt lat="45.65872" lon="6.20762">
        <ele>1575.7380371094</ele>
        <time>2012-01-21T11:09:09Z</time>
      </trkpt>
      <trkpt lat="45.65871" lon="6.20766">
        <ele>1578.6220703125</ele>
        <time>2012-01-21T11:09:17Z</time>
      </trkpt>
      <trkpt lat="45.65873" lon="6.20761">
        <ele>1575.7380371094</ele>
        <time>2012-01-21T11:09:23Z</time>
      </trkpt>
      <trkpt lat="45.65869" lon="6.20755">
        <ele>1580.0642089844</ele>
        <time>2012-01-21T11:09:32Z</time>
      </trkpt>
      <trkpt lat="45.65869" lon="6.2076">
        <ele>1580.544921875</ele>
        <time>2012-01-21T11:09:40Z</time>
      </trkpt>
      <trkpt lat="45.6587" lon="6.20762">
        <ele>1578.6220703125</ele>
        <time>2012-01-21T11:09:46Z</time>
      </trkpt>
      <trkpt lat="45.6587" lon="6.20758">
        <ele>1576.6994628906</ele>
        <time>2012-01-21T11:09:52Z</time>
      </trkpt>
      <trkpt lat="45.6587" lon="6.20759">
        <ele>1575.7380371094</ele>
        <time>2012-01-21T11:10:08Z</time>
      </trkpt>
      <trkpt lat="45.6587" lon="6.2076">
        <ele>1574.7768554688</ele>
        <time>2012-01-21T11:10:11Z</time>
      </trkpt>
      <trkpt lat="45.65871" lon="6.20751">
        <ele>1573.3349609375</ele>
        <time>2012-01-21T14:21:02Z</time>
      </trkpt>
      <trkpt lat="45.65872" lon="6.20751">
        <ele>1574.2961425781</ele>
        <time>2012-01-21T14:21:07Z</time>
      </trkpt>
      <trkpt lat="45.65871" lon="6.20751">
        <ele>1574.2961425781</ele>
        <time>2012-01-21T14:21:12Z</time>
      </trkpt>
      <trkpt lat="45.65871" lon="6.20752">
        <ele>1573.8154296875</ele>
        <time>2012-01-21T14:21:21Z</time>
      </trkpt>
      <trkpt lat="45.65868" lon="6.20751">
        <ele>1575.7380371094</ele>
        <time>2012-01-21T14:21:24Z</time>
      </trkpt>
      <trkpt lat="45.65869" lon="6.20744">
        <ele>1574.2961425781</ele>
        <time>2012-01-21T14:21:29Z</time>
      </trkpt>
      <trkpt lat="45.65869" lon="6.20744">
        <ele>1573.8154296875</ele>
        <time>2012-01-21T14:21:35Z</time>
      </trkpt>
      <trkpt lat="45.65868" lon="6.20742">
        <ele>1573.3349609375</ele>
        <time>2012-01-21T14:21:38Z</time>
      </trkpt>
      <trkpt lat="45.65868" lon="6.20742">
        <ele>1573.3349609375</ele>
        <time>2012-01-21T14:21:40Z</time>
      </trkpt>
      <trkpt lat="45.65867" lon="6.20739">
        <ele>1573.8154296875</ele>
        <time>2012-01-21T14:21:48Z</time>
      </trkpt>
      <trkpt lat="45.65867" lon="6.20735">
        <ele>1573.3349609375</ele>
        <time>2012-01-21T14:21:52Z</time>
      </trkpt>
      <trkpt lat="45.65867" lon="6.20733">
        <ele>1572.8542480469</ele>
        <time>2012-01-21T14:21:55Z</time>
      </trkpt>
      <trkpt lat="45.65867" lon="6.20727">
        <ele>1572.3735351562</ele>
        <time>2012-01-21T14:22:01Z</time>
      </trkpt>
      <trkpt lat="45.65866" lon="6.2072">
        <ele>1571.412109375</ele>
        <time>2012-01-21T14:22:08Z</time>
      </trkpt>
      <trkpt lat="45.65866" lon="6.20714">
        <ele>1570.931640625</ele>
        <time>2012-01-21T14:22:13Z</time>
      </trkpt>
      <trkpt lat="45.65865" lon="6.20711">
        <ele>1571.8928222656</ele>
        <time>2012-01-21T14:22:17Z</time>
      </trkpt>
      <trkpt lat="45.65864" lon="6.20705">
        <ele>1572.3735351562</ele>
        <time>2012-01-21T14:22:24Z</time>
      </trkpt>
      <trkpt lat="45.65864" lon="6.20702">
        <ele>1571.8928222656</ele>
        <time>2012-01-21T14:22:31Z</time>
      </trkpt>
      <trkpt lat="45.65863" lon="6.20697">
        <ele>1572.3735351562</ele>
        <time>2012-01-21T14:22:37Z</time>
      </trkpt>
      <trkpt lat="45.65861" lon="6.2069">
        <ele>1572.8542480469</ele>
        <time>2012-01-21T14:22:45Z</time>
      </trkpt>
      <trkpt lat="45.65859" lon="6.20685">
        <ele>1573.8154296875</ele>
        <time>2012-01-21T14:22:51Z</time>
      </trkpt>
      <trkpt lat="45.65858" lon="6.20681">
        <ele>1573.8154296875</ele>
        <time>2012-01-21T14:22:56Z</time>
      </trkpt>
      <trkpt lat="45.65857" lon="6.20676">
        <ele>1574.2961425781</ele>
        <time>2012-01-21T14:23:02Z</time>
      </trkpt>
      <trkpt lat="45.65855" lon="6.20673">
        <ele>1574.2961425781</ele>
        <time>2012-01-21T14:23:06Z</time>
      </trkpt>
      <trkpt lat="45.65853" lon="6.20669">
        <ele>1574.2961425781</ele>
        <time>2012-01-21T14:23:12Z</time>
      </trkpt>
      <trkpt lat="45.6585" lon="6.20665">
        <ele>1575.2573242188</ele>
        <time>2012-01-21T14:23:19Z</time>
      </trkpt>
      <trkpt lat="45.65847" lon="6.20659">
        <ele>1576.21875</ele>
        <time>2012-01-21T14:23:28Z</time>
      </trkpt>
      <trkpt lat="45.65844" lon="6.20654">
        <ele>1576.6994628906</ele>
        <time>2012-01-21T14:23:34Z</time>
      </trkpt>
      <trkpt lat="45.65841" lon="6.2065">
        <ele>1576.6994628906</ele>
        <time>2012-01-21T14:23:40Z</time>
      </trkpt>
      <trkpt lat="45.65837" lon="6.20645">
        <ele>1577.1801757812</ele>
        <time>2012-01-21T14:23:46Z</time>
      </trkpt>
      <trkpt lat="45.65834" lon="6.20641">
        <ele>1577.1801757812</ele>
        <time>2012-01-21T14:23:51Z</time>
      </trkpt>
      <trkpt lat="45.65831" lon="6.20637">
        <ele>1576.6994628906</ele>
        <time>2012-01-21T14:23:57Z</time>
      </trkpt>
      <trkpt lat="45.65828" lon="6.20631">
        <ele>1576.21875</ele>
        <time>2012-01-21T14:24:05Z</time>
      </trkpt>
      <trkpt lat="45.65824" lon="6.20625">
        <ele>1575.2573242188</ele>
        <time>2012-01-21T14:24:13Z</time>
      </trkpt>
      <trkpt lat="45.65821" lon="6.2062">
        <ele>1574.7768554688</ele>
        <time>2012-01-21T14:24:19Z</time>
      </trkpt>
      <trkpt lat="45.65819" lon="6.20614">
        <ele>1574.7768554688</ele>
        <time>2012-01-21T14:24:25Z</time>
      </trkpt>
      <trkpt lat="45.65817" lon="6.20608">
        <ele>1574.2961425781</ele>
        <time>2012-01-21T14:24:30Z</time>
      </trkpt>
      <trkpt lat="45.65814" lon="6.20602">
        <ele>1573.8154296875</ele>
        <time>2012-01-21T14:24:36Z</time>
      </trkpt>
      <trkpt lat="45.65811" lon="6.20594">
        <ele>1573.8154296875</ele>
        <time>2012-01-21T14:24:44Z</time>
      </trkpt>
      <trkpt lat="45.65809" lon="6.20588">
        <ele>1573.8154296875</ele>
        <time>2012-01-21T14:24:50Z</time>
      </trkpt>
      <trkpt lat="45.65807" lon="6.20584">
        <ele>1572.8542480469</ele>
        <time>2012-01-21T14:24:55Z</time>
      </trkpt>
      <trkpt lat="45.65808" lon="6.20584">
        <ele>1572.8542480469</ele>
        <time>2012-01-21T14:25:01Z</time>
      </trkpt>
      <trkpt lat="45.65806" lon="6.2058">
        <ele>1572.3735351562</ele>
        <time>2012-01-21T14:25:06Z</time>
      </trkpt>
      <trkpt lat="45.65804" lon="6.20574">
        <ele>1572.8542480469</ele>
        <time>2012-01-21T14:25:12Z</time>
      </trkpt>
      <trkpt lat="45.65803" lon="6.20568">
        <ele>1572.8542480469</ele>
        <time>2012-01-21T14:25:19Z</time>
      </trkpt>
      <trkpt lat="45.65802" lon="6.20564">
        <ele>1572.8542480469</ele>
        <time>2012-01-21T14:25:24Z</time>
      </trkpt>
      <trkpt lat="45.658" lon="6.20559">
        <ele>1573.3349609375</ele>
        <time>2012-01-21T14:25:38Z</time>
      </trkpt>
      <trkpt lat="45.65797" lon="6.20551">
        <ele>1574.2961425781</ele>
        <time>2012-01-21T14:25:45Z</time>
      </trkpt>
      <trkpt lat="45.65794" lon="6.20546">
        <ele>1573.8154296875</ele>
        <time>2012-01-21T14:25:53Z</time>
      </trkpt>
      <trkpt lat="45.65791" lon="6.20542">
        <ele>1574.2961425781</ele>
        <time>2012-01-21T14:26:01Z</time>
      </trkpt>
      <trkpt lat="45.65788" lon="6.20536">
        <ele>1574.2961425781</ele>
        <time>2012-01-21T14:26:07Z</time>
      </trkpt>
      <trkpt lat="45.65785" lon="6.20532">
        <ele>1573.8154296875</ele>
        <time>2012-01-21T14:26:11Z</time>
      </trkpt>
      <trkpt lat="45.6578" lon="6.20528">
        <ele>1573.3349609375</ele>
        <time>2012-01-21T14:26:17Z</time>
      </trkpt>
      <trkpt lat="45.65776" lon="6.20525">
        <ele>1572.3735351562</ele>
        <time>2012-01-21T14:26:23Z</time>
      </trkpt>
      <trkpt lat="45.65775" lon="6.20522">
        <ele>1571.8928222656</ele>
        <time>2012-01-21T14:26:27Z</time>
      </trkpt>
      <trkpt lat="45.65773" lon="6.20517">
        <ele>1572.3735351562</ele>
        <time>2012-01-21T14:26:33Z</time>
      </trkpt>
      <trkpt lat="45.65771" lon="6.20509">
        <ele>1572.3735351562</ele>
        <time>2012-01-21T14:26:40Z</time>
      </trkpt>
      <trkpt lat="45.65769" lon="6.20505">
        <ele>1572.3735351562</ele>
        <time>2012-01-21T14:26:44Z</time>
      </trkpt>
      <trkpt lat="45.65767" lon="6.20498">
        <ele>1570.4509277344</ele>
        <time>2012-01-21T14:26:51Z</time>
      </trkpt>
      <trkpt lat="45.65765" lon="6.20493">
        <ele>1569.9702148438</ele>
        <time>2012-01-21T14:26:56Z</time>
      </trkpt>
      <trkpt lat="45.65763" lon="6.20487">
        <ele>1569.9702148438</ele>
        <time>2012-01-21T14:27:02Z</time>
      </trkpt>
      <trkpt lat="45.65761" lon="6.20481">
        <ele>1569.9702148438</ele>
        <time>2012-01-21T14:27:08Z</time>
      </trkpt>
      <trkpt lat="45.65758" lon="6.20474">
        <ele>1569.9702148438</ele>
        <time>2012-01-21T14:27:15Z</time>
      </trkpt>
      <trkpt lat="45.65753" lon="6.20465">
        <ele>1569.0090332031</ele>
        <time>2012-01-21T14:27:23Z</time>
      </trkpt>
      <trkpt lat="45.65752" lon="6.20464">
        <ele>1569.0090332031</ele>
        <time>2012-01-21T14:27:24Z</time>
      </trkpt>
      <trkpt lat="45.65748" lon="6.20458">
        <ele>1569.0090332031</ele>
        <time>2012-01-21T14:27:30Z</time>
      </trkpt>
      <trkpt lat="45.65744" lon="6.20451">
        <ele>1568.0476074219</ele>
        <time>2012-01-21T14:27:36Z</time>
      </trkpt>
      <trkpt lat="45.65743" lon="6.20448">
        <ele>1567.5668945312</ele>
        <time>2012-01-21T14:27:40Z</time>
      </trkpt>
      <trkpt lat="45.65743" lon="6.20447">
        <ele>1567.0864257812</ele>
        <time>2012-01-21T14:27:44Z</time>
      </trkpt>
      <trkpt lat="45.65742" lon="6.20446">
        <ele>1566.6057128906</ele>
        <time>2012-01-21T14:27:49Z</time>
      </trkpt>
      <trkpt lat="45.65743" lon="6.20447">
        <ele>1566.125</ele>
        <time>2012-01-21T14:27:54Z</time>
      </trkpt>
      <trkpt lat="45.65743" lon="6.20447">
        <ele>1565.64453125</ele>
        <time>2012-01-21T14:28:00Z</time>
      </trkpt>
      <trkpt lat="45.65743" lon="6.20447">
        <ele>1565.1638183594</ele>
        <time>2012-01-21T14:28:06Z</time>
      </trkpt>
      <trkpt lat="45.65743" lon="6.20447">
        <ele>1565.1638183594</ele>
        <time>2012-01-21T14:28:13Z</time>
      </trkpt>
      <trkpt lat="45.65743" lon="6.20447">
        <ele>1565.64453125</ele>
        <time>2012-01-21T14:28:22Z</time>
      </trkpt>
      <trkpt lat="45.65742" lon="6.20446">
        <ele>1565.64453125</ele>
        <time>2012-01-21T14:28:30Z</time>
      </trkpt>
      <trkpt lat="45.65744" lon="6.20447">
        <ele>1564.2023925781</ele>
        <time>2012-01-21T14:28:37Z</time>
      </trkpt>
      <trkpt lat="45.65743" lon="6.20447">
        <ele>1564.6831054688</ele>
        <time>2012-01-21T14:28:41Z</time>
      </trkpt>
      <trkpt lat="45.65744" lon="6.20448">
        <ele>1564.6831054688</ele>
        <time>2012-01-21T14:28:46Z</time>
      </trkpt>
      <trkpt lat="45.65742" lon="6.20448">
        <ele>1564.6831054688</ele>
        <time>2012-01-21T14:28:52Z</time>
      </trkpt>
      <trkpt lat="45.65744" lon="6.20447">
        <ele>1564.2023925781</ele>
        <time>2012-01-21T14:29:02Z</time>
      </trkpt>
      <trkpt lat="45.65743" lon="6.20447">
        <ele>1564.2023925781</ele>
        <time>2012-01-21T14:29:07Z</time>
      </trkpt>
      <trkpt lat="45.65743" lon="6.20447">
        <ele>1564.6831054688</ele>
        <time>2012-01-21T14:29:13Z</time>
      </trkpt>
      <trkpt lat="45.65742" lon="6.20448">
        <ele>1564.6831054688</ele>
        <time>2012-01-21T14:29:18Z</time>
      </trkpt>
      <trkpt lat="45.65742" lon="6.20447">
        <ele>1564.2023925781</ele>
        <time>2012-01-21T14:29:30Z</time>
      </trkpt>
      <trkpt lat="45.65741" lon="6.20448">
        <ele>1564.6831054688</ele>
        <time>2012-01-21T14:29:41Z</time>
      </trkpt>
      <trkpt lat="45.65742" lon="6.20448">
        <ele>1564.6831054688</ele>
        <time>2012-01-21T14:29:49Z</time>
      </trkpt>
      <trkpt lat="45.65741" lon="6.20447">
        <ele>1564.6831054688</ele>
        <time>2012-01-21T14:29:55Z</time>
      </trkpt>
      <trkpt lat="45.65742" lon="6.20448">
        <ele>1564.6831054688</ele>
        <time>2012-01-21T14:30:02Z</time>
      </trkpt>
      <trkpt lat="45.65742" lon="6.20447">
        <ele>1564.6831054688</ele>
        <time>2012-01-21T14:30:11Z</time>
      </trkpt>
      <trkpt lat="45.65742" lon="6.20447">
        <ele>1564.6831054688</ele>
        <time>2012-01-21T14:30:21Z</time>
      </trkpt>
      <trkpt lat="45.65741" lon="6.20448">
        <ele>1565.1638183594</ele>
        <time>2012-01-21T14:30:33Z</time>
      </trkpt>
      <trkpt lat="45.65741" lon="6.20448">
        <ele>1565.1638183594</ele>
        <time>2012-01-21T14:30:43Z</time>
      </trkpt>
      <trkpt lat="45.65741" lon="6.20448">
        <ele>1564.6831054688</ele>
        <time>2012-01-21T14:30:53Z</time>
      </trkpt>
      <trkpt lat="45.65739" lon="6.20449">
        <ele>1564.2023925781</ele>
        <time>2012-01-21T14:30:56Z</time>
      </trkpt>
      <trkpt lat="45.65732" lon="6.20454">
        <ele>1558.4343261719</ele>
        <time>2012-01-21T14:31:02Z</time>
      </trkpt>
      <trkpt lat="45.65731" lon="6.20455">
        <ele>1556.9924316406</ele>
        <time>2012-01-21T14:31:08Z</time>
      </trkpt>
      <trkpt lat="45.65723" lon="6.20461">
        <ele>1552.1857910156</ele>
        <time>2012-01-21T14:31:14Z</time>
      </trkpt>
      <trkpt lat="45.65704" lon="6.20469">
        <ele>1541.1306152344</ele>
        <time>2012-01-21T14:31:23Z</time>
      </trkpt>
      <trkpt lat="45.65697" lon="6.20472">
        <ele>1536.32421875</ele>
        <time>2012-01-21T14:31:25Z</time>
      </trkpt>
      <trkpt lat="45.65698" lon="6.20472">
        <ele>1529.5947265625</ele>
        <time>2012-01-21T14:31:31Z</time>
      </trkpt>
      <trkpt lat="45.65697" lon="6.20473">
        <ele>1528.6335449219</ele>
        <time>2012-01-21T14:31:35Z</time>
      </trkpt>
      <trkpt lat="45.65694" lon="6.20475">
        <ele>1527.6721191406</ele>
        <time>2012-01-21T14:31:40Z</time>
      </trkpt>
      <trkpt lat="45.65693" lon="6.20474">
        <ele>1527.6721191406</ele>
        <time>2012-01-21T14:31:45Z</time>
      </trkpt>
      <trkpt lat="45.65691" lon="6.20475">
        <ele>1528.6335449219</ele>
        <time>2012-01-21T14:31:50Z</time>
      </trkpt>
      <trkpt lat="45.65684" lon="6.20479">
        <ele>1527.1916503906</ele>
        <time>2012-01-21T14:31:54Z</time>
      </trkpt>
      <trkpt lat="45.6568" lon="6.2048">
        <ele>1524.7883300781</ele>
        <time>2012-01-21T14:31:57Z</time>
      </trkpt>
      <trkpt lat="45.65681" lon="6.2048">
        <ele>1523.8269042969</ele>
        <time>2012-01-21T14:32:04Z</time>
      </trkpt>
      <trkpt lat="45.65681" lon="6.20481">
        <ele>1523.8269042969</ele>
        <time>2012-01-21T14:32:09Z</time>
      </trkpt>
      <trkpt lat="45.65681" lon="6.20481">
        <ele>1523.3464355469</ele>
        <time>2012-01-21T14:32:16Z</time>
      </trkpt>
      <trkpt lat="45.6568" lon="6.20482">
        <ele>1523.8269042969</ele>
        <time>2012-01-21T14:32:20Z</time>
      </trkpt>
      <trkpt lat="45.6568" lon="6.20482">
        <ele>1524.3076171875</ele>
        <time>2012-01-21T14:32:24Z</time>
      </trkpt>
      <trkpt lat="45.6568" lon="6.20482">
        <ele>1524.7883300781</ele>
        <time>2012-01-21T14:32:28Z</time>
      </trkpt>
      <trkpt lat="45.6568" lon="6.20482">
        <ele>1525.2687988281</ele>
        <time>2012-01-21T14:32:32Z</time>
      </trkpt>
      <trkpt lat="45.65681" lon="6.20482">
        <ele>1525.2687988281</ele>
        <time>2012-01-21T14:32:37Z</time>
      </trkpt>
      <trkpt lat="45.6568" lon="6.20483">
        <ele>1525.7495117188</ele>
        <time>2012-01-21T14:32:46Z</time>
      </trkpt>
      <trkpt lat="45.65673" lon="6.20488">
        <ele>1523.3464355469</ele>
        <time>2012-01-21T14:32:49Z</time>
      </trkpt>
      <trkpt lat="45.65666" lon="6.20492">
        <ele>1520.4624023438</ele>
        <time>2012-01-21T14:32:51Z</time>
      </trkpt>
      <trkpt lat="45.65666" lon="6.20492">
        <ele>1519.5012207031</ele>
        <time>2012-01-21T14:32:57Z</time>
      </trkpt>
      <trkpt lat="45.65666" lon="6.20492">
        <ele>1519.0205078125</ele>
        <time>2012-01-21T14:33:00Z</time>
      </trkpt>
      <trkpt lat="45.65668" lon="6.2049">
        <ele>1518.5397949219</ele>
        <time>2012-01-21T14:33:05Z</time>
      </trkpt>
      <trkpt lat="45.65667" lon="6.20489">
        <ele>1519.0205078125</ele>
        <time>2012-01-21T14:33:13Z</time>
      </trkpt>
      <trkpt lat="45.65666" lon="6.2049">
        <ele>1518.5397949219</ele>
        <time>2012-01-21T14:33:15Z</time>
      </trkpt>
      <trkpt lat="45.65663" lon="6.20493">
        <ele>1517.0979003906</ele>
        <time>2012-01-21T14:33:20Z</time>
      </trkpt>
      <trkpt lat="45.65664" lon="6.20493">
        <ele>1516.6171875</ele>
        <time>2012-01-21T14:33:26Z</time>
      </trkpt>
      <trkpt lat="45.65664" lon="6.20494">
        <ele>1516.6171875</ele>
        <time>2012-01-21T14:33:38Z</time>
      </trkpt>
      <trkpt lat="45.65664" lon="6.20494">
        <ele>1516.1364746094</ele>
        <time>2012-01-21T14:33:43Z</time>
      </trkpt>
      <trkpt lat="45.65663" lon="6.20494">
        <ele>1515.6557617188</ele>
        <time>2012-01-21T14:33:48Z</time>
      </trkpt>
      <trkpt lat="45.65663" lon="6.20494">
        <ele>1515.6557617188</ele>
        <time>2012-01-21T14:33:54Z</time>
      </trkpt>
      <trkpt lat="45.65663" lon="6.20494">
        <ele>1515.6557617188</ele>
        <time>2012-01-21T14:34:00Z</time>
      </trkpt>
      <trkpt lat="45.65661" lon="6.20496">
        <ele>1515.1750488281</ele>
        <time>2012-01-21T14:34:06Z</time>
      </trkpt>
      <trkpt lat="45.6566" lon="6.20496">
        <ele>1513.2524414062</ele>
        <time>2012-01-21T14:34:12Z</time>
      </trkpt>
      <trkpt lat="45.65658" lon="6.20495">
        <ele>1513.7329101562</ele>
        <time>2012-01-21T14:34:16Z</time>
      </trkpt>
      <trkpt lat="45.65658" lon="6.20494">
        <ele>1513.2524414062</ele>
        <time>2012-01-21T14:34:20Z</time>
      </trkpt>
      <trkpt lat="45.65657" lon="6.20495">
        <ele>1513.7329101562</ele>
        <time>2012-01-21T14:34:24Z</time>
      </trkpt>
      <trkpt lat="45.65657" lon="6.20496">
        <ele>1513.2524414062</ele>
        <time>2012-01-21T14:34:30Z</time>
      </trkpt>
      <trkpt lat="45.65654" lon="6.20495">
        <ele>1513.7329101562</ele>
        <time>2012-01-21T14:34:34Z</time>
      </trkpt>
      <trkpt lat="45.65652" lon="6.20494">
        <ele>1513.7329101562</ele>
        <time>2012-01-21T14:34:40Z</time>
      </trkpt>
      <trkpt lat="45.65652" lon="6.20494">
        <ele>1512.291015625</ele>
        <time>2012-01-21T14:34:45Z</time>
      </trkpt>
      <trkpt lat="45.65652" lon="6.20494">
        <ele>1511.810546875</ele>
        <time>2012-01-21T14:34:51Z</time>
      </trkpt>
      <trkpt lat="45.65651" lon="6.20495">
        <ele>1511.810546875</ele>
        <time>2012-01-21T14:34:57Z</time>
      </trkpt>
      <trkpt lat="45.65649" lon="6.20494">
        <ele>1512.291015625</ele>
        <time>2012-01-21T14:35:02Z</time>
      </trkpt>
      <trkpt lat="45.65647" lon="6.20493">
        <ele>1512.7717285156</ele>
        <time>2012-01-21T14:35:08Z</time>
      </trkpt>
      <trkpt lat="45.65643" lon="6.20492">
        <ele>1512.7717285156</ele>
        <time>2012-01-21T14:35:17Z</time>
      </trkpt>
      <trkpt lat="45.65639" lon="6.20492">
        <ele>1511.810546875</ele>
        <time>2012-01-21T14:35:25Z</time>
      </trkpt>
      <trkpt lat="45.65637" lon="6.20491">
        <ele>1511.3298339844</ele>
        <time>2012-01-21T14:35:31Z</time>
      </trkpt>
      <trkpt lat="45.65636" lon="6.20492">
        <ele>1510.8491210938</ele>
        <time>2012-01-21T14:35:36Z</time>
      </trkpt>
      <trkpt lat="45.65635" lon="6.20492">
        <ele>1511.3298339844</ele>
        <time>2012-01-21T14:35:42Z</time>
      </trkpt>
      <trkpt lat="45.65633" lon="6.20492">
        <ele>1512.291015625</ele>
        <time>2012-01-21T14:35:49Z</time>
      </trkpt>
      <trkpt lat="45.65633" lon="6.20492">
        <ele>1511.3298339844</ele>
        <time>2012-01-21T14:35:57Z</time>
      </trkpt>
      <trkpt lat="45.65634" lon="6.20493">
        <ele>1509.8876953125</ele>
        <time>2012-01-21T14:36:04Z</time>
      </trkpt>
      <trkpt lat="45.65634" lon="6.20493">
        <ele>1508.9265136719</ele>
        <time>2012-01-21T14:36:11Z</time>
      </trkpt>
      <trkpt lat="45.65634" lon="6.20493">
        <ele>1508.4458007812</ele>
        <time>2012-01-21T14:36:12Z</time>
      </trkpt>
      <trkpt lat="45.65629" lon="6.20484">
        <ele>1506.0424804688</ele>
        <time>2012-01-21T14:36:19Z</time>
      </trkpt>
      <trkpt lat="45.6563" lon="6.20484">
        <ele>1505.0812988281</ele>
        <time>2012-01-21T14:36:24Z</time>
      </trkpt>
      <trkpt lat="45.65629" lon="6.20484">
        <ele>1505.0812988281</ele>
        <time>2012-01-21T14:36:34Z</time>
      </trkpt>
      <trkpt lat="45.65628" lon="6.20484">
        <ele>1506.0424804688</ele>
        <time>2012-01-21T14:36:47Z</time>
      </trkpt>
      <trkpt lat="45.65625" lon="6.20477">
        <ele>1504.1201171875</ele>
        <time>2012-01-21T14:36:51Z</time>
      </trkpt>
      <trkpt lat="45.65617" lon="6.20466">
        <ele>1503.1586914062</ele>
        <time>2012-01-21T14:36:54Z</time>
      </trkpt>
      <trkpt lat="45.65609" lon="6.20461">
        <ele>1501.2360839844</ele>
        <time>2012-01-21T14:37:00Z</time>
      </trkpt>
      <trkpt lat="45.65599" lon="6.20453">
        <ele>1499.3132324219</ele>
        <time>2012-01-21T14:37:05Z</time>
      </trkpt>
      <trkpt lat="45.65596" lon="6.20451">
        <ele>1498.8325195312</ele>
        <time>2012-01-21T14:37:08Z</time>
      </trkpt>
      <trkpt lat="45.65597" lon="6.20451">
        <ele>1497.8713378906</ele>
        <time>2012-01-21T14:37:15Z</time>
      </trkpt>
      <trkpt lat="45.65597" lon="6.20452">
        <ele>1498.3518066406</ele>
        <time>2012-01-21T14:37:24Z</time>
      </trkpt>
      <trkpt lat="45.65597" lon="6.20451">
        <ele>1498.3518066406</ele>
        <time>2012-01-21T14:37:30Z</time>
      </trkpt>
      <trkpt lat="45.65598" lon="6.20451">
        <ele>1497.390625</ele>
        <time>2012-01-21T14:37:35Z</time>
      </trkpt>
      <trkpt lat="45.65597" lon="6.20451">
        <ele>1498.3518066406</ele>
        <time>2012-01-21T14:37:41Z</time>
      </trkpt>
      <trkpt lat="45.65595" lon="6.20449">
        <ele>1497.8713378906</ele>
        <time>2012-01-21T14:37:48Z</time>
      </trkpt>
      <trkpt lat="45.65593" lon="6.20447">
        <ele>1497.390625</ele>
        <time>2012-01-21T14:37:52Z</time>
      </trkpt>
      <trkpt lat="45.65593" lon="6.20446">
        <ele>1497.390625</ele>
        <time>2012-01-21T14:37:58Z</time>
      </trkpt>
      <trkpt lat="45.65593" lon="6.20446">
        <ele>1497.390625</ele>
        <time>2012-01-21T14:38:02Z</time>
      </trkpt>
      <trkpt lat="45.65591" lon="6.20445">
        <ele>1497.390625</ele>
        <time>2012-01-21T14:38:09Z</time>
      </trkpt>
      <trkpt lat="45.6559" lon="6.20445">
        <ele>1496.4294433594</ele>
        <time>2012-01-21T14:38:14Z</time>
      </trkpt>
      <trkpt lat="45.65589" lon="6.20445">
        <ele>1496.4294433594</ele>
        <time>2012-01-21T14:38:19Z</time>
      </trkpt>
      <trkpt lat="45.65587" lon="6.20447">
        <ele>1495.4680175781</ele>
        <time>2012-01-21T14:38:25Z</time>
      </trkpt>
      <trkpt lat="45.65586" lon="6.20448">
        <ele>1494.5065917969</ele>
        <time>2012-01-21T14:38:30Z</time>
      </trkpt>
      <trkpt lat="45.65585" lon="6.2045">
        <ele>1496.4294433594</ele>
        <time>2012-01-21T14:38:40Z</time>
      </trkpt>
      <trkpt lat="45.65583" lon="6.2045">
        <ele>1496.9099121094</ele>
        <time>2012-01-21T14:38:45Z</time>
      </trkpt>
      <trkpt lat="45.65583" lon="6.2045">
        <ele>1496.4294433594</ele>
        <time>2012-01-21T14:38:54Z</time>
      </trkpt>
      <trkpt lat="45.65582" lon="6.20452">
        <ele>1496.4294433594</ele>
        <time>2012-01-21T14:39:01Z</time>
      </trkpt>
      <trkpt lat="45.65582" lon="6.20454">
        <ele>1495.9487304688</ele>
        <time>2012-01-21T14:39:07Z</time>
      </trkpt>
      <trkpt lat="45.65582" lon="6.20454">
        <ele>1495.4680175781</ele>
        <time>2012-01-21T14:39:12Z</time>
      </trkpt>
      <trkpt lat="45.65582" lon="6.20456">
        <ele>1494.5065917969</ele>
        <time>2012-01-21T14:39:17Z</time>
      </trkpt>
      <trkpt lat="45.6558" lon="6.20458">
        <ele>1494.0261230469</ele>
        <time>2012-01-21T14:39:27Z</time>
      </trkpt>
      <trkpt lat="45.6558" lon="6.20458">
        <ele>1494.9873046875</ele>
        <time>2012-01-21T14:39:32Z</time>
      </trkpt>
      <trkpt lat="45.6558" lon="6.20458">
        <ele>1496.4294433594</ele>
        <time>2012-01-21T14:39:40Z</time>
      </trkpt>
      <trkpt lat="45.65578" lon="6.20457">
        <ele>1499.7939453125</ele>
        <time>2012-01-21T14:39:48Z</time>
      </trkpt>
      <trkpt lat="45.6558" lon="6.20459">
        <ele>1496.4294433594</ele>
        <time>2012-01-21T14:40:02Z</time>
      </trkpt>
      <trkpt lat="45.65582" lon="6.20456">
        <ele>1498.3518066406</ele>
        <time>2012-01-21T14:40:18Z</time>
      </trkpt>
      <trkpt lat="45.65581" lon="6.20455">
        <ele>1499.3132324219</ele>
        <time>2012-01-21T14:40:29Z</time>
      </trkpt>
      <trkpt lat="45.65582" lon="6.20458">
        <ele>1495.4680175781</ele>
        <time>2012-01-21T14:40:41Z</time>
      </trkpt>
      <trkpt lat="45.6558" lon="6.20457">
        <ele>1497.390625</ele>
        <time>2012-01-21T14:40:53Z</time>
      </trkpt>
      <trkpt lat="45.65576" lon="6.20462">
        <ele>1495.9487304688</ele>
        <time>2012-01-21T14:40:58Z</time>
      </trkpt>
      <trkpt lat="45.65575" lon="6.20463">
        <ele>1494.9873046875</ele>
        <time>2012-01-21T14:41:04Z</time>
      </trkpt>
      <trkpt lat="45.65562" lon="6.2046">
        <ele>1491.1420898438</ele>
        <time>2012-01-21T14:41:09Z</time>
      </trkpt>
      <trkpt lat="45.65557" lon="6.20459">
        <ele>1489.7001953125</ele>
        <time>2012-01-21T14:41:11Z</time>
      </trkpt>
      <trkpt lat="45.65541" lon="6.20449">
        <ele>1483.9321289062</ele>
        <time>2012-01-21T14:41:16Z</time>
      </trkpt>
      <trkpt lat="45.65539" lon="6.20446">
        <ele>1482.0095214844</ele>
        <time>2012-01-21T14:41:19Z</time>
      </trkpt>
      <trkpt lat="45.65538" lon="6.20447">
        <ele>1481.0483398438</ele>
        <time>2012-01-21T14:41:26Z</time>
      </trkpt>
      <trkpt lat="45.65533" lon="6.20446">
        <ele>1482.0095214844</ele>
        <time>2012-01-21T14:41:33Z</time>
      </trkpt>
      <trkpt lat="45.65533" lon="6.20445">
        <ele>1482.0095214844</ele>
        <time>2012-01-21T14:41:39Z</time>
      </trkpt>
      <trkpt lat="45.65534" lon="6.20446">
        <ele>1482.490234375</ele>
        <time>2012-01-21T14:41:47Z</time>
      </trkpt>
      <trkpt lat="45.65534" lon="6.20446">
        <ele>1482.970703125</ele>
        <time>2012-01-21T14:41:54Z</time>
      </trkpt>
      <trkpt lat="45.65534" lon="6.20447">
        <ele>1482.970703125</ele>
        <time>2012-01-21T14:42:01Z</time>
      </trkpt>
      <trkpt lat="45.65534" lon="6.20446">
        <ele>1483.4514160156</ele>
        <time>2012-01-21T14:42:08Z</time>
      </trkpt>
      <trkpt lat="45.65532" lon="6.20445">
        <ele>1483.9321289062</ele>
        <time>2012-01-21T14:42:13Z</time>
      </trkpt>
      <trkpt lat="45.6553" lon="6.20443">
        <ele>1483.4514160156</ele>
        <time>2012-01-21T14:42:19Z</time>
      </trkpt>
      <trkpt lat="45.65526" lon="6.20439">
        <ele>1483.4514160156</ele>
        <time>2012-01-21T14:42:27Z</time>
      </trkpt>
      <trkpt lat="45.65523" lon="6.20435">
        <ele>1482.970703125</ele>
        <time>2012-01-21T14:42:34Z</time>
      </trkpt>
      <trkpt lat="45.65519" lon="6.20431">
        <ele>1482.490234375</ele>
        <time>2012-01-21T14:42:43Z</time>
      </trkpt>
      <trkpt lat="45.65513" lon="6.20426">
        <ele>1481.0483398438</ele>
        <time>2012-01-21T14:42:52Z</time>
      </trkpt>
      <trkpt lat="45.65511" lon="6.20425">
        <ele>1481.0483398438</ele>
        <time>2012-01-21T14:42:59Z</time>
      </trkpt>
      <trkpt lat="45.65509" lon="6.20426">
        <ele>1482.0095214844</ele>
        <time>2012-01-21T14:43:06Z</time>
      </trkpt>
      <trkpt lat="45.65506" lon="6.20424">
        <ele>1481.5288085938</ele>
        <time>2012-01-21T14:43:12Z</time>
      </trkpt>
      <trkpt lat="45.65503" lon="6.20423">
        <ele>1481.5288085938</ele>
        <time>2012-01-21T14:43:19Z</time>
      </trkpt>
      <trkpt lat="45.65503" lon="6.20423">
        <ele>1481.5288085938</ele>
        <time>2012-01-21T14:43:24Z</time>
      </trkpt>
      <trkpt lat="45.65503" lon="6.20425">
        <ele>1481.5288085938</ele>
        <time>2012-01-21T14:43:33Z</time>
      </trkpt>
      <trkpt lat="45.65503" lon="6.20426">
        <ele>1480.5676269531</ele>
        <time>2012-01-21T14:43:40Z</time>
      </trkpt>
      <trkpt lat="45.65503" lon="6.20427">
        <ele>1480.5676269531</ele>
        <time>2012-01-21T14:43:47Z</time>
      </trkpt>
      <trkpt lat="45.65496" lon="6.20439">
        <ele>1477.203125</ele>
        <time>2012-01-21T14:43:51Z</time>
      </trkpt>
      <trkpt lat="45.65496" lon="6.2044">
        <ele>1476.2416992188</ele>
        <time>2012-01-21T14:43:52Z</time>
      </trkpt>
      <trkpt lat="45.65495" lon="6.20441">
        <ele>1473.8383789062</ele>
        <time>2012-01-21T14:44:00Z</time>
      </trkpt>
      <trkpt lat="45.65494" lon="6.20442">
        <ele>1471.9157714844</ele>
        <time>2012-01-21T14:44:07Z</time>
      </trkpt>
      <trkpt lat="45.65493" lon="6.20441">
        <ele>1470.4738769531</ele>
        <time>2012-01-21T14:44:13Z</time>
      </trkpt>
      <trkpt lat="45.65493" lon="6.20441">
        <ele>1470.4738769531</ele>
        <time>2012-01-21T14:44:18Z</time>
      </trkpt>
      <trkpt lat="45.65491" lon="6.20443">
        <ele>1469.9931640625</ele>
        <time>2012-01-21T14:44:26Z</time>
      </trkpt>
      <trkpt lat="45.6549" lon="6.20442">
        <ele>1468.0705566406</ele>
        <time>2012-01-21T14:44:30Z</time>
      </trkpt>
      <trkpt lat="45.6549" lon="6.20444">
        <ele>1464.7058105469</ele>
        <time>2012-01-21T14:44:36Z</time>
      </trkpt>
      <trkpt lat="45.65487" lon="6.20447">
        <ele>1462.3024902344</ele>
        <time>2012-01-21T14:44:41Z</time>
      </trkpt>
      <trkpt lat="45.65486" lon="6.20447">
        <ele>1463.2639160156</ele>
        <time>2012-01-21T14:44:48Z</time>
      </trkpt>
      <trkpt lat="45.65485" lon="6.20447">
        <ele>1464.2250976562</ele>
        <time>2012-01-21T14:44:51Z</time>
      </trkpt>
      <trkpt lat="45.65485" lon="6.20447">
        <ele>1464.7058105469</ele>
        <time>2012-01-21T14:44:53Z</time>
      </trkpt>
      <trkpt lat="45.65485" lon="6.20447">
        <ele>1464.7058105469</ele>
        <time>2012-01-21T14:44:54Z</time>
      </trkpt>
      <trkpt lat="45.65485" lon="6.20448">
        <ele>1466.6284179688</ele>
        <time>2012-01-21T14:45:01Z</time>
      </trkpt>
      <trkpt lat="45.65485" lon="6.20448">
        <ele>1465.6672363281</ele>
        <time>2012-01-21T14:45:09Z</time>
      </trkpt>
      <trkpt lat="45.65486" lon="6.20448">
        <ele>1463.7443847656</ele>
        <time>2012-01-21T14:45:18Z</time>
      </trkpt>
      <trkpt lat="45.65486" lon="6.20447">
        <ele>1464.2250976562</ele>
        <time>2012-01-21T14:45:26Z</time>
      </trkpt>
      <trkpt lat="45.65485" lon="6.20447">
        <ele>1464.2250976562</ele>
        <time>2012-01-21T14:45:35Z</time>
      </trkpt>
      <trkpt lat="45.65486" lon="6.20446">
        <ele>1463.7443847656</ele>
        <time>2012-01-21T14:45:54Z</time>
      </trkpt>
      <trkpt lat="45.65486" lon="6.20446">
        <ele>1463.2639160156</ele>
        <time>2012-01-21T14:45:58Z</time>
      </trkpt>
      <trkpt lat="45.65486" lon="6.20447">
        <ele>1463.2639160156</ele>
        <time>2012-01-21T14:46:09Z</time>
      </trkpt>
      <trkpt lat="45.65486" lon="6.20447">
        <ele>1463.2639160156</ele>
        <time>2012-01-21T14:46:10Z</time>
      </trkpt>
      <trkpt lat="45.65486" lon="6.20447">
        <ele>1463.2639160156</ele>
        <time>2012-01-21T14:46:16Z</time>
      </trkpt>
      <trkpt lat="45.65486" lon="6.20447">
        <ele>1463.7443847656</ele>
        <time>2012-01-21T14:46:24Z</time>
      </trkpt>
      <trkpt lat="45.65486" lon="6.20448">
        <ele>1464.7058105469</ele>
        <time>2012-01-21T14:46:29Z</time>
      </trkpt>
      <trkpt lat="45.65485" lon="6.20447">
        <ele>1465.6672363281</ele>
        <time>2012-01-21T14:46:37Z</time>
      </trkpt>
      <trkpt lat="45.65484" lon="6.20448">
        <ele>1466.6284179688</ele>
        <time>2012-01-21T14:46:42Z</time>
      </trkpt>
      <trkpt lat="45.65485" lon="6.2045">
        <ele>1467.1091308594</ele>
        <time>2012-01-21T14:46:48Z</time>
      </trkpt>
      <trkpt lat="45.65483" lon="6.20448">
        <ele>1467.5895996094</ele>
        <time>2012-01-21T14:46:54Z</time>
      </trkpt>
      <trkpt lat="45.65482" lon="6.20447">
        <ele>1467.5895996094</ele>
        <time>2012-01-21T14:46:59Z</time>
      </trkpt>
      <trkpt lat="45.65483" lon="6.20447">
        <ele>1468.0705566406</ele>
        <time>2012-01-21T14:47:05Z</time>
      </trkpt>
      <trkpt lat="45.65483" lon="6.20446">
        <ele>1469.0319824219</ele>
        <time>2012-01-21T14:47:12Z</time>
      </trkpt>
      <trkpt lat="45.65482" lon="6.20445">
        <ele>1469.0319824219</ele>
        <time>2012-01-21T14:47:19Z</time>
      </trkpt>
      <trkpt lat="45.65482" lon="6.20445">
        <ele>1469.5126953125</ele>
        <time>2012-01-21T14:47:23Z</time>
      </trkpt>
      <trkpt lat="45.65482" lon="6.20446">
        <ele>1469.0319824219</ele>
        <time>2012-01-21T14:47:28Z</time>
      </trkpt>
      <trkpt lat="45.65481" lon="6.20447">
        <ele>1469.5126953125</ele>
        <time>2012-01-21T14:47:44Z</time>
      </trkpt>
      <trkpt lat="45.65483" lon="6.20448">
        <ele>1470.4738769531</ele>
        <time>2012-01-21T14:47:53Z</time>
      </trkpt>
      <trkpt lat="45.65483" lon="6.2045">
        <ele>1471.4350585938</ele>
        <time>2012-01-21T14:47:59Z</time>
      </trkpt>
      <trkpt lat="45.65483" lon="6.2045">
        <ele>1471.9157714844</ele>
        <time>2012-01-21T14:48:08Z</time>
      </trkpt>
      <trkpt lat="45.6548" lon="6.20451">
        <ele>1476.2416992188</ele>
        <time>2012-01-21T14:48:19Z</time>
      </trkpt>
      <trkpt lat="45.6548" lon="6.20451">
        <ele>1476.7224121094</ele>
        <time>2012-01-21T14:48:25Z</time>
      </trkpt>
      <trkpt lat="45.6548" lon="6.20451">
        <ele>1476.7224121094</ele>
        <time>2012-01-21T14:48:33Z</time>
      </trkpt>
      <trkpt lat="45.65481" lon="6.20451">
        <ele>1475.2802734375</ele>
        <time>2012-01-21T14:48:41Z</time>
      </trkpt>
      <trkpt lat="45.65481" lon="6.20451">
        <ele>1473.8383789062</ele>
        <time>2012-01-21T14:48:50Z</time>
      </trkpt>
      <trkpt lat="45.65481" lon="6.2045">
        <ele>1471.9157714844</ele>
        <time>2012-01-21T14:48:55Z</time>
      </trkpt>
      <trkpt lat="45.65481" lon="6.2045">
        <ele>1471.4350585938</ele>
        <time>2012-01-21T14:49:01Z</time>
      </trkpt>
      <trkpt lat="45.6548" lon="6.20451">
        <ele>1471.4350585938</ele>
        <time>2012-01-21T14:49:07Z</time>
      </trkpt>
      <trkpt lat="45.6548" lon="6.20451">
        <ele>1471.9157714844</ele>
        <time>2012-01-21T14:49:13Z</time>
      </trkpt>
      <trkpt lat="45.65481" lon="6.2045">
        <ele>1470.4738769531</ele>
        <time>2012-01-21T14:49:19Z</time>
      </trkpt>
      <trkpt lat="45.65481" lon="6.2045">
        <ele>1469.9931640625</ele>
        <time>2012-01-21T14:49:26Z</time>
      </trkpt>
      <trkpt lat="45.65482" lon="6.2045">
        <ele>1469.5126953125</ele>
        <time>2012-01-21T14:49:35Z</time>
      </trkpt>
      <trkpt lat="45.65482" lon="6.2045">
        <ele>1469.5126953125</ele>
        <time>2012-01-21T14:49:40Z</time>
      </trkpt>
      <trkpt lat="45.65482" lon="6.2045">
        <ele>1469.5126953125</ele>
        <time>2012-01-21T14:49:46Z</time>
      </trkpt>
      <trkpt lat="45.65481" lon="6.2045">
        <ele>1469.5126953125</ele>
        <time>2012-01-21T14:49:50Z</time>
      </trkpt>
      <trkpt lat="45.6548" lon="6.2045">
        <ele>1468.5512695312</ele>
        <time>2012-01-21T14:49:56Z</time>
      </trkpt>
      <trkpt lat="45.65474" lon="6.2046">
        <ele>1464.7058105469</ele>
        <time>2012-01-21T14:50:00Z</time>
      </trkpt>
      <trkpt lat="45.65475" lon="6.2046">
        <ele>1462.783203125</ele>
        <time>2012-01-21T14:50:03Z</time>
      </trkpt>
      <trkpt lat="45.65466" lon="6.20469">
        <ele>1458.4572753906</ele>
        <time>2012-01-21T14:50:08Z</time>
      </trkpt>
      <trkpt lat="45.65464" lon="6.20471">
        <ele>1456.0539550781</ele>
        <time>2012-01-21T14:50:12Z</time>
      </trkpt>
      <trkpt lat="45.65463" lon="6.20474">
        <ele>1453.6508789062</ele>
        <time>2012-01-21T14:50:17Z</time>
      </trkpt>
      <trkpt lat="45.65453" lon="6.20489">
        <ele>1446.4409179688</ele>
        <time>2012-01-21T14:50:24Z</time>
      </trkpt>
      <trkpt lat="45.65452" lon="6.20492">
        <ele>1444.9987792969</ele>
        <time>2012-01-21T14:50:28Z</time>
      </trkpt>
      <trkpt lat="45.65452" lon="6.20492">
        <ele>1444.5180664062</ele>
        <time>2012-01-21T14:50:38Z</time>
      </trkpt>
      <trkpt lat="45.65452" lon="6.20492">
        <ele>1444.9987792969</ele>
        <time>2012-01-21T14:50:45Z</time>
      </trkpt>
      <trkpt lat="45.65452" lon="6.20491">
        <ele>1445.4794921875</ele>
        <time>2012-01-21T14:50:50Z</time>
      </trkpt>
      <trkpt lat="45.65451" lon="6.20493">
        <ele>1447.4020996094</ele>
        <time>2012-01-21T14:50:58Z</time>
      </trkpt>
      <trkpt lat="45.65451" lon="6.20494">
        <ele>1447.8828125</ele>
        <time>2012-01-21T14:51:03Z</time>
      </trkpt>
      <trkpt lat="45.6545" lon="6.20496">
        <ele>1446.9213867188</ele>
        <time>2012-01-21T14:51:10Z</time>
      </trkpt>
      <trkpt lat="45.65448" lon="6.20501">
        <ele>1444.9987792969</ele>
        <time>2012-01-21T14:51:15Z</time>
      </trkpt>
      <trkpt lat="45.65449" lon="6.205">
        <ele>1444.0375976562</ele>
        <time>2012-01-21T14:51:21Z</time>
      </trkpt>
      <trkpt lat="45.65449" lon="6.20501">
        <ele>1445.4794921875</ele>
        <time>2012-01-21T14:51:28Z</time>
      </trkpt>
      <trkpt lat="45.65449" lon="6.205">
        <ele>1445.4794921875</ele>
        <time>2012-01-21T14:51:32Z</time>
      </trkpt>
      <trkpt lat="45.65449" lon="6.205">
        <ele>1446.4409179688</ele>
        <time>2012-01-21T14:51:50Z</time>
      </trkpt>
      <trkpt lat="45.65449" lon="6.20501">
        <ele>1447.4020996094</ele>
        <time>2012-01-21T14:51:53Z</time>
      </trkpt>
      <trkpt lat="45.65448" lon="6.20501">
        <ele>1446.9213867188</ele>
        <time>2012-01-21T14:52:07Z</time>
      </trkpt>
      <trkpt lat="45.65448" lon="6.20501">
        <ele>1446.9213867188</ele>
        <time>2012-01-21T14:52:08Z</time>
      </trkpt>
      <trkpt lat="45.65449" lon="6.20499">
        <ele>1444.5180664062</ele>
        <time>2012-01-21T14:52:17Z</time>
      </trkpt>
      <trkpt lat="45.65449" lon="6.20499">
        <ele>1444.5180664062</ele>
        <time>2012-01-21T14:52:22Z</time>
      </trkpt>
      <trkpt lat="45.65449" lon="6.20499">
        <ele>1444.5180664062</ele>
        <time>2012-01-21T14:52:27Z</time>
      </trkpt>
      <trkpt lat="45.65449" lon="6.20499">
        <ele>1444.9987792969</ele>
        <time>2012-01-21T14:52:35Z</time>
      </trkpt>
      <trkpt lat="45.65448" lon="6.20499">
        <ele>1445.4794921875</ele>
        <time>2012-01-21T14:52:41Z</time>
      </trkpt>
      <trkpt lat="45.65447" lon="6.205">
        <ele>1444.9987792969</ele>
        <time>2012-01-21T14:52:47Z</time>
      </trkpt>
      <trkpt lat="45.65445" lon="6.20501">
        <ele>1444.9987792969</ele>
        <time>2012-01-21T14:52:52Z</time>
      </trkpt>
      <trkpt lat="45.65445" lon="6.20501">
        <ele>1444.5180664062</ele>
        <time>2012-01-21T14:52:59Z</time>
      </trkpt>
      <trkpt lat="45.65445" lon="6.205">
        <ele>1443.5568847656</ele>
        <time>2012-01-21T14:53:05Z</time>
      </trkpt>
      <trkpt lat="45.65445" lon="6.205">
        <ele>1443.5568847656</ele>
        <time>2012-01-21T14:53:10Z</time>
      </trkpt>
      <trkpt lat="45.65445" lon="6.205">
        <ele>1443.076171875</ele>
        <time>2012-01-21T14:53:17Z</time>
      </trkpt>
      <trkpt lat="45.65446" lon="6.205">
        <ele>1443.076171875</ele>
        <time>2012-01-21T14:53:24Z</time>
      </trkpt>
      <trkpt lat="45.65444" lon="6.20499">
        <ele>1443.076171875</ele>
        <time>2012-01-21T14:53:29Z</time>
      </trkpt>
      <trkpt lat="45.6544" lon="6.20497">
        <ele>1442.595703125</ele>
        <time>2012-01-21T14:53:34Z</time>
      </trkpt>
      <trkpt lat="45.65435" lon="6.20495">
        <ele>1442.1149902344</ele>
        <time>2012-01-21T14:53:41Z</time>
      </trkpt>
      <trkpt lat="45.65432" lon="6.20494">
        <ele>1441.6342773438</ele>
        <time>2012-01-21T14:53:45Z</time>
      </trkpt>
      <trkpt lat="45.65428" lon="6.20492">
        <ele>1441.1535644531</ele>
        <time>2012-01-21T14:53:48Z</time>
      </trkpt>
      <trkpt lat="45.65419" lon="6.20491">
        <ele>1439.7116699219</ele>
        <time>2012-01-21T14:53:54Z</time>
      </trkpt>
      <trkpt lat="45.65414" lon="6.2049">
        <ele>1439.2309570312</ele>
        <time>2012-01-21T14:53:58Z</time>
      </trkpt>
      <trkpt lat="45.65412" lon="6.20489">
        <ele>1438.7504882812</ele>
        <time>2012-01-21T14:54:01Z</time>
      </trkpt>
      <trkpt lat="45.65403" lon="6.20488">
        <ele>1437.3083496094</ele>
        <time>2012-01-21T14:54:10Z</time>
      </trkpt>
      <trkpt lat="45.65394" lon="6.20487">
        <ele>1435.3854980469</ele>
        <time>2012-01-21T14:54:17Z</time>
      </trkpt>
      <trkpt lat="45.65385" lon="6.20485">
        <ele>1432.9821777344</ele>
        <time>2012-01-21T14:54:25Z</time>
      </trkpt>
      <trkpt lat="45.65377" lon="6.20484">
        <ele>1432.0209960938</ele>
        <time>2012-01-21T14:54:30Z</time>
      </trkpt>
      <trkpt lat="45.6537" lon="6.20484">
        <ele>1430.0983886719</ele>
        <time>2012-01-21T14:54:35Z</time>
      </trkpt>
      <trkpt lat="45.65364" lon="6.20486">
        <ele>1428.17578125</ele>
        <time>2012-01-21T14:54:41Z</time>
      </trkpt>
      <trkpt lat="45.65359" lon="6.20489">
        <ele>1427.6950683594</ele>
        <time>2012-01-21T14:54:46Z</time>
      </trkpt>
      <trkpt lat="45.65352" lon="6.20493">
        <ele>1425.7724609375</ele>
        <time>2012-01-21T14:54:51Z</time>
      </trkpt>
      <trkpt lat="45.65345" lon="6.20503">
        <ele>1423.8498535156</ele>
        <time>2012-01-21T14:54:58Z</time>
      </trkpt>
      <trkpt lat="45.65344" lon="6.20508">
        <ele>1423.8498535156</ele>
        <time>2012-01-21T14:55:03Z</time>
      </trkpt>
      <trkpt lat="45.65343" lon="6.20515">
        <ele>1424.3305664062</ele>
        <time>2012-01-21T14:55:10Z</time>
      </trkpt>
      <trkpt lat="45.65343" lon="6.20517">
        <ele>1424.3305664062</ele>
        <time>2012-01-21T14:55:15Z</time>
      </trkpt>
      <trkpt lat="45.65344" lon="6.2052">
        <ele>1423.8498535156</ele>
        <time>2012-01-21T14:55:22Z</time>
      </trkpt>
      <trkpt lat="45.65345" lon="6.20525">
        <ele>1422.888671875</ele>
        <time>2012-01-21T14:55:29Z</time>
      </trkpt>
      <trkpt lat="45.65348" lon="6.20529">
        <ele>1421.9272460938</ele>
        <time>2012-01-21T14:55:36Z</time>
      </trkpt>
      <trkpt lat="45.6535" lon="6.20532">
        <ele>1421.4465332031</ele>
        <time>2012-01-21T14:55:43Z</time>
      </trkpt>
      <trkpt lat="45.6535" lon="6.20533">
        <ele>1421.4465332031</ele>
        <time>2012-01-21T14:55:49Z</time>
      </trkpt>
      <trkpt lat="45.65351" lon="6.20534">
        <ele>1420.4853515625</ele>
        <time>2012-01-21T14:55:55Z</time>
      </trkpt>
      <trkpt lat="45.65352" lon="6.20536">
        <ele>1420.9660644531</ele>
        <time>2012-01-21T14:56:00Z</time>
      </trkpt>
      <trkpt lat="45.65353" lon="6.20538">
        <ele>1421.4465332031</ele>
        <time>2012-01-21T14:56:07Z</time>
      </trkpt>
      <trkpt lat="45.65353" lon="6.20539">
        <ele>1421.9272460938</ele>
        <time>2012-01-21T14:56:12Z</time>
      </trkpt>
      <trkpt lat="45.65353" lon="6.20539">
        <ele>1422.4079589844</ele>
        <time>2012-01-21T14:56:20Z</time>
      </trkpt>
      <trkpt lat="45.65353" lon="6.20539">
        <ele>1422.4079589844</ele>
        <time>2012-01-21T14:56:27Z</time>
      </trkpt>
      <trkpt lat="45.65353" lon="6.20539">
        <ele>1422.4079589844</ele>
        <time>2012-01-21T14:56:41Z</time>
      </trkpt>
      <trkpt lat="45.65353" lon="6.20539">
        <ele>1422.4079589844</ele>
        <time>2012-01-21T14:56:50Z</time>
      </trkpt>
      <trkpt lat="45.65353" lon="6.20539">
        <ele>1422.4079589844</ele>
        <time>2012-01-21T14:56:59Z</time>
      </trkpt>
      <trkpt lat="45.65353" lon="6.2054">
        <ele>1422.888671875</ele>
        <time>2012-01-21T14:57:07Z</time>
      </trkpt>
      <trkpt lat="45.65353" lon="6.2054">
        <ele>1422.888671875</ele>
        <time>2012-01-21T14:57:16Z</time>
      </trkpt>
      <trkpt lat="45.65352" lon="6.2054">
        <ele>1422.888671875</ele>
        <time>2012-01-21T14:57:24Z</time>
      </trkpt>
      <trkpt lat="45.65352" lon="6.2054">
        <ele>1422.888671875</ele>
        <time>2012-01-21T14:57:29Z</time>
      </trkpt>
      <trkpt lat="45.65352" lon="6.2054">
        <ele>1422.888671875</ele>
        <time>2012-01-21T14:57:35Z</time>
      </trkpt>
      <trkpt lat="45.65352" lon="6.2054">
        <ele>1422.888671875</ele>
        <time>2012-01-21T14:57:43Z</time>
      </trkpt>
      <trkpt lat="45.65352" lon="6.2054">
        <ele>1422.888671875</ele>
        <time>2012-01-21T14:57:49Z</time>
      </trkpt>
      <trkpt lat="45.65353" lon="6.2054">
        <ele>1422.888671875</ele>
        <time>2012-01-21T14:57:58Z</time>
      </trkpt>
      <trkpt lat="45.65352" lon="6.2054">
        <ele>1422.888671875</ele>
        <time>2012-01-21T14:58:04Z</time>
      </trkpt>
      <trkpt lat="45.65352" lon="6.20541">
        <ele>1423.3693847656</ele>
        <time>2012-01-21T14:58:16Z</time>
      </trkpt>
      <trkpt lat="45.65352" lon="6.20541">
        <ele>1423.8498535156</ele>
        <time>2012-01-21T14:58:26Z</time>
      </trkpt>
      <trkpt lat="45.65353" lon="6.20541">
        <ele>1423.3693847656</ele>
        <time>2012-01-21T14:58:40Z</time>
      </trkpt>
      <trkpt lat="45.65352" lon="6.20541">
        <ele>1423.8498535156</ele>
        <time>2012-01-21T14:58:44Z</time>
      </trkpt>
      <trkpt lat="45.65351" lon="6.2054">
        <ele>1424.8112792969</ele>
        <time>2012-01-21T14:58:59Z</time>
      </trkpt>
      <trkpt lat="45.65351" lon="6.2054">
        <ele>1424.3305664062</ele>
        <time>2012-01-21T14:59:07Z</time>
      </trkpt>
      <trkpt lat="45.65353" lon="6.20543">
        <ele>1424.8112792969</ele>
        <time>2012-01-21T14:59:15Z</time>
      </trkpt>
      <trkpt lat="45.65356" lon="6.20547">
        <ele>1424.3305664062</ele>
        <time>2012-01-21T14:59:21Z</time>
      </trkpt>
      <trkpt lat="45.65361" lon="6.20552">
        <ele>1423.8498535156</ele>
        <time>2012-01-21T14:59:29Z</time>
      </trkpt>
      <trkpt lat="45.65367" lon="6.20557">
        <ele>1422.888671875</ele>
        <time>2012-01-21T14:59:37Z</time>
      </trkpt>
      <trkpt lat="45.65374" lon="6.20563">
        <ele>1421.4465332031</ele>
        <time>2012-01-21T14:59:47Z</time>
      </trkpt>
      <trkpt lat="45.65378" lon="6.20567">
        <ele>1421.4465332031</ele>
        <time>2012-01-21T14:59:52Z</time>
      </trkpt>
      <trkpt lat="45.6538" lon="6.2057">
        <ele>1421.4465332031</ele>
        <time>2012-01-21T14:59:55Z</time>
      </trkpt>
      <trkpt lat="45.65384" lon="6.2057">
        <ele>1426.7338867188</ele>
        <time>2012-01-21T15:00:02Z</time>
      </trkpt>
      <trkpt lat="45.65387" lon="6.20575">
        <ele>1427.2145996094</ele>
        <time>2012-01-21T15:00:08Z</time>
      </trkpt>
      <trkpt lat="45.65389" lon="6.20583">
        <ele>1425.7724609375</ele>
        <time>2012-01-21T15:00:15Z</time>
      </trkpt>
      <trkpt lat="45.65393" lon="6.20589">
        <ele>1425.2917480469</ele>
        <time>2012-01-21T15:00:21Z</time>
      </trkpt>
      <trkpt lat="45.65398" lon="6.20597">
        <ele>1422.4079589844</ele>
        <time>2012-01-21T15:00:29Z</time>
      </trkpt>
      <trkpt lat="45.65401" lon="6.20602">
        <ele>1420.9660644531</ele>
        <time>2012-01-21T15:00:34Z</time>
      </trkpt>
      <trkpt lat="45.65406" lon="6.20609">
        <ele>1419.0432128906</ele>
        <time>2012-01-21T15:00:41Z</time>
      </trkpt>
      <trkpt lat="45.6541" lon="6.20615">
        <ele>1418.5625</ele>
        <time>2012-01-21T15:00:46Z</time>
      </trkpt>
      <trkpt lat="45.65416" lon="6.20621">
        <ele>1416.6398925781</ele>
        <time>2012-01-21T15:00:53Z</time>
      </trkpt>
      <trkpt lat="45.65421" lon="6.20629">
        <ele>1414.7172851562</ele>
        <time>2012-01-21T15:01:00Z</time>
      </trkpt>
      <trkpt lat="45.65422" lon="6.20631">
        <ele>1414.7172851562</ele>
        <time>2012-01-21T15:01:02Z</time>
      </trkpt>
      <trkpt lat="45.65419" lon="6.20636">
        <ele>1413.755859375</ele>
        <time>2012-01-21T15:01:07Z</time>
      </trkpt>
      <trkpt lat="45.65412" lon="6.20635">
        <ele>1411.8334960938</ele>
        <time>2012-01-21T15:01:13Z</time>
      </trkpt>
      <trkpt lat="45.65405" lon="6.20631">
        <ele>1410.3913574219</ele>
        <time>2012-01-21T15:01:20Z</time>
      </trkpt>
      <trkpt lat="45.65397" lon="6.20627">
        <ele>1408.9494628906</ele>
        <time>2012-01-21T15:01:27Z</time>
      </trkpt>
      <trkpt lat="45.65392" lon="6.2063">
        <ele>1407.5075683594</ele>
        <time>2012-01-21T15:01:33Z</time>
      </trkpt>
      <trkpt lat="45.65387" lon="6.20633">
        <ele>1406.5461425781</ele>
        <time>2012-01-21T15:01:39Z</time>
      </trkpt>
      <trkpt lat="45.65379" lon="6.20636">
        <ele>1408.9494628906</ele>
        <time>2012-01-21T15:01:46Z</time>
      </trkpt>
      <trkpt lat="45.65379" lon="6.20636">
        <ele>1408.46875</ele>
        <time>2012-01-21T15:01:47Z</time>
      </trkpt>
      <trkpt lat="45.65371" lon="6.20635">
        <ele>1407.98828125</ele>
        <time>2012-01-21T15:01:54Z</time>
      </trkpt>
      <trkpt lat="45.65365" lon="6.20632">
        <ele>1405.1042480469</ele>
        <time>2012-01-21T15:02:00Z</time>
      </trkpt>
      <trkpt lat="45.65359" lon="6.20633">
        <ele>1407.5075683594</ele>
        <time>2012-01-21T15:02:04Z</time>
      </trkpt>
      <trkpt lat="45.65351" lon="6.20633">
        <ele>1408.9494628906</ele>
        <time>2012-01-21T15:02:11Z</time>
      </trkpt>
      <trkpt lat="45.6535" lon="6.20633">
        <ele>1408.46875</ele>
        <time>2012-01-21T15:02:13Z</time>
      </trkpt>
      <trkpt lat="45.65348" lon="6.20632">
        <ele>1407.5075683594</ele>
        <time>2012-01-21T15:02:15Z</time>
      </trkpt>
      <trkpt lat="45.65342" lon="6.20631">
        <ele>1407.0268554688</ele>
        <time>2012-01-21T15:02:22Z</time>
      </trkpt>
      <trkpt lat="45.65335" lon="6.20629">
        <ele>1404.1430664062</ele>
        <time>2012-01-21T15:02:30Z</time>
      </trkpt>
      <trkpt lat="45.6533" lon="6.20626">
        <ele>1402.2199707031</ele>
        <time>2012-01-21T15:02:36Z</time>
      </trkpt>
      <trkpt lat="45.65325" lon="6.20624">
        <ele>1401.7395019531</ele>
        <time>2012-01-21T15:02:42Z</time>
      </trkpt>
      <trkpt lat="45.65317" lon="6.20621">
        <ele>1403.1813964844</ele>
        <time>2012-01-21T15:02:49Z</time>
      </trkpt>
      <trkpt lat="45.65309" lon="6.2062">
        <ele>1407.98828125</ele>
        <time>2012-01-21T15:02:57Z</time>
      </trkpt>
      <trkpt lat="45.65305" lon="6.20613">
        <ele>1404.6235351562</ele>
        <time>2012-01-21T15:03:04Z</time>
      </trkpt>
      <trkpt lat="45.65302" lon="6.20606">
        <ele>1399.8168945312</ele>
        <time>2012-01-21T15:03:11Z</time>
      </trkpt>
      <trkpt lat="45.65295" lon="6.206">
        <ele>1396.4523925781</ele>
        <time>2012-01-21T15:03:19Z</time>
      </trkpt>
      <trkpt lat="45.65291" lon="6.20598">
        <ele>1395.9716796875</ele>
        <time>2012-01-21T15:03:25Z</time>
      </trkpt>
      <trkpt lat="45.65287" lon="6.20595">
        <ele>1394.0490722656</ele>
        <time>2012-01-21T15:03:31Z</time>
      </trkpt>
      <trkpt lat="45.6528" lon="6.20592">
        <ele>1393.568359375</ele>
        <time>2012-01-21T15:03:39Z</time>
      </trkpt>
      <trkpt lat="45.65273" lon="6.20588">
        <ele>1392.1264648438</ele>
        <time>2012-01-21T15:03:47Z</time>
      </trkpt>
      <trkpt lat="45.65267" lon="6.20583">
        <ele>1390.6843261719</ele>
        <time>2012-01-21T15:03:54Z</time>
      </trkpt>
      <trkpt lat="45.65262" lon="6.20579">
        <ele>1390.2038574219</ele>
        <time>2012-01-21T15:04:00Z</time>
      </trkpt>
      <trkpt lat="45.65257" lon="6.20576">
        <ele>1389.7231445312</ele>
        <time>2012-01-21T15:04:06Z</time>
      </trkpt>
      <trkpt lat="45.65253" lon="6.20573">
        <ele>1388.7619628906</ele>
        <time>2012-01-21T15:04:11Z</time>
      </trkpt>
      <trkpt lat="45.65248" lon="6.20571">
        <ele>1387.8002929688</ele>
        <time>2012-01-21T15:04:17Z</time>
      </trkpt>
      <trkpt lat="45.65244" lon="6.20574">
        <ele>1387.3195800781</ele>
        <time>2012-01-21T15:04:23Z</time>
      </trkpt>
      <trkpt lat="45.65243" lon="6.20575">
        <ele>1387.3195800781</ele>
        <time>2012-01-21T15:04:31Z</time>
      </trkpt>
      <trkpt lat="45.65242" lon="6.20576">
        <ele>1387.3195800781</ele>
        <time>2012-01-21T15:04:37Z</time>
      </trkpt>
      <trkpt lat="45.65241" lon="6.20575">
        <ele>1385.8776855469</ele>
        <time>2012-01-21T15:04:49Z</time>
      </trkpt>
      <trkpt lat="45.6524" lon="6.20575">
        <ele>1384.9165039062</ele>
        <time>2012-01-21T15:04:56Z</time>
      </trkpt>
      <trkpt lat="45.6524" lon="6.20576">
        <ele>1386.3583984375</ele>
        <time>2012-01-21T15:05:02Z</time>
      </trkpt>
      <trkpt lat="45.65239" lon="6.20575">
        <ele>1386.8388671875</ele>
        <time>2012-01-21T15:05:09Z</time>
      </trkpt>
      <trkpt lat="45.6524" lon="6.20575">
        <ele>1385.8776855469</ele>
        <time>2012-01-21T15:05:22Z</time>
      </trkpt>
      <trkpt lat="45.6524" lon="6.20576">
        <ele>1386.3583984375</ele>
        <time>2012-01-21T15:05:25Z</time>
      </trkpt>
      <trkpt lat="45.65239" lon="6.20576">
        <ele>1385.8776855469</ele>
        <time>2012-01-21T15:05:26Z</time>
      </trkpt>
      <trkpt lat="45.65227" lon="6.20585">
        <ele>1382.0324707031</ele>
        <time>2012-01-21T15:05:31Z</time>
      </trkpt>
      <trkpt lat="45.65225" lon="6.20583">
        <ele>1379.6291503906</ele>
        <time>2012-01-21T15:05:34Z</time>
      </trkpt>
      <trkpt lat="45.65224" lon="6.20579">
        <ele>1376.2646484375</ele>
        <time>2012-01-21T15:05:39Z</time>
      </trkpt>
      <trkpt lat="45.65224" lon="6.20581">
        <ele>1377.2260742188</ele>
        <time>2012-01-21T15:06:05Z</time>
      </trkpt>
      <trkpt lat="45.65223" lon="6.2058">
        <ele>1375.3032226562</ele>
        <time>2012-01-21T15:06:11Z</time>
      </trkpt>
      <trkpt lat="45.65222" lon="6.2058">
        <ele>1373.861328125</ele>
        <time>2012-01-21T15:06:19Z</time>
      </trkpt>
      <trkpt lat="45.65219" lon="6.20581">
        <ele>1372.9001464844</ele>
        <time>2012-01-21T15:06:24Z</time>
      </trkpt>
      <trkpt lat="45.65218" lon="6.20582">
        <ele>1370.9772949219</ele>
        <time>2012-01-21T15:06:28Z</time>
      </trkpt>
      <trkpt lat="45.65217" lon="6.20582">
        <ele>1369.5354003906</ele>
        <time>2012-01-21T15:06:34Z</time>
      </trkpt>
      <trkpt lat="45.65217" lon="6.20582">
        <ele>1368.5739746094</ele>
        <time>2012-01-21T15:06:45Z</time>
      </trkpt>
      <trkpt lat="45.65217" lon="6.20582">
        <ele>1368.0932617188</ele>
        <time>2012-01-21T15:07:10Z</time>
      </trkpt>
      <trkpt lat="45.65218" lon="6.20582">
        <ele>1367.1320800781</ele>
        <time>2012-01-21T15:07:19Z</time>
      </trkpt>
      <trkpt lat="45.65218" lon="6.20583">
        <ele>1367.6125488281</ele>
        <time>2012-01-21T15:07:28Z</time>
      </trkpt>
      <trkpt lat="45.65218" lon="6.20583">
        <ele>1365.6901855469</ele>
        <time>2012-01-21T15:07:41Z</time>
      </trkpt>
      <trkpt lat="45.65218" lon="6.20583">
        <ele>1367.6125488281</ele>
        <time>2012-01-21T15:07:46Z</time>
      </trkpt>
      <trkpt lat="45.65217" lon="6.20583">
        <ele>1368.5739746094</ele>
        <time>2012-01-21T15:07:53Z</time>
      </trkpt>
      <trkpt lat="45.65217" lon="6.20583">
        <ele>1368.0932617188</ele>
        <time>2012-01-21T15:08:06Z</time>
      </trkpt>
      <trkpt lat="45.65218" lon="6.20583">
        <ele>1366.1706542969</ele>
        <time>2012-01-21T15:08:14Z</time>
      </trkpt>
      <trkpt lat="45.65216" lon="6.20584">
        <ele>1367.1320800781</ele>
        <time>2012-01-21T15:08:21Z</time>
      </trkpt>
      <trkpt lat="45.65213" lon="6.20584">
        <ele>1366.1706542969</ele>
        <time>2012-01-21T15:08:27Z</time>
      </trkpt>
      <trkpt lat="45.6521" lon="6.20584">
        <ele>1364.7287597656</ele>
        <time>2012-01-21T15:08:32Z</time>
      </trkpt>
      <trkpt lat="45.65207" lon="6.20584">
        <ele>1364.248046875</ele>
        <time>2012-01-21T15:08:37Z</time>
      </trkpt>
      <trkpt lat="45.65203" lon="6.20583">
        <ele>1365.2094726562</ele>
        <time>2012-01-21T15:08:43Z</time>
      </trkpt>
      <trkpt lat="45.65197" lon="6.20578">
        <ele>1365.2094726562</ele>
        <time>2012-01-21T15:08:50Z</time>
      </trkpt>
      <trkpt lat="45.65191" lon="6.20572">
        <ele>1364.7287597656</ele>
        <time>2012-01-21T15:08:57Z</time>
      </trkpt>
      <trkpt lat="45.65189" lon="6.20568">
        <ele>1364.248046875</ele>
        <time>2012-01-21T15:09:03Z</time>
      </trkpt>
      <trkpt lat="45.65187" lon="6.20567">
        <ele>1364.7287597656</ele>
        <time>2012-01-21T15:09:16Z</time>
      </trkpt>
      <trkpt lat="45.65183" lon="6.20563">
        <ele>1363.7673339844</ele>
        <time>2012-01-21T15:09:22Z</time>
      </trkpt>
      <trkpt lat="45.65177" lon="6.2056">
        <ele>1362.3254394531</ele>
        <time>2012-01-21T15:09:29Z</time>
      </trkpt>
      <trkpt lat="45.6517" lon="6.20558">
        <ele>1359.4416503906</ele>
        <time>2012-01-21T15:09:37Z</time>
      </trkpt>
      <trkpt lat="45.65164" lon="6.20557">
        <ele>1357.5190429688</ele>
        <time>2012-01-21T15:09:42Z</time>
      </trkpt>
      <trkpt lat="45.65157" lon="6.20556">
        <ele>1355.1154785156</ele>
        <time>2012-01-21T15:09:49Z</time>
      </trkpt>
      <trkpt lat="45.65153" lon="6.20554">
        <ele>1354.154296875</ele>
        <time>2012-01-21T15:09:53Z</time>
      </trkpt>
      <trkpt lat="45.65147" lon="6.20554">
        <ele>1351.7509765625</ele>
        <time>2012-01-21T15:09:59Z</time>
      </trkpt>
      <trkpt lat="45.65139" lon="6.20555">
        <ele>1349.34765625</ele>
        <time>2012-01-21T15:10:06Z</time>
      </trkpt>
      <trkpt lat="45.65135" lon="6.20555">
        <ele>1348.3862304688</ele>
        <time>2012-01-21T15:10:10Z</time>
      </trkpt>
      <trkpt lat="45.65132" lon="6.20555">
        <ele>1347.9057617188</ele>
        <time>2012-01-21T15:10:13Z</time>
      </trkpt>
      <trkpt lat="45.6513" lon="6.20552">
        <ele>1347.9057617188</ele>
        <time>2012-01-21T15:10:18Z</time>
      </trkpt>
      <trkpt lat="45.65129" lon="6.2055">
        <ele>1348.8669433594</ele>
        <time>2012-01-21T15:10:24Z</time>
      </trkpt>
      <trkpt lat="45.65129" lon="6.20548">
        <ele>1348.8669433594</ele>
        <time>2012-01-21T15:10:29Z</time>
      </trkpt>
      <trkpt lat="45.65129" lon="6.20548">
        <ele>1348.8669433594</ele>
        <time>2012-01-21T15:10:36Z</time>
      </trkpt>
      <trkpt lat="45.65129" lon="6.20548">
        <ele>1348.8669433594</ele>
        <time>2012-01-21T15:10:48Z</time>
      </trkpt>
      <trkpt lat="45.65129" lon="6.20548">
        <ele>1348.8669433594</ele>
        <time>2012-01-21T15:10:55Z</time>
      </trkpt>
      <trkpt lat="45.65129" lon="6.20547">
        <ele>1348.8669433594</ele>
        <time>2012-01-21T15:11:00Z</time>
      </trkpt>
      <trkpt lat="45.65131" lon="6.20548">
        <ele>1347.9057617188</ele>
        <time>2012-01-21T15:11:11Z</time>
      </trkpt>
      <trkpt lat="45.65131" lon="6.20548">
        <ele>1348.3862304688</ele>
        <time>2012-01-21T15:11:17Z</time>
      </trkpt>
      <trkpt lat="45.65129" lon="6.20549">
        <ele>1347.9057617188</ele>
        <time>2012-01-21T15:11:21Z</time>
      </trkpt>
      <trkpt lat="45.65128" lon="6.20551">
        <ele>1347.9057617188</ele>
        <time>2012-01-21T15:11:27Z</time>
      </trkpt>
      <trkpt lat="45.65126" lon="6.20553">
        <ele>1346.9443359375</ele>
        <time>2012-01-21T15:11:32Z</time>
      </trkpt>
      <trkpt lat="45.65126" lon="6.20553">
        <ele>1345.9831542969</ele>
        <time>2012-01-21T15:11:37Z</time>
      </trkpt>
      <trkpt lat="45.65123" lon="6.20552">
        <ele>1345.9831542969</ele>
        <time>2012-01-21T15:11:43Z</time>
      </trkpt>
      <trkpt lat="45.65122" lon="6.20551">
        <ele>1345.5024414062</ele>
        <time>2012-01-21T15:11:49Z</time>
      </trkpt>
      <trkpt lat="45.65122" lon="6.20551">
        <ele>1345.0217285156</ele>
        <time>2012-01-21T15:11:55Z</time>
      </trkpt>
      <trkpt lat="45.6512" lon="6.20551">
        <ele>1345.0217285156</ele>
        <time>2012-01-21T15:12:00Z</time>
      </trkpt>
      <trkpt lat="45.65113" lon="6.20549">
        <ele>1344.541015625</ele>
        <time>2012-01-21T15:12:07Z</time>
      </trkpt>
      <trkpt lat="45.65108" lon="6.20548">
        <ele>1343.5798339844</ele>
        <time>2012-01-21T15:12:13Z</time>
      </trkpt>
      <trkpt lat="45.65104" lon="6.20545">
        <ele>1342.1379394531</ele>
        <time>2012-01-21T15:12:20Z</time>
      </trkpt>
      <trkpt lat="45.65104" lon="6.20544">
        <ele>1342.1379394531</ele>
        <time>2012-01-21T15:12:27Z</time>
      </trkpt>
      <trkpt lat="45.65102" lon="6.20545">
        <ele>1342.6186523438</ele>
        <time>2012-01-21T15:12:42Z</time>
      </trkpt>
      <trkpt lat="45.65098" lon="6.20544">
        <ele>1342.1379394531</ele>
        <time>2012-01-21T15:12:48Z</time>
      </trkpt>
      <trkpt lat="45.65093" lon="6.20541">
        <ele>1341.6572265625</ele>
        <time>2012-01-21T15:12:54Z</time>
      </trkpt>
      <trkpt lat="45.65086" lon="6.20539">
        <ele>1338.7731933594</ele>
        <time>2012-01-21T15:13:02Z</time>
      </trkpt>
      <trkpt lat="45.65081" lon="6.20537">
        <ele>1338.2924804688</ele>
        <time>2012-01-21T15:13:07Z</time>
      </trkpt>
      <trkpt lat="45.65076" lon="6.20534">
        <ele>1336.8503417969</ele>
        <time>2012-01-21T15:13:13Z</time>
      </trkpt>
      <trkpt lat="45.65074" lon="6.20534">
        <ele>1336.3698730469</ele>
        <time>2012-01-21T15:13:18Z</time>
      </trkpt>
      <trkpt lat="45.65071" lon="6.20533">
        <ele>1335.4084472656</ele>
        <time>2012-01-21T15:13:24Z</time>
      </trkpt>
      <trkpt lat="45.65071" lon="6.20533">
        <ele>1333.9665527344</ele>
        <time>2012-01-21T15:13:29Z</time>
      </trkpt>
      <trkpt lat="45.65071" lon="6.20533">
        <ele>1333.9665527344</ele>
        <time>2012-01-21T15:13:32Z</time>
      </trkpt>
      <trkpt lat="45.65058" lon="6.20533">
        <ele>1331.5632324219</ele>
        <time>2012-01-21T15:13:36Z</time>
      </trkpt>
      <trkpt lat="45.65046" lon="6.20542">
        <ele>1328.6794433594</ele>
        <time>2012-01-21T15:13:40Z</time>
      </trkpt>
      <trkpt lat="45.65045" lon="6.2055">
        <ele>1326.7568359375</ele>
        <time>2012-01-21T15:13:42Z</time>
      </trkpt>
      <trkpt lat="45.65045" lon="6.20552">
        <ele>1326.2761230469</ele>
        <time>2012-01-21T15:13:45Z</time>
      </trkpt>
      <trkpt lat="45.65045" lon="6.20553">
        <ele>1326.2761230469</ele>
        <time>2012-01-21T15:13:52Z</time>
      </trkpt>
      <trkpt lat="45.65046" lon="6.20556">
        <ele>1325.7954101562</ele>
        <time>2012-01-21T15:13:56Z</time>
      </trkpt>
      <trkpt lat="45.65044" lon="6.20557">
        <ele>1325.7954101562</ele>
        <time>2012-01-21T15:14:01Z</time>
      </trkpt>
      <trkpt lat="45.65044" lon="6.20557">
        <ele>1325.7954101562</ele>
        <time>2012-01-21T15:14:07Z</time>
      </trkpt>
      <trkpt lat="45.65042" lon="6.20556">
        <ele>1326.2761230469</ele>
        <time>2012-01-21T15:14:12Z</time>
      </trkpt>
      <trkpt lat="45.65038" lon="6.20553">
        <ele>1327.2375488281</ele>
        <time>2012-01-21T15:14:18Z</time>
      </trkpt>
      <trkpt lat="45.65035" lon="6.20547">
        <ele>1328.1987304688</ele>
        <time>2012-01-21T15:14:25Z</time>
      </trkpt>
      <trkpt lat="45.65034" lon="6.20543">
        <ele>1329.640625</ele>
        <time>2012-01-21T15:14:31Z</time>
      </trkpt>
      <trkpt lat="45.65033" lon="6.20538">
        <ele>1327.7180175781</ele>
        <time>2012-01-21T15:14:39Z</time>
      </trkpt>
      <trkpt lat="45.65032" lon="6.20536">
        <ele>1327.7180175781</ele>
        <time>2012-01-21T15:14:45Z</time>
      </trkpt>
      <trkpt lat="45.65033" lon="6.20539">
        <ele>1328.1987304688</ele>
        <time>2012-01-21T15:14:50Z</time>
      </trkpt>
      <trkpt lat="45.65034" lon="6.20536">
        <ele>1325.7954101562</ele>
        <time>2012-01-21T15:15:00Z</time>
      </trkpt>
      <trkpt lat="45.65033" lon="6.20534">
        <ele>1328.6794433594</ele>
        <time>2012-01-21T15:15:09Z</time>
      </trkpt>
      <trkpt lat="45.65034" lon="6.20535">
        <ele>1327.7180175781</ele>
        <time>2012-01-21T15:15:16Z</time>
      </trkpt>
      <trkpt lat="45.65034" lon="6.20536">
        <ele>1327.2375488281</ele>
        <time>2012-01-21T15:15:23Z</time>
      </trkpt>
      <trkpt lat="45.65033" lon="6.20535">
        <ele>1327.7180175781</ele>
        <time>2012-01-21T15:15:24Z</time>
      </trkpt>
      <trkpt lat="45.65032" lon="6.20531">
        <ele>1326.2761230469</ele>
        <time>2012-01-21T15:15:26Z</time>
      </trkpt>
      <trkpt lat="45.65025" lon="6.20518">
        <ele>1323.3920898438</ele>
        <time>2012-01-21T15:15:33Z</time>
      </trkpt>
      <trkpt lat="45.65021" lon="6.20504">
        <ele>1320.02734375</ele>
        <time>2012-01-21T15:15:38Z</time>
      </trkpt>
      <trkpt lat="45.65017" lon="6.20496">
        <ele>1320.5080566406</ele>
        <time>2012-01-21T15:15:42Z</time>
      </trkpt>
      <trkpt lat="45.65012" lon="6.20482">
        <ele>1320.5080566406</ele>
        <time>2012-01-21T15:15:47Z</time>
      </trkpt>
      <trkpt lat="45.6501" lon="6.20471">
        <ele>1316.1821289062</ele>
        <time>2012-01-21T15:15:51Z</time>
      </trkpt>
      <trkpt lat="45.65014" lon="6.20471">
        <ele>1314.2595214844</ele>
        <time>2012-01-21T15:15:59Z</time>
      </trkpt>
      <trkpt lat="45.65012" lon="6.20472">
        <ele>1312.3369140625</ele>
        <time>2012-01-21T15:16:03Z</time>
      </trkpt>
      <trkpt lat="45.65013" lon="6.20472">
        <ele>1311.8564453125</ele>
        <time>2012-01-21T15:16:10Z</time>
      </trkpt>
      <trkpt lat="45.65012" lon="6.20474">
        <ele>1313.2983398438</ele>
        <time>2012-01-21T15:16:24Z</time>
      </trkpt>
      <trkpt lat="45.65011" lon="6.20472">
        <ele>1312.8176269531</ele>
        <time>2012-01-21T15:16:30Z</time>
      </trkpt>
      <trkpt lat="45.6501" lon="6.20471">
        <ele>1311.3757324219</ele>
        <time>2012-01-21T15:16:43Z</time>
      </trkpt>
      <trkpt lat="45.65011" lon="6.20471">
        <ele>1312.3369140625</ele>
        <time>2012-01-21T15:16:51Z</time>
      </trkpt>
      <trkpt lat="45.65009" lon="6.20459">
        <ele>1312.8176269531</ele>
        <time>2012-01-21T15:16:55Z</time>
      </trkpt>
      <trkpt lat="45.65008" lon="6.20455">
        <ele>1311.8564453125</ele>
        <time>2012-01-21T15:16:56Z</time>
      </trkpt>
      <trkpt lat="45.65004" lon="6.20457">
        <ele>1316.1821289062</ele>
        <time>2012-01-21T15:17:03Z</time>
      </trkpt>
      <trkpt lat="45.65002" lon="6.2045">
        <ele>1320.5080566406</ele>
        <time>2012-01-21T15:17:10Z</time>
      </trkpt>
      <trkpt lat="45.64999" lon="6.20443">
        <ele>1318.1047363281</ele>
        <time>2012-01-21T15:17:12Z</time>
      </trkpt>
      <trkpt lat="45.64995" lon="6.20424">
        <ele>1310.8950195312</ele>
        <time>2012-01-21T15:17:17Z</time>
      </trkpt>
      <trkpt lat="45.64995" lon="6.20417">
        <ele>1307.5302734375</ele>
        <time>2012-01-21T15:17:19Z</time>
      </trkpt>
      <trkpt lat="45.65001" lon="6.20402">
        <ele>1301.7624511719</ele>
        <time>2012-01-21T15:17:24Z</time>
      </trkpt>
      <trkpt lat="45.65005" lon="6.204">
        <ele>1303.6850585938</ele>
        <time>2012-01-21T15:17:31Z</time>
      </trkpt>
      <trkpt lat="45.65009" lon="6.20391">
        <ele>1306.0881347656</ele>
        <time>2012-01-21T15:17:35Z</time>
      </trkpt>
      <trkpt lat="45.6501" lon="6.20384">
        <ele>1304.1657714844</ele>
        <time>2012-01-21T15:17:37Z</time>
      </trkpt>
      <trkpt lat="45.65" lon="6.20369">
        <ele>1296.4753417969</ele>
        <time>2012-01-21T15:17:42Z</time>
      </trkpt>
      <trkpt lat="45.64994" lon="6.20354">
        <ele>1288.7846679688</ele>
        <time>2012-01-21T15:17:46Z</time>
      </trkpt>
      <trkpt lat="45.64996" lon="6.20346">
        <ele>1286.8618164062</ele>
        <time>2012-01-21T15:17:49Z</time>
      </trkpt>
      <trkpt lat="45.64996" lon="6.2035">
        <ele>1280.6135253906</ele>
        <time>2012-01-21T15:17:56Z</time>
      </trkpt>
      <trkpt lat="45.64999" lon="6.20349">
        <ele>1283.4973144531</ele>
        <time>2012-01-21T15:18:05Z</time>
      </trkpt>
      <trkpt lat="45.65" lon="6.20344">
        <ele>1283.9780273438</ele>
        <time>2012-01-21T15:18:22Z</time>
      </trkpt>
      <trkpt lat="45.65001" lon="6.20333">
        <ele>1282.0554199219</ele>
        <time>2012-01-21T15:18:26Z</time>
      </trkpt>
      <trkpt lat="45.65004" lon="6.20323">
        <ele>1280.6135253906</ele>
        <time>2012-01-21T15:18:33Z</time>
      </trkpt>
      <trkpt lat="45.65007" lon="6.20312">
        <ele>1279.6520996094</ele>
        <time>2012-01-21T15:18:38Z</time>
      </trkpt>
      <trkpt lat="45.65008" lon="6.20297">
        <ele>1277.7294921875</ele>
        <time>2012-01-21T15:18:43Z</time>
      </trkpt>
      <trkpt lat="45.65011" lon="6.20281">
        <ele>1275.806640625</ele>
        <time>2012-01-21T15:18:49Z</time>
      </trkpt>
      <trkpt lat="45.65013" lon="6.20274">
        <ele>1275.3259277344</ele>
        <time>2012-01-21T15:18:53Z</time>
      </trkpt>
      <trkpt lat="45.65014" lon="6.20273">
        <ele>1276.2875976562</ele>
        <time>2012-01-21T15:19:02Z</time>
      </trkpt>
      <trkpt lat="45.65014" lon="6.20272">
        <ele>1276.7683105469</ele>
        <time>2012-01-21T15:19:13Z</time>
      </trkpt>
      <trkpt lat="45.65016" lon="6.20272">
        <ele>1278.2102050781</ele>
        <time>2012-01-21T15:19:21Z</time>
      </trkpt>
      <trkpt lat="45.65017" lon="6.20272">
        <ele>1277.2490234375</ele>
        <time>2012-01-21T15:19:29Z</time>
      </trkpt>
      <trkpt lat="45.65017" lon="6.20267">
        <ele>1276.7683105469</ele>
        <time>2012-01-21T15:19:35Z</time>
      </trkpt>
      <trkpt lat="45.65017" lon="6.20262">
        <ele>1276.2875976562</ele>
        <time>2012-01-21T15:19:40Z</time>
      </trkpt>
      <trkpt lat="45.65018" lon="6.20258">
        <ele>1275.806640625</ele>
        <time>2012-01-21T15:19:45Z</time>
      </trkpt>
      <trkpt lat="45.65018" lon="6.20255">
        <ele>1275.3259277344</ele>
        <time>2012-01-21T15:19:51Z</time>
      </trkpt>
      <trkpt lat="45.65018" lon="6.20251">
        <ele>1274.8454589844</ele>
        <time>2012-01-21T15:19:56Z</time>
      </trkpt>
      <trkpt lat="45.65019" lon="6.20249">
        <ele>1274.3647460938</ele>
        <time>2012-01-21T15:20:02Z</time>
      </trkpt>
      <trkpt lat="45.65019" lon="6.20243">
        <ele>1273.4035644531</ele>
        <time>2012-01-21T15:20:08Z</time>
      </trkpt>
      <trkpt lat="45.65018" lon="6.20239">
        <ele>1272.9228515625</ele>
        <time>2012-01-21T15:20:14Z</time>
      </trkpt>
      <trkpt lat="45.65018" lon="6.20232">
        <ele>1272.4421386719</ele>
        <time>2012-01-21T15:20:20Z</time>
      </trkpt>
      <trkpt lat="45.65017" lon="6.2023">
        <ele>1272.9228515625</ele>
        <time>2012-01-21T15:20:25Z</time>
      </trkpt>
      <trkpt lat="45.65017" lon="6.20226">
        <ele>1272.9228515625</ele>
        <time>2012-01-21T15:20:30Z</time>
      </trkpt>
      <trkpt lat="45.65017" lon="6.20223">
        <ele>1271.9614257812</ele>
        <time>2012-01-21T15:20:34Z</time>
      </trkpt>
      <trkpt lat="45.65017" lon="6.20223">
        <ele>1272.4421386719</ele>
        <time>2012-01-21T15:20:39Z</time>
      </trkpt>
      <trkpt lat="45.65017" lon="6.20217">
        <ele>1270.51953125</ele>
        <time>2012-01-21T15:20:55Z</time>
      </trkpt>
      <trkpt lat="45.65016" lon="6.20213">
        <ele>1270.0388183594</ele>
        <time>2012-01-21T15:21:00Z</time>
      </trkpt>
      <trkpt lat="45.65017" lon="6.20209">
        <ele>1268.1162109375</ele>
        <time>2012-01-21T15:21:07Z</time>
      </trkpt>
      <trkpt lat="45.65018" lon="6.20203">
        <ele>1265.7131347656</ele>
        <time>2012-01-21T15:21:15Z</time>
      </trkpt>
      <trkpt lat="45.65017" lon="6.20196">
        <ele>1264.7517089844</ele>
        <time>2012-01-21T15:21:23Z</time>
      </trkpt>
      <trkpt lat="45.65017" lon="6.20191">
        <ele>1265.232421875</ele>
        <time>2012-01-21T15:21:29Z</time>
      </trkpt>
      <trkpt lat="45.65017" lon="6.20184">
        <ele>1264.7517089844</ele>
        <time>2012-01-21T15:21:35Z</time>
      </trkpt>
      <trkpt lat="45.65016" lon="6.20181">
        <ele>1264.7517089844</ele>
        <time>2012-01-21T15:21:41Z</time>
      </trkpt>
      <trkpt lat="45.65016" lon="6.20182">
        <ele>1264.2709960938</ele>
        <time>2012-01-21T15:21:46Z</time>
      </trkpt>
      <trkpt lat="45.65015" lon="6.20185">
        <ele>1262.3483886719</ele>
        <time>2012-01-21T15:22:09Z</time>
      </trkpt>
      <trkpt lat="45.65016" lon="6.20184">
        <ele>1263.7902832031</ele>
        <time>2012-01-21T15:22:26Z</time>
      </trkpt>
      <trkpt lat="45.65015" lon="6.20184">
        <ele>1264.7517089844</ele>
        <time>2012-01-21T15:22:36Z</time>
      </trkpt>
      <trkpt lat="45.65015" lon="6.20184">
        <ele>1264.7517089844</ele>
        <time>2012-01-21T15:22:38Z</time>
      </trkpt>
      <trkpt lat="45.65015" lon="6.20184">
        <ele>1264.2709960938</ele>
        <time>2012-01-21T15:22:39Z</time>
      </trkpt>
      <trkpt lat="45.65015" lon="6.20182">
        <ele>1265.232421875</ele>
        <time>2012-01-21T15:22:48Z</time>
      </trkpt>
      <trkpt lat="45.65015" lon="6.2018">
        <ele>1264.7517089844</ele>
        <time>2012-01-21T15:22:58Z</time>
      </trkpt>
      <trkpt lat="45.65014" lon="6.20176">
        <ele>1264.7517089844</ele>
        <time>2012-01-21T15:23:02Z</time>
      </trkpt>
      <trkpt lat="45.65013" lon="6.20175">
        <ele>1264.7517089844</ele>
        <time>2012-01-21T15:23:03Z</time>
      </trkpt>
      <trkpt lat="45.65008" lon="6.20157">
        <ele>1262.8291015625</ele>
        <time>2012-01-21T15:23:10Z</time>
      </trkpt>
      <trkpt lat="45.65007" lon="6.20153">
        <ele>1263.3098144531</ele>
        <time>2012-01-21T15:23:11Z</time>
      </trkpt>
      <trkpt lat="45.65003" lon="6.20131">
        <ele>1264.2709960938</ele>
        <time>2012-01-21T15:23:16Z</time>
      </trkpt>
      <trkpt lat="45.64996" lon="6.20113">
        <ele>1258.5029296875</ele>
        <time>2012-01-21T15:23:20Z</time>
      </trkpt>
      <trkpt lat="45.64989" lon="6.20101">
        <ele>1254.1772460938</ele>
        <time>2012-01-21T15:23:24Z</time>
      </trkpt>
      <trkpt lat="45.64988" lon="6.20099">
        <ele>1253.2158203125</ele>
        <time>2012-01-21T15:23:25Z</time>
      </trkpt>
      <trkpt lat="45.64985" lon="6.20096">
        <ele>1251.7739257812</ele>
        <time>2012-01-21T15:23:29Z</time>
      </trkpt>
      <trkpt lat="45.64984" lon="6.20093">
        <ele>1251.7739257812</ele>
        <time>2012-01-21T15:23:33Z</time>
      </trkpt>
      <trkpt lat="45.64983" lon="6.2009">
        <ele>1250.33203125</ele>
        <time>2012-01-21T15:23:39Z</time>
      </trkpt>
      <trkpt lat="45.64981" lon="6.20087">
        <ele>1248.8898925781</ele>
        <time>2012-01-21T15:23:44Z</time>
      </trkpt>
      <trkpt lat="45.64979" lon="6.20083">
        <ele>1248.8898925781</ele>
        <time>2012-01-21T15:23:49Z</time>
      </trkpt>
      <trkpt lat="45.64979" lon="6.20082">
        <ele>1247.9287109375</ele>
        <time>2012-01-21T15:23:56Z</time>
      </trkpt>
      <trkpt lat="45.64978" lon="6.2008">
        <ele>1248.4091796875</ele>
        <time>2012-01-21T15:24:01Z</time>
      </trkpt>
      <trkpt lat="45.64975" lon="6.20074">
        <ele>1248.4091796875</ele>
        <time>2012-01-21T15:24:07Z</time>
      </trkpt>
      <trkpt lat="45.64973" lon="6.2007">
        <ele>1248.8898925781</ele>
        <time>2012-01-21T15:24:12Z</time>
      </trkpt>
      <trkpt lat="45.64972" lon="6.20064">
        <ele>1247.9287109375</ele>
        <time>2012-01-21T15:24:18Z</time>
      </trkpt>
      <trkpt lat="45.6497" lon="6.20059">
        <ele>1247.4479980469</ele>
        <time>2012-01-21T15:24:23Z</time>
      </trkpt>
      <trkpt lat="45.64967" lon="6.20055">
        <ele>1246.9672851562</ele>
        <time>2012-01-21T15:24:29Z</time>
      </trkpt>
      <trkpt lat="45.64964" lon="6.2005">
        <ele>1246.4868164062</ele>
        <time>2012-01-21T15:24:36Z</time>
      </trkpt>
      <trkpt lat="45.6496" lon="6.20047">
        <ele>1246.0061035156</ele>
        <time>2012-01-21T15:24:39Z</time>
      </trkpt>
      <trkpt lat="45.64958" lon="6.20039">
        <ele>1246.0061035156</ele>
        <time>2012-01-21T15:24:45Z</time>
      </trkpt>
      <trkpt lat="45.64958" lon="6.20038">
        <ele>1246.0061035156</ele>
        <time>2012-01-21T15:24:46Z</time>
      </trkpt>
      <trkpt lat="45.64957" lon="6.20031">
        <ele>1246.0061035156</ele>
        <time>2012-01-21T15:24:52Z</time>
      </trkpt>
      <trkpt lat="45.64954" lon="6.20021">
        <ele>1245.0446777344</ele>
        <time>2012-01-21T15:24:59Z</time>
      </trkpt>
      <trkpt lat="45.64951" lon="6.20014">
        <ele>1244.5639648438</ele>
        <time>2012-01-21T15:25:04Z</time>
      </trkpt>
      <trkpt lat="45.6495" lon="6.2001">
        <ele>1243.1218261719</ele>
        <time>2012-01-21T15:25:08Z</time>
      </trkpt>
      <trkpt lat="45.64947" lon="6.20004">
        <ele>1240.7185058594</ele>
        <time>2012-01-21T15:25:15Z</time>
      </trkpt>
      <trkpt lat="45.64944" lon="6.19997">
        <ele>1237.3540039062</ele>
        <time>2012-01-21T15:25:21Z</time>
      </trkpt>
      <trkpt lat="45.64941" lon="6.1999">
        <ele>1237.8347167969</ele>
        <time>2012-01-21T15:25:26Z</time>
      </trkpt>
      <trkpt lat="45.64939" lon="6.19983">
        <ele>1236.8732910156</ele>
        <time>2012-01-21T15:25:31Z</time>
      </trkpt>
      <trkpt lat="45.64936" lon="6.19973">
        <ele>1235.912109375</ele>
        <time>2012-01-21T15:25:37Z</time>
      </trkpt>
      <trkpt lat="45.64935" lon="6.19967">
        <ele>1232.0668945312</ele>
        <time>2012-01-21T15:25:42Z</time>
      </trkpt>
      <trkpt lat="45.64932" lon="6.19959">
        <ele>1229.1828613281</ele>
        <time>2012-01-21T15:25:49Z</time>
      </trkpt>
      <trkpt lat="45.64926" lon="6.19952">
        <ele>1230.1442871094</ele>
        <time>2012-01-21T15:25:55Z</time>
      </trkpt>
      <trkpt lat="45.64922" lon="6.19944">
        <ele>1228.2216796875</ele>
        <time>2012-01-21T15:26:01Z</time>
      </trkpt>
      <trkpt lat="45.64919" lon="6.19936">
        <ele>1226.298828125</ele>
        <time>2012-01-21T15:26:07Z</time>
      </trkpt>
      <trkpt lat="45.64917" lon="6.19934">
        <ele>1226.7795410156</ele>
        <time>2012-01-21T15:26:09Z</time>
      </trkpt>
      <trkpt lat="45.64912" lon="6.19932">
        <ele>1229.1828613281</ele>
        <time>2012-01-21T15:26:13Z</time>
      </trkpt>
      <trkpt lat="45.6491" lon="6.19925">
        <ele>1229.1828613281</ele>
        <time>2012-01-21T15:26:19Z</time>
      </trkpt>
      <trkpt lat="45.64908" lon="6.19924">
        <ele>1229.6635742188</ele>
        <time>2012-01-21T15:26:21Z</time>
      </trkpt>
      <trkpt lat="45.64903" lon="6.19916">
        <ele>1232.5476074219</ele>
        <time>2012-01-21T15:26:29Z</time>
      </trkpt>
      <trkpt lat="45.64899" lon="6.19911">
        <ele>1233.0280761719</ele>
        <time>2012-01-21T15:26:35Z</time>
      </trkpt>
      <trkpt lat="45.64898" lon="6.1991">
        <ele>1233.5087890625</ele>
        <time>2012-01-21T15:26:36Z</time>
      </trkpt>
      <trkpt lat="45.64893" lon="6.19905">
        <ele>1234.4702148438</ele>
        <time>2012-01-21T15:26:44Z</time>
      </trkpt>
      <trkpt lat="45.64891" lon="6.199">
        <ele>1233.9895019531</ele>
        <time>2012-01-21T15:26:52Z</time>
      </trkpt>
      <trkpt lat="45.64888" lon="6.19896">
        <ele>1233.5087890625</ele>
        <time>2012-01-21T15:26:59Z</time>
      </trkpt>
      <trkpt lat="45.64885" lon="6.1989">
        <ele>1233.0280761719</ele>
        <time>2012-01-21T15:27:06Z</time>
      </trkpt>
      <trkpt lat="45.64883" lon="6.19886">
        <ele>1230.625</ele>
        <time>2012-01-21T15:27:12Z</time>
      </trkpt>
      <trkpt lat="45.64881" lon="6.19882">
        <ele>1229.6635742188</ele>
        <time>2012-01-21T15:27:19Z</time>
      </trkpt>
      <trkpt lat="45.64878" lon="6.19878">
        <ele>1232.0668945312</ele>
        <time>2012-01-21T15:27:25Z</time>
      </trkpt>
      <trkpt lat="45.64873" lon="6.19872">
        <ele>1233.9895019531</ele>
        <time>2012-01-21T15:27:30Z</time>
      </trkpt>
      <trkpt lat="45.64872" lon="6.19869">
        <ele>1232.5476074219</ele>
        <time>2012-01-21T15:27:35Z</time>
      </trkpt>
      <trkpt lat="45.6487" lon="6.19865">
        <ele>1231.5861816406</ele>
        <time>2012-01-21T15:27:41Z</time>
      </trkpt>
      <trkpt lat="45.64868" lon="6.19859">
        <ele>1228.2216796875</ele>
        <time>2012-01-21T15:27:46Z</time>
      </trkpt>
      <trkpt lat="45.64864" lon="6.19853">
        <ele>1229.1828613281</ele>
        <time>2012-01-21T15:27:54Z</time>
      </trkpt>
      <trkpt lat="45.64862" lon="6.19847">
        <ele>1226.7795410156</ele>
        <time>2012-01-21T15:28:00Z</time>
      </trkpt>
      <trkpt lat="45.64859" lon="6.1984">
        <ele>1224.8569335938</ele>
        <time>2012-01-21T15:28:09Z</time>
      </trkpt>
      <trkpt lat="45.64857" lon="6.19832">
        <ele>1223.4150390625</ele>
        <time>2012-01-21T15:28:15Z</time>
      </trkpt>
      <trkpt lat="45.64855" lon="6.19828">
        <ele>1223.4150390625</ele>
        <time>2012-01-21T15:28:20Z</time>
      </trkpt>
      <trkpt lat="45.64853" lon="6.19823">
        <ele>1223.4150390625</ele>
        <time>2012-01-21T15:28:25Z</time>
      </trkpt>
      <trkpt lat="45.6485" lon="6.19818">
        <ele>1222.9343261719</ele>
        <time>2012-01-21T15:28:30Z</time>
      </trkpt>
      <trkpt lat="45.64848" lon="6.19812">
        <ele>1222.4536132812</ele>
        <time>2012-01-21T15:28:36Z</time>
      </trkpt>
      <trkpt lat="45.64848" lon="6.1981">
        <ele>1223.8955078125</ele>
        <time>2012-01-21T15:28:43Z</time>
      </trkpt>
      <trkpt lat="45.64849" lon="6.19812">
        <ele>1215.2438964844</ele>
        <time>2012-01-21T15:29:06Z</time>
      </trkpt>
      <trkpt lat="45.64846" lon="6.19806">
        <ele>1217.1665039062</ele>
        <time>2012-01-21T15:29:15Z</time>
      </trkpt>
      <trkpt lat="45.64843" lon="6.198">
        <ele>1217.6469726562</ele>
        <time>2012-01-21T15:29:21Z</time>
      </trkpt>
      <trkpt lat="45.6484" lon="6.19794">
        <ele>1217.1665039062</ele>
        <time>2012-01-21T15:29:28Z</time>
      </trkpt>
      <trkpt lat="45.64838" lon="6.19789">
        <ele>1217.1665039062</ele>
        <time>2012-01-21T15:29:34Z</time>
      </trkpt>
      <trkpt lat="45.64837" lon="6.19784">
        <ele>1215.724609375</ele>
        <time>2012-01-21T15:29:40Z</time>
      </trkpt>
      <trkpt lat="45.64833" lon="6.19778">
        <ele>1215.2438964844</ele>
        <time>2012-01-21T15:29:48Z</time>
      </trkpt>
      <trkpt lat="45.64831" lon="6.19773">
        <ele>1214.7631835938</ele>
        <time>2012-01-21T15:29:54Z</time>
      </trkpt>
      <trkpt lat="45.64829" lon="6.19767">
        <ele>1214.7631835938</ele>
        <time>2012-01-21T15:29:59Z</time>
      </trkpt>
      <trkpt lat="45.64827" lon="6.19763">
        <ele>1213.8017578125</ele>
        <time>2012-01-21T15:30:04Z</time>
      </trkpt>
      <trkpt lat="45.64826" lon="6.19759">
        <ele>1214.2824707031</ele>
        <time>2012-01-21T15:30:10Z</time>
      </trkpt>
      <trkpt lat="45.64825" lon="6.19759">
        <ele>1214.2824707031</ele>
        <time>2012-01-21T15:30:17Z</time>
      </trkpt>
      <trkpt lat="45.64823" lon="6.19757">
        <ele>1215.724609375</ele>
        <time>2012-01-21T15:30:26Z</time>
      </trkpt>
      <trkpt lat="45.64822" lon="6.19753">
        <ele>1212.8405761719</ele>
        <time>2012-01-21T15:30:33Z</time>
      </trkpt>
      <trkpt lat="45.6482" lon="6.19752">
        <ele>1215.724609375</ele>
        <time>2012-01-21T15:30:39Z</time>
      </trkpt>
      <trkpt lat="45.64817" lon="6.19754">
        <ele>1220.5310058594</ele>
        <time>2012-01-21T15:30:51Z</time>
      </trkpt>
      <trkpt lat="45.64814" lon="6.19749">
        <ele>1221.01171875</ele>
        <time>2012-01-21T15:30:56Z</time>
      </trkpt>
      <trkpt lat="45.64814" lon="6.19749">
        <ele>1221.4921875</ele>
        <time>2012-01-21T15:31:00Z</time>
      </trkpt>
      <trkpt lat="45.64813" lon="6.19745">
        <ele>1220.0502929688</ele>
        <time>2012-01-21T15:31:05Z</time>
      </trkpt>
      <trkpt lat="45.64811" lon="6.1974">
        <ele>1220.5310058594</ele>
        <time>2012-01-21T15:31:11Z</time>
      </trkpt>
      <trkpt lat="45.6481" lon="6.19738">
        <ele>1219.5698242188</ele>
        <time>2012-01-21T15:31:15Z</time>
      </trkpt>
      <trkpt lat="45.64806" lon="6.19733">
        <ele>1218.6083984375</ele>
        <time>2012-01-21T15:31:21Z</time>
      </trkpt>
      <trkpt lat="45.64803" lon="6.19727">
        <ele>1218.1276855469</ele>
        <time>2012-01-21T15:31:27Z</time>
      </trkpt>
      <trkpt lat="45.64801" lon="6.19724">
        <ele>1216.205078125</ele>
        <time>2012-01-21T15:31:32Z</time>
      </trkpt>
      <trkpt lat="45.64796" lon="6.19718">
        <ele>1214.2824707031</ele>
        <time>2012-01-21T15:31:39Z</time>
      </trkpt>
      <trkpt lat="45.64792" lon="6.19714">
        <ele>1211.8791503906</ele>
        <time>2012-01-21T15:31:46Z</time>
      </trkpt>
      <trkpt lat="45.64791" lon="6.19714">
        <ele>1212.8405761719</ele>
        <time>2012-01-21T15:31:54Z</time>
      </trkpt>
      <trkpt lat="45.64791" lon="6.19714">
        <ele>1213.3212890625</ele>
        <time>2012-01-21T15:31:59Z</time>
      </trkpt>
      <trkpt lat="45.64791" lon="6.19713">
        <ele>1211.3984375</ele>
        <time>2012-01-21T15:32:09Z</time>
      </trkpt>
      <trkpt lat="45.6479" lon="6.19712">
        <ele>1210.9177246094</ele>
        <time>2012-01-21T15:32:10Z</time>
      </trkpt>
      <trkpt lat="45.6478" lon="6.197">
        <ele>1207.5532226562</ele>
        <time>2012-01-21T15:32:17Z</time>
      </trkpt>
      <trkpt lat="45.64771" lon="6.19683">
        <ele>1204.1887207031</ele>
        <time>2012-01-21T15:32:24Z</time>
      </trkpt>
      <trkpt lat="45.64767" lon="6.19676">
        <ele>1202.2658691406</ele>
        <time>2012-01-21T15:32:28Z</time>
      </trkpt>
      <trkpt lat="45.64762" lon="6.19666">
        <ele>1199.8627929688</ele>
        <time>2012-01-21T15:32:31Z</time>
      </trkpt>
      <trkpt lat="45.64756" lon="6.19641">
        <ele>1196.017578125</ele>
        <time>2012-01-21T15:32:36Z</time>
      </trkpt>
      <trkpt lat="45.64754" lon="6.19614">
        <ele>1191.2106933594</ele>
        <time>2012-01-21T15:32:42Z</time>
      </trkpt>
      <trkpt lat="45.64751" lon="6.19585">
        <ele>1184.9624023438</ele>
        <time>2012-01-21T15:32:49Z</time>
      </trkpt>
      <trkpt lat="45.64749" lon="6.19573">
        <ele>1181.1171875</ele>
        <time>2012-01-21T15:32:54Z</time>
      </trkpt>
      <trkpt lat="45.64746" lon="6.19563">
        <ele>1179.6748046875</ele>
        <time>2012-01-21T15:32:59Z</time>
      </trkpt>
      <trkpt lat="45.64745" lon="6.19558">
        <ele>1180.1557617188</ele>
        <time>2012-01-21T15:33:02Z</time>
      </trkpt>
      <trkpt lat="45.64743" lon="6.19549">
        <ele>1180.1557617188</ele>
        <time>2012-01-21T15:33:07Z</time>
      </trkpt>
      <trkpt lat="45.64738" lon="6.19529">
        <ele>1177.2717285156</ele>
        <time>2012-01-21T15:33:13Z</time>
      </trkpt>
      <trkpt lat="45.64733" lon="6.19514">
        <ele>1174.8684082031</ele>
        <time>2012-01-21T15:33:17Z</time>
      </trkpt>
      <trkpt lat="45.64726" lon="6.19492">
        <ele>1170.5424804688</ele>
        <time>2012-01-21T15:33:22Z</time>
      </trkpt>
      <trkpt lat="45.64721" lon="6.19476">
        <ele>1167.6584472656</ele>
        <time>2012-01-21T15:33:26Z</time>
      </trkpt>
      <trkpt lat="45.64713" lon="6.19464">
        <ele>1162.8518066406</ele>
        <time>2012-01-21T15:33:31Z</time>
      </trkpt>
      <trkpt lat="45.64705" lon="6.19455">
        <ele>1160.4484863281</ele>
        <time>2012-01-21T15:33:34Z</time>
      </trkpt>
      <trkpt lat="45.64702" lon="6.19452">
        <ele>1159.9677734375</ele>
        <time>2012-01-21T15:33:35Z</time>
      </trkpt>
      <trkpt lat="45.64692" lon="6.19433">
        <ele>1155.6420898438</ele>
        <time>2012-01-21T15:33:40Z</time>
      </trkpt>
      <trkpt lat="45.64687" lon="6.19412">
        <ele>1151.3161621094</ele>
        <time>2012-01-21T15:33:44Z</time>
      </trkpt>
      <trkpt lat="45.64684" lon="6.19393">
        <ele>1147.9514160156</ele>
        <time>2012-01-21T15:33:48Z</time>
      </trkpt>
      <trkpt lat="45.64678" lon="6.1938">
        <ele>1144.5866699219</ele>
        <time>2012-01-21T15:33:53Z</time>
      </trkpt>
      <trkpt lat="45.64677" lon="6.19378">
        <ele>1144.5866699219</ele>
        <time>2012-01-21T15:33:54Z</time>
      </trkpt>
      <trkpt lat="45.6467" lon="6.19367">
        <ele>1144.1062011719</ele>
        <time>2012-01-21T15:34:00Z</time>
      </trkpt>
      <trkpt lat="45.64668" lon="6.19364">
        <ele>1144.5866699219</ele>
        <time>2012-01-21T15:34:05Z</time>
      </trkpt>
      <trkpt lat="45.64668" lon="6.19364">
        <ele>1144.5866699219</ele>
        <time>2012-01-21T15:34:09Z</time>
      </trkpt>
      <trkpt lat="45.64669" lon="6.19363">
        <ele>1144.5866699219</ele>
        <time>2012-01-21T15:34:14Z</time>
      </trkpt>
      <trkpt lat="45.64669" lon="6.19364">
        <ele>1144.5866699219</ele>
        <time>2012-01-21T15:34:19Z</time>
      </trkpt>
      <trkpt lat="45.64667" lon="6.19362">
        <ele>1144.1062011719</ele>
        <time>2012-01-21T15:34:23Z</time>
      </trkpt>
      <trkpt lat="45.64656" lon="6.1935">
        <ele>1141.7028808594</ele>
        <time>2012-01-21T15:34:29Z</time>
      </trkpt>
      <trkpt lat="45.6465" lon="6.19338">
        <ele>1140.7414550781</ele>
        <time>2012-01-21T15:34:34Z</time>
      </trkpt>
      <trkpt lat="45.6465" lon="6.19323">
        <ele>1140.2609863281</ele>
        <time>2012-01-21T15:34:40Z</time>
      </trkpt>
      <trkpt lat="45.6465" lon="6.1932">
        <ele>1140.2609863281</ele>
        <time>2012-01-21T15:34:44Z</time>
      </trkpt>
      <trkpt lat="45.64653" lon="6.19315">
        <ele>1138.3383789062</ele>
        <time>2012-01-21T15:34:49Z</time>
      </trkpt>
      <trkpt lat="45.64656" lon="6.19311">
        <ele>1136.4157714844</ele>
        <time>2012-01-21T15:34:54Z</time>
      </trkpt>
      <trkpt lat="45.64658" lon="6.19307">
        <ele>1134.4931640625</ele>
        <time>2012-01-21T15:34:57Z</time>
      </trkpt>
      <trkpt lat="45.64666" lon="6.19302">
        <ele>1129.6862792969</ele>
        <time>2012-01-21T15:35:03Z</time>
      </trkpt>
      <trkpt lat="45.64676" lon="6.19292">
        <ele>1125.3603515625</ele>
        <time>2012-01-21T15:35:08Z</time>
      </trkpt>
      <trkpt lat="45.64694" lon="6.19282">
        <ele>1121.0346679688</ele>
        <time>2012-01-21T15:35:13Z</time>
      </trkpt>
      <trkpt lat="45.64704" lon="6.19277">
        <ele>1118.6313476562</ele>
        <time>2012-01-21T15:35:17Z</time>
      </trkpt>
      <trkpt lat="45.64714" lon="6.19276">
        <ele>1117.669921875</ele>
        <time>2012-01-21T15:35:22Z</time>
      </trkpt>
      <trkpt lat="45.64728" lon="6.19276">
        <ele>1115.2666015625</ele>
        <time>2012-01-21T15:35:28Z</time>
      </trkpt>
      <trkpt lat="45.64743" lon="6.19275">
        <ele>1112.86328125</ele>
        <time>2012-01-21T15:35:34Z</time>
      </trkpt>
      <trkpt lat="45.64756" lon="6.19276">
        <ele>1110.9406738281</ele>
        <time>2012-01-21T15:35:40Z</time>
      </trkpt>
      <trkpt lat="45.64768" lon="6.19283">
        <ele>1106.6147460938</ele>
        <time>2012-01-21T15:35:46Z</time>
      </trkpt>
      <trkpt lat="45.64772" lon="6.19286">
        <ele>1105.6535644531</ele>
        <time>2012-01-21T15:35:48Z</time>
      </trkpt>
      <trkpt lat="45.6478" lon="6.19291">
        <ele>1106.1340332031</ele>
        <time>2012-01-21T15:35:54Z</time>
      </trkpt>
      <trkpt lat="45.64781" lon="6.19291">
        <ele>1106.6147460938</ele>
        <time>2012-01-21T15:35:55Z</time>
      </trkpt>
      <trkpt lat="45.64785" lon="6.1929">
        <ele>1111.4213867188</ele>
        <time>2012-01-21T15:36:03Z</time>
      </trkpt>
      <trkpt lat="45.64786" lon="6.19291">
        <ele>1114.3051757812</ele>
        <time>2012-01-21T15:36:14Z</time>
      </trkpt>
      <trkpt lat="45.6479" lon="6.19296">
        <ele>1114.3051757812</ele>
        <time>2012-01-21T15:36:20Z</time>
      </trkpt>
      <trkpt lat="45.64808" lon="6.19312">
        <ele>1108.5373535156</ele>
        <time>2012-01-21T15:36:26Z</time>
      </trkpt>
      <trkpt lat="45.64828" lon="6.19319">
        <ele>1107.576171875</ele>
        <time>2012-01-21T15:36:31Z</time>
      </trkpt>
      <trkpt lat="45.64837" lon="6.19321">
        <ele>1105.1728515625</ele>
        <time>2012-01-21T15:36:33Z</time>
      </trkpt>
      <trkpt lat="45.64851" lon="6.19319">
        <ele>1099.8854980469</ele>
        <time>2012-01-21T15:36:38Z</time>
      </trkpt>
      <trkpt lat="45.64865" lon="6.19316">
        <ele>1095.0788574219</ele>
        <time>2012-01-21T15:36:42Z</time>
      </trkpt>
      <trkpt lat="45.64891" lon="6.19309">
        <ele>1084.5046386719</ele>
        <time>2012-01-21T15:36:49Z</time>
      </trkpt>
      <trkpt lat="45.64908" lon="6.19302">
        <ele>1077.2946777344</ele>
        <time>2012-01-21T15:36:54Z</time>
      </trkpt>
      <trkpt lat="45.64922" lon="6.19292">
        <ele>1072.4880371094</ele>
        <time>2012-01-21T15:36:58Z</time>
      </trkpt>
      <trkpt lat="45.64939" lon="6.19281">
        <ele>1065.7587890625</ele>
        <time>2012-01-21T15:37:03Z</time>
      </trkpt>
      <trkpt lat="45.64955" lon="6.19264">
        <ele>1058.068359375</ele>
        <time>2012-01-21T15:37:09Z</time>
      </trkpt>
      <trkpt lat="45.64965" lon="6.19249">
        <ele>1051.8195800781</ele>
        <time>2012-01-21T15:37:14Z</time>
      </trkpt>
      <trkpt lat="45.64975" lon="6.19229">
        <ele>1044.1291503906</ele>
        <time>2012-01-21T15:37:20Z</time>
      </trkpt>
      <trkpt lat="45.64978" lon="6.19217">
        <ele>1041.2451171875</ele>
        <time>2012-01-21T15:37:24Z</time>
      </trkpt>
      <trkpt lat="45.64978" lon="6.1921">
        <ele>1055.1843261719</ele>
        <time>2012-01-21T15:37:41Z</time>
      </trkpt>
      <trkpt lat="45.64978" lon="6.19209">
        <ele>1057.5876464844</ele>
        <time>2012-01-21T15:37:48Z</time>
      </trkpt>
      <trkpt lat="45.64979" lon="6.19212">
        <ele>1053.26171875</ele>
        <time>2012-01-21T15:37:55Z</time>
      </trkpt>
      <trkpt lat="45.6498" lon="6.19207">
        <ele>1055.6650390625</ele>
        <time>2012-01-21T15:38:08Z</time>
      </trkpt>
      <trkpt lat="45.6498" lon="6.19205">
        <ele>1059.0295410156</ele>
        <time>2012-01-21T15:38:19Z</time>
      </trkpt>
      <trkpt lat="45.6498" lon="6.19204">
        <ele>1057.5876464844</ele>
        <time>2012-01-21T15:38:20Z</time>
      </trkpt>
      <trkpt lat="45.64985" lon="6.19191">
        <ele>1052.7810058594</ele>
        <time>2012-01-21T15:38:24Z</time>
      </trkpt>
      <trkpt lat="45.64994" lon="6.19184">
        <ele>1048.4548339844</ele>
        <time>2012-01-21T15:38:29Z</time>
      </trkpt>
      <trkpt lat="45.64998" lon="6.19182">
        <ele>1046.5324707031</ele>
        <time>2012-01-21T15:38:31Z</time>
      </trkpt>
      <trkpt lat="45.65015" lon="6.1917">
        <ele>1040.2839355469</ele>
        <time>2012-01-21T15:38:39Z</time>
      </trkpt>
      <trkpt lat="45.65024" lon="6.19155">
        <ele>1034.5158691406</ele>
        <time>2012-01-21T15:38:43Z</time>
      </trkpt>
      <trkpt lat="45.65026" lon="6.19148">
        <ele>1030.6706542969</ele>
        <time>2012-01-21T15:38:46Z</time>
      </trkpt>
      <trkpt lat="45.65034" lon="6.19138">
        <ele>1029.7092285156</ele>
        <time>2012-01-21T15:38:50Z</time>
      </trkpt>
      <trkpt lat="45.65053" lon="6.19125">
        <ele>1023.94140625</ele>
        <time>2012-01-21T15:38:56Z</time>
      </trkpt>
      <trkpt lat="45.65064" lon="6.19117">
        <ele>1019.6154785156</ele>
        <time>2012-01-21T15:39:01Z</time>
      </trkpt>
      <trkpt lat="45.65067" lon="6.19119">
        <ele>1014.328125</ele>
        <time>2012-01-21T15:39:11Z</time>
      </trkpt>
      <trkpt lat="45.6507" lon="6.19116">
        <ele>1011.9250488281</ele>
        <time>2012-01-21T15:39:18Z</time>
      </trkpt>
      <trkpt lat="45.6507" lon="6.19115">
        <ele>1018.1733398438</ele>
        <time>2012-01-21T15:39:23Z</time>
      </trkpt>
      <trkpt lat="45.65072" lon="6.19115">
        <ele>1024.4221191406</ele>
        <time>2012-01-21T15:39:33Z</time>
      </trkpt>
      <trkpt lat="45.65071" lon="6.19114">
        <ele>1029.7092285156</ele>
        <time>2012-01-21T15:39:42Z</time>
      </trkpt>
      <trkpt lat="45.6507" lon="6.19112">
        <ele>1028.748046875</ele>
        <time>2012-01-21T15:39:50Z</time>
      </trkpt>
      <trkpt lat="45.6507" lon="6.19113">
        <ele>1029.228515625</ele>
        <time>2012-01-21T15:39:55Z</time>
      </trkpt>
      <trkpt lat="45.65068" lon="6.19115">
        <ele>1044.1291503906</ele>
        <time>2012-01-21T15:40:04Z</time>
      </trkpt>
      <trkpt lat="45.6507" lon="6.19111">
        <ele>1034.5158691406</ele>
        <time>2012-01-21T15:40:12Z</time>
      </trkpt>
      <trkpt lat="45.65072" lon="6.1911">
        <ele>1033.0737304688</ele>
        <time>2012-01-21T15:40:14Z</time>
      </trkpt>
      <trkpt lat="45.65085" lon="6.19088">
        <ele>1024.4221191406</ele>
        <time>2012-01-21T15:40:20Z</time>
      </trkpt>
      <trkpt lat="45.65092" lon="6.1907">
        <ele>1016.2507324219</ele>
        <time>2012-01-21T15:40:25Z</time>
      </trkpt>
      <trkpt lat="45.65104" lon="6.19057">
        <ele>1010.0021972656</ele>
        <time>2012-01-21T15:40:31Z</time>
      </trkpt>
      <trkpt lat="45.65123" lon="6.19035">
        <ele>1003.7536621094</ele>
        <time>2012-01-21T15:40:38Z</time>
      </trkpt>
      <trkpt lat="45.65136" lon="6.19018">
        <ele>997.98583984375</ele>
        <time>2012-01-21T15:40:43Z</time>
      </trkpt>
      <trkpt lat="45.65146" lon="6.19005">
        <ele>993.65991210938</ele>
        <time>2012-01-21T15:40:47Z</time>
      </trkpt>
      <trkpt lat="45.65154" lon="6.18993">
        <ele>988.853515625</ele>
        <time>2012-01-21T15:40:52Z</time>
      </trkpt>
      <trkpt lat="45.6516" lon="6.1898">
        <ele>986.93041992188</ele>
        <time>2012-01-21T15:40:57Z</time>
      </trkpt>
      <trkpt lat="45.6516" lon="6.18978">
        <ele>986.44995117188</ele>
        <time>2012-01-21T15:40:58Z</time>
      </trkpt>
      <trkpt lat="45.65152" lon="6.18966">
        <ele>986.44995117188</ele>
        <time>2012-01-21T15:41:04Z</time>
      </trkpt>
      <trkpt lat="45.65144" lon="6.18965">
        <ele>985.48852539062</ele>
        <time>2012-01-21T15:41:06Z</time>
      </trkpt>
      <trkpt lat="45.65125" lon="6.18959">
        <ele>983.56591796875</ele>
        <time>2012-01-21T15:41:12Z</time>
      </trkpt>
      <trkpt lat="45.65119" lon="6.18955">
        <ele>982.1240234375</ele>
        <time>2012-01-21T15:41:16Z</time>
      </trkpt>
      <trkpt lat="45.65117" lon="6.18952">
        <ele>981.16284179688</ele>
        <time>2012-01-21T15:41:20Z</time>
      </trkpt>
      <trkpt lat="45.65114" lon="6.18949">
        <ele>979.720703125</ele>
        <time>2012-01-21T15:41:22Z</time>
      </trkpt>
      <trkpt lat="45.65113" lon="6.18926">
        <ele>974.43359375</ele>
        <time>2012-01-21T15:41:27Z</time>
      </trkpt>
      <trkpt lat="45.65113" lon="6.18922">
        <ele>973.47241210938</ele>
        <time>2012-01-21T15:41:28Z</time>
      </trkpt>
      <trkpt lat="45.65121" lon="6.18902">
        <ele>969.626953125</ele>
        <time>2012-01-21T15:41:32Z</time>
      </trkpt>
      <trkpt lat="45.65134" lon="6.18883">
        <ele>965.78173828125</ele>
        <time>2012-01-21T15:41:36Z</time>
      </trkpt>
      <trkpt lat="45.65148" lon="6.1886">
        <ele>961.45581054688</ele>
        <time>2012-01-21T15:41:41Z</time>
      </trkpt>
      <trkpt lat="45.65149" lon="6.1885">
        <ele>960.013671875</ele>
        <time>2012-01-21T15:41:43Z</time>
      </trkpt>
      <trkpt lat="45.65149" lon="6.18843">
        <ele>959.05249023438</ele>
        <time>2012-01-21T15:41:47Z</time>
      </trkpt>
      <trkpt lat="45.65148" lon="6.18842">
        <ele>960.49438476562</ele>
        <time>2012-01-21T15:41:53Z</time>
      </trkpt>
      <trkpt lat="45.65148" lon="6.18842">
        <ele>962.89770507812</ele>
        <time>2012-01-21T15:41:57Z</time>
      </trkpt>
      <trkpt lat="45.65148" lon="6.18843">
        <ele>962.4169921875</ele>
        <time>2012-01-21T15:42:05Z</time>
      </trkpt>
      <trkpt lat="45.65147" lon="6.18842">
        <ele>963.37841796875</ele>
        <time>2012-01-21T15:42:11Z</time>
      </trkpt>
      <trkpt lat="45.65147" lon="6.18842">
        <ele>963.37841796875</ele>
        <time>2012-01-21T15:42:16Z</time>
      </trkpt>
      <trkpt lat="45.65147" lon="6.18838">
        <ele>962.89770507812</ele>
        <time>2012-01-21T15:42:19Z</time>
      </trkpt>
      <trkpt lat="45.65146" lon="6.18816">
        <ele>959.533203125</ele>
        <time>2012-01-21T15:42:24Z</time>
      </trkpt>
      <trkpt lat="45.65147" lon="6.1881">
        <ele>959.05249023438</ele>
        <time>2012-01-21T15:42:25Z</time>
      </trkpt>
      <trkpt lat="45.6516" lon="6.18786">
        <ele>953.28442382812</ele>
        <time>2012-01-21T15:42:31Z</time>
      </trkpt>
      <trkpt lat="45.65171" lon="6.18754">
        <ele>947.99731445312</ele>
        <time>2012-01-21T15:42:38Z</time>
      </trkpt>
      <trkpt lat="45.65178" lon="6.18734">
        <ele>944.63256835938</ele>
        <time>2012-01-21T15:42:43Z</time>
      </trkpt>
      <trkpt lat="45.65192" lon="6.18713">
        <ele>939.34521484375</ele>
        <time>2012-01-21T15:42:48Z</time>
      </trkpt>
      <trkpt lat="45.65202" lon="6.18695">
        <ele>934.05810546875</ele>
        <time>2012-01-21T15:42:53Z</time>
      </trkpt>
      <trkpt lat="45.65215" lon="6.18673">
        <ele>930.212890625</ele>
        <time>2012-01-21T15:42:59Z</time>
      </trkpt>
      <trkpt lat="45.6522" lon="6.18656">
        <ele>929.73217773438</ele>
        <time>2012-01-21T15:43:04Z</time>
      </trkpt>
      <trkpt lat="45.65225" lon="6.1863">
        <ele>926.84838867188</ele>
        <time>2012-01-21T15:43:11Z</time>
      </trkpt>
      <trkpt lat="45.65226" lon="6.18609">
        <ele>923.0029296875</ele>
        <time>2012-01-21T15:43:17Z</time>
      </trkpt>
      <trkpt lat="45.65225" lon="6.18592">
        <ele>920.599609375</ele>
        <time>2012-01-21T15:43:21Z</time>
      </trkpt>
      <trkpt lat="45.65227" lon="6.18577">
        <ele>919.15771484375</ele>
        <time>2012-01-21T15:43:25Z</time>
      </trkpt>
      <trkpt lat="45.65228" lon="6.18564">
        <ele>918.67700195312</ele>
        <time>2012-01-21T15:43:29Z</time>
      </trkpt>
      <trkpt lat="45.65229" lon="6.18562">
        <ele>918.67700195312</ele>
        <time>2012-01-21T15:43:30Z</time>
      </trkpt>
      <trkpt lat="45.65231" lon="6.1856">
        <ele>918.1962890625</ele>
        <time>2012-01-21T15:43:36Z</time>
      </trkpt>
      <trkpt lat="45.6523" lon="6.18561">
        <ele>917.23510742188</ele>
        <time>2012-01-21T15:43:42Z</time>
      </trkpt>
      <trkpt lat="45.65231" lon="6.1856">
        <ele>918.67700195312</ele>
        <time>2012-01-21T15:43:47Z</time>
      </trkpt>
      <trkpt lat="45.65231" lon="6.1856">
        <ele>919.15771484375</ele>
        <time>2012-01-21T15:43:54Z</time>
      </trkpt>
      <trkpt lat="45.65232" lon="6.1856">
        <ele>920.11889648438</ele>
        <time>2012-01-21T15:44:00Z</time>
      </trkpt>
      <trkpt lat="45.65232" lon="6.18559">
        <ele>921.08032226562</ele>
        <time>2012-01-21T15:44:07Z</time>
      </trkpt>
      <trkpt lat="45.65236" lon="6.18552">
        <ele>921.08032226562</ele>
        <time>2012-01-21T15:44:14Z</time>
      </trkpt>
      <trkpt lat="45.6524" lon="6.18546">
        <ele>921.08032226562</ele>
        <time>2012-01-21T15:44:20Z</time>
      </trkpt>
      <trkpt lat="45.65242" lon="6.18538">
        <ele>921.08032226562</ele>
        <time>2012-01-21T15:44:28Z</time>
      </trkpt>
      <trkpt lat="45.65242" lon="6.18534">
        <ele>920.599609375</ele>
        <time>2012-01-21T15:44:35Z</time>
      </trkpt>
      <trkpt lat="45.65244" lon="6.18524">
        <ele>919.15771484375</ele>
        <time>2012-01-21T15:44:42Z</time>
      </trkpt>
      <trkpt lat="45.65246" lon="6.18518">
        <ele>917.23510742188</ele>
        <time>2012-01-21T15:44:48Z</time>
      </trkpt>
      <trkpt lat="45.65248" lon="6.18511">
        <ele>916.75439453125</ele>
        <time>2012-01-21T15:44:54Z</time>
      </trkpt>
      <trkpt lat="45.65249" lon="6.18506">
        <ele>915.79321289062</ele>
        <time>2012-01-21T15:45:00Z</time>
      </trkpt>
      <trkpt lat="45.65249" lon="6.18506">
        <ele>915.79321289062</ele>
        <time>2012-01-21T15:45:07Z</time>
      </trkpt>
      <trkpt lat="45.6525" lon="6.18505">
        <ele>916.27368164062</ele>
        <time>2012-01-21T15:45:12Z</time>
      </trkpt>
      <trkpt lat="45.65253" lon="6.18503">
        <ele>916.27368164062</ele>
        <time>2012-01-21T15:45:18Z</time>
      </trkpt>
      <trkpt lat="45.65253" lon="6.18504">
        <ele>915.3125</ele>
        <time>2012-01-21T15:45:23Z</time>
      </trkpt>
      <trkpt lat="45.65254" lon="6.18504">
        <ele>915.79321289062</ele>
        <time>2012-01-21T15:45:29Z</time>
      </trkpt>
    </trkseg>
  </trk>
</gpx>